<?xml version="1.0" encoding="UTF-8"?><gpx version="1.0" creator="dbj" xmlns="http://www.topografix.com/GPX/1/0"><time>2020-01-19T08:04:15Z</time><bounds minlat="43.68145304" minlon="10.919262" maxlat="43.71374901" maxlon="10.94651098"/><wpt lat="43.713451959" lon="10.942926966"><name>Start Lat:43.7135, Lon:10.9429</name><sym>Start</sym><ele>24</ele></wpt><trk><trkseg><trkpt lat="43.713451959" lon="10.942926966"><ele>24</ele><time>2020-01-19T08:04:15Z</time></trkpt>
<trkpt lat="43.713460006" lon="10.942881033"><ele>24</ele><time>2020-01-19T08:04:16Z</time></trkpt>
<trkpt lat="43.713466963" lon="10.94283401"><ele>24</ele><time>2020-01-19T08:04:17Z</time></trkpt>
<trkpt lat="43.713474004" lon="10.942785982"><ele>24</ele><time>2020-01-19T08:04:18Z</time></trkpt>
<trkpt lat="43.713480039" lon="10.942738038"><ele>24</ele><time>2020-01-19T08:04:19Z</time></trkpt>
<trkpt lat="43.71348599" lon="10.942687998"><ele>24</ele><time>2020-01-19T08:04:20Z</time></trkpt>
<trkpt lat="43.713492025" lon="10.942638041"><ele>24</ele><time>2020-01-19T08:04:21Z</time></trkpt>
<trkpt lat="43.71349697" lon="10.942588001"><ele>24</ele><time>2020-01-19T08:04:22Z</time></trkpt>
<trkpt lat="43.713501999" lon="10.94253704"><ele>24</ele><time>2020-01-19T08:04:23Z</time></trkpt>
<trkpt lat="43.713507028" lon="10.942484988"><ele>24</ele><time>2020-01-19T08:04:24Z</time></trkpt>
<trkpt lat="43.713511974" lon="10.94243302"><ele>24</ele><time>2020-01-19T08:04:25Z</time></trkpt>
<trkpt lat="43.713517003" lon="10.942380968"><ele>24</ele><time>2020-01-19T08:04:26Z</time></trkpt>
<trkpt lat="43.713522032" lon="10.942329001"><ele>24</ele><time>2020-01-19T08:04:27Z</time></trkpt>
<trkpt lat="43.713526977" lon="10.942276027"><ele>23</ele><time>2020-01-19T08:04:28Z</time></trkpt>
<trkpt lat="43.713532006" lon="10.942223975"><ele>23</ele><time>2020-01-19T08:04:29Z</time></trkpt>
<trkpt lat="43.713538041" lon="10.942172008"><ele>23</ele><time>2020-01-19T08:04:30Z</time></trkpt>
<trkpt lat="43.713543992" lon="10.942119034"><ele>23</ele><time>2020-01-19T08:04:31Z</time></trkpt>
<trkpt lat="43.713550027" lon="10.942066982"><ele>23</ele><time>2020-01-19T08:04:32Z</time></trkpt>
<trkpt lat="43.713556984" lon="10.94201602"><ele>23</ele><time>2020-01-19T08:04:33Z</time></trkpt>
<trkpt lat="43.713564025" lon="10.941963969"><ele>23</ele><time>2020-01-19T08:04:34Z</time></trkpt>
<trkpt lat="43.713569976" lon="10.941913007"><ele>23</ele><time>2020-01-19T08:04:35Z</time></trkpt>
<trkpt lat="43.713577017" lon="10.941861961"><ele>23</ele><time>2020-01-19T08:04:36Z</time></trkpt>
<trkpt lat="43.713583974" lon="10.941810999"><ele>23</ele><time>2020-01-19T08:04:37Z</time></trkpt>
<trkpt lat="43.713591015" lon="10.941760037"><ele>23</ele><time>2020-01-19T08:04:38Z</time></trkpt>
<trkpt lat="43.713597972" lon="10.941709997"><ele>23</ele><time>2020-01-19T08:04:39Z</time></trkpt>
<trkpt lat="43.713605013" lon="10.941659035"><ele>23</ele><time>2020-01-19T08:04:40Z</time></trkpt>
<trkpt lat="43.713610964" lon="10.941608995"><ele>23</ele><time>2020-01-19T08:04:41Z</time></trkpt>
<trkpt lat="43.713616999" lon="10.941559039"><ele>23</ele><time>2020-01-19T08:04:42Z</time></trkpt>
<trkpt lat="43.713622028" lon="10.941510005"><ele>23</ele><time>2020-01-19T08:04:43Z</time></trkpt>
<trkpt lat="43.713626973" lon="10.941459965"><ele>23</ele><time>2020-01-19T08:04:44Z</time></trkpt>
<trkpt lat="43.713630997" lon="10.941411015"><ele>24</ele><time>2020-01-19T08:04:45Z</time></trkpt>
<trkpt lat="43.71363502" lon="10.941361981"><ele>24</ele><time>2020-01-19T08:04:46Z</time></trkpt>
<trkpt lat="43.713638037" lon="10.94131303"><ele>24</ele><time>2020-01-19T08:04:47Z</time></trkpt>
<trkpt lat="43.713639965" lon="10.941263996"><ele>24</ele><time>2020-01-19T08:04:48Z</time></trkpt>
<trkpt lat="43.713640971" lon="10.941214962"><ele>24</ele><time>2020-01-19T08:04:49Z</time></trkpt>
<trkpt lat="43.713641977" lon="10.941167017"><ele>24</ele><time>2020-01-19T08:04:50Z</time></trkpt>
<trkpt lat="43.713642983" lon="10.941117983"><ele>24</ele><time>2020-01-19T08:04:51Z</time></trkpt>
<trkpt lat="43.713642983" lon="10.941070039"><ele>24</ele><time>2020-01-19T08:04:52Z</time></trkpt>
<trkpt lat="43.713643989" lon="10.941021005"><ele>24</ele><time>2020-01-19T08:04:53Z</time></trkpt>
<trkpt lat="43.713644994" lon="10.940972976"><ele>24</ele><time>2020-01-19T08:04:54Z</time></trkpt>
<trkpt lat="43.713646" lon="10.940924026"><ele>24</ele><time>2020-01-19T08:04:55Z</time></trkpt>
<trkpt lat="43.713648012" lon="10.940875998"><ele>24</ele><time>2020-01-19T08:04:56Z</time></trkpt>
<trkpt lat="43.713649018" lon="10.940827969"><ele>24</ele><time>2020-01-19T08:04:57Z</time></trkpt>
<trkpt lat="43.713650024" lon="10.940782959"><ele>25</ele><time>2020-01-19T08:04:58Z</time></trkpt>
<trkpt lat="43.713648012" lon="10.940740965"><ele>25</ele><time>2020-01-19T08:04:59Z</time></trkpt>
<trkpt lat="43.713643989" lon="10.940702995"><ele>25</ele><time>2020-01-19T08:05:00Z</time></trkpt>
<trkpt lat="43.713636026" lon="10.940668965"><ele>25</ele><time>2020-01-19T08:05:01Z</time></trkpt>
<trkpt lat="43.71362404" lon="10.940638036"><ele>25</ele><time>2020-01-19T08:05:02Z</time></trkpt>
<trkpt lat="43.71360803" lon="10.940608028"><ele>25</ele><time>2020-01-19T08:05:03Z</time></trkpt>
<trkpt lat="43.713586992" lon="10.940580033"><ele>25</ele><time>2020-01-19T08:05:04Z</time></trkpt>
<trkpt lat="43.713563019" lon="10.940552037"><ele>25</ele><time>2020-01-19T08:05:05Z</time></trkpt>
<trkpt lat="43.713535024" lon="10.940524964"><ele>25</ele><time>2020-01-19T08:05:06Z</time></trkpt>
<trkpt lat="43.713437961" lon="10.940447012"><ele>25</ele><time>2020-01-19T08:05:09Z</time></trkpt>
<trkpt lat="43.713404015" lon="10.940421028"><ele>25</ele><time>2020-01-19T08:05:10Z</time></trkpt>
<trkpt lat="43.713369984" lon="10.94039496"><ele>25</ele><time>2020-01-19T08:05:11Z</time></trkpt>
<trkpt lat="43.713336959" lon="10.940368976"><ele>25</ele><time>2020-01-19T08:05:12Z</time></trkpt>
<trkpt lat="43.713304019" lon="10.940342993"><ele>25</ele><time>2020-01-19T08:05:13Z</time></trkpt>
<trkpt lat="43.713270994" lon="10.940317009"><ele>25</ele><time>2020-01-19T08:05:14Z</time></trkpt>
<trkpt lat="43.713238975" lon="10.940291025"><ele>25</ele><time>2020-01-19T08:05:15Z</time></trkpt>
<trkpt lat="43.713207962" lon="10.940265963"><ele>26</ele><time>2020-01-19T08:05:16Z</time></trkpt>
<trkpt lat="43.713176027" lon="10.940239979"><ele>26</ele><time>2020-01-19T08:05:17Z</time></trkpt>
<trkpt lat="43.713145014" lon="10.940215001"><ele>26</ele><time>2020-01-19T08:05:18Z</time></trkpt>
<trkpt lat="43.713114001" lon="10.940190023"><ele>26</ele><time>2020-01-19T08:05:19Z</time></trkpt>
<trkpt lat="43.713081982" lon="10.940165967"><ele>26</ele><time>2020-01-19T08:05:20Z</time></trkpt>
<trkpt lat="43.713050969" lon="10.940141995"><ele>26</ele><time>2020-01-19T08:05:21Z</time></trkpt>
<trkpt lat="43.713019034" lon="10.940118022"><ele>26</ele><time>2020-01-19T08:05:22Z</time></trkpt>
<trkpt lat="43.712988021" lon="10.940094972"><ele>26</ele><time>2020-01-19T08:05:23Z</time></trkpt>
<trkpt lat="43.712957008" lon="10.940071"><ele>26</ele><time>2020-01-19T08:05:24Z</time></trkpt>
<trkpt lat="43.712924989" lon="10.940048033"><ele>26</ele><time>2020-01-19T08:05:25Z</time></trkpt>
<trkpt lat="43.712894982" lon="10.940024983"><ele>27</ele><time>2020-01-19T08:05:26Z</time></trkpt>
<trkpt lat="43.712863969" lon="10.940001011"><ele>27</ele><time>2020-01-19T08:05:27Z</time></trkpt>
<trkpt lat="43.712833039" lon="10.939977961"><ele>27</ele><time>2020-01-19T08:05:28Z</time></trkpt>
<trkpt lat="43.712803032" lon="10.939953988"><ele>27</ele><time>2020-01-19T08:05:29Z</time></trkpt>
<trkpt lat="43.712715022" lon="10.939880982"><ele>27</ele><time>2020-01-19T08:05:32Z</time></trkpt>
<trkpt lat="43.712686021" lon="10.93985701"><ele>27</ele><time>2020-01-19T08:05:33Z</time></trkpt>
<trkpt lat="43.712658025" lon="10.939831026"><ele>27</ele><time>2020-01-19T08:05:34Z</time></trkpt>
<trkpt lat="43.71263003" lon="10.939804958"><ele>27</ele><time>2020-01-19T08:05:35Z</time></trkpt>
<trkpt lat="43.71260304" lon="10.939778974"><ele>27</ele><time>2020-01-19T08:05:36Z</time></trkpt>
<trkpt lat="43.712575966" lon="10.939751985"><ele>27</ele><time>2020-01-19T08:05:37Z</time></trkpt>
<trkpt lat="43.712548977" lon="10.939726001"><ele>27</ele><time>2020-01-19T08:05:38Z</time></trkpt>
<trkpt lat="43.712521987" lon="10.939699011"><ele>27</ele><time>2020-01-19T08:05:39Z</time></trkpt>
<trkpt lat="43.712493991" lon="10.939671015"><ele>27</ele><time>2020-01-19T08:05:40Z</time></trkpt>
<trkpt lat="43.712467002" lon="10.939644026"><ele>27</ele><time>2020-01-19T08:05:41Z</time></trkpt>
<trkpt lat="43.712438" lon="10.939617036"><ele>27</ele><time>2020-01-19T08:05:42Z</time></trkpt>
<trkpt lat="43.712408999" lon="10.939589962"><ele>26</ele><time>2020-01-19T08:05:43Z</time></trkpt>
<trkpt lat="43.712379998" lon="10.939563978"><ele>26</ele><time>2020-01-19T08:05:44Z</time></trkpt>
<trkpt lat="43.71234999" lon="10.939536989"><ele>26</ele><time>2020-01-19T08:05:45Z</time></trkpt>
<trkpt lat="43.712318977" lon="10.939511005"><ele>26</ele><time>2020-01-19T08:05:46Z</time></trkpt>
<trkpt lat="43.712287964" lon="10.939486027"><ele>26</ele><time>2020-01-19T08:05:47Z</time></trkpt>
<trkpt lat="43.712256029" lon="10.939461971"><ele>26</ele><time>2020-01-19T08:05:48Z</time></trkpt>
<trkpt lat="43.712225016" lon="10.939437998"><ele>26</ele><time>2020-01-19T08:05:49Z</time></trkpt>
<trkpt lat="43.712192997" lon="10.939416038"><ele>26</ele><time>2020-01-19T08:05:50Z</time></trkpt>
<trkpt lat="43.712160978" lon="10.939393993"><ele>26</ele><time>2020-01-19T08:05:51Z</time></trkpt>
<trkpt lat="43.712128038" lon="10.939373961"><ele>26</ele><time>2020-01-19T08:05:52Z</time></trkpt>
<trkpt lat="43.712096019" lon="10.939354012"><ele>26</ele><time>2020-01-19T08:05:53Z</time></trkpt>
<trkpt lat="43.712064" lon="10.939332973"><ele>26</ele><time>2020-01-19T08:05:54Z</time></trkpt>
<trkpt lat="43.712031981" lon="10.939313024"><ele>26</ele><time>2020-01-19T08:05:55Z</time></trkpt>
<trkpt lat="43.711999962" lon="10.939291986"><ele>26</ele><time>2020-01-19T08:05:56Z</time></trkpt>
<trkpt lat="43.711968027" lon="10.939271031"><ele>26</ele><time>2020-01-19T08:05:57Z</time></trkpt>
<trkpt lat="43.711937014" lon="10.939247981"><ele>26</ele><time>2020-01-19T08:05:58Z</time></trkpt>
<trkpt lat="43.711906001" lon="10.939224008"><ele>26</ele><time>2020-01-19T08:05:59Z</time></trkpt>
<trkpt lat="43.711874988" lon="10.939198025"><ele>26</ele><time>2020-01-19T08:06:00Z</time></trkpt>
<trkpt lat="43.711844981" lon="10.939172041"><ele>26</ele><time>2020-01-19T08:06:01Z</time></trkpt>
<trkpt lat="43.711815979" lon="10.939144967"><ele>26</ele><time>2020-01-19T08:06:02Z</time></trkpt>
<trkpt lat="43.711785972" lon="10.939116972"><ele>26</ele><time>2020-01-19T08:06:03Z</time></trkpt>
<trkpt lat="43.711756971" lon="10.939088976"><ele>26</ele><time>2020-01-19T08:06:04Z</time></trkpt>
<trkpt lat="43.711728975" lon="10.939061986"><ele>26</ele><time>2020-01-19T08:06:05Z</time></trkpt>
<trkpt lat="43.711699974" lon="10.939033991"><ele>26</ele><time>2020-01-19T08:06:06Z</time></trkpt>
<trkpt lat="43.711670972" lon="10.939007001"><ele>26</ele><time>2020-01-19T08:06:07Z</time></trkpt>
<trkpt lat="43.711642977" lon="10.938980011"><ele>26</ele><time>2020-01-19T08:06:08Z</time></trkpt>
<trkpt lat="43.711614981" lon="10.938953022"><ele>26</ele><time>2020-01-19T08:06:09Z</time></trkpt>
<trkpt lat="43.711586986" lon="10.938927038"><ele>26</ele><time>2020-01-19T08:06:10Z</time></trkpt>
<trkpt lat="43.71155899" lon="10.938899964"><ele>26</ele><time>2020-01-19T08:06:11Z</time></trkpt>
<trkpt lat="43.711530995" lon="10.93887398"><ele>26</ele><time>2020-01-19T08:06:12Z</time></trkpt>
<trkpt lat="43.711502999" lon="10.93884699"><ele>26</ele><time>2020-01-19T08:06:13Z</time></trkpt>
<trkpt lat="43.711476009" lon="10.938818995"><ele>26</ele><time>2020-01-19T08:06:14Z</time></trkpt>
<trkpt lat="43.711448014" lon="10.938792005"><ele>26</ele><time>2020-01-19T08:06:15Z</time></trkpt>
<trkpt lat="43.711420018" lon="10.938763004"><ele>26</ele><time>2020-01-19T08:06:16Z</time></trkpt>
<trkpt lat="43.711392023" lon="10.938735008"><ele>26</ele><time>2020-01-19T08:06:17Z</time></trkpt>
<trkpt lat="43.711365033" lon="10.938706007"><ele>26</ele><time>2020-01-19T08:06:18Z</time></trkpt>
<trkpt lat="43.711337959" lon="10.938676"><ele>26</ele><time>2020-01-19T08:06:19Z</time></trkpt>
<trkpt lat="43.71131097" lon="10.938646998"><ele>26</ele><time>2020-01-19T08:06:20Z</time></trkpt>
<trkpt lat="43.71128398" lon="10.938617997"><ele>27</ele><time>2020-01-19T08:06:21Z</time></trkpt>
<trkpt lat="43.711257996" lon="10.938588995"><ele>27</ele><time>2020-01-19T08:06:22Z</time></trkpt>
<trkpt lat="43.711232012" lon="10.938561"><ele>27</ele><time>2020-01-19T08:06:23Z</time></trkpt>
<trkpt lat="43.711207034" lon="10.938531999"><ele>27</ele><time>2020-01-19T08:06:24Z</time></trkpt>
<trkpt lat="43.711181972" lon="10.938502997"><ele>27</ele><time>2020-01-19T08:06:25Z</time></trkpt>
<trkpt lat="43.711156994" lon="10.938475002"><ele>27</ele><time>2020-01-19T08:06:26Z</time></trkpt>
<trkpt lat="43.711132016" lon="10.938447006"><ele>27</ele><time>2020-01-19T08:06:27Z</time></trkpt>
<trkpt lat="43.71110796" lon="10.93841901"><ele>27</ele><time>2020-01-19T08:06:28Z</time></trkpt>
<trkpt lat="43.711082982" lon="10.938391015"><ele>27</ele><time>2020-01-19T08:06:29Z</time></trkpt>
<trkpt lat="43.711058004" lon="10.938363019"><ele>27</ele><time>2020-01-19T08:06:30Z</time></trkpt>
<trkpt lat="43.711034032" lon="10.938335024"><ele>27</ele><time>2020-01-19T08:06:31Z</time></trkpt>
<trkpt lat="43.71100897" lon="10.938308034"><ele>27</ele><time>2020-01-19T08:06:32Z</time></trkpt>
<trkpt lat="43.710983992" lon="10.938280039"><ele>27</ele><time>2020-01-19T08:06:33Z</time></trkpt>
<trkpt lat="43.710958008" lon="10.938252965"><ele>27</ele><time>2020-01-19T08:06:34Z</time></trkpt>
<trkpt lat="43.71093303" lon="10.938224969"><ele>27</ele><time>2020-01-19T08:06:35Z</time></trkpt>
<trkpt lat="43.710906962" lon="10.93819798"><ele>27</ele><time>2020-01-19T08:06:36Z</time></trkpt>
<trkpt lat="43.710879972" lon="10.93817099"><ele>27</ele><time>2020-01-19T08:06:37Z</time></trkpt>
<trkpt lat="43.710852982" lon="10.938144"><ele>27</ele><time>2020-01-19T08:06:38Z</time></trkpt>
<trkpt lat="43.710825993" lon="10.938117011"><ele>27</ele><time>2020-01-19T08:06:39Z</time></trkpt>
<trkpt lat="43.710797997" lon="10.938090021"><ele>27</ele><time>2020-01-19T08:06:40Z</time></trkpt>
<trkpt lat="43.710770002" lon="10.938062025"><ele>27</ele><time>2020-01-19T08:06:41Z</time></trkpt>
<trkpt lat="43.710743012" lon="10.938035036"><ele>27</ele><time>2020-01-19T08:06:42Z</time></trkpt>
<trkpt lat="43.710715016" lon="10.93800704"><ele>27</ele><time>2020-01-19T08:06:43Z</time></trkpt>
<trkpt lat="43.710688027" lon="10.937978961"><ele>27</ele><time>2020-01-19T08:06:44Z</time></trkpt>
<trkpt lat="43.710661959" lon="10.937949959"><ele>27</ele><time>2020-01-19T08:06:45Z</time></trkpt>
<trkpt lat="43.710635975" lon="10.937921042"><ele>27</ele><time>2020-01-19T08:06:46Z</time></trkpt>
<trkpt lat="43.710610997" lon="10.937891034"><ele>27</ele><time>2020-01-19T08:06:47Z</time></trkpt>
<trkpt lat="43.710586019" lon="10.937859016"><ele>27</ele><time>2020-01-19T08:06:48Z</time></trkpt>
<trkpt lat="43.710561041" lon="10.937825991"><ele>27</ele><time>2020-01-19T08:06:49Z</time></trkpt>
<trkpt lat="43.710536985" lon="10.937791038"><ele>27</ele><time>2020-01-19T08:06:50Z</time></trkpt>
<trkpt lat="43.710513012" lon="10.937752984"><ele>27</ele><time>2020-01-19T08:06:51Z</time></trkpt>
<trkpt lat="43.710491974" lon="10.937715014"><ele>27</ele><time>2020-01-19T08:06:52Z</time></trkpt>
<trkpt lat="43.710473031" lon="10.937675033"><ele>27</ele><time>2020-01-19T08:06:53Z</time></trkpt>
<trkpt lat="43.710458027" lon="10.937633961"><ele>27</ele><time>2020-01-19T08:06:54Z</time></trkpt>
<trkpt lat="43.710452998" lon="10.937591968"><ele>27</ele><time>2020-01-19T08:06:55Z</time></trkpt>
<trkpt lat="43.710460961" lon="10.937546035"><ele>27</ele><time>2020-01-19T08:06:56Z</time></trkpt>
<trkpt lat="43.710477976" lon="10.937500019"><ele>27</ele><time>2020-01-19T08:06:57Z</time></trkpt>
<trkpt lat="43.710498009" lon="10.937455008"><ele>27</ele><time>2020-01-19T08:06:58Z</time></trkpt>
<trkpt lat="43.710518042" lon="10.937411003"><ele>27</ele><time>2020-01-19T08:06:59Z</time></trkpt>
<trkpt lat="43.710538996" lon="10.937368004"><ele>27</ele><time>2020-01-19T08:07:00Z</time></trkpt>
<trkpt lat="43.710559029" lon="10.93732601"><ele>27</ele><time>2020-01-19T08:07:01Z</time></trkpt>
<trkpt lat="43.710578978" lon="10.937286029"><ele>27</ele><time>2020-01-19T08:07:02Z</time></trkpt>
<trkpt lat="43.710599011" lon="10.937245963"><ele>27</ele><time>2020-01-19T08:07:03Z</time></trkpt>
<trkpt lat="43.71061896" lon="10.937206987"><ele>27</ele><time>2020-01-19T08:07:04Z</time></trkpt>
<trkpt lat="43.710638992" lon="10.937169017"><ele>27</ele><time>2020-01-19T08:07:05Z</time></trkpt>
<trkpt lat="43.710659025" lon="10.937130963"><ele>27</ele><time>2020-01-19T08:07:06Z</time></trkpt>
<trkpt lat="43.710677968" lon="10.937093999"><ele>27</ele><time>2020-01-19T08:07:07Z</time></trkpt>
<trkpt lat="43.710698001" lon="10.937057035"><ele>27</ele><time>2020-01-19T08:07:08Z</time></trkpt>
<trkpt lat="43.710718034" lon="10.937019987"><ele>27</ele><time>2020-01-19T08:07:09Z</time></trkpt>
<trkpt lat="43.710737983" lon="10.936983023"><ele>27</ele><time>2020-01-19T08:07:10Z</time></trkpt>
<trkpt lat="43.710759021" lon="10.936945975"><ele>27</ele><time>2020-01-19T08:07:11Z</time></trkpt>
<trkpt lat="43.71077897" lon="10.936909011"><ele>27</ele><time>2020-01-19T08:07:12Z</time></trkpt>
<trkpt lat="43.710800009" lon="10.936871963"><ele>27</ele><time>2020-01-19T08:07:13Z</time></trkpt>
<trkpt lat="43.710820042" lon="10.936834998"><ele>27</ele><time>2020-01-19T08:07:14Z</time></trkpt>
<trkpt lat="43.710840996" lon="10.93679904"><ele>27</ele><time>2020-01-19T08:07:15Z</time></trkpt>
<trkpt lat="43.710861029" lon="10.936761992"><ele>27</ele><time>2020-01-19T08:07:16Z</time></trkpt>
<trkpt lat="43.710880978" lon="10.936725028"><ele>27</ele><time>2020-01-19T08:07:17Z</time></trkpt>
<trkpt lat="43.710901011" lon="10.93668798"><ele>27</ele><time>2020-01-19T08:07:18Z</time></trkpt>
<trkpt lat="43.71092096" lon="10.936651016"><ele>27</ele><time>2020-01-19T08:07:19Z</time></trkpt>
<trkpt lat="43.710939987" lon="10.936613968"><ele>27</ele><time>2020-01-19T08:07:20Z</time></trkpt>
<trkpt lat="43.710959014" lon="10.936577003"><ele>27</ele><time>2020-01-19T08:07:21Z</time></trkpt>
<trkpt lat="43.71097804" lon="10.936540039"><ele>27</ele><time>2020-01-19T08:07:22Z</time></trkpt>
<trkpt lat="43.710994972" lon="10.936502991"><ele>27</ele><time>2020-01-19T08:07:23Z</time></trkpt>
<trkpt lat="43.711012993" lon="10.936466027"><ele>26</ele><time>2020-01-19T08:07:24Z</time></trkpt>
<trkpt lat="43.711061021" lon="10.936354967"><ele>26</ele><time>2020-01-19T08:07:27Z</time></trkpt>
<trkpt lat="43.711078037" lon="10.936318003"><ele>26</ele><time>2020-01-19T08:07:28Z</time></trkpt>
<trkpt lat="43.711094968" lon="10.936281038"><ele>26</ele><time>2020-01-19T08:07:29Z</time></trkpt>
<trkpt lat="43.711111983" lon="10.936244996"><ele>26</ele><time>2020-01-19T08:07:30Z</time></trkpt>
<trkpt lat="43.71113101" lon="10.936209038"><ele>26</ele><time>2020-01-19T08:07:31Z</time></trkpt>
<trkpt lat="43.711150959" lon="10.936174002"><ele>26</ele><time>2020-01-19T08:07:32Z</time></trkpt>
<trkpt lat="43.711173004" lon="10.936138965"><ele>26</ele><time>2020-01-19T08:07:33Z</time></trkpt>
<trkpt lat="43.711194964" lon="10.936104013"><ele>26</ele><time>2020-01-19T08:07:34Z</time></trkpt>
<trkpt lat="43.711218014" lon="10.936068976"><ele>25</ele><time>2020-01-19T08:07:35Z</time></trkpt>
<trkpt lat="43.711238969" lon="10.936034024"><ele>25</ele><time>2020-01-19T08:07:36Z</time></trkpt>
<trkpt lat="43.711259002" lon="10.935997982"><ele>25</ele><time>2020-01-19T08:07:37Z</time></trkpt>
<trkpt lat="43.711277023" lon="10.935962023"><ele>25</ele><time>2020-01-19T08:07:38Z</time></trkpt>
<trkpt lat="43.711293032" lon="10.935924975"><ele>25</ele><time>2020-01-19T08:07:39Z</time></trkpt>
<trkpt lat="43.71130703" lon="10.935887005"><ele>25</ele><time>2020-01-19T08:07:40Z</time></trkpt>
<trkpt lat="43.71131801" lon="10.935849035"><ele>25</ele><time>2020-01-19T08:07:41Z</time></trkpt>
<trkpt lat="43.711326979" lon="10.935809975"><ele>25</ele><time>2020-01-19T08:07:42Z</time></trkpt>
<trkpt lat="43.71133402" lon="10.935771"><ele>25</ele><time>2020-01-19T08:07:43Z</time></trkpt>
<trkpt lat="43.711340977" lon="10.935731018"><ele>25</ele><time>2020-01-19T08:07:44Z</time></trkpt>
<trkpt lat="43.711346006" lon="10.935691036"><ele>25</ele><time>2020-01-19T08:07:45Z</time></trkpt>
<trkpt lat="43.711352041" lon="10.935648959"><ele>25</ele><time>2020-01-19T08:07:46Z</time></trkpt>
<trkpt lat="43.711356986" lon="10.93560596"><ele>25</ele><time>2020-01-19T08:07:47Z</time></trkpt>
<trkpt lat="43.711364027" lon="10.935562961"><ele>25</ele><time>2020-01-19T08:07:48Z</time></trkpt>
<trkpt lat="43.711370984" lon="10.935518034"><ele>25</ele><time>2020-01-19T08:07:49Z</time></trkpt>
<trkpt lat="43.711379031" lon="10.935472017"><ele>25</ele><time>2020-01-19T08:07:50Z</time></trkpt>
<trkpt lat="43.711387999" lon="10.935426001"><ele>25</ele><time>2020-01-19T08:07:51Z</time></trkpt>
<trkpt lat="43.711396968" lon="10.935378978"><ele>25</ele><time>2020-01-19T08:07:52Z</time></trkpt>
<trkpt lat="43.711407026" lon="10.935332961"><ele>25</ele><time>2020-01-19T08:07:53Z</time></trkpt>
<trkpt lat="43.711415995" lon="10.935287029"><ele>25</ele><time>2020-01-19T08:07:54Z</time></trkpt>
<trkpt lat="43.711425969" lon="10.935242018"><ele>25</ele><time>2020-01-19T08:07:55Z</time></trkpt>
<trkpt lat="43.711434016" lon="10.935198013"><ele>25</ele><time>2020-01-19T08:07:56Z</time></trkpt>
<trkpt lat="43.711441979" lon="10.935155014"><ele>25</ele><time>2020-01-19T08:07:57Z</time></trkpt>
<trkpt lat="43.71144902" lon="10.935114026"><ele>25</ele><time>2020-01-19T08:07:58Z</time></trkpt>
<trkpt lat="43.711455977" lon="10.935073039"><ele>25</ele><time>2020-01-19T08:07:59Z</time></trkpt>
<trkpt lat="43.711463017" lon="10.935031967"><ele>25</ele><time>2020-01-19T08:08:00Z</time></trkpt>
<trkpt lat="43.711468969" lon="10.93499098"><ele>25</ele><time>2020-01-19T08:08:01Z</time></trkpt>
<trkpt lat="43.711476009" lon="10.934948986"><ele>24</ele><time>2020-01-19T08:08:02Z</time></trkpt>
<trkpt lat="43.711482966" lon="10.934905987"><ele>24</ele><time>2020-01-19T08:08:03Z</time></trkpt>
<trkpt lat="43.711491013" lon="10.934861982"><ele>24</ele><time>2020-01-19T08:08:04Z</time></trkpt>
<trkpt lat="43.711498976" lon="10.93481496"><ele>24</ele><time>2020-01-19T08:08:05Z</time></trkpt>
<trkpt lat="43.711508028" lon="10.934768021"><ele>24</ele><time>2020-01-19T08:08:06Z</time></trkpt>
<trkpt lat="43.711518003" lon="10.934718987"><ele>24</ele><time>2020-01-19T08:08:07Z</time></trkpt>
<trkpt lat="43.711526971" lon="10.934668025"><ele>24</ele><time>2020-01-19T08:08:08Z</time></trkpt>
<trkpt lat="43.71153703" lon="10.934617985"><ele>24</ele><time>2020-01-19T08:08:09Z</time></trkpt>
<trkpt lat="43.711547004" lon="10.934567023"><ele>24</ele><time>2020-01-19T08:08:10Z</time></trkpt>
<trkpt lat="43.711556979" lon="10.934515977"><ele>24</ele><time>2020-01-19T08:08:11Z</time></trkpt>
<trkpt lat="43.711567037" lon="10.934466021"><ele>24</ele><time>2020-01-19T08:08:12Z</time></trkpt>
<trkpt lat="43.711577011" lon="10.934415981"><ele>24</ele><time>2020-01-19T08:08:13Z</time></trkpt>
<trkpt lat="43.71158598" lon="10.934367031"><ele>23</ele><time>2020-01-19T08:08:14Z</time></trkpt>
<trkpt lat="43.711595032" lon="10.934319003"><ele>23</ele><time>2020-01-19T08:08:15Z</time></trkpt>
<trkpt lat="43.711604001" lon="10.934270974"><ele>23</ele><time>2020-01-19T08:08:16Z</time></trkpt>
<trkpt lat="43.71161297" lon="10.934224036"><ele>23</ele><time>2020-01-19T08:08:17Z</time></trkpt>
<trkpt lat="43.711621016" lon="10.934177013"><ele>23</ele><time>2020-01-19T08:08:18Z</time></trkpt>
<trkpt lat="43.711629985" lon="10.934130996"><ele>23</ele><time>2020-01-19T08:08:19Z</time></trkpt>
<trkpt lat="43.711638032" lon="10.93408498"><ele>23</ele><time>2020-01-19T08:08:20Z</time></trkpt>
<trkpt lat="43.711645994" lon="10.934038963"><ele>23</ele><time>2020-01-19T08:08:21Z</time></trkpt>
<trkpt lat="43.711654041" lon="10.933994036"><ele>23</ele><time>2020-01-19T08:08:22Z</time></trkpt>
<trkpt lat="43.711660998" lon="10.933949025"><ele>23</ele><time>2020-01-19T08:08:23Z</time></trkpt>
<trkpt lat="43.711668961" lon="10.933904015"><ele>23</ele><time>2020-01-19T08:08:24Z</time></trkpt>
<trkpt lat="43.711676002" lon="10.933859004"><ele>23</ele><time>2020-01-19T08:08:25Z</time></trkpt>
<trkpt lat="43.711683964" lon="10.933813993"><ele>23</ele><time>2020-01-19T08:08:26Z</time></trkpt>
<trkpt lat="43.711691005" lon="10.933768982"><ele>23</ele><time>2020-01-19T08:08:27Z</time></trkpt>
<trkpt lat="43.711697962" lon="10.933723971"><ele>22</ele><time>2020-01-19T08:08:28Z</time></trkpt>
<trkpt lat="43.711705003" lon="10.93367896"><ele>22</ele><time>2020-01-19T08:08:29Z</time></trkpt>
<trkpt lat="43.71171196" lon="10.933634033"><ele>22</ele><time>2020-01-19T08:08:30Z</time></trkpt>
<trkpt lat="43.711719001" lon="10.933588017"><ele>22</ele><time>2020-01-19T08:08:31Z</time></trkpt>
<trkpt lat="43.711725036" lon="10.933543006"><ele>22</ele><time>2020-01-19T08:08:32Z</time></trkpt>
<trkpt lat="43.711731993" lon="10.933496989"><ele>22</ele><time>2020-01-19T08:08:33Z</time></trkpt>
<trkpt lat="43.711739033" lon="10.933450973"><ele>22</ele><time>2020-01-19T08:08:34Z</time></trkpt>
<trkpt lat="43.711744985" lon="10.933405962"><ele>22</ele><time>2020-01-19T08:08:35Z</time></trkpt>
<trkpt lat="43.711752025" lon="10.933360029"><ele>22</ele><time>2020-01-19T08:08:36Z</time></trkpt>
<trkpt lat="43.711757977" lon="10.933313007"><ele>22</ele><time>2020-01-19T08:08:37Z</time></trkpt>
<trkpt lat="43.711764012" lon="10.93326699"><ele>22</ele><time>2020-01-19T08:08:38Z</time></trkpt>
<trkpt lat="43.711769963" lon="10.933220973"><ele>22</ele><time>2020-01-19T08:08:39Z</time></trkpt>
<trkpt lat="43.711775998" lon="10.933174035"><ele>22</ele><time>2020-01-19T08:08:40Z</time></trkpt>
<trkpt lat="43.711782033" lon="10.933127012"><ele>22</ele><time>2020-01-19T08:08:41Z</time></trkpt>
<trkpt lat="43.711787984" lon="10.93307999"><ele>22</ele><time>2020-01-19T08:08:42Z</time></trkpt>
<trkpt lat="43.711794019" lon="10.933032967"><ele>22</ele><time>2020-01-19T08:08:43Z</time></trkpt>
<trkpt lat="43.711798964" lon="10.932986028"><ele>22</ele><time>2020-01-19T08:08:44Z</time></trkpt>
<trkpt lat="43.711804999" lon="10.932939006"><ele>22</ele><time>2020-01-19T08:08:45Z</time></trkpt>
<trkpt lat="43.711810028" lon="10.932890978"><ele>22</ele><time>2020-01-19T08:08:46Z</time></trkpt>
<trkpt lat="43.711815979" lon="10.932844039"><ele>22</ele><time>2020-01-19T08:08:47Z</time></trkpt>
<trkpt lat="43.711821008" lon="10.932797017"><ele>22</ele><time>2020-01-19T08:08:48Z</time></trkpt>
<trkpt lat="43.711826038" lon="10.932751"><ele>22</ele><time>2020-01-19T08:08:49Z</time></trkpt>
<trkpt lat="43.711830983" lon="10.932703977"><ele>22</ele><time>2020-01-19T08:08:50Z</time></trkpt>
<trkpt lat="43.711836012" lon="10.932658967"><ele>22</ele><time>2020-01-19T08:08:51Z</time></trkpt>
<trkpt lat="43.711841041" lon="10.93261404"><ele>22</ele><time>2020-01-19T08:08:52Z</time></trkpt>
<trkpt lat="43.711846992" lon="10.932569029"><ele>22</ele><time>2020-01-19T08:08:53Z</time></trkpt>
<trkpt lat="43.711852022" lon="10.93252603"><ele>22</ele><time>2020-01-19T08:08:54Z</time></trkpt>
<trkpt lat="43.711856967" lon="10.932482025"><ele>22</ele><time>2020-01-19T08:08:55Z</time></trkpt>
<trkpt lat="43.711861996" lon="10.932439025"><ele>22</ele><time>2020-01-19T08:08:56Z</time></trkpt>
<trkpt lat="43.711868031" lon="10.93239502"><ele>22</ele><time>2020-01-19T08:08:57Z</time></trkpt>
<trkpt lat="43.711873982" lon="10.932352021"><ele>22</ele><time>2020-01-19T08:08:58Z</time></trkpt>
<trkpt lat="43.711880017" lon="10.932309022"><ele>22</ele><time>2020-01-19T08:08:59Z</time></trkpt>
<trkpt lat="43.711885968" lon="10.932265017"><ele>22</ele><time>2020-01-19T08:09:00Z</time></trkpt>
<trkpt lat="43.711893009" lon="10.932221012"><ele>22</ele><time>2020-01-19T08:09:01Z</time></trkpt>
<trkpt lat="43.711899966" lon="10.932177007"><ele>22</ele><time>2020-01-19T08:09:02Z</time></trkpt>
<trkpt lat="43.711907007" lon="10.932133002"><ele>22</ele><time>2020-01-19T08:09:03Z</time></trkpt>
<trkpt lat="43.711913964" lon="10.932088997"><ele>22</ele><time>2020-01-19T08:09:04Z</time></trkpt>
<trkpt lat="43.71192201" lon="10.932044992"><ele>22</ele><time>2020-01-19T08:09:05Z</time></trkpt>
<trkpt lat="43.711929973" lon="10.932000987"><ele>23</ele><time>2020-01-19T08:09:06Z</time></trkpt>
<trkpt lat="43.711937014" lon="10.931956982"><ele>23</ele><time>2020-01-19T08:09:07Z</time></trkpt>
<trkpt lat="43.711944977" lon="10.931912977"><ele>23</ele><time>2020-01-19T08:09:08Z</time></trkpt>
<trkpt lat="43.711952018" lon="10.931868972"><ele>23</ele><time>2020-01-19T08:09:09Z</time></trkpt>
<trkpt lat="43.71195998" lon="10.931825973"><ele>23</ele><time>2020-01-19T08:09:10Z</time></trkpt>
<trkpt lat="43.711967021" lon="10.931781968"><ele>23</ele><time>2020-01-19T08:09:11Z</time></trkpt>
<trkpt lat="43.711974984" lon="10.931738969"><ele>23</ele><time>2020-01-19T08:09:12Z</time></trkpt>
<trkpt lat="43.711982025" lon="10.931696976"><ele>23</ele><time>2020-01-19T08:09:13Z</time></trkpt>
<trkpt lat="43.711988982" lon="10.931653976"><ele>23</ele><time>2020-01-19T08:09:14Z</time></trkpt>
<trkpt lat="43.711995017" lon="10.931612989"><ele>23</ele><time>2020-01-19T08:09:15Z</time></trkpt>
<trkpt lat="43.712001974" lon="10.931570996"><ele>23</ele><time>2020-01-19T08:09:16Z</time></trkpt>
<trkpt lat="43.712008009" lon="10.931530008"><ele>23</ele><time>2020-01-19T08:09:17Z</time></trkpt>
<trkpt lat="43.712013038" lon="10.931489021"><ele>23</ele><time>2020-01-19T08:09:18Z</time></trkpt>
<trkpt lat="43.712018989" lon="10.931449039"><ele>23</ele><time>2020-01-19T08:09:19Z</time></trkpt>
<trkpt lat="43.712024018" lon="10.931408973"><ele>23</ele><time>2020-01-19T08:09:20Z</time></trkpt>
<trkpt lat="43.712029969" lon="10.931368992"><ele>23</ele><time>2020-01-19T08:09:21Z</time></trkpt>
<trkpt lat="43.712034998" lon="10.931328004"><ele>23</ele><time>2020-01-19T08:09:22Z</time></trkpt>
<trkpt lat="43.712040028" lon="10.931288023"><ele>24</ele><time>2020-01-19T08:09:23Z</time></trkpt>
<trkpt lat="43.712045979" lon="10.931248041"><ele>24</ele><time>2020-01-19T08:09:24Z</time></trkpt>
<trkpt lat="43.712051008" lon="10.931207975"><ele>24</ele><time>2020-01-19T08:09:25Z</time></trkpt>
<trkpt lat="43.712056037" lon="10.931166988"><ele>24</ele><time>2020-01-19T08:09:26Z</time></trkpt>
<trkpt lat="43.712061988" lon="10.931126"><ele>24</ele><time>2020-01-19T08:09:27Z</time></trkpt>
<trkpt lat="43.712068023" lon="10.931085013"><ele>24</ele><time>2020-01-19T08:09:28Z</time></trkpt>
<trkpt lat="43.712073974" lon="10.93104302"><ele>24</ele><time>2020-01-19T08:09:29Z</time></trkpt>
<trkpt lat="43.712080009" lon="10.931001026"><ele>24</ele><time>2020-01-19T08:09:30Z</time></trkpt>
<trkpt lat="43.712086966" lon="10.930958027"><ele>24</ele><time>2020-01-19T08:09:31Z</time></trkpt>
<trkpt lat="43.712094007" lon="10.930915028"><ele>24</ele><time>2020-01-19T08:09:32Z</time></trkpt>
<trkpt lat="43.712100964" lon="10.930871023"><ele>24</ele><time>2020-01-19T08:09:33Z</time></trkpt>
<trkpt lat="43.712108005" lon="10.930827018"><ele>24</ele><time>2020-01-19T08:09:34Z</time></trkpt>
<trkpt lat="43.712114962" lon="10.930782007"><ele>24</ele><time>2020-01-19T08:09:35Z</time></trkpt>
<trkpt lat="43.712122003" lon="10.93073599"><ele>24</ele><time>2020-01-19T08:09:36Z</time></trkpt>
<trkpt lat="43.712128038" lon="10.93069098"><ele>24</ele><time>2020-01-19T08:09:37Z</time></trkpt>
<trkpt lat="43.712134995" lon="10.930644963"><ele>24</ele><time>2020-01-19T08:09:38Z</time></trkpt>
<trkpt lat="43.71214103" lon="10.930598024"><ele>24</ele><time>2020-01-19T08:09:39Z</time></trkpt>
<trkpt lat="43.712145975" lon="10.930551002"><ele>24</ele><time>2020-01-19T08:09:40Z</time></trkpt>
<trkpt lat="43.71215201" lon="10.930503979"><ele>24</ele><time>2020-01-19T08:09:41Z</time></trkpt>
<trkpt lat="43.712157039" lon="10.930457041"><ele>24</ele><time>2020-01-19T08:09:42Z</time></trkpt>
<trkpt lat="43.712161984" lon="10.930409012"><ele>24</ele><time>2020-01-19T08:09:43Z</time></trkpt>
<trkpt lat="43.712166008" lon="10.93036199"><ele>23</ele><time>2020-01-19T08:09:44Z</time></trkpt>
<trkpt lat="43.712171037" lon="10.930313962"><ele>23</ele><time>2020-01-19T08:09:45Z</time></trkpt>
<trkpt lat="43.712174976" lon="10.930267023"><ele>23</ele><time>2020-01-19T08:09:46Z</time></trkpt>
<trkpt lat="43.712177994" lon="10.93022"><ele>23</ele><time>2020-01-19T08:09:47Z</time></trkpt>
<trkpt lat="43.712182017" lon="10.930172978"><ele>23</ele><time>2020-01-19T08:09:48Z</time></trkpt>
<trkpt lat="43.712185035" lon="10.930126039"><ele>23</ele><time>2020-01-19T08:09:49Z</time></trkpt>
<trkpt lat="43.712187968" lon="10.930079017"><ele>23</ele><time>2020-01-19T08:09:50Z</time></trkpt>
<trkpt lat="43.712191992" lon="10.930031994"><ele>23</ele><time>2020-01-19T08:09:51Z</time></trkpt>
<trkpt lat="43.712195009" lon="10.929984972"><ele>23</ele><time>2020-01-19T08:09:52Z</time></trkpt>
<trkpt lat="43.712198026" lon="10.929939039"><ele>23</ele><time>2020-01-19T08:09:53Z</time></trkpt>
<trkpt lat="43.71220096" lon="10.929893022"><ele>23</ele><time>2020-01-19T08:09:54Z</time></trkpt>
<trkpt lat="43.712203978" lon="10.929847006"><ele>23</ele><time>2020-01-19T08:09:55Z</time></trkpt>
<trkpt lat="43.712206995" lon="10.929800989"><ele>23</ele><time>2020-01-19T08:09:56Z</time></trkpt>
<trkpt lat="43.712210013" lon="10.929755978"><ele>23</ele><time>2020-01-19T08:09:57Z</time></trkpt>
<trkpt lat="43.712214036" lon="10.929710967"><ele>23</ele><time>2020-01-19T08:09:58Z</time></trkpt>
<trkpt lat="43.71221697" lon="10.92966604"><ele>23</ele><time>2020-01-19T08:09:59Z</time></trkpt>
<trkpt lat="43.712220993" lon="10.92962103"><ele>23</ele><time>2020-01-19T08:10:00Z</time></trkpt>
<trkpt lat="43.712225016" lon="10.929576019"><ele>23</ele><time>2020-01-19T08:10:01Z</time></trkpt>
<trkpt lat="43.71222904" lon="10.929532014"><ele>23</ele><time>2020-01-19T08:10:02Z</time></trkpt>
<trkpt lat="43.712233985" lon="10.929488009"><ele>23</ele><time>2020-01-19T08:10:03Z</time></trkpt>
<trkpt lat="43.712238008" lon="10.929444004"><ele>23</ele><time>2020-01-19T08:10:04Z</time></trkpt>
<trkpt lat="43.712241026" lon="10.929401005"><ele>23</ele><time>2020-01-19T08:10:05Z</time></trkpt>
<trkpt lat="43.712243037" lon="10.929357"><ele>23</ele><time>2020-01-19T08:10:06Z</time></trkpt>
<trkpt lat="43.712243037" lon="10.929312995"><ele>23</ele><time>2020-01-19T08:10:07Z</time></trkpt>
<trkpt lat="43.71224002" lon="10.929272007"><ele>23</ele><time>2020-01-19T08:10:08Z</time></trkpt>
<trkpt lat="43.712230967" lon="10.929233031"><ele>23</ele><time>2020-01-19T08:10:09Z</time></trkpt>
<trkpt lat="43.712215964" lon="10.929201012"><ele>23</ele><time>2020-01-19T08:10:10Z</time></trkpt>
<trkpt lat="43.712194003" lon="10.929175029"><ele>23</ele><time>2020-01-19T08:10:11Z</time></trkpt>
<trkpt lat="43.712166008" lon="10.92915399"><ele>23</ele><time>2020-01-19T08:10:12Z</time></trkpt>
<trkpt lat="43.712134995" lon="10.929136975"><ele>23</ele><time>2020-01-19T08:10:13Z</time></trkpt>
<trkpt lat="43.71210197" lon="10.929119959"><ele>23</ele><time>2020-01-19T08:10:14Z</time></trkpt>
<trkpt lat="43.712068023" lon="10.929103028"><ele>23</ele><time>2020-01-19T08:10:15Z</time></trkpt>
<trkpt lat="43.712034998" lon="10.929085007"><ele>23</ele><time>2020-01-19T08:10:16Z</time></trkpt>
<trkpt lat="43.71200298" lon="10.92906598"><ele>23</ele><time>2020-01-19T08:10:17Z</time></trkpt>
<trkpt lat="43.711970039" lon="10.929047037"><ele>23</ele><time>2020-01-19T08:10:18Z</time></trkpt>
<trkpt lat="43.71193802" lon="10.929029016"><ele>23</ele><time>2020-01-19T08:10:19Z</time></trkpt>
<trkpt lat="43.711906001" lon="10.929010995"><ele>23</ele><time>2020-01-19T08:10:20Z</time></trkpt>
<trkpt lat="43.711874988" lon="10.928992974"><ele>23</ele><time>2020-01-19T08:10:21Z</time></trkpt>
<trkpt lat="43.711842969" lon="10.928975036"><ele>23</ele><time>2020-01-19T08:10:22Z</time></trkpt>
<trkpt lat="43.71181204" lon="10.928957015"><ele>23</ele><time>2020-01-19T08:10:23Z</time></trkpt>
<trkpt lat="43.711782033" lon="10.928937988"><ele>23</ele><time>2020-01-19T08:10:24Z</time></trkpt>
<trkpt lat="43.71175102" lon="10.928918961"><ele>23</ele><time>2020-01-19T08:10:25Z</time></trkpt>
<trkpt lat="43.711722018" lon="10.928900018"><ele>23</ele><time>2020-01-19T08:10:26Z</time></trkpt>
<trkpt lat="43.711692011" lon="10.928879986"><ele>23</ele><time>2020-01-19T08:10:27Z</time></trkpt>
<trkpt lat="43.71166301" lon="10.928860037"><ele>23</ele><time>2020-01-19T08:10:28Z</time></trkpt>
<trkpt lat="43.711634008" lon="10.928840004"><ele>23</ele><time>2020-01-19T08:10:29Z</time></trkpt>
<trkpt lat="43.711605007" lon="10.928818965"><ele>23</ele><time>2020-01-19T08:10:30Z</time></trkpt>
<trkpt lat="43.711575" lon="10.928800022"><ele>23</ele><time>2020-01-19T08:10:31Z</time></trkpt>
<trkpt lat="43.711544992" lon="10.928780995"><ele>23</ele><time>2020-01-19T08:10:32Z</time></trkpt>
<trkpt lat="43.711514985" lon="10.92876398"><ele>23</ele><time>2020-01-19T08:10:33Z</time></trkpt>
<trkpt lat="43.711483972" lon="10.928746965"><ele>23</ele><time>2020-01-19T08:10:34Z</time></trkpt>
<trkpt lat="43.711452037" lon="10.928731961"><ele>23</ele><time>2020-01-19T08:10:35Z</time></trkpt>
<trkpt lat="43.711421024" lon="10.928717963"><ele>23</ele><time>2020-01-19T08:10:36Z</time></trkpt>
<trkpt lat="43.711323962" lon="10.928676976"><ele>23</ele><time>2020-01-19T08:10:39Z</time></trkpt>
<trkpt lat="43.711292027" lon="10.928662978"><ele>23</ele><time>2020-01-19T08:10:40Z</time></trkpt>
<trkpt lat="43.711261014" lon="10.928647975"><ele>23</ele><time>2020-01-19T08:10:41Z</time></trkpt>
<trkpt lat="43.71123" lon="10.928630959"><ele>23</ele><time>2020-01-19T08:10:42Z</time></trkpt>
<trkpt lat="43.711199993" lon="10.928614028"><ele>23</ele><time>2020-01-19T08:10:43Z</time></trkpt>
<trkpt lat="43.711169986" lon="10.928596007"><ele>23</ele><time>2020-01-19T08:10:44Z</time></trkpt>
<trkpt lat="43.711139979" lon="10.92857698"><ele>23</ele><time>2020-01-19T08:10:45Z</time></trkpt>
<trkpt lat="43.711110977" lon="10.928557031"><ele>23</ele><time>2020-01-19T08:10:46Z</time></trkpt>
<trkpt lat="43.71108097" lon="10.928536998"><ele>23</ele><time>2020-01-19T08:10:47Z</time></trkpt>
<trkpt lat="43.711051969" lon="10.928516965"><ele>23</ele><time>2020-01-19T08:10:48Z</time></trkpt>
<trkpt lat="43.711022967" lon="10.928496011"><ele>23</ele><time>2020-01-19T08:10:49Z</time></trkpt>
<trkpt lat="43.71099296" lon="10.928475978"><ele>23</ele><time>2020-01-19T08:10:50Z</time></trkpt>
<trkpt lat="43.710963959" lon="10.928455023"><ele>23</ele><time>2020-01-19T08:10:51Z</time></trkpt>
<trkpt lat="43.710934035" lon="10.92843499"><ele>22</ele><time>2020-01-19T08:10:52Z</time></trkpt>
<trkpt lat="43.710905034" lon="10.928414036"><ele>22</ele><time>2020-01-19T08:10:53Z</time></trkpt>
<trkpt lat="43.710875027" lon="10.928392997"><ele>22</ele><time>2020-01-19T08:10:54Z</time></trkpt>
<trkpt lat="43.71084502" lon="10.928372964"><ele>22</ele><time>2020-01-19T08:10:55Z</time></trkpt>
<trkpt lat="43.710815012" lon="10.928353015"><ele>22</ele><time>2020-01-19T08:10:56Z</time></trkpt>
<trkpt lat="43.710785005" lon="10.928331977"><ele>22</ele><time>2020-01-19T08:10:57Z</time></trkpt>
<trkpt lat="43.710754998" lon="10.928312028"><ele>22</ele><time>2020-01-19T08:10:58Z</time></trkpt>
<trkpt lat="43.710723985" lon="10.928291995"><ele>22</ele><time>2020-01-19T08:10:59Z</time></trkpt>
<trkpt lat="43.710693978" lon="10.928271962"><ele>22</ele><time>2020-01-19T08:11:00Z</time></trkpt>
<trkpt lat="43.710663971" lon="10.928252013"><ele>23</ele><time>2020-01-19T08:11:01Z</time></trkpt>
<trkpt lat="43.710633041" lon="10.928232986"><ele>23</ele><time>2020-01-19T08:11:02Z</time></trkpt>
<trkpt lat="43.710603034" lon="10.928213038"><ele>23</ele><time>2020-01-19T08:11:03Z</time></trkpt>
<trkpt lat="43.710572021" lon="10.928194011"><ele>23</ele><time>2020-01-19T08:11:04Z</time></trkpt>
<trkpt lat="43.710542014" lon="10.928174984"><ele>23</ele><time>2020-01-19T08:11:05Z</time></trkpt>
<trkpt lat="43.710511001" lon="10.928156041"><ele>23</ele><time>2020-01-19T08:11:06Z</time></trkpt>
<trkpt lat="43.710480994" lon="10.92813802"><ele>23</ele><time>2020-01-19T08:11:07Z</time></trkpt>
<trkpt lat="43.710449981" lon="10.928118993"><ele>23</ele><time>2020-01-19T08:11:08Z</time></trkpt>
<trkpt lat="43.710419973" lon="10.928100972"><ele>23</ele><time>2020-01-19T08:11:09Z</time></trkpt>
<trkpt lat="43.71038896" lon="10.928083034"><ele>23</ele><time>2020-01-19T08:11:10Z</time></trkpt>
<trkpt lat="43.710359037" lon="10.928065013"><ele>23</ele><time>2020-01-19T08:11:11Z</time></trkpt>
<trkpt lat="43.710328024" lon="10.928047998"><ele>23</ele><time>2020-01-19T08:11:12Z</time></trkpt>
<trkpt lat="43.710298017" lon="10.928029977"><ele>23</ele><time>2020-01-19T08:11:13Z</time></trkpt>
<trkpt lat="43.710267004" lon="10.928012962"><ele>23</ele><time>2020-01-19T08:11:14Z</time></trkpt>
<trkpt lat="43.710236996" lon="10.92799603"><ele>23</ele><time>2020-01-19T08:11:15Z</time></trkpt>
<trkpt lat="43.710205983" lon="10.927979015"><ele>23</ele><time>2020-01-19T08:11:16Z</time></trkpt>
<trkpt lat="43.710175976" lon="10.927960994"><ele>23</ele><time>2020-01-19T08:11:17Z</time></trkpt>
<trkpt lat="43.710144963" lon="10.927944984"><ele>23</ele><time>2020-01-19T08:11:18Z</time></trkpt>
<trkpt lat="43.71011504" lon="10.927927969"><ele>23</ele><time>2020-01-19T08:11:19Z</time></trkpt>
<trkpt lat="43.710084027" lon="10.927911038"><ele>23</ele><time>2020-01-19T08:11:20Z</time></trkpt>
<trkpt lat="43.710054019" lon="10.927894022"><ele>23</ele><time>2020-01-19T08:11:21Z</time></trkpt>
<trkpt lat="43.710024012" lon="10.927877007"><ele>23</ele><time>2020-01-19T08:11:22Z</time></trkpt>
<trkpt lat="43.709994005" lon="10.927859992"><ele>23</ele><time>2020-01-19T08:11:23Z</time></trkpt>
<trkpt lat="43.709963998" lon="10.927843982"><ele>23</ele><time>2020-01-19T08:11:24Z</time></trkpt>
<trkpt lat="43.709932985" lon="10.927826967"><ele>23</ele><time>2020-01-19T08:11:25Z</time></trkpt>
<trkpt lat="43.709902978" lon="10.927810036"><ele>23</ele><time>2020-01-19T08:11:26Z</time></trkpt>
<trkpt lat="43.709873976" lon="10.92779302"><ele>23</ele><time>2020-01-19T08:11:27Z</time></trkpt>
<trkpt lat="43.709843969" lon="10.927776005"><ele>24</ele><time>2020-01-19T08:11:28Z</time></trkpt>
<trkpt lat="43.709813962" lon="10.92775899"><ele>24</ele><time>2020-01-19T08:11:29Z</time></trkpt>
<trkpt lat="43.709784038" lon="10.927741975"><ele>24</ele><time>2020-01-19T08:11:30Z</time></trkpt>
<trkpt lat="43.709755037" lon="10.927724959"><ele>24</ele><time>2020-01-19T08:11:31Z</time></trkpt>
<trkpt lat="43.70972503" lon="10.927708028"><ele>24</ele><time>2020-01-19T08:11:32Z</time></trkpt>
<trkpt lat="43.709696028" lon="10.927690007"><ele>24</ele><time>2020-01-19T08:11:33Z</time></trkpt>
<trkpt lat="43.709666021" lon="10.927672992"><ele>24</ele><time>2020-01-19T08:11:34Z</time></trkpt>
<trkpt lat="43.70963702" lon="10.92765497"><ele>24</ele><time>2020-01-19T08:11:35Z</time></trkpt>
<trkpt lat="43.709608018" lon="10.927637033"><ele>24</ele><time>2020-01-19T08:11:36Z</time></trkpt>
<trkpt lat="43.709579017" lon="10.927619012"><ele>24</ele><time>2020-01-19T08:11:37Z</time></trkpt>
<trkpt lat="43.709550016" lon="10.927600991"><ele>24</ele><time>2020-01-19T08:11:38Z</time></trkpt>
<trkpt lat="43.709521014" lon="10.927581964"><ele>24</ele><time>2020-01-19T08:11:39Z</time></trkpt>
<trkpt lat="43.709492013" lon="10.927564027"><ele>24</ele><time>2020-01-19T08:11:40Z</time></trkpt>
<trkpt lat="43.709463011" lon="10.927545"><ele>24</ele><time>2020-01-19T08:11:41Z</time></trkpt>
<trkpt lat="43.70943401" lon="10.927525973"><ele>24</ele><time>2020-01-19T08:11:42Z</time></trkpt>
<trkpt lat="43.709405009" lon="10.92750703"><ele>24</ele><time>2020-01-19T08:11:43Z</time></trkpt>
<trkpt lat="43.709376007" lon="10.927488003"><ele>24</ele><time>2020-01-19T08:11:44Z</time></trkpt>
<trkpt lat="43.709347006" lon="10.927468976"><ele>24</ele><time>2020-01-19T08:11:45Z</time></trkpt>
<trkpt lat="43.709318005" lon="10.927450033"><ele>24</ele><time>2020-01-19T08:11:46Z</time></trkpt>
<trkpt lat="43.709287997" lon="10.927431006"><ele>24</ele><time>2020-01-19T08:11:47Z</time></trkpt>
<trkpt lat="43.70925799" lon="10.927410973"><ele>24</ele><time>2020-01-19T08:11:48Z</time></trkpt>
<trkpt lat="43.709227983" lon="10.92739203"><ele>24</ele><time>2020-01-19T08:11:49Z</time></trkpt>
<trkpt lat="43.709197976" lon="10.927373003"><ele>24</ele><time>2020-01-19T08:11:50Z</time></trkpt>
<trkpt lat="43.709166963" lon="10.92735297"><ele>24</ele><time>2020-01-19T08:11:51Z</time></trkpt>
<trkpt lat="43.709136033" lon="10.927334027"><ele>24</ele><time>2020-01-19T08:11:52Z</time></trkpt>
<trkpt lat="43.709104015" lon="10.927313995"><ele>24</ele><time>2020-01-19T08:11:53Z</time></trkpt>
<trkpt lat="43.709071996" lon="10.927294968"><ele>24</ele><time>2020-01-19T08:11:54Z</time></trkpt>
<trkpt lat="43.709039977" lon="10.927276025"><ele>24</ele><time>2020-01-19T08:11:55Z</time></trkpt>
<trkpt lat="43.709008042" lon="10.927258004"><ele>24</ele><time>2020-01-19T08:11:56Z</time></trkpt>
<trkpt lat="43.708910979" lon="10.927207042"><ele>24</ele><time>2020-01-19T08:11:59Z</time></trkpt>
<trkpt lat="43.708878038" lon="10.92719296"><ele>24</ele><time>2020-01-19T08:12:00Z</time></trkpt>
<trkpt lat="43.70884602" lon="10.927179968"><ele>24</ele><time>2020-01-19T08:12:01Z</time></trkpt>
<trkpt lat="43.708815007" lon="10.927167982"><ele>24</ele><time>2020-01-19T08:12:02Z</time></trkpt>
<trkpt lat="43.708783993" lon="10.927157002"><ele>24</ele><time>2020-01-19T08:12:03Z</time></trkpt>
<trkpt lat="43.708753986" lon="10.927146021"><ele>24</ele><time>2020-01-19T08:12:04Z</time></trkpt>
<trkpt lat="43.708724985" lon="10.927135963"><ele>24</ele><time>2020-01-19T08:12:05Z</time></trkpt>
<trkpt lat="43.708697995" lon="10.927125989"><ele>24</ele><time>2020-01-19T08:12:06Z</time></trkpt>
<trkpt lat="43.708674023" lon="10.927116014"><ele>24</ele><time>2020-01-19T08:12:07Z</time></trkpt>
<trkpt lat="43.708650973" lon="10.927105034"><ele>24</ele><time>2020-01-19T08:12:08Z</time></trkpt>
<trkpt lat="43.708629012" lon="10.927092964"><ele>24</ele><time>2020-01-19T08:12:09Z</time></trkpt>
<trkpt lat="43.70860504" lon="10.927080978"><ele>24</ele><time>2020-01-19T08:12:10Z</time></trkpt>
<trkpt lat="43.708578972" lon="10.92706698"><ele>24</ele><time>2020-01-19T08:12:11Z</time></trkpt>
<trkpt lat="43.708547959" lon="10.92705097"><ele>24</ele><time>2020-01-19T08:12:12Z</time></trkpt>
<trkpt lat="43.708515018" lon="10.927033033"><ele>24</ele><time>2020-01-19T08:12:13Z</time></trkpt>
<trkpt lat="43.708479982" lon="10.927014006"><ele>25</ele><time>2020-01-19T08:12:14Z</time></trkpt>
<trkpt lat="43.708380992" lon="10.92695198"><ele>25</ele><time>2020-01-19T08:12:17Z</time></trkpt>
<trkpt lat="43.708349979" lon="10.926929014"><ele>25</ele><time>2020-01-19T08:12:18Z</time></trkpt>
<trkpt lat="43.708320977" lon="10.926906969"><ele>25</ele><time>2020-01-19T08:12:19Z</time></trkpt>
<trkpt lat="43.708291976" lon="10.926885009"><ele>25</ele><time>2020-01-19T08:12:20Z</time></trkpt>
<trkpt lat="43.708262974" lon="10.92686397"><ele>25</ele><time>2020-01-19T08:12:21Z</time></trkpt>
<trkpt lat="43.708233973" lon="10.926843015"><ele>25</ele><time>2020-01-19T08:12:22Z</time></trkpt>
<trkpt lat="43.708204972" lon="10.926823989"><ele>25</ele><time>2020-01-19T08:12:23Z</time></trkpt>
<trkpt lat="43.708174964" lon="10.926805967"><ele>25</ele><time>2020-01-19T08:12:24Z</time></trkpt>
<trkpt lat="43.708144035" lon="10.926790042"><ele>25</ele><time>2020-01-19T08:12:25Z</time></trkpt>
<trkpt lat="43.708113022" lon="10.926775038"><ele>25</ele><time>2020-01-19T08:12:26Z</time></trkpt>
<trkpt lat="43.708081003" lon="10.926761962"><ele>25</ele><time>2020-01-19T08:12:27Z</time></trkpt>
<trkpt lat="43.708048984" lon="10.926750982"><ele>25</ele><time>2020-01-19T08:12:28Z</time></trkpt>
<trkpt lat="43.70801596" lon="10.926742014"><ele>25</ele><time>2020-01-19T08:12:29Z</time></trkpt>
<trkpt lat="43.707984025" lon="10.926733967"><ele>25</ele><time>2020-01-19T08:12:30Z</time></trkpt>
<trkpt lat="43.707951" lon="10.926729022"><ele>25</ele><time>2020-01-19T08:12:31Z</time></trkpt>
<trkpt lat="43.707918981" lon="10.926724998"><ele>25</ele><time>2020-01-19T08:12:32Z</time></trkpt>
<trkpt lat="43.70788604" lon="10.926722987"><ele>25</ele><time>2020-01-19T08:12:33Z</time></trkpt>
<trkpt lat="43.707854021" lon="10.926721981"><ele>25</ele><time>2020-01-19T08:12:34Z</time></trkpt>
<trkpt lat="43.707822002" lon="10.926721981"><ele>25</ele><time>2020-01-19T08:12:35Z</time></trkpt>
<trkpt lat="43.707789984" lon="10.926721981"><ele>25</ele><time>2020-01-19T08:12:36Z</time></trkpt>
<trkpt lat="43.707758971" lon="10.926721981"><ele>25</ele><time>2020-01-19T08:12:37Z</time></trkpt>
<trkpt lat="43.707666015" lon="10.926718963"><ele>25</ele><time>2020-01-19T08:12:40Z</time></trkpt>
<trkpt lat="43.707636008" lon="10.92671603"><ele>25</ele><time>2020-01-19T08:12:41Z</time></trkpt>
<trkpt lat="43.707606001" lon="10.926713012"><ele>25</ele><time>2020-01-19T08:12:42Z</time></trkpt>
<trkpt lat="43.707575994" lon="10.926708989"><ele>25</ele><time>2020-01-19T08:12:43Z</time></trkpt>
<trkpt lat="43.707545986" lon="10.926704966"><ele>25</ele><time>2020-01-19T08:12:44Z</time></trkpt>
<trkpt lat="43.707515979" lon="10.926701026"><ele>25</ele><time>2020-01-19T08:12:45Z</time></trkpt>
<trkpt lat="43.707486978" lon="10.926697003"><ele>25</ele><time>2020-01-19T08:12:46Z</time></trkpt>
<trkpt lat="43.707456971" lon="10.926692979"><ele>25</ele><time>2020-01-19T08:12:47Z</time></trkpt>
<trkpt lat="43.707426041" lon="10.92668904"><ele>25</ele><time>2020-01-19T08:12:48Z</time></trkpt>
<trkpt lat="43.707334008" lon="10.926679987"><ele>25</ele><time>2020-01-19T08:12:51Z</time></trkpt>
<trkpt lat="43.707301989" lon="10.926678982"><ele>25</ele><time>2020-01-19T08:12:52Z</time></trkpt>
<trkpt lat="43.70726997" lon="10.926677976"><ele>25</ele><time>2020-01-19T08:12:53Z</time></trkpt>
<trkpt lat="43.707238035" lon="10.926677976"><ele>25</ele><time>2020-01-19T08:12:54Z</time></trkpt>
<trkpt lat="43.707205011" lon="10.926678982"><ele>25</ele><time>2020-01-19T08:12:55Z</time></trkpt>
<trkpt lat="43.70717098" lon="10.926681999"><ele>25</ele><time>2020-01-19T08:12:56Z</time></trkpt>
<trkpt lat="43.707137033" lon="10.926685017"><ele>25</ele><time>2020-01-19T08:12:57Z</time></trkpt>
<trkpt lat="43.707103003" lon="10.926688034"><ele>26</ele><time>2020-01-19T08:12:58Z</time></trkpt>
<trkpt lat="43.707068972" lon="10.926692979"><ele>26</ele><time>2020-01-19T08:12:59Z</time></trkpt>
<trkpt lat="43.70703402" lon="10.926697003"><ele>26</ele><time>2020-01-19T08:13:00Z</time></trkpt>
<trkpt lat="43.706999989" lon="10.926702032"><ele>26</ele><time>2020-01-19T08:13:01Z</time></trkpt>
<trkpt lat="43.706966965" lon="10.926706977"><ele>26</ele><time>2020-01-19T08:13:02Z</time></trkpt>
<trkpt lat="43.706934024" lon="10.926712006"><ele>26</ele><time>2020-01-19T08:13:03Z</time></trkpt>
<trkpt lat="43.706900999" lon="10.926717035"><ele>26</ele><time>2020-01-19T08:13:04Z</time></trkpt>
<trkpt lat="43.706867974" lon="10.926721981"><ele>26</ele><time>2020-01-19T08:13:05Z</time></trkpt>
<trkpt lat="43.706836039" lon="10.92672701"><ele>26</ele><time>2020-01-19T08:13:06Z</time></trkpt>
<trkpt lat="43.70680402" lon="10.926731033"><ele>26</ele><time>2020-01-19T08:13:07Z</time></trkpt>
<trkpt lat="43.706772001" lon="10.926735979"><ele>26</ele><time>2020-01-19T08:13:08Z</time></trkpt>
<trkpt lat="43.706739983" lon="10.926741008"><ele>26</ele><time>2020-01-19T08:13:09Z</time></trkpt>
<trkpt lat="43.706707964" lon="10.926745031"><ele>26</ele><time>2020-01-19T08:13:10Z</time></trkpt>
<trkpt lat="43.706675023" lon="10.926749976"><ele>26</ele><time>2020-01-19T08:13:11Z</time></trkpt>
<trkpt lat="43.706641998" lon="10.926755005"><ele>26</ele><time>2020-01-19T08:13:12Z</time></trkpt>
<trkpt lat="43.706608973" lon="10.926759029"><ele>26</ele><time>2020-01-19T08:13:13Z</time></trkpt>
<trkpt lat="43.706576033" lon="10.926762968"><ele>26</ele><time>2020-01-19T08:13:14Z</time></trkpt>
<trkpt lat="43.706542002" lon="10.926767997"><ele>26</ele><time>2020-01-19T08:13:15Z</time></trkpt>
<trkpt lat="43.706508977" lon="10.926772021"><ele>26</ele><time>2020-01-19T08:13:16Z</time></trkpt>
<trkpt lat="43.706475031" lon="10.92677596"><ele>26</ele><time>2020-01-19T08:13:17Z</time></trkpt>
<trkpt lat="43.706442006" lon="10.926778978"><ele>26</ele><time>2020-01-19T08:13:18Z</time></trkpt>
<trkpt lat="43.706407975" lon="10.926783001"><ele>26</ele><time>2020-01-19T08:13:19Z</time></trkpt>
<trkpt lat="43.706374029" lon="10.926786019"><ele>26</ele><time>2020-01-19T08:13:20Z</time></trkpt>
<trkpt lat="43.706341004" lon="10.92678803"><ele>26</ele><time>2020-01-19T08:13:21Z</time></trkpt>
<trkpt lat="43.706306973" lon="10.926790964"><ele>26</ele><time>2020-01-19T08:13:22Z</time></trkpt>
<trkpt lat="43.706274033" lon="10.926792976"><ele>26</ele><time>2020-01-19T08:13:23Z</time></trkpt>
<trkpt lat="43.706241008" lon="10.926793981"><ele>26</ele><time>2020-01-19T08:13:24Z</time></trkpt>
<trkpt lat="43.706207983" lon="10.926794987"><ele>26</ele><time>2020-01-19T08:13:25Z</time></trkpt>
<trkpt lat="43.706174958" lon="10.926795993"><ele>26</ele><time>2020-01-19T08:13:26Z</time></trkpt>
<trkpt lat="43.706142018" lon="10.926795993"><ele>26</ele><time>2020-01-19T08:13:27Z</time></trkpt>
<trkpt lat="43.706109999" lon="10.926794987"><ele>26</ele><time>2020-01-19T08:13:28Z</time></trkpt>
<trkpt lat="43.70607798" lon="10.926793981"><ele>26</ele><time>2020-01-19T08:13:29Z</time></trkpt>
<trkpt lat="43.706045961" lon="10.92679197"><ele>26</ele><time>2020-01-19T08:13:30Z</time></trkpt>
<trkpt lat="43.706015032" lon="10.926789036"><ele>26</ele><time>2020-01-19T08:13:31Z</time></trkpt>
<trkpt lat="43.705984019" lon="10.926785013"><ele>26</ele><time>2020-01-19T08:13:32Z</time></trkpt>
<trkpt lat="43.705954012" lon="10.926779984"><ele>26</ele><time>2020-01-19T08:13:33Z</time></trkpt>
<trkpt lat="43.705924004" lon="10.926775038"><ele>26</ele><time>2020-01-19T08:13:34Z</time></trkpt>
<trkpt lat="43.705895003" lon="10.926766992"><ele>26</ele><time>2020-01-19T08:13:35Z</time></trkpt>
<trkpt lat="43.705866002" lon="10.926759029"><ele>26</ele><time>2020-01-19T08:13:36Z</time></trkpt>
<trkpt lat="43.705837" lon="10.926749976"><ele>26</ele><time>2020-01-19T08:13:37Z</time></trkpt>
<trkpt lat="43.705807999" lon="10.926741008"><ele>26</ele><time>2020-01-19T08:13:38Z</time></trkpt>
<trkpt lat="43.705777992" lon="10.926731033"><ele>26</ele><time>2020-01-19T08:13:39Z</time></trkpt>
<trkpt lat="43.705747984" lon="10.926720975"><ele>26</ele><time>2020-01-19T08:13:40Z</time></trkpt>
<trkpt lat="43.705715965" lon="10.926711001"><ele>26</ele><time>2020-01-19T08:13:41Z</time></trkpt>
<trkpt lat="43.70568403" lon="10.926701026"><ele>26</ele><time>2020-01-19T08:13:42Z</time></trkpt>
<trkpt lat="43.70565" lon="10.926690968"><ele>26</ele><time>2020-01-19T08:13:43Z</time></trkpt>
<trkpt lat="43.705615969" lon="10.926681999"><ele>26</ele><time>2020-01-19T08:13:44Z</time></trkpt>
<trkpt lat="43.705581017" lon="10.92667303"><ele>26</ele><time>2020-01-19T08:13:45Z</time></trkpt>
<trkpt lat="43.705546986" lon="10.926664984"><ele>26</ele><time>2020-01-19T08:13:46Z</time></trkpt>
<trkpt lat="43.705512034" lon="10.926657021"><ele>26</ele><time>2020-01-19T08:13:47Z</time></trkpt>
<trkpt lat="43.705478003" lon="10.92664998"><ele>26</ele><time>2020-01-19T08:13:48Z</time></trkpt>
<trkpt lat="43.705443973" lon="10.926643023"><ele>26</ele><time>2020-01-19T08:13:49Z</time></trkpt>
<trkpt lat="43.705412038" lon="10.926637994"><ele>26</ele><time>2020-01-19T08:13:50Z</time></trkpt>
<trkpt lat="43.705380019" lon="10.926632965"><ele>26</ele><time>2020-01-19T08:13:51Z</time></trkpt>
<trkpt lat="43.705350012" lon="10.92662802"><ele>26</ele><time>2020-01-19T08:13:52Z</time></trkpt>
<trkpt lat="43.705318999" lon="10.926623996"><ele>26</ele><time>2020-01-19T08:13:53Z</time></trkpt>
<trkpt lat="43.705288991" lon="10.926619973"><ele>26</ele><time>2020-01-19T08:13:54Z</time></trkpt>
<trkpt lat="43.705258984" lon="10.926616034"><ele>26</ele><time>2020-01-19T08:13:55Z</time></trkpt>
<trkpt lat="43.705228977" lon="10.92661201"><ele>26</ele><time>2020-01-19T08:13:56Z</time></trkpt>
<trkpt lat="43.70519897" lon="10.926607987"><ele>26</ele><time>2020-01-19T08:13:57Z</time></trkpt>
<trkpt lat="43.705168962" lon="10.926603042"><ele>26</ele><time>2020-01-19T08:13:58Z</time></trkpt>
<trkpt lat="43.705138033" lon="10.926598012"><ele>26</ele><time>2020-01-19T08:13:59Z</time></trkpt>
<trkpt lat="43.70510702" lon="10.926592983"><ele>26</ele><time>2020-01-19T08:14:00Z</time></trkpt>
<trkpt lat="43.705076007" lon="10.926587032"><ele>26</ele><time>2020-01-19T08:14:01Z</time></trkpt>
<trkpt lat="43.705043988" lon="10.926582003"><ele>26</ele><time>2020-01-19T08:14:02Z</time></trkpt>
<trkpt lat="43.705012975" lon="10.926576974"><ele>26</ele><time>2020-01-19T08:14:03Z</time></trkpt>
<trkpt lat="43.704981962" lon="10.926571023"><ele>26</ele><time>2020-01-19T08:14:04Z</time></trkpt>
<trkpt lat="43.704951033" lon="10.926566999"><ele>26</ele><time>2020-01-19T08:14:05Z</time></trkpt>
<trkpt lat="43.70492002" lon="10.92656197"><ele>26</ele><time>2020-01-19T08:14:06Z</time></trkpt>
<trkpt lat="43.704889007" lon="10.926558031"><ele>26</ele><time>2020-01-19T08:14:07Z</time></trkpt>
<trkpt lat="43.704857994" lon="10.926554007"><ele>26</ele><time>2020-01-19T08:14:08Z</time></trkpt>
<trkpt lat="43.704826981" lon="10.926549984"><ele>26</ele><time>2020-01-19T08:14:09Z</time></trkpt>
<trkpt lat="43.704795968" lon="10.926546967"><ele>26</ele><time>2020-01-19T08:14:10Z</time></trkpt>
<trkpt lat="43.704765039" lon="10.926543027"><ele>26</ele><time>2020-01-19T08:14:11Z</time></trkpt>
<trkpt lat="43.70473302" lon="10.92654001"><ele>26</ele><time>2020-01-19T08:14:12Z</time></trkpt>
<trkpt lat="43.704701001" lon="10.926536992"><ele>26</ele><time>2020-01-19T08:14:13Z</time></trkpt>
<trkpt lat="43.704667976" lon="10.926533975"><ele>26</ele><time>2020-01-19T08:14:14Z</time></trkpt>
<trkpt lat="43.704635035" lon="10.926530035"><ele>26</ele><time>2020-01-19T08:14:15Z</time></trkpt>
<trkpt lat="43.704601005" lon="10.926527018"><ele>26</ele><time>2020-01-19T08:14:16Z</time></trkpt>
<trkpt lat="43.70456798" lon="10.926524"><ele>26</ele><time>2020-01-19T08:14:17Z</time></trkpt>
<trkpt lat="43.704534033" lon="10.926520983"><ele>26</ele><time>2020-01-19T08:14:18Z</time></trkpt>
<trkpt lat="43.704500003" lon="10.926517965"><ele>26</ele><time>2020-01-19T08:14:19Z</time></trkpt>
<trkpt lat="43.704466978" lon="10.926515032"><ele>26</ele><time>2020-01-19T08:14:20Z</time></trkpt>
<trkpt lat="43.704434037" lon="10.92651302"><ele>26</ele><time>2020-01-19T08:14:21Z</time></trkpt>
<trkpt lat="43.704401013" lon="10.926510002"><ele>26</ele><time>2020-01-19T08:14:22Z</time></trkpt>
<trkpt lat="43.704368994" lon="10.926506985"><ele>26</ele><time>2020-01-19T08:14:23Z</time></trkpt>
<trkpt lat="43.704336975" lon="10.926504973"><ele>26</ele><time>2020-01-19T08:14:24Z</time></trkpt>
<trkpt lat="43.704305962" lon="10.926501034"><ele>26</ele><time>2020-01-19T08:14:25Z</time></trkpt>
<trkpt lat="43.704274027" lon="10.926498016"><ele>26</ele><time>2020-01-19T08:14:26Z</time></trkpt>
<trkpt lat="43.704243014" lon="10.926493993"><ele>26</ele><time>2020-01-19T08:14:27Z</time></trkpt>
<trkpt lat="43.704210995" lon="10.926488964"><ele>26</ele><time>2020-01-19T08:14:28Z</time></trkpt>
<trkpt lat="43.704179982" lon="10.926484019"><ele>26</ele><time>2020-01-19T08:14:29Z</time></trkpt>
<trkpt lat="43.704148969" lon="10.926476978"><ele>26</ele><time>2020-01-19T08:14:30Z</time></trkpt>
<trkpt lat="43.704117034" lon="10.926470021"><ele>26</ele><time>2020-01-19T08:14:31Z</time></trkpt>
<trkpt lat="43.704087026" lon="10.92646298"><ele>26</ele><time>2020-01-19T08:14:32Z</time></trkpt>
<trkpt lat="43.704058025" lon="10.926457029"><ele>26</ele><time>2020-01-19T08:14:33Z</time></trkpt>
<trkpt lat="43.704031035" lon="10.926449988"><ele>26</ele><time>2020-01-19T08:14:34Z</time></trkpt>
<trkpt lat="43.704003962" lon="10.926444959"><ele>26</ele><time>2020-01-19T08:14:35Z</time></trkpt>
<trkpt lat="43.703976972" lon="10.926441019"><ele>26</ele><time>2020-01-19T08:14:36Z</time></trkpt>
<trkpt lat="43.703946965" lon="10.926436996"><ele>26</ele><time>2020-01-19T08:14:37Z</time></trkpt>
<trkpt lat="43.70391503" lon="10.926433979"><ele>26</ele><time>2020-01-19T08:14:38Z</time></trkpt>
<trkpt lat="43.703883011" lon="10.926429033"><ele>26</ele><time>2020-01-19T08:14:39Z</time></trkpt>
<trkpt lat="43.703850992" lon="10.926418975"><ele>27</ele><time>2020-01-19T08:14:40Z</time></trkpt>
<trkpt lat="43.703822996" lon="10.926402966"><ele>27</ele><time>2020-01-19T08:14:41Z</time></trkpt>
<trkpt lat="43.70380003" lon="10.926376982"><ele>27</ele><time>2020-01-19T08:14:42Z</time></trkpt>
<trkpt lat="43.703783015" lon="10.926344041"><ele>27</ele><time>2020-01-19T08:14:43Z</time></trkpt>
<trkpt lat="43.703772034" lon="10.926304981"><ele>27</ele><time>2020-01-19T08:14:44Z</time></trkpt>
<trkpt lat="43.703767005" lon="10.926261982"><ele>27</ele><time>2020-01-19T08:14:45Z</time></trkpt>
<trkpt lat="43.703766" lon="10.926217977"><ele>27</ele><time>2020-01-19T08:14:46Z</time></trkpt>
<trkpt lat="43.703769017" lon="10.926172966"><ele>27</ele><time>2020-01-19T08:14:47Z</time></trkpt>
<trkpt lat="43.703773962" lon="10.926128039"><ele>27</ele><time>2020-01-19T08:14:48Z</time></trkpt>
<trkpt lat="43.703781003" lon="10.92608504"><ele>27</ele><time>2020-01-19T08:14:49Z</time></trkpt>
<trkpt lat="43.70378796" lon="10.926042963"><ele>27</ele><time>2020-01-19T08:14:50Z</time></trkpt>
<trkpt lat="43.703793995" lon="10.925999964"><ele>27</ele><time>2020-01-19T08:14:51Z</time></trkpt>
<trkpt lat="43.70380003" lon="10.925956964"><ele>27</ele><time>2020-01-19T08:14:52Z</time></trkpt>
<trkpt lat="43.70380397" lon="10.92591296"><ele>27</ele><time>2020-01-19T08:14:53Z</time></trkpt>
<trkpt lat="43.703806987" lon="10.925867027"><ele>27</ele><time>2020-01-19T08:14:54Z</time></trkpt>
<trkpt lat="43.703808999" lon="10.925820004"><ele>27</ele><time>2020-01-19T08:14:55Z</time></trkpt>
<trkpt lat="43.703808999" lon="10.925771976"><ele>27</ele><time>2020-01-19T08:14:56Z</time></trkpt>
<trkpt lat="43.703808999" lon="10.925725037"><ele>27</ele><time>2020-01-19T08:14:57Z</time></trkpt>
<trkpt lat="43.703807993" lon="10.925677009"><ele>27</ele><time>2020-01-19T08:14:58Z</time></trkpt>
<trkpt lat="43.703805981" lon="10.925628981"><ele>27</ele><time>2020-01-19T08:14:59Z</time></trkpt>
<trkpt lat="43.703802964" lon="10.925581958"><ele>27</ele><time>2020-01-19T08:15:00Z</time></trkpt>
<trkpt lat="43.703801036" lon="10.925536025"><ele>27</ele><time>2020-01-19T08:15:01Z</time></trkpt>
<trkpt lat="43.703798018" lon="10.925491014"><ele>27</ele><time>2020-01-19T08:15:02Z</time></trkpt>
<trkpt lat="43.703796007" lon="10.925446004"><ele>27</ele><time>2020-01-19T08:15:03Z</time></trkpt>
<trkpt lat="43.703792989" lon="10.925403005"><ele>27</ele><time>2020-01-19T08:15:04Z</time></trkpt>
<trkpt lat="43.703789972" lon="10.925360005"><ele>27</ele><time>2020-01-19T08:15:05Z</time></trkpt>
<trkpt lat="43.703787038" lon="10.925317006"><ele>27</ele><time>2020-01-19T08:15:06Z</time></trkpt>
<trkpt lat="43.703784021" lon="10.925275013"><ele>27</ele><time>2020-01-19T08:15:07Z</time></trkpt>
<trkpt lat="43.703781003" lon="10.92523302"><ele>27</ele><time>2020-01-19T08:15:08Z</time></trkpt>
<trkpt lat="43.703773962" lon="10.92510704"><ele>27</ele><time>2020-01-19T08:15:11Z</time></trkpt>
<trkpt lat="43.703771029" lon="10.925064962"><ele>27</ele><time>2020-01-19T08:15:12Z</time></trkpt>
<trkpt lat="43.703769017" lon="10.925022969"><ele>27</ele><time>2020-01-19T08:15:13Z</time></trkpt>
<trkpt lat="43.703768011" lon="10.92497997"><ele>27</ele><time>2020-01-19T08:15:14Z</time></trkpt>
<trkpt lat="43.703767005" lon="10.924935965"><ele>27</ele><time>2020-01-19T08:15:15Z</time></trkpt>
<trkpt lat="43.703766" lon="10.92489196"><ele>27</ele><time>2020-01-19T08:15:16Z</time></trkpt>
<trkpt lat="43.703764994" lon="10.924847033"><ele>27</ele><time>2020-01-19T08:15:17Z</time></trkpt>
<trkpt lat="43.703764994" lon="10.924802022"><ele>28</ele><time>2020-01-19T08:15:18Z</time></trkpt>
<trkpt lat="43.703764994" lon="10.924756005"><ele>28</ele><time>2020-01-19T08:15:19Z</time></trkpt>
<trkpt lat="43.703766" lon="10.924708983"><ele>28</ele><time>2020-01-19T08:15:20Z</time></trkpt>
<trkpt lat="43.703767005" lon="10.92466196"><ele>28</ele><time>2020-01-19T08:15:21Z</time></trkpt>
<trkpt lat="43.703769017" lon="10.924615022"><ele>28</ele><time>2020-01-19T08:15:22Z</time></trkpt>
<trkpt lat="43.703771029" lon="10.924566993"><ele>28</ele><time>2020-01-19T08:15:23Z</time></trkpt>
<trkpt lat="43.70377304" lon="10.924518965"><ele>29</ele><time>2020-01-19T08:15:24Z</time></trkpt>
<trkpt lat="43.703775974" lon="10.924471021"><ele>29</ele><time>2020-01-19T08:15:25Z</time></trkpt>
<trkpt lat="43.703778991" lon="10.924421987"><ele>29</ele><time>2020-01-19T08:15:26Z</time></trkpt>
<trkpt lat="43.703783015" lon="10.924373958"><ele>29</ele><time>2020-01-19T08:15:27Z</time></trkpt>
<trkpt lat="43.703787038" lon="10.924326014"><ele>29</ele><time>2020-01-19T08:15:28Z</time></trkpt>
<trkpt lat="43.703791983" lon="10.924277985"><ele>29</ele><time>2020-01-19T08:15:29Z</time></trkpt>
<trkpt lat="43.703798018" lon="10.924230041"><ele>29</ele><time>2020-01-19T08:15:30Z</time></trkpt>
<trkpt lat="43.70380397" lon="10.924183019"><ele>29</ele><time>2020-01-19T08:15:31Z</time></trkpt>
<trkpt lat="43.703812016" lon="10.924137002"><ele>30</ele><time>2020-01-19T08:15:32Z</time></trkpt>
<trkpt lat="43.703819979" lon="10.924090985"><ele>30</ele><time>2020-01-19T08:15:33Z</time></trkpt>
<trkpt lat="43.703830037" lon="10.924044969"><ele>29</ele><time>2020-01-19T08:15:34Z</time></trkpt>
<trkpt lat="43.703840012" lon="10.924000964"><ele>29</ele><time>2020-01-19T08:15:35Z</time></trkpt>
<trkpt lat="43.703850992" lon="10.923956959"><ele>29</ele><time>2020-01-19T08:15:36Z</time></trkpt>
<trkpt lat="43.703862978" lon="10.923913959"><ele>29</ele><time>2020-01-19T08:15:37Z</time></trkpt>
<trkpt lat="43.703874964" lon="10.923871966"><ele>29</ele><time>2020-01-19T08:15:38Z</time></trkpt>
<trkpt lat="43.703887034" lon="10.923829973"><ele>29</ele><time>2020-01-19T08:15:39Z</time></trkpt>
<trkpt lat="43.703900026" lon="10.923788985"><ele>29</ele><time>2020-01-19T08:15:40Z</time></trkpt>
<trkpt lat="43.703913018" lon="10.923749004"><ele>29</ele><time>2020-01-19T08:15:41Z</time></trkpt>
<trkpt lat="43.70392601" lon="10.923710028"><ele>29</ele><time>2020-01-19T08:15:42Z</time></trkpt>
<trkpt lat="43.703940008" lon="10.923669962"><ele>29</ele><time>2020-01-19T08:15:43Z</time></trkpt>
<trkpt lat="43.703953" lon="10.923631992"><ele>29</ele><time>2020-01-19T08:15:44Z</time></trkpt>
<trkpt lat="43.703966998" lon="10.923593016"><ele>29</ele><time>2020-01-19T08:15:45Z</time></trkpt>
<trkpt lat="43.703980995" lon="10.92355404"><ele>29</ele><time>2020-01-19T08:15:46Z</time></trkpt>
<trkpt lat="43.703995999" lon="10.923514981"><ele>29</ele><time>2020-01-19T08:15:47Z</time></trkpt>
<trkpt lat="43.704011003" lon="10.923474999"><ele>29</ele><time>2020-01-19T08:15:48Z</time></trkpt>
<trkpt lat="43.704025" lon="10.923435017"><ele>28</ele><time>2020-01-19T08:15:49Z</time></trkpt>
<trkpt lat="43.704038998" lon="10.923395036"><ele>28</ele><time>2020-01-19T08:15:50Z</time></trkpt>
<trkpt lat="43.704052996" lon="10.92335497"><ele>28</ele><time>2020-01-19T08:15:51Z</time></trkpt>
<trkpt lat="43.704064982" lon="10.923315994"><ele>28</ele><time>2020-01-19T08:15:52Z</time></trkpt>
<trkpt lat="43.70407504" lon="10.923278024"><ele>28</ele><time>2020-01-19T08:15:53Z</time></trkpt>
<trkpt lat="43.704084009" lon="10.923239971"><ele>28</ele><time>2020-01-19T08:15:54Z</time></trkpt>
<trkpt lat="43.704091972" lon="10.923200995"><ele>28</ele><time>2020-01-19T08:15:55Z</time></trkpt>
<trkpt lat="43.704098007" lon="10.923162019"><ele>28</ele><time>2020-01-19T08:15:56Z</time></trkpt>
<trkpt lat="43.70410203" lon="10.923121031"><ele>28</ele><time>2020-01-19T08:15:57Z</time></trkpt>
<trkpt lat="43.704104964" lon="10.92307996"><ele>28</ele><time>2020-01-19T08:15:58Z</time></trkpt>
<trkpt lat="43.704104964" lon="10.923037967"><ele>28</ele><time>2020-01-19T08:15:59Z</time></trkpt>
<trkpt lat="43.704104042" lon="10.922993962"><ele>28</ele><time>2020-01-19T08:16:00Z</time></trkpt>
<trkpt lat="43.704101024" lon="10.922949035"><ele>28</ele><time>2020-01-19T08:16:01Z</time></trkpt>
<trkpt lat="43.704098007" lon="10.922904024"><ele>28</ele><time>2020-01-19T08:16:02Z</time></trkpt>
<trkpt lat="43.704093983" lon="10.922859013"><ele>28</ele><time>2020-01-19T08:16:03Z</time></trkpt>
<trkpt lat="43.704090966" lon="10.922814002"><ele>28</ele><time>2020-01-19T08:16:04Z</time></trkpt>
<trkpt lat="43.704088032" lon="10.922769997"><ele>28</ele><time>2020-01-19T08:16:05Z</time></trkpt>
<trkpt lat="43.704086021" lon="10.922726998"><ele>28</ele><time>2020-01-19T08:16:06Z</time></trkpt>
<trkpt lat="43.704084009" lon="10.922682993"><ele>28</ele><time>2020-01-19T08:16:07Z</time></trkpt>
<trkpt lat="43.704081997" lon="10.922639994"><ele>28</ele><time>2020-01-19T08:16:08Z</time></trkpt>
<trkpt lat="43.704079986" lon="10.922596995"><ele>28</ele><time>2020-01-19T08:16:09Z</time></trkpt>
<trkpt lat="43.70407898" lon="10.922555001"><ele>28</ele><time>2020-01-19T08:16:10Z</time></trkpt>
<trkpt lat="43.704077974" lon="10.922512002"><ele>28</ele><time>2020-01-19T08:16:11Z</time></trkpt>
<trkpt lat="43.704077974" lon="10.922469003"><ele>28</ele><time>2020-01-19T08:16:12Z</time></trkpt>
<trkpt lat="43.704076968" lon="10.92242701"><ele>28</ele><time>2020-01-19T08:16:13Z</time></trkpt>
<trkpt lat="43.704076968" lon="10.922384011"><ele>28</ele><time>2020-01-19T08:16:14Z</time></trkpt>
<trkpt lat="43.704076968" lon="10.922341011"><ele>28</ele><time>2020-01-19T08:16:15Z</time></trkpt>
<trkpt lat="43.704076968" lon="10.922297006"><ele>28</ele><time>2020-01-19T08:16:16Z</time></trkpt>
<trkpt lat="43.704076968" lon="10.922253001"><ele>28</ele><time>2020-01-19T08:16:17Z</time></trkpt>
<trkpt lat="43.704077974" lon="10.922208996"><ele>28</ele><time>2020-01-19T08:16:18Z</time></trkpt>
<trkpt lat="43.704077974" lon="10.922163986"><ele>28</ele><time>2020-01-19T08:16:19Z</time></trkpt>
<trkpt lat="43.704077974" lon="10.922118975"><ele>28</ele><time>2020-01-19T08:16:20Z</time></trkpt>
<trkpt lat="43.70407898" lon="10.922072958"><ele>28</ele><time>2020-01-19T08:16:21Z</time></trkpt>
<trkpt lat="43.704079986" lon="10.922028031"><ele>28</ele><time>2020-01-19T08:16:22Z</time></trkpt>
<trkpt lat="43.704079986" lon="10.921982015"><ele>28</ele><time>2020-01-19T08:16:23Z</time></trkpt>
<trkpt lat="43.704080991" lon="10.921935998"><ele>28</ele><time>2020-01-19T08:16:24Z</time></trkpt>
<trkpt lat="43.704081997" lon="10.921889981"><ele>28</ele><time>2020-01-19T08:16:25Z</time></trkpt>
<trkpt lat="43.704081997" lon="10.92184497"><ele>28</ele><time>2020-01-19T08:16:26Z</time></trkpt>
<trkpt lat="43.704083003" lon="10.921800965"><ele>28</ele><time>2020-01-19T08:16:27Z</time></trkpt>
<trkpt lat="43.704084009" lon="10.92175696"><ele>28</ele><time>2020-01-19T08:16:28Z</time></trkpt>
<trkpt lat="43.704085015" lon="10.921713961"><ele>28</ele><time>2020-01-19T08:16:29Z</time></trkpt>
<trkpt lat="43.704085015" lon="10.921670962"><ele>28</ele><time>2020-01-19T08:16:30Z</time></trkpt>
<trkpt lat="43.704086021" lon="10.921628969"><ele>28</ele><time>2020-01-19T08:16:31Z</time></trkpt>
<trkpt lat="43.704086021" lon="10.921586975"><ele>28</ele><time>2020-01-19T08:16:32Z</time></trkpt>
<trkpt lat="43.704086021" lon="10.921544982"><ele>28</ele><time>2020-01-19T08:16:33Z</time></trkpt>
<trkpt lat="43.704086021" lon="10.921501983"><ele>28</ele><time>2020-01-19T08:16:34Z</time></trkpt>
<trkpt lat="43.704085015" lon="10.921458984"><ele>27</ele><time>2020-01-19T08:16:35Z</time></trkpt>
<trkpt lat="43.704084009" lon="10.921415985"><ele>27</ele><time>2020-01-19T08:16:36Z</time></trkpt>
<trkpt lat="43.704083003" lon="10.92137198"><ele>27</ele><time>2020-01-19T08:16:37Z</time></trkpt>
<trkpt lat="43.704081997" lon="10.921327975"><ele>27</ele><time>2020-01-19T08:16:38Z</time></trkpt>
<trkpt lat="43.704079986" lon="10.921282964"><ele>27</ele><time>2020-01-19T08:16:39Z</time></trkpt>
<trkpt lat="43.704076968" lon="10.921238037"><ele>27</ele><time>2020-01-19T08:16:40Z</time></trkpt>
<trkpt lat="43.704074034" lon="10.921193026"><ele>27</ele><time>2020-01-19T08:16:41Z</time></trkpt>
<trkpt lat="43.704071017" lon="10.921148015"><ele>27</ele><time>2020-01-19T08:16:42Z</time></trkpt>
<trkpt lat="43.704066994" lon="10.921101999"><ele>27</ele><time>2020-01-19T08:16:43Z</time></trkpt>
<trkpt lat="43.704061965" lon="10.921056988"><ele>27</ele><time>2020-01-19T08:16:44Z</time></trkpt>
<trkpt lat="43.704056013" lon="10.921011977"><ele>27</ele><time>2020-01-19T08:16:45Z</time></trkpt>
<trkpt lat="43.704049978" lon="10.920966966"><ele>27</ele><time>2020-01-19T08:16:46Z</time></trkpt>
<trkpt lat="43.704043021" lon="10.920922039"><ele>26</ele><time>2020-01-19T08:16:47Z</time></trkpt>
<trkpt lat="43.704035981" lon="10.920877028"><ele>26</ele><time>2020-01-19T08:16:48Z</time></trkpt>
<trkpt lat="43.704027012" lon="10.920833023"><ele>26</ele><time>2020-01-19T08:16:49Z</time></trkpt>
<trkpt lat="43.70401796" lon="10.920789018"><ele>26</ele><time>2020-01-19T08:16:50Z</time></trkpt>
<trkpt lat="43.704007985" lon="10.920746019"><ele>27</ele><time>2020-01-19T08:16:51Z</time></trkpt>
<trkpt lat="43.703997005" lon="10.92070302"><ele>27</ele><time>2020-01-19T08:16:52Z</time></trkpt>
<trkpt lat="43.703985019" lon="10.920661027"><ele>27</ele><time>2020-01-19T08:16:53Z</time></trkpt>
<trkpt lat="43.703973033" lon="10.920619033"><ele>27</ele><time>2020-01-19T08:16:54Z</time></trkpt>
<trkpt lat="43.703960041" lon="10.920577962"><ele>27</ele><time>2020-01-19T08:16:55Z</time></trkpt>
<trkpt lat="43.703945959" lon="10.920536974"><ele>27</ele><time>2020-01-19T08:16:56Z</time></trkpt>
<trkpt lat="43.703931961" lon="10.920496993"><ele>27</ele><time>2020-01-19T08:16:57Z</time></trkpt>
<trkpt lat="43.703917963" lon="10.920456005"><ele>27</ele><time>2020-01-19T08:16:58Z</time></trkpt>
<trkpt lat="43.703903966" lon="10.920417029"><ele>27</ele><time>2020-01-19T08:16:59Z</time></trkpt>
<trkpt lat="43.703888962" lon="10.920376964"><ele>27</ele><time>2020-01-19T08:17:00Z</time></trkpt>
<trkpt lat="43.703873958" lon="10.920337988"><ele>27</ele><time>2020-01-19T08:17:01Z</time></trkpt>
<trkpt lat="43.703859961" lon="10.920300018"><ele>28</ele><time>2020-01-19T08:17:02Z</time></trkpt>
<trkpt lat="43.703845041" lon="10.920260958"><ele>28</ele><time>2020-01-19T08:17:03Z</time></trkpt>
<trkpt lat="43.703830959" lon="10.920222988"><ele>28</ele><time>2020-01-19T08:17:04Z</time></trkpt>
<trkpt lat="43.703816961" lon="10.920185018"><ele>28</ele><time>2020-01-19T08:17:05Z</time></trkpt>
<trkpt lat="43.703802964" lon="10.920146964"><ele>28</ele><time>2020-01-19T08:17:06Z</time></trkpt>
<trkpt lat="43.703789972" lon="10.92011"><ele>28</ele><time>2020-01-19T08:17:07Z</time></trkpt>
<trkpt lat="43.70377698" lon="10.920073036"><ele>28</ele><time>2020-01-19T08:17:08Z</time></trkpt>
<trkpt lat="43.703763988" lon="10.920035988"><ele>28</ele><time>2020-01-19T08:17:09Z</time></trkpt>
<trkpt lat="43.703752002" lon="10.919999024"><ele>28</ele><time>2020-01-19T08:17:10Z</time></trkpt>
<trkpt lat="43.703740016" lon="10.919961976"><ele>28</ele><time>2020-01-19T08:17:11Z</time></trkpt>
<trkpt lat="43.70372803" lon="10.919925012"><ele>28</ele><time>2020-01-19T08:17:12Z</time></trkpt>
<trkpt lat="43.703716965" lon="10.919887964"><ele>28</ele><time>2020-01-19T08:17:13Z</time></trkpt>
<trkpt lat="43.703705985" lon="10.919850999"><ele>28</ele><time>2020-01-19T08:17:14Z</time></trkpt>
<trkpt lat="43.703695005" lon="10.919815041"><ele>28</ele><time>2020-01-19T08:17:15Z</time></trkpt>
<trkpt lat="43.703684025" lon="10.919777993"><ele>29</ele><time>2020-01-19T08:17:16Z</time></trkpt>
<trkpt lat="43.703673966" lon="10.919741029"><ele>29</ele><time>2020-01-19T08:17:17Z</time></trkpt>
<trkpt lat="43.703662986" lon="10.919703981"><ele>29</ele><time>2020-01-19T08:17:18Z</time></trkpt>
<trkpt lat="43.703653011" lon="10.919667017"><ele>29</ele><time>2020-01-19T08:17:19Z</time></trkpt>
<trkpt lat="43.703643037" lon="10.919628963"><ele>29</ele><time>2020-01-19T08:17:20Z</time></trkpt>
<trkpt lat="43.703631973" lon="10.919591999"><ele>29</ele><time>2020-01-19T08:17:21Z</time></trkpt>
<trkpt lat="43.703621998" lon="10.919554029"><ele>29</ele><time>2020-01-19T08:17:22Z</time></trkpt>
<trkpt lat="43.703612024" lon="10.919515975"><ele>29</ele><time>2020-01-19T08:17:23Z</time></trkpt>
<trkpt lat="43.703600038" lon="10.919482028"><ele>29</ele><time>2020-01-19T08:17:24Z</time></trkpt>
<trkpt lat="43.70358604" lon="10.919453027"><ele>29</ele><time>2020-01-19T08:17:25Z</time></trkpt>
<trkpt lat="43.703568019" lon="10.919434"><ele>29</ele><time>2020-01-19T08:17:26Z</time></trkpt>
<trkpt lat="43.703544969" lon="10.919425031"><ele>30</ele><time>2020-01-19T08:17:27Z</time></trkpt>
<trkpt lat="43.703518985" lon="10.919425031"><ele>30</ele><time>2020-01-19T08:17:28Z</time></trkpt>
<trkpt lat="43.703436004" lon="10.91944498"><ele>30</ele><time>2020-01-19T08:17:31Z</time></trkpt>
<trkpt lat="43.70341002" lon="10.919450009"><ele>30</ele><time>2020-01-19T08:17:32Z</time></trkpt>
<trkpt lat="43.703384958" lon="10.919452021"><ele>31</ele><time>2020-01-19T08:17:33Z</time></trkpt>
<trkpt lat="43.703358974" lon="10.919451015"><ele>31</ele><time>2020-01-19T08:17:34Z</time></trkpt>
<trkpt lat="43.703331985" lon="10.919447998"><ele>31</ele><time>2020-01-19T08:17:35Z</time></trkpt>
<trkpt lat="43.703303989" lon="10.919441963"><ele>31</ele><time>2020-01-19T08:17:36Z</time></trkpt>
<trkpt lat="43.703275993" lon="10.919435006"><ele>32</ele><time>2020-01-19T08:17:37Z</time></trkpt>
<trkpt lat="43.703247998" lon="10.919427965"><ele>32</ele><time>2020-01-19T08:17:38Z</time></trkpt>
<trkpt lat="43.703220002" lon="10.919421008"><ele>33</ele><time>2020-01-19T08:17:39Z</time></trkpt>
<trkpt lat="43.703193013" lon="10.919413967"><ele>33</ele><time>2020-01-19T08:17:40Z</time></trkpt>
<trkpt lat="43.703167029" lon="10.919408016"><ele>33</ele><time>2020-01-19T08:17:41Z</time></trkpt>
<trkpt lat="43.703140961" lon="10.919401981"><ele>34</ele><time>2020-01-19T08:17:42Z</time></trkpt>
<trkpt lat="43.703114977" lon="10.91939603"><ele>34</ele><time>2020-01-19T08:17:43Z</time></trkpt>
<trkpt lat="43.703091005" lon="10.919391001"><ele>34</ele><time>2020-01-19T08:17:44Z</time></trkpt>
<trkpt lat="43.703067033" lon="10.919384966"><ele>34</ele><time>2020-01-19T08:17:45Z</time></trkpt>
<trkpt lat="43.703043982" lon="10.919379015"><ele>35</ele><time>2020-01-19T08:17:46Z</time></trkpt>
<trkpt lat="43.703022022" lon="10.91937298"><ele>35</ele><time>2020-01-19T08:17:47Z</time></trkpt>
<trkpt lat="43.702999977" lon="10.919366023"><ele>35</ele><time>2020-01-19T08:17:48Z</time></trkpt>
<trkpt lat="43.702979023" lon="10.919359988"><ele>35</ele><time>2020-01-19T08:17:49Z</time></trkpt>
<trkpt lat="43.702915991" lon="10.919341967"><ele>36</ele><time>2020-01-19T08:17:52Z</time></trkpt>
<trkpt lat="43.702896042" lon="10.919336015"><ele>36</ele><time>2020-01-19T08:17:53Z</time></trkpt>
<trkpt lat="43.702875003" lon="10.919330986"><ele>37</ele><time>2020-01-19T08:17:54Z</time></trkpt>
<trkpt lat="43.702852959" lon="10.919326041"><ele>37</ele><time>2020-01-19T08:17:55Z</time></trkpt>
<trkpt lat="43.702832004" lon="10.919322018"><ele>37</ele><time>2020-01-19T08:17:56Z</time></trkpt>
<trkpt lat="43.70280996" lon="10.919316988"><ele>37</ele><time>2020-01-19T08:17:57Z</time></trkpt>
<trkpt lat="43.702787999" lon="10.919313971"><ele>38</ele><time>2020-01-19T08:17:58Z</time></trkpt>
<trkpt lat="43.702766038" lon="10.919310031"><ele>38</ele><time>2020-01-19T08:17:59Z</time></trkpt>
<trkpt lat="43.702742988" lon="10.919307014"><ele>38</ele><time>2020-01-19T08:18:00Z</time></trkpt>
<trkpt lat="43.702721028" lon="10.919303996"><ele>38</ele><time>2020-01-19T08:18:01Z</time></trkpt>
<trkpt lat="43.702697977" lon="10.919300979"><ele>39</ele><time>2020-01-19T08:18:02Z</time></trkpt>
<trkpt lat="43.702675011" lon="10.919297962"><ele>39</ele><time>2020-01-19T08:18:03Z</time></trkpt>
<trkpt lat="43.702651039" lon="10.919295028"><ele>39</ele><time>2020-01-19T08:18:04Z</time></trkpt>
<trkpt lat="43.702627989" lon="10.919293016"><ele>39</ele><time>2020-01-19T08:18:05Z</time></trkpt>
<trkpt lat="43.702604016" lon="10.919291005"><ele>40</ele><time>2020-01-19T08:18:06Z</time></trkpt>
<trkpt lat="43.70257996" lon="10.919287987"><ele>40</ele><time>2020-01-19T08:18:07Z</time></trkpt>
<trkpt lat="43.702555988" lon="10.919285975"><ele>40</ele><time>2020-01-19T08:18:08Z</time></trkpt>
<trkpt lat="43.70253101" lon="10.919283964"><ele>41</ele><time>2020-01-19T08:18:09Z</time></trkpt>
<trkpt lat="43.702507038" lon="10.91928103"><ele>41</ele><time>2020-01-19T08:18:10Z</time></trkpt>
<trkpt lat="43.702481976" lon="10.919279018"><ele>41</ele><time>2020-01-19T08:18:11Z</time></trkpt>
<trkpt lat="43.702456998" lon="10.919277007"><ele>41</ele><time>2020-01-19T08:18:12Z</time></trkpt>
<trkpt lat="43.70243202" lon="10.919274995"><ele>42</ele><time>2020-01-19T08:18:13Z</time></trkpt>
<trkpt lat="43.702406036" lon="10.919272983"><ele>42</ele><time>2020-01-19T08:18:14Z</time></trkpt>
<trkpt lat="43.702380974" lon="10.919270972"><ele>42</ele><time>2020-01-19T08:18:15Z</time></trkpt>
<trkpt lat="43.70235499" lon="10.919269966"><ele>43</ele><time>2020-01-19T08:18:16Z</time></trkpt>
<trkpt lat="43.702329006" lon="10.91926896"><ele>43</ele><time>2020-01-19T08:18:17Z</time></trkpt>
<trkpt lat="43.702303022" lon="10.919268038"><ele>44</ele><time>2020-01-19T08:18:18Z</time></trkpt>
<trkpt lat="43.702277038" lon="10.919268038"><ele>44</ele><time>2020-01-19T08:18:19Z</time></trkpt>
<trkpt lat="43.702250971" lon="10.919268038"><ele>44</ele><time>2020-01-19T08:18:20Z</time></trkpt>
<trkpt lat="43.702224987" lon="10.91926896"><ele>45</ele><time>2020-01-19T08:18:21Z</time></trkpt>
<trkpt lat="43.702199003" lon="10.919269966"><ele>45</ele><time>2020-01-19T08:18:22Z</time></trkpt>
<trkpt lat="43.702173019" lon="10.919271978"><ele>45</ele><time>2020-01-19T08:18:23Z</time></trkpt>
<trkpt lat="43.702147035" lon="10.919274995"><ele>46</ele><time>2020-01-19T08:18:24Z</time></trkpt>
<trkpt lat="43.702119961" lon="10.919278013"><ele>46</ele><time>2020-01-19T08:18:25Z</time></trkpt>
<trkpt lat="43.702093977" lon="10.919282036"><ele>47</ele><time>2020-01-19T08:18:26Z</time></trkpt>
<trkpt lat="43.702067994" lon="10.919285975"><ele>47</ele><time>2020-01-19T08:18:27Z</time></trkpt>
<trkpt lat="43.70204201" lon="10.919291005"><ele>47</ele><time>2020-01-19T08:18:28Z</time></trkpt>
<trkpt lat="43.702017032" lon="10.919295028"><ele>48</ele><time>2020-01-19T08:18:29Z</time></trkpt>
<trkpt lat="43.70199197" lon="10.919297962"><ele>48</ele><time>2020-01-19T08:18:30Z</time></trkpt>
<trkpt lat="43.701967997" lon="10.919299973"><ele>48</ele><time>2020-01-19T08:18:31Z</time></trkpt>
<trkpt lat="43.701945031" lon="10.919300979"><ele>49</ele><time>2020-01-19T08:18:32Z</time></trkpt>
<trkpt lat="43.701922987" lon="10.919299973"><ele>49</ele><time>2020-01-19T08:18:33Z</time></trkpt>
<trkpt lat="43.701902032" lon="10.919296034"><ele>49</ele><time>2020-01-19T08:18:34Z</time></trkpt>
<trkpt lat="43.701881999" lon="10.919291005"><ele>50</ele><time>2020-01-19T08:18:35Z</time></trkpt>
<trkpt lat="43.701861966" lon="10.91928497"><ele>50</ele><time>2020-01-19T08:18:36Z</time></trkpt>
<trkpt lat="43.701843023" lon="10.919279018"><ele>50</ele><time>2020-01-19T08:18:37Z</time></trkpt>
<trkpt lat="43.701823996" lon="10.919272983"><ele>50</ele><time>2020-01-19T08:18:38Z</time></trkpt>
<trkpt lat="43.701803964" lon="10.919267032"><ele>51</ele><time>2020-01-19T08:18:39Z</time></trkpt>
<trkpt lat="43.701784015" lon="10.919263009"><ele>51</ele><time>2020-01-19T08:18:40Z</time></trkpt>
<trkpt lat="43.701762976" lon="10.919262003"><ele>51</ele><time>2020-01-19T08:18:41Z</time></trkpt>
<trkpt lat="43.70174001" lon="10.919262003"><ele>51</ele><time>2020-01-19T08:18:42Z</time></trkpt>
<trkpt lat="43.701716959" lon="10.919266026"><ele>52</ele><time>2020-01-19T08:18:43Z</time></trkpt>
<trkpt lat="43.701692987" lon="10.919271978"><ele>52</ele><time>2020-01-19T08:18:44Z</time></trkpt>
<trkpt lat="43.701669015" lon="10.919280024"><ele>53</ele><time>2020-01-19T08:18:45Z</time></trkpt>
<trkpt lat="43.701644959" lon="10.919289999"><ele>53</ele><time>2020-01-19T08:18:46Z</time></trkpt>
<trkpt lat="43.701621993" lon="10.919302991"><ele>53</ele><time>2020-01-19T08:18:47Z</time></trkpt>
<trkpt lat="43.701599026" lon="10.919316988"><ele>53</ele><time>2020-01-19T08:18:48Z</time></trkpt>
<trkpt lat="43.701577988" lon="10.919334004"><ele>53</ele><time>2020-01-19T08:18:49Z</time></trkpt>
<trkpt lat="43.701558039" lon="10.919351019"><ele>54</ele><time>2020-01-19T08:18:50Z</time></trkpt>
<trkpt lat="43.701539012" lon="10.919370968"><ele>54</ele><time>2020-01-19T08:18:51Z</time></trkpt>
<trkpt lat="43.701521996" lon="10.919391001"><ele>54</ele><time>2020-01-19T08:18:52Z</time></trkpt>
<trkpt lat="43.701505987" lon="10.919413967"><ele>54</ele><time>2020-01-19T08:18:53Z</time></trkpt>
<trkpt lat="43.701490983" lon="10.919437017"><ele>54</ele><time>2020-01-19T08:18:54Z</time></trkpt>
<trkpt lat="43.701476986" lon="10.919461995"><ele>55</ele><time>2020-01-19T08:18:55Z</time></trkpt>
<trkpt lat="43.701463994" lon="10.919487979"><ele>55</ele><time>2020-01-19T08:18:56Z</time></trkpt>
<trkpt lat="43.701451002" lon="10.919515975"><ele>55</ele><time>2020-01-19T08:18:57Z</time></trkpt>
<trkpt lat="43.701440021" lon="10.91954397"><ele>55</ele><time>2020-01-19T08:18:58Z</time></trkpt>
<trkpt lat="43.701429041" lon="10.919572972"><ele>55</ele><time>2020-01-19T08:18:59Z</time></trkpt>
<trkpt lat="43.701418983" lon="10.919602979"><ele>55</ele><time>2020-01-19T08:19:00Z</time></trkpt>
<trkpt lat="43.701410014" lon="10.919632986"><ele>55</ele><time>2020-01-19T08:19:01Z</time></trkpt>
<trkpt lat="43.701400962" lon="10.919663999"><ele>56</ele><time>2020-01-19T08:19:02Z</time></trkpt>
<trkpt lat="43.701392999" lon="10.919696018"><ele>56</ele><time>2020-01-19T08:19:03Z</time></trkpt>
<trkpt lat="43.701385036" lon="10.919727031"><ele>56</ele><time>2020-01-19T08:19:04Z</time></trkpt>
<trkpt lat="43.701377995" lon="10.919758966"><ele>56</ele><time>2020-01-19T08:19:05Z</time></trkpt>
<trkpt lat="43.701371038" lon="10.919789979"><ele>56</ele><time>2020-01-19T08:19:06Z</time></trkpt>
<trkpt lat="43.701365003" lon="10.919820992"><ele>56</ele><time>2020-01-19T08:19:07Z</time></trkpt>
<trkpt lat="43.701359974" lon="10.919852005"><ele>56</ele><time>2020-01-19T08:19:08Z</time></trkpt>
<trkpt lat="43.701355029" lon="10.919883018"><ele>56</ele><time>2020-01-19T08:19:09Z</time></trkpt>
<trkpt lat="43.70135" lon="10.91991202"><ele>57</ele><time>2020-01-19T08:19:10Z</time></trkpt>
<trkpt lat="43.701345976" lon="10.919942027"><ele>57</ele><time>2020-01-19T08:19:11Z</time></trkpt>
<trkpt lat="43.701342037" lon="10.919970023"><ele>57</ele><time>2020-01-19T08:19:12Z</time></trkpt>
<trkpt lat="43.701338014" lon="10.919997012"><ele>57</ele><time>2020-01-19T08:19:13Z</time></trkpt>
<trkpt lat="43.701334996" lon="10.920025008"><ele>57</ele><time>2020-01-19T08:19:14Z</time></trkpt>
<trkpt lat="43.701332984" lon="10.920054009"><ele>57</ele><time>2020-01-19T08:19:15Z</time></trkpt>
<trkpt lat="43.701330973" lon="10.920086028"><ele>57</ele><time>2020-01-19T08:19:16Z</time></trkpt>
<trkpt lat="43.701330973" lon="10.920121986"><ele>57</ele><time>2020-01-19T08:19:17Z</time></trkpt>
<trkpt lat="43.701330973" lon="10.920160962"><ele>57</ele><time>2020-01-19T08:19:18Z</time></trkpt>
<trkpt lat="43.701331979" lon="10.920200022"><ele>58</ele><time>2020-01-19T08:19:19Z</time></trkpt>
<trkpt lat="43.701331979" lon="10.920238998"><ele>58</ele><time>2020-01-19T08:19:20Z</time></trkpt>
<trkpt lat="43.701332984" lon="10.92027504"><ele>58</ele><time>2020-01-19T08:19:21Z</time></trkpt>
<trkpt lat="43.701332984" lon="10.920308987"><ele>58</ele><time>2020-01-19T08:19:22Z</time></trkpt>
<trkpt lat="43.70133399" lon="10.920341006"><ele>58</ele><time>2020-01-19T08:19:23Z</time></trkpt>
<trkpt lat="43.70133399" lon="10.920372019"><ele>58</ele><time>2020-01-19T08:19:24Z</time></trkpt>
<trkpt lat="43.70133399" lon="10.92040102"><ele>58</ele><time>2020-01-19T08:19:25Z</time></trkpt>
<trkpt lat="43.701332984" lon="10.920430021"><ele>59</ele><time>2020-01-19T08:19:26Z</time></trkpt>
<trkpt lat="43.701331979" lon="10.920517026"><ele>59</ele><time>2020-01-19T08:19:29Z</time></trkpt>
<trkpt lat="43.701330973" lon="10.920546027"><ele>59</ele><time>2020-01-19T08:19:30Z</time></trkpt>
<trkpt lat="43.701330973" lon="10.920576034"><ele>59</ele><time>2020-01-19T08:19:31Z</time></trkpt>
<trkpt lat="43.701329967" lon="10.920606041"><ele>59</ele><time>2020-01-19T08:19:32Z</time></trkpt>
<trkpt lat="43.701328961" lon="10.920636971"><ele>59</ele><time>2020-01-19T08:19:33Z</time></trkpt>
<trkpt lat="43.701328961" lon="10.920667984"><ele>59</ele><time>2020-01-19T08:19:34Z</time></trkpt>
<trkpt lat="43.701328039" lon="10.920698997"><ele>60</ele><time>2020-01-19T08:19:35Z</time></trkpt>
<trkpt lat="43.701328039" lon="10.920731016"><ele>60</ele><time>2020-01-19T08:19:36Z</time></trkpt>
<trkpt lat="43.701328039" lon="10.920763034"><ele>60</ele><time>2020-01-19T08:19:37Z</time></trkpt>
<trkpt lat="43.701328039" lon="10.920795975"><ele>60</ele><time>2020-01-19T08:19:38Z</time></trkpt>
<trkpt lat="43.701328039" lon="10.920829"><ele>60</ele><time>2020-01-19T08:19:39Z</time></trkpt>
<trkpt lat="43.701328961" lon="10.920862025"><ele>60</ele><time>2020-01-19T08:19:40Z</time></trkpt>
<trkpt lat="43.701329967" lon="10.920894966"><ele>60</ele><time>2020-01-19T08:19:41Z</time></trkpt>
<trkpt lat="43.701330973" lon="10.920928996"><ele>60</ele><time>2020-01-19T08:19:42Z</time></trkpt>
<trkpt lat="43.701332984" lon="10.920963027"><ele>60</ele><time>2020-01-19T08:19:43Z</time></trkpt>
<trkpt lat="43.701336002" lon="10.920996973"><ele>60</ele><time>2020-01-19T08:19:44Z</time></trkpt>
<trkpt lat="43.701338014" lon="10.921031004"><ele>60</ele><time>2020-01-19T08:19:45Z</time></trkpt>
<trkpt lat="43.701342037" lon="10.921065034"><ele>60</ele><time>2020-01-19T08:19:46Z</time></trkpt>
<trkpt lat="43.701345976" lon="10.921098981"><ele>60</ele><time>2020-01-19T08:19:47Z</time></trkpt>
<trkpt lat="43.701352011" lon="10.921132006"><ele>60</ele><time>2020-01-19T08:19:48Z</time></trkpt>
<trkpt lat="43.701357963" lon="10.92116503"><ele>60</ele><time>2020-01-19T08:19:49Z</time></trkpt>
<trkpt lat="43.701366009" lon="10.92119596"><ele>60</ele><time>2020-01-19T08:19:50Z</time></trkpt>
<trkpt lat="43.701374978" lon="10.921224961"><ele>60</ele><time>2020-01-19T08:19:51Z</time></trkpt>
<trkpt lat="43.701386964" lon="10.92125304"><ele>60</ele><time>2020-01-19T08:19:52Z</time></trkpt>
<trkpt lat="43.70140004" lon="10.921278019"><ele>60</ele><time>2020-01-19T08:19:53Z</time></trkpt>
<trkpt lat="43.70141496" lon="10.921299979"><ele>60</ele><time>2020-01-19T08:19:54Z</time></trkpt>
<trkpt lat="43.701431975" lon="10.921316994"><ele>60</ele><time>2020-01-19T08:19:55Z</time></trkpt>
<trkpt lat="43.701453013" lon="10.92132898"><ele>60</ele><time>2020-01-19T08:19:56Z</time></trkpt>
<trkpt lat="43.701474974" lon="10.921335015"><ele>60</ele><time>2020-01-19T08:19:57Z</time></trkpt>
<trkpt lat="43.701501042" lon="10.921338033"><ele>60</ele><time>2020-01-19T08:19:58Z</time></trkpt>
<trkpt lat="43.701527026" lon="10.921343984"><ele>60</ele><time>2020-01-19T08:19:59Z</time></trkpt>
<trkpt lat="43.701555021" lon="10.921353959"><ele>60</ele><time>2020-01-19T08:20:00Z</time></trkpt>
<trkpt lat="43.701582011" lon="10.921369968"><ele>60</ele><time>2020-01-19T08:20:01Z</time></trkpt>
<trkpt lat="43.701609001" lon="10.921392012"><ele>60</ele><time>2020-01-19T08:20:02Z</time></trkpt>
<trkpt lat="43.701634984" lon="10.92141699"><ele>60</ele><time>2020-01-19T08:20:03Z</time></trkpt>
<trkpt lat="43.701658035" lon="10.921446998"><ele>60</ele><time>2020-01-19T08:20:04Z</time></trkpt>
<trkpt lat="43.701677984" lon="10.921480022"><ele>60</ele><time>2020-01-19T08:20:05Z</time></trkpt>
<trkpt lat="43.701693993" lon="10.921515981"><ele>60</ele><time>2020-01-19T08:20:06Z</time></trkpt>
<trkpt lat="43.701705979" lon="10.92155504"><ele>59</ele><time>2020-01-19T08:20:07Z</time></trkpt>
<trkpt lat="43.701712014" lon="10.921596028"><ele>59</ele><time>2020-01-19T08:20:08Z</time></trkpt>
<trkpt lat="43.701714026" lon="10.921638021"><ele>59</ele><time>2020-01-19T08:20:09Z</time></trkpt>
<trkpt lat="43.701711008" lon="10.921682026"><ele>59</ele><time>2020-01-19T08:20:10Z</time></trkpt>
<trkpt lat="43.701705979" lon="10.921727037"><ele>60</ele><time>2020-01-19T08:20:11Z</time></trkpt>
<trkpt lat="43.701697011" lon="10.921771964"><ele>60</ele><time>2020-01-19T08:20:12Z</time></trkpt>
<trkpt lat="43.701687036" lon="10.921818987"><ele>60</ele><time>2020-01-19T08:20:13Z</time></trkpt>
<trkpt lat="43.701653006" lon="10.921957036"><ele>60</ele><time>2020-01-19T08:20:16Z</time></trkpt>
<trkpt lat="43.701642025" lon="10.922002969"><ele>60</ele><time>2020-01-19T08:20:17Z</time></trkpt>
<trkpt lat="43.701630961" lon="10.92204798"><ele>61</ele><time>2020-01-19T08:20:18Z</time></trkpt>
<trkpt lat="43.701620987" lon="10.922092991"><ele>61</ele><time>2020-01-19T08:20:19Z</time></trkpt>
<trkpt lat="43.701611012" lon="10.922136996"><ele>61</ele><time>2020-01-19T08:20:20Z</time></trkpt>
<trkpt lat="43.70160196" lon="10.922181001"><ele>61</ele><time>2020-01-19T08:20:21Z</time></trkpt>
<trkpt lat="43.701591985" lon="10.922224"><ele>61</ele><time>2020-01-19T08:20:22Z</time></trkpt>
<trkpt lat="43.701583017" lon="10.922268005"><ele>61</ele><time>2020-01-19T08:20:23Z</time></trkpt>
<trkpt lat="43.70157497" lon="10.922311004"><ele>61</ele><time>2020-01-19T08:20:24Z</time></trkpt>
<trkpt lat="43.701567007" lon="10.922352998"><ele>61</ele><time>2020-01-19T08:20:25Z</time></trkpt>
<trkpt lat="43.701558961" lon="10.922394991"><ele>61</ele><time>2020-01-19T08:20:26Z</time></trkpt>
<trkpt lat="43.701552004" lon="10.922436984"><ele>61</ele><time>2020-01-19T08:20:27Z</time></trkpt>
<trkpt lat="43.701544963" lon="10.922477972"><ele>61</ele><time>2020-01-19T08:20:28Z</time></trkpt>
<trkpt lat="43.701539012" lon="10.922518959"><ele>61</ele><time>2020-01-19T08:20:29Z</time></trkpt>
<trkpt lat="43.701532977" lon="10.922560031"><ele>61</ele><time>2020-01-19T08:20:30Z</time></trkpt>
<trkpt lat="43.701528031" lon="10.922600012"><ele>61</ele><time>2020-01-19T08:20:31Z</time></trkpt>
<trkpt lat="43.701521996" lon="10.922639994"><ele>61</ele><time>2020-01-19T08:20:32Z</time></trkpt>
<trkpt lat="43.701516967" lon="10.922679976"><ele>61</ele><time>2020-01-19T08:20:33Z</time></trkpt>
<trkpt lat="43.701512022" lon="10.922720963"><ele>61</ele><time>2020-01-19T08:20:34Z</time></trkpt>
<trkpt lat="43.701496013" lon="10.922845015"><ele>61</ele><time>2020-01-19T08:20:37Z</time></trkpt>
<trkpt lat="43.701488972" lon="10.922888014"><ele>60</ele><time>2020-01-19T08:20:38Z</time></trkpt>
<trkpt lat="43.701482015" lon="10.922932019"><ele>60</ele><time>2020-01-19T08:20:39Z</time></trkpt>
<trkpt lat="43.701473968" lon="10.922976024"><ele>60</ele><time>2020-01-19T08:20:40Z</time></trkpt>
<trkpt lat="43.701463994" lon="10.923019024"><ele>60</ele><time>2020-01-19T08:20:41Z</time></trkpt>
<trkpt lat="43.701451002" lon="10.923059005"><ele>60</ele><time>2020-01-19T08:20:42Z</time></trkpt>
<trkpt lat="43.701435998" lon="10.923095969"><ele>60</ele><time>2020-01-19T08:20:43Z</time></trkpt>
<trkpt lat="43.701416971" lon="10.923127988"><ele>60</ele><time>2020-01-19T08:20:44Z</time></trkpt>
<trkpt lat="43.701394005" lon="10.923153972"><ele>60</ele><time>2020-01-19T08:20:45Z</time></trkpt>
<trkpt lat="43.701367015" lon="10.923172999"><ele>60</ele><time>2020-01-19T08:20:46Z</time></trkpt>
<trkpt lat="43.701334996" lon="10.923182974"><ele>60</ele><time>2020-01-19T08:20:47Z</time></trkpt>
<trkpt lat="43.70129996" lon="10.923186997"><ele>60</ele><time>2020-01-19T08:20:48Z</time></trkpt>
<trkpt lat="43.701265007" lon="10.923184985"><ele>60</ele><time>2020-01-19T08:20:49Z</time></trkpt>
<trkpt lat="43.701231983" lon="10.923178028"><ele>60</ele><time>2020-01-19T08:20:50Z</time></trkpt>
<trkpt lat="43.701201975" lon="10.92316797"><ele>60</ele><time>2020-01-19T08:20:51Z</time></trkpt>
<trkpt lat="43.701174986" lon="10.923154978"><ele>61</ele><time>2020-01-19T08:20:52Z</time></trkpt>
<trkpt lat="43.701149002" lon="10.92314098"><ele>61</ele><time>2020-01-19T08:20:53Z</time></trkpt>
<trkpt lat="43.701123018" lon="10.923125977"><ele>61</ele><time>2020-01-19T08:20:54Z</time></trkpt>
<trkpt lat="43.701095022" lon="10.923111979"><ele>61</ele><time>2020-01-19T08:20:55Z</time></trkpt>
<trkpt lat="43.701067027" lon="10.923098987"><ele>61</ele><time>2020-01-19T08:20:56Z</time></trkpt>
<trkpt lat="43.701037019" lon="10.923087001"><ele>61</ele><time>2020-01-19T08:20:57Z</time></trkpt>
<trkpt lat="43.701007012" lon="10.923075015"><ele>61</ele><time>2020-01-19T08:20:58Z</time></trkpt>
<trkpt lat="43.700977005" lon="10.923064034"><ele>61</ele><time>2020-01-19T08:20:59Z</time></trkpt>
<trkpt lat="43.700945992" lon="10.923053976"><ele>61</ele><time>2020-01-19T08:21:00Z</time></trkpt>
<trkpt lat="43.700914979" lon="10.923045008"><ele>61</ele><time>2020-01-19T08:21:01Z</time></trkpt>
<trkpt lat="43.700883966" lon="10.923036961"><ele>61</ele><time>2020-01-19T08:21:02Z</time></trkpt>
<trkpt lat="43.700853959" lon="10.923028998"><ele>61</ele><time>2020-01-19T08:21:03Z</time></trkpt>
<trkpt lat="43.70082303" lon="10.923022963"><ele>61</ele><time>2020-01-19T08:21:04Z</time></trkpt>
<trkpt lat="43.700793022" lon="10.923017012"><ele>61</ele><time>2020-01-19T08:21:05Z</time></trkpt>
<trkpt lat="43.700763015" lon="10.923011983"><ele>61</ele><time>2020-01-19T08:21:06Z</time></trkpt>
<trkpt lat="43.700734014" lon="10.923007037"><ele>61</ele><time>2020-01-19T08:21:07Z</time></trkpt>
<trkpt lat="43.700704006" lon="10.923003014"><ele>61</ele><time>2020-01-19T08:21:08Z</time></trkpt>
<trkpt lat="43.700673999" lon="10.922999997"><ele>61</ele><time>2020-01-19T08:21:09Z</time></trkpt>
<trkpt lat="43.700644998" lon="10.922996979"><ele>61</ele><time>2020-01-19T08:21:10Z</time></trkpt>
<trkpt lat="43.700614991" lon="10.922994968"><ele>60</ele><time>2020-01-19T08:21:11Z</time></trkpt>
<trkpt lat="43.700584983" lon="10.922992034"><ele>60</ele><time>2020-01-19T08:21:12Z</time></trkpt>
<trkpt lat="43.700554976" lon="10.922989016"><ele>60</ele><time>2020-01-19T08:21:13Z</time></trkpt>
<trkpt lat="43.700461015" lon="10.922973007"><ele>60</ele><time>2020-01-19T08:21:16Z</time></trkpt>
<trkpt lat="43.70042799" lon="10.922964038"><ele>59</ele><time>2020-01-19T08:21:17Z</time></trkpt>
<trkpt lat="43.700393038" lon="10.922951968"><ele>59</ele><time>2020-01-19T08:21:18Z</time></trkpt>
<trkpt lat="43.700359007" lon="10.922937971"><ele>59</ele><time>2020-01-19T08:21:19Z</time></trkpt>
<trkpt lat="43.700324977" lon="10.922921039"><ele>59</ele><time>2020-01-19T08:21:20Z</time></trkpt>
<trkpt lat="43.700293964" lon="10.922902012"><ele>59</ele><time>2020-01-19T08:21:21Z</time></trkpt>
<trkpt lat="43.70026404" lon="10.922879968"><ele>59</ele><time>2020-01-19T08:21:22Z</time></trkpt>
<trkpt lat="43.700237973" lon="10.92285499"><ele>59</ele><time>2020-01-19T08:21:23Z</time></trkpt>
<trkpt lat="43.700212995" lon="10.922826994"><ele>59</ele><time>2020-01-19T08:21:24Z</time></trkpt>
<trkpt lat="43.700189022" lon="10.922796987"><ele>59</ele><time>2020-01-19T08:21:25Z</time></trkpt>
<trkpt lat="43.700165972" lon="10.922763962"><ele>59</ele><time>2020-01-19T08:21:26Z</time></trkpt>
<trkpt lat="43.700143006" lon="10.922730016"><ele>59</ele><time>2020-01-19T08:21:27Z</time></trkpt>
<trkpt lat="43.700119033" lon="10.922697997"><ele>59</ele><time>2020-01-19T08:21:28Z</time></trkpt>
<trkpt lat="43.700093972" lon="10.922670001"><ele>59</ele><time>2020-01-19T08:21:29Z</time></trkpt>
<trkpt lat="43.70006497" lon="10.922648041"><ele>59</ele><time>2020-01-19T08:21:30Z</time></trkpt>
<trkpt lat="43.700034963" lon="10.922630019"><ele>59</ele><time>2020-01-19T08:21:31Z</time></trkpt>
<trkpt lat="43.700002022" lon="10.922616022"><ele>59</ele><time>2020-01-19T08:21:32Z</time></trkpt>
<trkpt lat="43.699968997" lon="10.922605041"><ele>59</ele><time>2020-01-19T08:21:33Z</time></trkpt>
<trkpt lat="43.699934967" lon="10.922594983"><ele>59</ele><time>2020-01-19T08:21:34Z</time></trkpt>
<trkpt lat="43.699900014" lon="10.92258702"><ele>59</ele><time>2020-01-19T08:21:35Z</time></trkpt>
<trkpt lat="43.699864978" lon="10.922578974"><ele>59</ele><time>2020-01-19T08:21:36Z</time></trkpt>
<trkpt lat="43.699830025" lon="10.922573023"><ele>59</ele><time>2020-01-19T08:21:37Z</time></trkpt>
<trkpt lat="43.699794989" lon="10.922566988"><ele>59</ele><time>2020-01-19T08:21:38Z</time></trkpt>
<trkpt lat="43.699759031" lon="10.922561036"><ele>59</ele><time>2020-01-19T08:21:39Z</time></trkpt>
<trkpt lat="43.699723994" lon="10.922555001"><ele>59</ele><time>2020-01-19T08:21:40Z</time></trkpt>
<trkpt lat="43.699689042" lon="10.922549972"><ele>59</ele><time>2020-01-19T08:21:41Z</time></trkpt>
<trkpt lat="43.699654005" lon="10.922544021"><ele>59</ele><time>2020-01-19T08:21:42Z</time></trkpt>
<trkpt lat="43.699619975" lon="10.922537986"><ele>58</ele><time>2020-01-19T08:21:43Z</time></trkpt>
<trkpt lat="43.699585022" lon="10.922530023"><ele>58</ele><time>2020-01-19T08:21:44Z</time></trkpt>
<trkpt lat="43.699550992" lon="10.922520971"><ele>58</ele><time>2020-01-19T08:21:45Z</time></trkpt>
<trkpt lat="43.699517967" lon="10.922509991"><ele>58</ele><time>2020-01-19T08:21:46Z</time></trkpt>
<trkpt lat="43.699485026" lon="10.922500016"><ele>58</ele><time>2020-01-19T08:21:47Z</time></trkpt>
<trkpt lat="43.699452002" lon="10.922493981"><ele>58</ele><time>2020-01-19T08:21:48Z</time></trkpt>
<trkpt lat="43.699420989" lon="10.922492975"><ele>58</ele><time>2020-01-19T08:21:49Z</time></trkpt>
<trkpt lat="43.699389976" lon="10.922501022"><ele>58</ele><time>2020-01-19T08:21:50Z</time></trkpt>
<trkpt lat="43.699362986" lon="10.922518037"><ele>58</ele><time>2020-01-19T08:21:51Z</time></trkpt>
<trkpt lat="43.699343037" lon="10.922543015"><ele>58</ele><time>2020-01-19T08:21:52Z</time></trkpt>
<trkpt lat="43.699332979" lon="10.922577968"><ele>58</ele><time>2020-01-19T08:21:53Z</time></trkpt>
<trkpt lat="43.699333984" lon="10.922620967"><ele>58</ele><time>2020-01-19T08:21:54Z</time></trkpt>
<trkpt lat="43.699343959" lon="10.922671007"><ele>58</ele><time>2020-01-19T08:21:55Z</time></trkpt>
<trkpt lat="43.699359968" lon="10.922723981"><ele>58</ele><time>2020-01-19T08:21:56Z</time></trkpt>
<trkpt lat="43.699375978" lon="10.92277796"><ele>58</ele><time>2020-01-19T08:21:57Z</time></trkpt>
<trkpt lat="43.699391987" lon="10.922830012"><ele>58</ele><time>2020-01-19T08:21:58Z</time></trkpt>
<trkpt lat="43.699404979" lon="10.922880974"><ele>58</ele><time>2020-01-19T08:21:59Z</time></trkpt>
<trkpt lat="43.699415959" lon="10.922931014"><ele>58</ele><time>2020-01-19T08:22:00Z</time></trkpt>
<trkpt lat="43.699427024" lon="10.922979964"><ele>57</ele><time>2020-01-19T08:22:01Z</time></trkpt>
<trkpt lat="43.699434986" lon="10.923028998"><ele>57</ele><time>2020-01-19T08:22:02Z</time></trkpt>
<trkpt lat="43.699443033" lon="10.923077026"><ele>57</ele><time>2020-01-19T08:22:03Z</time></trkpt>
<trkpt lat="43.69944999" lon="10.923125977"><ele>57</ele><time>2020-01-19T08:22:04Z</time></trkpt>
<trkpt lat="43.699456025" lon="10.923175011"><ele>57</ele><time>2020-01-19T08:22:05Z</time></trkpt>
<trkpt lat="43.699461976" lon="10.923223961"><ele>57</ele><time>2020-01-19T08:22:06Z</time></trkpt>
<trkpt lat="43.699467005" lon="10.923274001"><ele>57</ele><time>2020-01-19T08:22:07Z</time></trkpt>
<trkpt lat="43.699471029" lon="10.923324963"><ele>57</ele><time>2020-01-19T08:22:08Z</time></trkpt>
<trkpt lat="43.699474968" lon="10.923375003"><ele>57</ele><time>2020-01-19T08:22:09Z</time></trkpt>
<trkpt lat="43.699477986" lon="10.923425965"><ele>56</ele><time>2020-01-19T08:22:10Z</time></trkpt>
<trkpt lat="43.699479997" lon="10.923478017"><ele>56</ele><time>2020-01-19T08:22:11Z</time></trkpt>
<trkpt lat="43.699481003" lon="10.923528979"><ele>56</ele><time>2020-01-19T08:22:12Z</time></trkpt>
<trkpt lat="43.699482009" lon="10.923580024"><ele>56</ele><time>2020-01-19T08:22:13Z</time></trkpt>
<trkpt lat="43.699482009" lon="10.923631992"><ele>56</ele><time>2020-01-19T08:22:14Z</time></trkpt>
<trkpt lat="43.699479997" lon="10.923683038"><ele>56</ele><time>2020-01-19T08:22:15Z</time></trkpt>
<trkpt lat="43.699477986" lon="10.923735006"><ele>56</ele><time>2020-01-19T08:22:16Z</time></trkpt>
<trkpt lat="43.699474968" lon="10.923785968"><ele>56</ele><time>2020-01-19T08:22:17Z</time></trkpt>
<trkpt lat="43.699472034" lon="10.923836008"><ele>56</ele><time>2020-01-19T08:22:18Z</time></trkpt>
<trkpt lat="43.699453007" lon="10.923985038"><ele>55</ele><time>2020-01-19T08:22:21Z</time></trkpt>
<trkpt lat="43.699444961" lon="10.924032982"><ele>55</ele><time>2020-01-19T08:22:22Z</time></trkpt>
<trkpt lat="43.699435992" lon="10.924081011"><ele>55</ele><time>2020-01-19T08:22:23Z</time></trkpt>
<trkpt lat="43.699427024" lon="10.924129039"><ele>55</ele><time>2020-01-19T08:22:24Z</time></trkpt>
<trkpt lat="43.699416965" lon="10.924176984"><ele>55</ele><time>2020-01-19T08:22:25Z</time></trkpt>
<trkpt lat="43.699406991" lon="10.924225012"><ele>55</ele><time>2020-01-19T08:22:26Z</time></trkpt>
<trkpt lat="43.699398022" lon="10.92427304"><ele>54</ele><time>2020-01-19T08:22:27Z</time></trkpt>
<trkpt lat="43.699387964" lon="10.924320985"><ele>54</ele><time>2020-01-19T08:22:28Z</time></trkpt>
<trkpt lat="43.699378995" lon="10.924370019"><ele>54</ele><time>2020-01-19T08:22:29Z</time></trkpt>
<trkpt lat="43.699370027" lon="10.924418969"><ele>53</ele><time>2020-01-19T08:22:30Z</time></trkpt>
<trkpt lat="43.69936198" lon="10.924469009"><ele>53</ele><time>2020-01-19T08:22:31Z</time></trkpt>
<trkpt lat="43.699355023" lon="10.924517959"><ele>53</ele><time>2020-01-19T08:22:32Z</time></trkpt>
<trkpt lat="43.699347982" lon="10.924567999"><ele>52</ele><time>2020-01-19T08:22:33Z</time></trkpt>
<trkpt lat="43.699342031" lon="10.924618039"><ele>52</ele><time>2020-01-19T08:22:34Z</time></trkpt>
<trkpt lat="43.699337002" lon="10.924667995"><ele>52</ele><time>2020-01-19T08:22:35Z</time></trkpt>
<trkpt lat="43.699333984" lon="10.92471703"><ele>51</ele><time>2020-01-19T08:22:36Z</time></trkpt>
<trkpt lat="43.699330967" lon="10.92476598"><ele>51</ele><time>2020-01-19T08:22:37Z</time></trkpt>
<trkpt lat="43.699329961" lon="10.924814008"><ele>51</ele><time>2020-01-19T08:22:38Z</time></trkpt>
<trkpt lat="43.699329961" lon="10.924862958"><ele>51</ele><time>2020-01-19T08:22:39Z</time></trkpt>
<trkpt lat="43.699330967" lon="10.924910987"><ele>50</ele><time>2020-01-19T08:22:40Z</time></trkpt>
<trkpt lat="43.699332979" lon="10.924959015"><ele>50</ele><time>2020-01-19T08:22:41Z</time></trkpt>
<trkpt lat="43.699337002" lon="10.925007965"><ele>50</ele><time>2020-01-19T08:22:42Z</time></trkpt>
<trkpt lat="43.699343037" lon="10.925055994"><ele>49</ele><time>2020-01-19T08:22:43Z</time></trkpt>
<trkpt lat="43.699348988" lon="10.925106034"><ele>49</ele><time>2020-01-19T08:22:44Z</time></trkpt>
<trkpt lat="43.69935804" lon="10.925154984"><ele>48</ele><time>2020-01-19T08:22:45Z</time></trkpt>
<trkpt lat="43.699367009" lon="10.925204018"><ele>48</ele><time>2020-01-19T08:22:46Z</time></trkpt>
<trkpt lat="43.699378995" lon="10.925252968"><ele>47</ele><time>2020-01-19T08:22:47Z</time></trkpt>
<trkpt lat="43.699391987" lon="10.925300997"><ele>47</ele><time>2020-01-19T08:22:48Z</time></trkpt>
<trkpt lat="43.699406991" lon="10.925347013"><ele>46</ele><time>2020-01-19T08:22:49Z</time></trkpt>
<trkpt lat="43.699423" lon="10.925391018"><ele>46</ele><time>2020-01-19T08:22:50Z</time></trkpt>
<trkpt lat="43.699442027" lon="10.925432006"><ele>45</ele><time>2020-01-19T08:22:51Z</time></trkpt>
<trkpt lat="43.699461976" lon="10.925469976"><ele>45</ele><time>2020-01-19T08:22:52Z</time></trkpt>
<trkpt lat="43.69948402" lon="10.925505012"><ele>45</ele><time>2020-01-19T08:22:53Z</time></trkpt>
<trkpt lat="43.699507993" lon="10.925536025"><ele>44</ele><time>2020-01-19T08:22:54Z</time></trkpt>
<trkpt lat="43.699533977" lon="10.925564021"><ele>44</ele><time>2020-01-19T08:22:55Z</time></trkpt>
<trkpt lat="43.699560966" lon="10.925588999"><ele>44</ele><time>2020-01-19T08:22:56Z</time></trkpt>
<trkpt lat="43.699588962" lon="10.925611965"><ele>44</ele><time>2020-01-19T08:22:57Z</time></trkpt>
<trkpt lat="43.699618969" lon="10.925633004"><ele>43</ele><time>2020-01-19T08:22:58Z</time></trkpt>
<trkpt lat="43.699648976" lon="10.925652031"><ele>43</ele><time>2020-01-19T08:22:59Z</time></trkpt>
<trkpt lat="43.699679989" lon="10.925668962"><ele>43</ele><time>2020-01-19T08:23:00Z</time></trkpt>
<trkpt lat="43.699712008" lon="10.925685978"><ele>43</ele><time>2020-01-19T08:23:01Z</time></trkpt>
<trkpt lat="43.699744027" lon="10.925700981"><ele>43</ele><time>2020-01-19T08:23:02Z</time></trkpt>
<trkpt lat="43.699775962" lon="10.925714979"><ele>43</ele><time>2020-01-19T08:23:03Z</time></trkpt>
<trkpt lat="43.699807981" lon="10.925729983"><ele>43</ele><time>2020-01-19T08:23:04Z</time></trkpt>
<trkpt lat="43.69984" lon="10.92574398"><ele>43</ele><time>2020-01-19T08:23:05Z</time></trkpt>
<trkpt lat="43.699871013" lon="10.925758984"><ele>43</ele><time>2020-01-19T08:23:06Z</time></trkpt>
<trkpt lat="43.699903032" lon="10.925773988"><ele>43</ele><time>2020-01-19T08:23:07Z</time></trkpt>
<trkpt lat="43.699933039" lon="10.925789997"><ele>42</ele><time>2020-01-19T08:23:08Z</time></trkpt>
<trkpt lat="43.699962962" lon="10.925807012"><ele>42</ele><time>2020-01-19T08:23:09Z</time></trkpt>
<trkpt lat="43.69999297" lon="10.925824028"><ele>42</ele><time>2020-01-19T08:23:10Z</time></trkpt>
<trkpt lat="43.700021971" lon="10.925841965"><ele>42</ele><time>2020-01-19T08:23:11Z</time></trkpt>
<trkpt lat="43.700050972" lon="10.925859986"><ele>42</ele><time>2020-01-19T08:23:12Z</time></trkpt>
<trkpt lat="43.700079974" lon="10.925878007"><ele>42</ele><time>2020-01-19T08:23:13Z</time></trkpt>
<trkpt lat="43.700109981" lon="10.925896028"><ele>42</ele><time>2020-01-19T08:23:14Z</time></trkpt>
<trkpt lat="43.700138982" lon="10.925913965"><ele>42</ele><time>2020-01-19T08:23:15Z</time></trkpt>
<trkpt lat="43.700169995" lon="10.925930981"><ele>42</ele><time>2020-01-19T08:23:16Z</time></trkpt>
<trkpt lat="43.700200003" lon="10.925947996"><ele>42</ele><time>2020-01-19T08:23:17Z</time></trkpt>
<trkpt lat="43.700231016" lon="10.925965011"><ele>42</ele><time>2020-01-19T08:23:18Z</time></trkpt>
<trkpt lat="43.700262029" lon="10.925980015"><ele>42</ele><time>2020-01-19T08:23:19Z</time></trkpt>
<trkpt lat="43.700356996" lon="10.926019996"><ele>42</ele><time>2020-01-19T08:23:22Z</time></trkpt>
<trkpt lat="43.700389015" lon="10.926030977"><ele>42</ele><time>2020-01-19T08:23:23Z</time></trkpt>
<trkpt lat="43.700420028" lon="10.926041035"><ele>42</ele><time>2020-01-19T08:23:24Z</time></trkpt>
<trkpt lat="43.700451963" lon="10.926050004"><ele>42</ele><time>2020-01-19T08:23:25Z</time></trkpt>
<trkpt lat="43.700482976" lon="10.926056961"><ele>42</ele><time>2020-01-19T08:23:26Z</time></trkpt>
<trkpt lat="43.700514995" lon="10.926064001"><ele>42</ele><time>2020-01-19T08:23:27Z</time></trkpt>
<trkpt lat="43.700546008" lon="10.926069031"><ele>42</ele><time>2020-01-19T08:23:28Z</time></trkpt>
<trkpt lat="43.700578026" lon="10.926073976"><ele>42</ele><time>2020-01-19T08:23:29Z</time></trkpt>
<trkpt lat="43.70060904" lon="10.926079005"><ele>42</ele><time>2020-01-19T08:23:30Z</time></trkpt>
<trkpt lat="43.700639969" lon="10.926083028"><ele>42</ele><time>2020-01-19T08:23:31Z</time></trkpt>
<trkpt lat="43.700670982" lon="10.926086968"><ele>42</ele><time>2020-01-19T08:23:32Z</time></trkpt>
<trkpt lat="43.700701995" lon="10.926090991"><ele>42</ele><time>2020-01-19T08:23:33Z</time></trkpt>
<trkpt lat="43.700734014" lon="10.926095014"><ele>42</ele><time>2020-01-19T08:23:34Z</time></trkpt>
<trkpt lat="43.700765027" lon="10.926099038"><ele>42</ele><time>2020-01-19T08:23:35Z</time></trkpt>
<trkpt lat="43.70079604" lon="10.926103983"><ele>42</ele><time>2020-01-19T08:23:36Z</time></trkpt>
<trkpt lat="43.700826969" lon="10.926109012"><ele>42</ele><time>2020-01-19T08:23:37Z</time></trkpt>
<trkpt lat="43.700857982" lon="10.926114963"><ele>42</ele><time>2020-01-19T08:23:38Z</time></trkpt>
<trkpt lat="43.700888995" lon="10.926122004"><ele>42</ele><time>2020-01-19T08:23:39Z</time></trkpt>
<trkpt lat="43.700982034" lon="10.926146982"><ele>42</ele><time>2020-01-19T08:23:42Z</time></trkpt>
<trkpt lat="43.701012963" lon="10.926157041"><ele>42</ele><time>2020-01-19T08:23:43Z</time></trkpt>
<trkpt lat="43.701044982" lon="10.926167015"><ele>42</ele><time>2020-01-19T08:23:44Z</time></trkpt>
<trkpt lat="43.701075995" lon="10.926179001"><ele>42</ele><time>2020-01-19T08:23:45Z</time></trkpt>
<trkpt lat="43.701107008" lon="10.926189981"><ele>41</ele><time>2020-01-19T08:23:46Z</time></trkpt>
<trkpt lat="43.701139027" lon="10.926201968"><ele>41</ele><time>2020-01-19T08:23:47Z</time></trkpt>
<trkpt lat="43.701170962" lon="10.926214037"><ele>41</ele><time>2020-01-19T08:23:48Z</time></trkpt>
<trkpt lat="43.701201975" lon="10.926227029"><ele>41</ele><time>2020-01-19T08:23:49Z</time></trkpt>
<trkpt lat="43.701235" lon="10.926240021"><ele>41</ele><time>2020-01-19T08:23:50Z</time></trkpt>
<trkpt lat="43.701267019" lon="10.926252007"><ele>41</ele><time>2020-01-19T08:23:51Z</time></trkpt>
<trkpt lat="43.701299038" lon="10.926264999"><ele>40</ele><time>2020-01-19T08:23:52Z</time></trkpt>
<trkpt lat="43.701331979" lon="10.926277991"><ele>40</ele><time>2020-01-19T08:23:53Z</time></trkpt>
<trkpt lat="43.701365003" lon="10.926289978"><ele>40</ele><time>2020-01-19T08:23:54Z</time></trkpt>
<trkpt lat="43.701398028" lon="10.926301964"><ele>40</ele><time>2020-01-19T08:23:55Z</time></trkpt>
<trkpt lat="43.701431975" lon="10.926314034"><ele>40</ele><time>2020-01-19T08:23:56Z</time></trkpt>
<trkpt lat="43.701464999" lon="10.926325014"><ele>40</ele><time>2020-01-19T08:23:57Z</time></trkpt>
<trkpt lat="43.70149903" lon="10.926335994"><ele>39</ele><time>2020-01-19T08:23:58Z</time></trkpt>
<trkpt lat="43.701533983" lon="10.926346974"><ele>39</ele><time>2020-01-19T08:23:59Z</time></trkpt>
<trkpt lat="43.701568013" lon="10.926358039"><ele>39</ele><time>2020-01-19T08:24:00Z</time></trkpt>
<trkpt lat="43.70160196" lon="10.926368013"><ele>39</ele><time>2020-01-19T08:24:01Z</time></trkpt>
<trkpt lat="43.701636996" lon="10.926377987"><ele>39</ele><time>2020-01-19T08:24:02Z</time></trkpt>
<trkpt lat="43.701672032" lon="10.926387962"><ele>39</ele><time>2020-01-19T08:24:03Z</time></trkpt>
<trkpt lat="43.701705979" lon="10.92639802"><ele>38</ele><time>2020-01-19T08:24:04Z</time></trkpt>
<trkpt lat="43.701741016" lon="10.926406989"><ele>38</ele><time>2020-01-19T08:24:05Z</time></trkpt>
<trkpt lat="43.701774962" lon="10.926416963"><ele>38</ele><time>2020-01-19T08:24:06Z</time></trkpt>
<trkpt lat="43.701808993" lon="10.926426016"><ele>38</ele><time>2020-01-19T08:24:07Z</time></trkpt>
<trkpt lat="43.701843023" lon="10.926434984"><ele>37</ele><time>2020-01-19T08:24:08Z</time></trkpt>
<trkpt lat="43.70187697" lon="10.926444959"><ele>37</ele><time>2020-01-19T08:24:09Z</time></trkpt>
<trkpt lat="43.701911001" lon="10.926454011"><ele>37</ele><time>2020-01-19T08:24:10Z</time></trkpt>
<trkpt lat="43.701944025" lon="10.92646298"><ele>37</ele><time>2020-01-19T08:24:11Z</time></trkpt>
<trkpt lat="43.701976966" lon="10.926472032"><ele>36</ele><time>2020-01-19T08:24:12Z</time></trkpt>
<trkpt lat="43.702009991" lon="10.926481001"><ele>36</ele><time>2020-01-19T08:24:13Z</time></trkpt>
<trkpt lat="43.702043016" lon="10.926490976"><ele>36</ele><time>2020-01-19T08:24:14Z</time></trkpt>
<trkpt lat="43.70207604" lon="10.926501034"><ele>36</ele><time>2020-01-19T08:24:15Z</time></trkpt>
<trkpt lat="43.702108981" lon="10.926511008"><ele>35</ele><time>2020-01-19T08:24:16Z</time></trkpt>
<trkpt lat="43.702142006" lon="10.926521989"><ele>35</ele><time>2020-01-19T08:24:17Z</time></trkpt>
<trkpt lat="43.70217503" lon="10.926532969"><ele>35</ele><time>2020-01-19T08:24:18Z</time></trkpt>
<trkpt lat="43.702208977" lon="10.926545961"><ele>34</ele><time>2020-01-19T08:24:19Z</time></trkpt>
<trkpt lat="43.702242002" lon="10.926559037"><ele>34</ele><time>2020-01-19T08:24:20Z</time></trkpt>
<trkpt lat="43.702276032" lon="10.926572029"><ele>34</ele><time>2020-01-19T08:24:21Z</time></trkpt>
<trkpt lat="43.702308973" lon="10.926586026"><ele>34</ele><time>2020-01-19T08:24:22Z</time></trkpt>
<trkpt lat="43.702343004" lon="10.926600024"><ele>33</ele><time>2020-01-19T08:24:23Z</time></trkpt>
<trkpt lat="43.702376029" lon="10.926614022"><ele>33</ele><time>2020-01-19T08:24:24Z</time></trkpt>
<trkpt lat="43.702409975" lon="10.92662802"><ele>33</ele><time>2020-01-19T08:24:25Z</time></trkpt>
<trkpt lat="43.702508966" lon="10.926669007"><ele>32</ele><time>2020-01-19T08:24:28Z</time></trkpt>
<trkpt lat="43.702540984" lon="10.926683005"><ele>32</ele><time>2020-01-19T08:24:29Z</time></trkpt>
<trkpt lat="43.702573003" lon="10.926695997"><ele>32</ele><time>2020-01-19T08:24:30Z</time></trkpt>
<trkpt lat="43.702605022" lon="10.926708989"><ele>31</ele><time>2020-01-19T08:24:31Z</time></trkpt>
<trkpt lat="43.702636035" lon="10.926721981"><ele>31</ele><time>2020-01-19T08:24:32Z</time></trkpt>
<trkpt lat="43.702666964" lon="10.926734973"><ele>31</ele><time>2020-01-19T08:24:33Z</time></trkpt>
<trkpt lat="43.702696972" lon="10.926747965"><ele>31</ele><time>2020-01-19T08:24:34Z</time></trkpt>
<trkpt lat="43.702726979" lon="10.92676104"><ele>31</ele><time>2020-01-19T08:24:35Z</time></trkpt>
<trkpt lat="43.702756986" lon="10.926774032"><ele>31</ele><time>2020-01-19T08:24:36Z</time></trkpt>
<trkpt lat="43.702785987" lon="10.926787024"><ele>30</ele><time>2020-01-19T08:24:37Z</time></trkpt>
<trkpt lat="43.702814989" lon="10.926800016"><ele>30</ele><time>2020-01-19T08:24:38Z</time></trkpt>
<trkpt lat="43.702844996" lon="10.926814014"><ele>30</ele><time>2020-01-19T08:24:39Z</time></trkpt>
<trkpt lat="43.702873997" lon="10.926827006"><ele>30</ele><time>2020-01-19T08:24:40Z</time></trkpt>
<trkpt lat="43.702904005" lon="10.926841004"><ele>30</ele><time>2020-01-19T08:24:41Z</time></trkpt>
<trkpt lat="43.702935018" lon="10.926853996"><ele>30</ele><time>2020-01-19T08:24:42Z</time></trkpt>
<trkpt lat="43.702966031" lon="10.926867994"><ele>30</ele><time>2020-01-19T08:24:43Z</time></trkpt>
<trkpt lat="43.70299696" lon="10.926881991"><ele>30</ele><time>2020-01-19T08:24:44Z</time></trkpt>
<trkpt lat="43.703028979" lon="10.926895989"><ele>29</ele><time>2020-01-19T08:24:45Z</time></trkpt>
<trkpt lat="43.703060998" lon="10.926909987"><ele>29</ele><time>2020-01-19T08:24:46Z</time></trkpt>
<trkpt lat="43.703093017" lon="10.926923985"><ele>29</ele><time>2020-01-19T08:24:47Z</time></trkpt>
<trkpt lat="43.703125035" lon="10.926937982"><ele>29</ele><time>2020-01-19T08:24:48Z</time></trkpt>
<trkpt lat="43.703155965" lon="10.926952986"><ele>29</ele><time>2020-01-19T08:24:49Z</time></trkpt>
<trkpt lat="43.703187983" lon="10.926966984"><ele>29</ele><time>2020-01-19T08:24:50Z</time></trkpt>
<trkpt lat="43.703218997" lon="10.926980982"><ele>29</ele><time>2020-01-19T08:24:51Z</time></trkpt>
<trkpt lat="43.70325001" lon="10.926995985"><ele>29</ele><time>2020-01-19T08:24:52Z</time></trkpt>
<trkpt lat="43.703280017" lon="10.927011995"><ele>29</ele><time>2020-01-19T08:24:53Z</time></trkpt>
<trkpt lat="43.703309018" lon="10.927030016"><ele>28</ele><time>2020-01-19T08:24:54Z</time></trkpt>
<trkpt lat="43.703339025" lon="10.927048959"><ele>28</ele><time>2020-01-19T08:24:55Z</time></trkpt>
<trkpt lat="43.703368027" lon="10.927069997"><ele>28</ele><time>2020-01-19T08:24:56Z</time></trkpt>
<trkpt lat="43.703396022" lon="10.92709397"><ele>28</ele><time>2020-01-19T08:24:57Z</time></trkpt>
<trkpt lat="43.703424018" lon="10.927121965"><ele>28</ele><time>2020-01-19T08:24:58Z</time></trkpt>
<trkpt lat="43.703451008" lon="10.927152978"><ele>28</ele><time>2020-01-19T08:24:59Z</time></trkpt>
<trkpt lat="43.703475986" lon="10.927187009"><ele>29</ele><time>2020-01-19T08:25:00Z</time></trkpt>
<trkpt lat="43.703499036" lon="10.927224979"><ele>29</ele><time>2020-01-19T08:25:01Z</time></trkpt>
<trkpt lat="43.703517979" lon="10.927266972"><ele>29</ele><time>2020-01-19T08:25:02Z</time></trkpt>
<trkpt lat="43.703532983" lon="10.927311983"><ele>29</ele><time>2020-01-19T08:25:03Z</time></trkpt>
<trkpt lat="43.703543041" lon="10.927360011"><ele>29</ele><time>2020-01-19T08:25:04Z</time></trkpt>
<trkpt lat="43.703549998" lon="10.927409967"><ele>29</ele><time>2020-01-19T08:25:05Z</time></trkpt>
<trkpt lat="43.703553015" lon="10.927461013"><ele>29</ele><time>2020-01-19T08:25:06Z</time></trkpt>
<trkpt lat="43.703554021" lon="10.927511975"><ele>29</ele><time>2020-01-19T08:25:07Z</time></trkpt>
<trkpt lat="43.703553015" lon="10.927563021"><ele>29</ele><time>2020-01-19T08:25:08Z</time></trkpt>
<trkpt lat="43.703549998" lon="10.927612977"><ele>29</ele><time>2020-01-19T08:25:09Z</time></trkpt>
<trkpt lat="43.703545975" lon="10.927663017"><ele>29</ele><time>2020-01-19T08:25:10Z</time></trkpt>
<trkpt lat="43.703542035" lon="10.927711967"><ele>30</ele><time>2020-01-19T08:25:11Z</time></trkpt>
<trkpt lat="43.703538012" lon="10.927761002"><ele>30</ele><time>2020-01-19T08:25:12Z</time></trkpt>
<trkpt lat="43.703534994" lon="10.927808024"><ele>30</ele><time>2020-01-19T08:25:13Z</time></trkpt>
<trkpt lat="43.703532983" lon="10.927854041"><ele>30</ele><time>2020-01-19T08:25:14Z</time></trkpt>
<trkpt lat="43.703531977" lon="10.927899973"><ele>30</ele><time>2020-01-19T08:25:15Z</time></trkpt>
<trkpt lat="43.703530971" lon="10.927943978"><ele>30</ele><time>2020-01-19T08:25:16Z</time></trkpt>
<trkpt lat="43.703530971" lon="10.927988989"><ele>30</ele><time>2020-01-19T08:25:17Z</time></trkpt>
<trkpt lat="43.703530971" lon="10.928032994"><ele>30</ele><time>2020-01-19T08:25:18Z</time></trkpt>
<trkpt lat="43.703530971" lon="10.928076999"><ele>30</ele><time>2020-01-19T08:25:19Z</time></trkpt>
<trkpt lat="43.703530971" lon="10.92812201"><ele>30</ele><time>2020-01-19T08:25:20Z</time></trkpt>
<trkpt lat="43.703530971" lon="10.928168027"><ele>30</ele><time>2020-01-19T08:25:21Z</time></trkpt>
<trkpt lat="43.703529965" lon="10.928214965"><ele>30</ele><time>2020-01-19T08:25:22Z</time></trkpt>
<trkpt lat="43.703529965" lon="10.928261988"><ele>30</ele><time>2020-01-19T08:25:23Z</time></trkpt>
<trkpt lat="43.703530971" lon="10.928308005"><ele>30</ele><time>2020-01-19T08:25:24Z</time></trkpt>
<trkpt lat="43.703534994" lon="10.928354021"><ele>30</ele><time>2020-01-19T08:25:25Z</time></trkpt>
<trkpt lat="43.703542035" lon="10.92839702"><ele>30</ele><time>2020-01-19T08:25:26Z</time></trkpt>
<trkpt lat="43.70355201" lon="10.928439014"><ele>30</ele><time>2020-01-19T08:25:27Z</time></trkpt>
<trkpt lat="43.703584028" lon="10.928564994"><ele>30</ele><time>2020-01-19T08:25:30Z</time></trkpt>
<trkpt lat="43.703592997" lon="10.928606987"><ele>30</ele><time>2020-01-19T08:25:31Z</time></trkpt>
<trkpt lat="43.70360096" lon="10.928650992"><ele>30</ele><time>2020-01-19T08:25:32Z</time></trkpt>
<trkpt lat="43.703608001" lon="10.928694997"><ele>30</ele><time>2020-01-19T08:25:33Z</time></trkpt>
<trkpt lat="43.703614036" lon="10.928739002"><ele>30</ele><time>2020-01-19T08:25:34Z</time></trkpt>
<trkpt lat="43.703619987" lon="10.928784013"><ele>30</ele><time>2020-01-19T08:25:35Z</time></trkpt>
<trkpt lat="43.70362401" lon="10.928829024"><ele>30</ele><time>2020-01-19T08:25:36Z</time></trkpt>
<trkpt lat="43.703628033" lon="10.928874034"><ele>30</ele><time>2020-01-19T08:25:37Z</time></trkpt>
<trkpt lat="43.703631973" lon="10.928919967"><ele>30</ele><time>2020-01-19T08:25:38Z</time></trkpt>
<trkpt lat="43.70363499" lon="10.928964978"><ele>30</ele><time>2020-01-19T08:25:39Z</time></trkpt>
<trkpt lat="43.703638008" lon="10.929010995"><ele>30</ele><time>2020-01-19T08:25:40Z</time></trkpt>
<trkpt lat="43.703641025" lon="10.929057011"><ele>30</ele><time>2020-01-19T08:25:41Z</time></trkpt>
<trkpt lat="43.703643959" lon="10.929102022"><ele>29</ele><time>2020-01-19T08:25:42Z</time></trkpt>
<trkpt lat="43.703646977" lon="10.929148039"><ele>29</ele><time>2020-01-19T08:25:43Z</time></trkpt>
<trkpt lat="43.703651" lon="10.929193972"><ele>29</ele><time>2020-01-19T08:25:44Z</time></trkpt>
<trkpt lat="43.703654017" lon="10.929238982"><ele>29</ele><time>2020-01-19T08:25:45Z</time></trkpt>
<trkpt lat="43.703658041" lon="10.929283993"><ele>29</ele><time>2020-01-19T08:25:46Z</time></trkpt>
<trkpt lat="43.703662986" lon="10.929327998"><ele>29</ele><time>2020-01-19T08:25:47Z</time></trkpt>
<trkpt lat="43.703667009" lon="10.929373009"><ele>29</ele><time>2020-01-19T08:25:48Z</time></trkpt>
<trkpt lat="43.703672038" lon="10.929417014"><ele>29</ele><time>2020-01-19T08:25:49Z</time></trkpt>
<trkpt lat="43.703676984" lon="10.929461019"><ele>29</ele><time>2020-01-19T08:25:50Z</time></trkpt>
<trkpt lat="43.703682013" lon="10.929505024"><ele>29</ele><time>2020-01-19T08:25:51Z</time></trkpt>
<trkpt lat="43.703686036" lon="10.929548023"><ele>29</ele><time>2020-01-19T08:25:52Z</time></trkpt>
<trkpt lat="43.703690981" lon="10.929592028"><ele>29</ele><time>2020-01-19T08:25:53Z</time></trkpt>
<trkpt lat="43.703695005" lon="10.929635027"><ele>29</ele><time>2020-01-19T08:25:54Z</time></trkpt>
<trkpt lat="43.703699028" lon="10.929678027"><ele>29</ele><time>2020-01-19T08:25:55Z</time></trkpt>
<trkpt lat="43.703702968" lon="10.929721026"><ele>29</ele><time>2020-01-19T08:25:56Z</time></trkpt>
<trkpt lat="43.703705985" lon="10.929764025"><ele>29</ele><time>2020-01-19T08:25:57Z</time></trkpt>
<trkpt lat="43.703707997" lon="10.929807024"><ele>28</ele><time>2020-01-19T08:25:58Z</time></trkpt>
<trkpt lat="43.703710008" lon="10.929850023"><ele>28</ele><time>2020-01-19T08:25:59Z</time></trkpt>
<trkpt lat="43.703711014" lon="10.929893022"><ele>28</ele><time>2020-01-19T08:26:00Z</time></trkpt>
<trkpt lat="43.70371202" lon="10.929936022"><ele>28</ele><time>2020-01-19T08:26:01Z</time></trkpt>
<trkpt lat="43.703711014" lon="10.929979021"><ele>28</ele><time>2020-01-19T08:26:02Z</time></trkpt>
<trkpt lat="43.703709003" lon="10.93002202"><ele>28</ele><time>2020-01-19T08:26:03Z</time></trkpt>
<trkpt lat="43.703706991" lon="10.930065019"><ele>28</ele><time>2020-01-19T08:26:04Z</time></trkpt>
<trkpt lat="43.703703973" lon="10.930108018"><ele>28</ele><time>2020-01-19T08:26:05Z</time></trkpt>
<trkpt lat="43.703700034" lon="10.930151017"><ele>28</ele><time>2020-01-19T08:26:06Z</time></trkpt>
<trkpt lat="43.703696011" lon="10.930194017"><ele>28</ele><time>2020-01-19T08:26:07Z</time></trkpt>
<trkpt lat="43.703690981" lon="10.93023601"><ele>28</ele><time>2020-01-19T08:26:08Z</time></trkpt>
<trkpt lat="43.70368503" lon="10.930279009"><ele>28</ele><time>2020-01-19T08:26:09Z</time></trkpt>
<trkpt lat="43.703680001" lon="10.930322008"><ele>28</ele><time>2020-01-19T08:26:10Z</time></trkpt>
<trkpt lat="43.70367296" lon="10.930364002"><ele>28</ele><time>2020-01-19T08:26:11Z</time></trkpt>
<trkpt lat="43.703667009" lon="10.930405995"><ele>28</ele><time>2020-01-19T08:26:12Z</time></trkpt>
<trkpt lat="43.703659968" lon="10.930447988"><ele>28</ele><time>2020-01-19T08:26:13Z</time></trkpt>
<trkpt lat="43.703653011" lon="10.930489982"><ele>28</ele><time>2020-01-19T08:26:14Z</time></trkpt>
<trkpt lat="43.703645971" lon="10.930531975"><ele>28</ele><time>2020-01-19T08:26:15Z</time></trkpt>
<trkpt lat="43.703638008" lon="10.930573968"><ele>28</ele><time>2020-01-19T08:26:16Z</time></trkpt>
<trkpt lat="43.703630967" lon="10.93061504"><ele>28</ele><time>2020-01-19T08:26:17Z</time></trkpt>
<trkpt lat="43.70362401" lon="10.930656027"><ele>28</ele><time>2020-01-19T08:26:18Z</time></trkpt>
<trkpt lat="43.703615963" lon="10.930697015"><ele>28</ele><time>2020-01-19T08:26:19Z</time></trkpt>
<trkpt lat="43.703608001" lon="10.930738002"><ele>28</ele><time>2020-01-19T08:26:20Z</time></trkpt>
<trkpt lat="43.703599032" lon="10.93077899"><ele>28</ele><time>2020-01-19T08:26:21Z</time></trkpt>
<trkpt lat="43.70358998" lon="10.930818971"><ele>28</ele><time>2020-01-19T08:26:22Z</time></trkpt>
<trkpt lat="43.703580005" lon="10.930859037"><ele>28</ele><time>2020-01-19T08:26:23Z</time></trkpt>
<trkpt lat="43.703569025" lon="10.930898013"><ele>28</ele><time>2020-01-19T08:26:24Z</time></trkpt>
<trkpt lat="43.703557961" lon="10.930937994"><ele>28</ele><time>2020-01-19T08:26:25Z</time></trkpt>
<trkpt lat="43.703544969" lon="10.93097697"><ele>28</ele><time>2020-01-19T08:26:26Z</time></trkpt>
<trkpt lat="43.703532983" lon="10.93101603"><ele>28</ele><time>2020-01-19T08:26:27Z</time></trkpt>
<trkpt lat="43.703518985" lon="10.931055006"><ele>28</ele><time>2020-01-19T08:26:28Z</time></trkpt>
<trkpt lat="43.703505993" lon="10.931092976"><ele>28</ele><time>2020-01-19T08:26:29Z</time></trkpt>
<trkpt lat="43.703491995" lon="10.931132035"><ele>28</ele><time>2020-01-19T08:26:30Z</time></trkpt>
<trkpt lat="43.703479003" lon="10.931171011"><ele>28</ele><time>2020-01-19T08:26:31Z</time></trkpt>
<trkpt lat="43.703467017" lon="10.931209987"><ele>28</ele><time>2020-01-19T08:26:32Z</time></trkpt>
<trkpt lat="43.703454025" lon="10.931248963"><ele>28</ele><time>2020-01-19T08:26:33Z</time></trkpt>
<trkpt lat="43.703442039" lon="10.931289028"><ele>28</ele><time>2020-01-19T08:26:34Z</time></trkpt>
<trkpt lat="43.703429969" lon="10.93132901"><ele>28</ele><time>2020-01-19T08:26:35Z</time></trkpt>
<trkpt lat="43.703415971" lon="10.931369998"><ele>27</ele><time>2020-01-19T08:26:36Z</time></trkpt>
<trkpt lat="43.703400968" lon="10.931410985"><ele>27</ele><time>2020-01-19T08:26:37Z</time></trkpt>
<trkpt lat="43.703384036" lon="10.931449961"><ele>27</ele><time>2020-01-19T08:26:38Z</time></trkpt>
<trkpt lat="43.703365009" lon="10.931482986"><ele>27</ele><time>2020-01-19T08:26:39Z</time></trkpt>
<trkpt lat="43.703342965" lon="10.931506036"><ele>27</ele><time>2020-01-19T08:26:40Z</time></trkpt>
<trkpt lat="43.703317987" lon="10.931517016"><ele>28</ele><time>2020-01-19T08:26:41Z</time></trkpt>
<trkpt lat="43.703290997" lon="10.931517016"><ele>28</ele><time>2020-01-19T08:26:42Z</time></trkpt>
<trkpt lat="43.703264007" lon="10.931507042"><ele>28</ele><time>2020-01-19T08:26:43Z</time></trkpt>
<trkpt lat="43.703238023" lon="10.931492038"><ele>28</ele><time>2020-01-19T08:26:44Z</time></trkpt>
<trkpt lat="43.703214973" lon="10.931472005"><ele>28</ele><time>2020-01-19T08:26:45Z</time></trkpt>
<trkpt lat="43.703193013" lon="10.931449039"><ele>28</ele><time>2020-01-19T08:26:46Z</time></trkpt>
<trkpt lat="43.703171974" lon="10.931424983"><ele>29</ele><time>2020-01-19T08:26:47Z</time></trkpt>
<trkpt lat="43.703152025" lon="10.931398999"><ele>29</ele><time>2020-01-19T08:26:48Z</time></trkpt>
<trkpt lat="43.703131992" lon="10.931374021"><ele>29</ele><time>2020-01-19T08:26:49Z</time></trkpt>
<trkpt lat="43.70311196" lon="10.931348037"><ele>29</ele><time>2020-01-19T08:26:50Z</time></trkpt>
<trkpt lat="43.703091005" lon="10.931322975"><ele>29</ele><time>2020-01-19T08:26:51Z</time></trkpt>
<trkpt lat="43.703070972" lon="10.931296991"><ele>30</ele><time>2020-01-19T08:26:52Z</time></trkpt>
<trkpt lat="43.703050017" lon="10.931272013"><ele>30</ele><time>2020-01-19T08:26:53Z</time></trkpt>
<trkpt lat="43.703028979" lon="10.931247035"><ele>30</ele><time>2020-01-19T08:26:54Z</time></trkpt>
<trkpt lat="43.70300903" lon="10.931221973"><ele>30</ele><time>2020-01-19T08:26:55Z</time></trkpt>
<trkpt lat="43.702987991" lon="10.931198001"><ele>30</ele><time>2020-01-19T08:26:56Z</time></trkpt>
<trkpt lat="43.702967037" lon="10.931173023"><ele>30</ele><time>2020-01-19T08:26:57Z</time></trkpt>
<trkpt lat="43.702945998" lon="10.931148967"><ele>31</ele><time>2020-01-19T08:26:58Z</time></trkpt>
<trkpt lat="43.702925965" lon="10.931123989"><ele>31</ele><time>2020-01-19T08:26:59Z</time></trkpt>
<trkpt lat="43.702906016" lon="10.931100016"><ele>31</ele><time>2020-01-19T08:27:00Z</time></trkpt>
<trkpt lat="43.702884978" lon="10.93107596"><ele>31</ele><time>2020-01-19T08:27:01Z</time></trkpt>
<trkpt lat="43.702866035" lon="10.931052994"><ele>31</ele><time>2020-01-19T08:27:02Z</time></trkpt>
<trkpt lat="43.702846002" lon="10.931029022"><ele>32</ele><time>2020-01-19T08:27:03Z</time></trkpt>
<trkpt lat="43.702825969" lon="10.931005972"><ele>32</ele><time>2020-01-19T08:27:04Z</time></trkpt>
<trkpt lat="43.702807026" lon="10.930983005"><ele>32</ele><time>2020-01-19T08:27:05Z</time></trkpt>
<trkpt lat="43.702789005" lon="10.930960039"><ele>32</ele><time>2020-01-19T08:27:06Z</time></trkpt>
<trkpt lat="43.702769978" lon="10.930936988"><ele>32</ele><time>2020-01-19T08:27:07Z</time></trkpt>
<trkpt lat="43.702752041" lon="10.930915028"><ele>32</ele><time>2020-01-19T08:27:08Z</time></trkpt>
<trkpt lat="43.70273402" lon="10.930892983"><ele>33</ele><time>2020-01-19T08:27:09Z</time></trkpt>
<trkpt lat="43.702714993" lon="10.930871023"><ele>33</ele><time>2020-01-19T08:27:10Z</time></trkpt>
<trkpt lat="43.702696972" lon="10.930849984"><ele>33</ele><time>2020-01-19T08:27:11Z</time></trkpt>
<trkpt lat="43.702679034" lon="10.93082903"><ele>33</ele><time>2020-01-19T08:27:12Z</time></trkpt>
<trkpt lat="43.702623965" lon="10.930770021"><ele>34</ele><time>2020-01-19T08:27:15Z</time></trkpt>
<trkpt lat="43.702606028" lon="10.930750994"><ele>34</ele><time>2020-01-19T08:27:16Z</time></trkpt>
<trkpt lat="43.702587001" lon="10.930732973"><ele>34</ele><time>2020-01-19T08:27:17Z</time></trkpt>
<trkpt lat="43.702567974" lon="10.930716041"><ele>34</ele><time>2020-01-19T08:27:18Z</time></trkpt>
<trkpt lat="43.702548025" lon="10.930699026"><ele>35</ele><time>2020-01-19T08:27:19Z</time></trkpt>
<trkpt lat="43.702527992" lon="10.930683017"><ele>35</ele><time>2020-01-19T08:27:20Z</time></trkpt>
<trkpt lat="43.70250796" lon="10.930668013"><ele>35</ele><time>2020-01-19T08:27:21Z</time></trkpt>
<trkpt lat="43.702487005" lon="10.930654015"><ele>35</ele><time>2020-01-19T08:27:22Z</time></trkpt>
<trkpt lat="43.702465966" lon="10.930640018"><ele>36</ele><time>2020-01-19T08:27:23Z</time></trkpt>
<trkpt lat="43.702446017" lon="10.930627026"><ele>36</ele><time>2020-01-19T08:27:24Z</time></trkpt>
<trkpt lat="43.702424979" lon="10.93061504"><ele>36</ele><time>2020-01-19T08:27:25Z</time></trkpt>
<trkpt lat="43.70240503" lon="10.930603975"><ele>37</ele><time>2020-01-19T08:27:26Z</time></trkpt>
<trkpt lat="43.702384997" lon="10.930592995"><ele>37</ele><time>2020-01-19T08:27:27Z</time></trkpt>
<trkpt lat="43.702364964" lon="10.930583021"><ele>37</ele><time>2020-01-19T08:27:28Z</time></trkpt>
<trkpt lat="43.702345015" lon="10.930573968"><ele>38</ele><time>2020-01-19T08:27:29Z</time></trkpt>
<trkpt lat="43.702325989" lon="10.930566005"><ele>38</ele><time>2020-01-19T08:27:30Z</time></trkpt>
<trkpt lat="43.702306962" lon="10.930557037"><ele>38</ele><time>2020-01-19T08:27:31Z</time></trkpt>
<trkpt lat="43.702289024" lon="10.930547984"><ele>38</ele><time>2020-01-19T08:27:32Z</time></trkpt>
<trkpt lat="43.702271003" lon="10.930539016"><ele>39</ele><time>2020-01-19T08:27:33Z</time></trkpt>
<trkpt lat="43.702252982" lon="10.930529041"><ele>39</ele><time>2020-01-19T08:27:34Z</time></trkpt>
<trkpt lat="43.702234961" lon="10.930517977"><ele>39</ele><time>2020-01-19T08:27:35Z</time></trkpt>
<trkpt lat="43.70221803" lon="10.930505991"><ele>39</ele><time>2020-01-19T08:27:36Z</time></trkpt>
<trkpt lat="43.702201014" lon="10.930492999"><ele>40</ele><time>2020-01-19T08:27:37Z</time></trkpt>
<trkpt lat="43.702182993" lon="10.930480007"><ele>40</ele><time>2020-01-19T08:27:38Z</time></trkpt>
<trkpt lat="43.702165978" lon="10.930467015"><ele>40</ele><time>2020-01-19T08:27:39Z</time></trkpt>
<trkpt lat="43.702148041" lon="10.930454023"><ele>40</ele><time>2020-01-19T08:27:40Z</time></trkpt>
<trkpt lat="43.702129014" lon="10.930442037"><ele>41</ele><time>2020-01-19T08:27:41Z</time></trkpt>
<trkpt lat="43.702109987" lon="10.930430973"><ele>41</ele><time>2020-01-19T08:27:42Z</time></trkpt>
<trkpt lat="43.702090038" lon="10.930422004"><ele>41</ele><time>2020-01-19T08:27:43Z</time></trkpt>
<trkpt lat="43.702070005" lon="10.930414042"><ele>41</ele><time>2020-01-19T08:27:44Z</time></trkpt>
<trkpt lat="43.702047961" lon="10.930408007"><ele>42</ele><time>2020-01-19T08:27:45Z</time></trkpt>
<trkpt lat="43.702026" lon="10.930403983"><ele>42</ele><time>2020-01-19T08:27:46Z</time></trkpt>
<trkpt lat="43.702003034" lon="10.930400966"><ele>42</ele><time>2020-01-19T08:27:47Z</time></trkpt>
<trkpt lat="43.701979984" lon="10.930399038"><ele>42</ele><time>2020-01-19T08:27:48Z</time></trkpt>
<trkpt lat="43.701958023" lon="10.930397026"><ele>43</ele><time>2020-01-19T08:27:49Z</time></trkpt>
<trkpt lat="43.701934973" lon="10.930397026"><ele>43</ele><time>2020-01-19T08:27:50Z</time></trkpt>
<trkpt lat="43.701912006" lon="10.930397026"><ele>43</ele><time>2020-01-19T08:27:51Z</time></trkpt>
<trkpt lat="43.701889962" lon="10.930397026"><ele>43</ele><time>2020-01-19T08:27:52Z</time></trkpt>
<trkpt lat="43.701869007" lon="10.930398032"><ele>44</ele><time>2020-01-19T08:27:53Z</time></trkpt>
<trkpt lat="43.701847969" lon="10.930399038"><ele>44</ele><time>2020-01-19T08:27:54Z</time></trkpt>
<trkpt lat="43.701827014" lon="10.93039996"><ele>44</ele><time>2020-01-19T08:27:55Z</time></trkpt>
<trkpt lat="43.701805975" lon="10.930400966"><ele>44</ele><time>2020-01-19T08:27:56Z</time></trkpt>
<trkpt lat="43.701785021" lon="10.930402977"><ele>44</ele><time>2020-01-19T08:27:57Z</time></trkpt>
<trkpt lat="43.701764988" lon="10.930404989"><ele>45</ele><time>2020-01-19T08:27:58Z</time></trkpt>
<trkpt lat="43.701744033" lon="10.930407001"><ele>45</ele><time>2020-01-19T08:27:59Z</time></trkpt>
<trkpt lat="43.701724" lon="10.930409012"><ele>45</ele><time>2020-01-19T08:28:00Z</time></trkpt>
<trkpt lat="43.701702962" lon="10.93041203"><ele>45</ele><time>2020-01-19T08:28:01Z</time></trkpt>
<trkpt lat="43.701682007" lon="10.930414964"><ele>45</ele><time>2020-01-19T08:28:02Z</time></trkpt>
<trkpt lat="43.701660968" lon="10.930417981"><ele>46</ele><time>2020-01-19T08:28:03Z</time></trkpt>
<trkpt lat="43.701640014" lon="10.930422004"><ele>46</ele><time>2020-01-19T08:28:04Z</time></trkpt>
<trkpt lat="43.701617969" lon="10.930426028"><ele>46</ele><time>2020-01-19T08:28:05Z</time></trkpt>
<trkpt lat="43.701596009" lon="10.930429967"><ele>46</ele><time>2020-01-19T08:28:06Z</time></trkpt>
<trkpt lat="43.701573964" lon="10.93043399"><ele>46</ele><time>2020-01-19T08:28:07Z</time></trkpt>
<trkpt lat="43.701550998" lon="10.93043902"><ele>47</ele><time>2020-01-19T08:28:08Z</time></trkpt>
<trkpt lat="43.701527026" lon="10.930443965"><ele>47</ele><time>2020-01-19T08:28:09Z</time></trkpt>
<trkpt lat="43.701501964" lon="10.93045"><ele>47</ele><time>2020-01-19T08:28:10Z</time></trkpt>
<trkpt lat="43.70147598" lon="10.930457041"><ele>47</ele><time>2020-01-19T08:28:11Z</time></trkpt>
<trkpt lat="43.701391993" lon="10.930480007"><ele>48</ele><time>2020-01-19T08:28:14Z</time></trkpt>
<trkpt lat="43.701366009" lon="10.93048797"><ele>48</ele><time>2020-01-19T08:28:15Z</time></trkpt>
<trkpt lat="43.701342037" lon="10.930492999"><ele>49</ele><time>2020-01-19T08:28:16Z</time></trkpt>
<trkpt lat="43.701318987" lon="10.930498028"><ele>49</ele><time>2020-01-19T08:28:17Z</time></trkpt>
<trkpt lat="43.701297026" lon="10.930501968"><ele>49</ele><time>2020-01-19T08:28:18Z</time></trkpt>
<trkpt lat="43.701276993" lon="10.930504985"><ele>49</ele><time>2020-01-19T08:28:19Z</time></trkpt>
<trkpt lat="43.701256039" lon="10.930506997"><ele>49</ele><time>2020-01-19T08:28:20Z</time></trkpt>
<trkpt lat="43.701233994" lon="10.930508003"><ele>50</ele><time>2020-01-19T08:28:21Z</time></trkpt>
<trkpt lat="43.701212034" lon="10.930510014"><ele>50</ele><time>2020-01-19T08:28:22Z</time></trkpt>
<trkpt lat="43.701187978" lon="10.93051102"><ele>50</ele><time>2020-01-19T08:28:23Z</time></trkpt>
<trkpt lat="43.701162999" lon="10.930512026"><ele>50</ele><time>2020-01-19T08:28:24Z</time></trkpt>
<trkpt lat="43.70113601" lon="10.93051102"><ele>51</ele><time>2020-01-19T08:28:25Z</time></trkpt>
<trkpt lat="43.70110902" lon="10.930510014"><ele>51</ele><time>2020-01-19T08:28:26Z</time></trkpt>
<trkpt lat="43.701081024" lon="10.930505991"><ele>51</ele><time>2020-01-19T08:28:27Z</time></trkpt>
<trkpt lat="43.701053029" lon="10.93050004"><ele>51</ele><time>2020-01-19T08:28:28Z</time></trkpt>
<trkpt lat="43.701025033" lon="10.930491993"><ele>52</ele><time>2020-01-19T08:28:29Z</time></trkpt>
<trkpt lat="43.70099796" lon="10.930481013"><ele>52</ele><time>2020-01-19T08:28:30Z</time></trkpt>
<trkpt lat="43.700969964" lon="10.930467015"><ele>52</ele><time>2020-01-19T08:28:31Z</time></trkpt>
<trkpt lat="43.700942975" lon="10.930448994"><ele>52</ele><time>2020-01-19T08:28:32Z</time></trkpt>
<trkpt lat="43.700916991" lon="10.930428961"><ele>52</ele><time>2020-01-19T08:28:33Z</time></trkpt>
<trkpt lat="43.700891007" lon="10.930407001"><ele>52</ele><time>2020-01-19T08:28:34Z</time></trkpt>
<trkpt lat="43.700865023" lon="10.930384034"><ele>53</ele><time>2020-01-19T08:28:35Z</time></trkpt>
<trkpt lat="43.700839961" lon="10.930359978"><ele>53</ele><time>2020-01-19T08:28:36Z</time></trkpt>
<trkpt lat="43.700814983" lon="10.930335"><ele>53</ele><time>2020-01-19T08:28:37Z</time></trkpt>
<trkpt lat="43.700791011" lon="10.930310022"><ele>53</ele><time>2020-01-19T08:28:38Z</time></trkpt>
<trkpt lat="43.700767038" lon="10.930285966"><ele>53</ele><time>2020-01-19T08:28:39Z</time></trkpt>
<trkpt lat="43.700742982" lon="10.930260988"><ele>53</ele><time>2020-01-19T08:28:40Z</time></trkpt>
<trkpt lat="43.70071901" lon="10.930237016"><ele>53</ele><time>2020-01-19T08:28:41Z</time></trkpt>
<trkpt lat="43.70069596" lon="10.930213965"><ele>53</ele><time>2020-01-19T08:28:42Z</time></trkpt>
<trkpt lat="43.700672993" lon="10.930190999"><ele>53</ele><time>2020-01-19T08:28:43Z</time></trkpt>
<trkpt lat="43.700651033" lon="10.930168033"><ele>53</ele><time>2020-01-19T08:28:44Z</time></trkpt>
<trkpt lat="43.700628988" lon="10.930145988"><ele>53</ele><time>2020-01-19T08:28:45Z</time></trkpt>
<trkpt lat="43.700607028" lon="10.930124028"><ele>53</ele><time>2020-01-19T08:28:46Z</time></trkpt>
<trkpt lat="43.700584983" lon="10.930101983"><ele>54</ele><time>2020-01-19T08:28:47Z</time></trkpt>
<trkpt lat="43.700564029" lon="10.930080023"><ele>54</ele><time>2020-01-19T08:28:48Z</time></trkpt>
<trkpt lat="43.70054299" lon="10.930058984"><ele>54</ele><time>2020-01-19T08:28:49Z</time></trkpt>
<trkpt lat="43.700523041" lon="10.930038029"><ele>54</ele><time>2020-01-19T08:28:50Z</time></trkpt>
<trkpt lat="43.700502003" lon="10.930016991"><ele>54</ele><time>2020-01-19T08:28:51Z</time></trkpt>
<trkpt lat="43.70048197" lon="10.929996036"><ele>54</ele><time>2020-01-19T08:28:52Z</time></trkpt>
<trkpt lat="43.700463027" lon="10.929976003"><ele>54</ele><time>2020-01-19T08:28:53Z</time></trkpt>
<trkpt lat="43.700442994" lon="10.929954965"><ele>54</ele><time>2020-01-19T08:28:54Z</time></trkpt>
<trkpt lat="43.700423967" lon="10.929935016"><ele>54</ele><time>2020-01-19T08:28:55Z</time></trkpt>
<trkpt lat="43.700405024" lon="10.929914983"><ele>54</ele><time>2020-01-19T08:28:56Z</time></trkpt>
<trkpt lat="43.700385997" lon="10.92989604"><ele>55</ele><time>2020-01-19T08:28:57Z</time></trkpt>
<trkpt lat="43.700367976" lon="10.929876007"><ele>55</ele><time>2020-01-19T08:28:58Z</time></trkpt>
<trkpt lat="43.700349033" lon="10.929855974"><ele>55</ele><time>2020-01-19T08:28:59Z</time></trkpt>
<trkpt lat="43.700331012" lon="10.929837031"><ele>55</ele><time>2020-01-19T08:29:00Z</time></trkpt>
<trkpt lat="43.700312991" lon="10.929818004"><ele>55</ele><time>2020-01-19T08:29:01Z</time></trkpt>
<trkpt lat="43.70029497" lon="10.929797972"><ele>55</ele><time>2020-01-19T08:29:02Z</time></trkpt>
<trkpt lat="43.700277032" lon="10.929779029"><ele>55</ele><time>2020-01-19T08:29:03Z</time></trkpt>
<trkpt lat="43.700260017" lon="10.929760002"><ele>55</ele><time>2020-01-19T08:29:04Z</time></trkpt>
<trkpt lat="43.700241996" lon="10.929740975"><ele>55</ele><time>2020-01-19T08:29:05Z</time></trkpt>
<trkpt lat="43.700224981" lon="10.929722032"><ele>56</ele><time>2020-01-19T08:29:06Z</time></trkpt>
<trkpt lat="43.70020696" lon="10.929703005"><ele>56</ele><time>2020-01-19T08:29:07Z</time></trkpt>
<trkpt lat="43.700190028" lon="10.929683978"><ele>56</ele><time>2020-01-19T08:29:08Z</time></trkpt>
<trkpt lat="43.700172007" lon="10.929665035"><ele>56</ele><time>2020-01-19T08:29:09Z</time></trkpt>
<trkpt lat="43.700154992" lon="10.929646008"><ele>56</ele><time>2020-01-19T08:29:10Z</time></trkpt>
<trkpt lat="43.700136971" lon="10.929627987"><ele>56</ele><time>2020-01-19T08:29:11Z</time></trkpt>
<trkpt lat="43.700120039" lon="10.929609966"><ele>56</ele><time>2020-01-19T08:29:12Z</time></trkpt>
<trkpt lat="43.700103024" lon="10.92959404"><ele>57</ele><time>2020-01-19T08:29:13Z</time></trkpt>
<trkpt lat="43.700085003" lon="10.929579036"><ele>57</ele><time>2020-01-19T08:29:14Z</time></trkpt>
<trkpt lat="43.700066982" lon="10.929565039"><ele>57</ele><time>2020-01-19T08:29:15Z</time></trkpt>
<trkpt lat="43.700048961" lon="10.929551963"><ele>57</ele><time>2020-01-19T08:29:16Z</time></trkpt>
<trkpt lat="43.700029012" lon="10.929537965"><ele>57</ele><time>2020-01-19T08:29:17Z</time></trkpt>
<trkpt lat="43.700006967" lon="10.929522961"><ele>57</ele><time>2020-01-19T08:29:18Z</time></trkpt>
<trkpt lat="43.699986013" lon="10.929511981"><ele>57</ele><time>2020-01-19T08:29:19Z</time></trkpt>
<trkpt lat="43.699966986" lon="10.929508964"><ele>58</ele><time>2020-01-19T08:29:20Z</time></trkpt>
<trkpt lat="43.69994997" lon="10.929518016"><ele>58</ele><time>2020-01-19T08:29:21Z</time></trkpt>
<trkpt lat="43.699937984" lon="10.929540982"><ele>58</ele><time>2020-01-19T08:29:22Z</time></trkpt>
<trkpt lat="43.69992801" lon="10.929576019"><ele>58</ele><time>2020-01-19T08:29:23Z</time></trkpt>
<trkpt lat="43.699919963" lon="10.929616001"><ele>58</ele><time>2020-01-19T08:29:24Z</time></trkpt>
<trkpt lat="43.699910995" lon="10.929655982"><ele>58</ele><time>2020-01-19T08:29:25Z</time></trkpt>
<trkpt lat="43.69990102" lon="10.92969697"><ele>58</ele><time>2020-01-19T08:29:26Z</time></trkpt>
<trkpt lat="43.69989004" lon="10.929737035"><ele>58</ele><time>2020-01-19T08:29:27Z</time></trkpt>
<trkpt lat="43.699878976" lon="10.929777017"><ele>58</ele><time>2020-01-19T08:29:28Z</time></trkpt>
<trkpt lat="43.699867995" lon="10.929815993"><ele>58</ele><time>2020-01-19T08:29:29Z</time></trkpt>
<trkpt lat="43.699856009" lon="10.929855974"><ele>58</ele><time>2020-01-19T08:29:30Z</time></trkpt>
<trkpt lat="43.699844023" lon="10.929895034"><ele>58</ele><time>2020-01-19T08:29:31Z</time></trkpt>
<trkpt lat="43.699832037" lon="10.92993401"><ele>58</ele><time>2020-01-19T08:29:32Z</time></trkpt>
<trkpt lat="43.699818961" lon="10.929972986"><ele>58</ele><time>2020-01-19T08:29:33Z</time></trkpt>
<trkpt lat="43.699806975" lon="10.930011962"><ele>58</ele><time>2020-01-19T08:29:34Z</time></trkpt>
<trkpt lat="43.699794989" lon="10.930051021"><ele>58</ele><time>2020-01-19T08:29:35Z</time></trkpt>
<trkpt lat="43.699781997" lon="10.930088991"><ele>58</ele><time>2020-01-19T08:29:36Z</time></trkpt>
<trkpt lat="43.699770011" lon="10.930127967"><ele>58</ele><time>2020-01-19T08:29:37Z</time></trkpt>
<trkpt lat="43.699758025" lon="10.930166021"><ele>58</ele><time>2020-01-19T08:29:38Z</time></trkpt>
<trkpt lat="43.699746961" lon="10.930203991"><ele>58</ele><time>2020-01-19T08:29:39Z</time></trkpt>
<trkpt lat="43.69973598" lon="10.930242967"><ele>58</ele><time>2020-01-19T08:29:40Z</time></trkpt>
<trkpt lat="43.699726006" lon="10.930281021"><ele>58</ele><time>2020-01-19T08:29:41Z</time></trkpt>
<trkpt lat="43.699716032" lon="10.930318991"><ele>59</ele><time>2020-01-19T08:29:42Z</time></trkpt>
<trkpt lat="43.699705973" lon="10.930356961"><ele>59</ele><time>2020-01-19T08:29:43Z</time></trkpt>
<trkpt lat="43.699695999" lon="10.93039602"><ele>59</ele><time>2020-01-19T08:29:44Z</time></trkpt>
<trkpt lat="43.699686024" lon="10.93043399"><ele>59</ele><time>2020-01-19T08:29:45Z</time></trkpt>
<trkpt lat="43.699675966" lon="10.930473972"><ele>59</ele><time>2020-01-19T08:29:46Z</time></trkpt>
<trkpt lat="43.699665992" lon="10.930513032"><ele>59</ele><time>2020-01-19T08:29:47Z</time></trkpt>
<trkpt lat="43.699654005" lon="10.930553013"><ele>59</ele><time>2020-01-19T08:29:48Z</time></trkpt>
<trkpt lat="43.699642019" lon="10.930594001"><ele>59</ele><time>2020-01-19T08:29:49Z</time></trkpt>
<trkpt lat="43.699630033" lon="10.930634988"><ele>59</ele><time>2020-01-19T08:29:50Z</time></trkpt>
<trkpt lat="43.699589968" lon="10.930759041"><ele>59</ele><time>2020-01-19T08:29:53Z</time></trkpt>
<trkpt lat="43.699576976" lon="10.930799022"><ele>59</ele><time>2020-01-19T08:29:54Z</time></trkpt>
<trkpt lat="43.699563984" lon="10.93084001"><ele>60</ele><time>2020-01-19T08:29:55Z</time></trkpt>
<trkpt lat="43.699551998" lon="10.930878986"><ele>60</ele><time>2020-01-19T08:29:56Z</time></trkpt>
<trkpt lat="43.699540012" lon="10.93091704"><ele>60</ele><time>2020-01-19T08:29:57Z</time></trkpt>
<trkpt lat="43.699529031" lon="10.93095501"><ele>60</ele><time>2020-01-19T08:29:58Z</time></trkpt>
<trkpt lat="43.699518973" lon="10.930990968"><ele>60</ele><time>2020-01-19T08:29:59Z</time></trkpt>
<trkpt lat="43.699508999" lon="10.93102701"><ele>60</ele><time>2020-01-19T08:30:00Z</time></trkpt>
<trkpt lat="43.699501036" lon="10.931061963"><ele>60</ele><time>2020-01-19T08:30:01Z</time></trkpt>
<trkpt lat="43.699491983" lon="10.931095993"><ele>60</ele><time>2020-01-19T08:30:02Z</time></trkpt>
<trkpt lat="43.699485026" lon="10.931129018"><ele>60</ele><time>2020-01-19T08:30:03Z</time></trkpt>
<trkpt lat="43.699477986" lon="10.931161959"><ele>60</ele><time>2020-01-19T08:30:04Z</time></trkpt>
<trkpt lat="43.699472034" lon="10.931193978"><ele>60</ele><time>2020-01-19T08:30:05Z</time></trkpt>
<trkpt lat="43.699465999" lon="10.931224991"><ele>60</ele><time>2020-01-19T08:30:06Z</time></trkpt>
<trkpt lat="43.699459964" lon="10.931256004"><ele>60</ele><time>2020-01-19T08:30:07Z</time></trkpt>
<trkpt lat="43.699454013" lon="10.931287017"><ele>60</ele><time>2020-01-19T08:30:08Z</time></trkpt>
<trkpt lat="43.699447978" lon="10.93131803"><ele>60</ele><time>2020-01-19T08:30:09Z</time></trkpt>
<trkpt lat="43.699442027" lon="10.931349965"><ele>60</ele><time>2020-01-19T08:30:10Z</time></trkpt>
<trkpt lat="43.699433981" lon="10.931381984"><ele>60</ele><time>2020-01-19T08:30:11Z</time></trkpt>
<trkpt lat="43.699425012" lon="10.931415008"><ele>60</ele><time>2020-01-19T08:30:12Z</time></trkpt>
<trkpt lat="43.699415037" lon="10.931449961"><ele>60</ele><time>2020-01-19T08:30:13Z</time></trkpt>
<trkpt lat="43.699403973" lon="10.931484997"><ele>60</ele><time>2020-01-19T08:30:14Z</time></trkpt>
<trkpt lat="43.699391987" lon="10.931521039"><ele>60</ele><time>2020-01-19T08:30:15Z</time></trkpt>
<trkpt lat="43.699378995" lon="10.931558004"><ele>60</ele><time>2020-01-19T08:30:16Z</time></trkpt>
<trkpt lat="43.699366003" lon="10.931594968"><ele>61</ele><time>2020-01-19T08:30:17Z</time></trkpt>
<trkpt lat="43.699351" lon="10.931634028"><ele>61</ele><time>2020-01-19T08:30:18Z</time></trkpt>
<trkpt lat="43.699337002" lon="10.931671998"><ele>61</ele><time>2020-01-19T08:30:19Z</time></trkpt>
<trkpt lat="43.699321998" lon="10.931710973"><ele>61</ele><time>2020-01-19T08:30:20Z</time></trkpt>
<trkpt lat="43.699306995" lon="10.931750033"><ele>61</ele><time>2020-01-19T08:30:21Z</time></trkpt>
<trkpt lat="43.699291991" lon="10.931790015"><ele>61</ele><time>2020-01-19T08:30:22Z</time></trkpt>
<trkpt lat="43.699276987" lon="10.931828991"><ele>61</ele><time>2020-01-19T08:30:23Z</time></trkpt>
<trkpt lat="43.69926299" lon="10.931868972"><ele>61</ele><time>2020-01-19T08:30:24Z</time></trkpt>
<trkpt lat="43.699248992" lon="10.931908032"><ele>62</ele><time>2020-01-19T08:30:25Z</time></trkpt>
<trkpt lat="43.699236" lon="10.931947008"><ele>62</ele><time>2020-01-19T08:30:26Z</time></trkpt>
<trkpt lat="43.699224014" lon="10.931985984"><ele>62</ele><time>2020-01-19T08:30:27Z</time></trkpt>
<trkpt lat="43.699213034" lon="10.932024037"><ele>62</ele><time>2020-01-19T08:30:28Z</time></trkpt>
<trkpt lat="43.699201969" lon="10.932062007"><ele>62</ele><time>2020-01-19T08:30:29Z</time></trkpt>
<trkpt lat="43.699193001" lon="10.932098972"><ele>63</ele><time>2020-01-19T08:30:30Z</time></trkpt>
<trkpt lat="43.699184032" lon="10.93213602"><ele>63</ele><time>2020-01-19T08:30:31Z</time></trkpt>
<trkpt lat="43.699175986" lon="10.932172984"><ele>63</ele><time>2020-01-19T08:30:32Z</time></trkpt>
<trkpt lat="43.699168023" lon="10.932209026"><ele>63</ele><time>2020-01-19T08:30:33Z</time></trkpt>
<trkpt lat="43.699160982" lon="10.93224599"><ele>63</ele><time>2020-01-19T08:30:34Z</time></trkpt>
<trkpt lat="43.699154025" lon="10.932282032"><ele>63</ele><time>2020-01-19T08:30:35Z</time></trkpt>
<trkpt lat="43.69914799" lon="10.932316985"><ele>63</ele><time>2020-01-19T08:30:36Z</time></trkpt>
<trkpt lat="43.699141033" lon="10.932353027"><ele>64</ele><time>2020-01-19T08:30:37Z</time></trkpt>
<trkpt lat="43.699134998" lon="10.932388986"><ele>64</ele><time>2020-01-19T08:30:38Z</time></trkpt>
<trkpt lat="43.699128963" lon="10.932424022"><ele>64</ele><time>2020-01-19T08:30:39Z</time></trkpt>
<trkpt lat="43.699123012" lon="10.932458974"><ele>64</ele><time>2020-01-19T08:30:40Z</time></trkpt>
<trkpt lat="43.699115971" lon="10.932495017"><ele>64</ele><time>2020-01-19T08:30:41Z</time></trkpt>
<trkpt lat="43.69911002" lon="10.932529969"><ele>64</ele><time>2020-01-19T08:30:42Z</time></trkpt>
<trkpt lat="43.699102979" lon="10.932566011"><ele>64</ele><time>2020-01-19T08:30:43Z</time></trkpt>
<trkpt lat="43.699095016" lon="10.932600964"><ele>64</ele><time>2020-01-19T08:30:44Z</time></trkpt>
<trkpt lat="43.699087976" lon="10.932636"><ele>64</ele><time>2020-01-19T08:30:45Z</time></trkpt>
<trkpt lat="43.699080013" lon="10.932671037"><ele>64</ele><time>2020-01-19T08:30:46Z</time></trkpt>
<trkpt lat="43.699071966" lon="10.932704983"><ele>64</ele><time>2020-01-19T08:30:47Z</time></trkpt>
<trkpt lat="43.699064003" lon="10.932739014"><ele>64</ele><time>2020-01-19T08:30:48Z</time></trkpt>
<trkpt lat="43.69905604" lon="10.932771033"><ele>64</ele><time>2020-01-19T08:30:49Z</time></trkpt>
<trkpt lat="43.699047994" lon="10.932801962"><ele>64</ele><time>2020-01-19T08:30:50Z</time></trkpt>
<trkpt lat="43.699041037" lon="10.932830963"><ele>64</ele><time>2020-01-19T08:30:51Z</time></trkpt>
<trkpt lat="43.699033996" lon="10.932858037"><ele>64</ele><time>2020-01-19T08:30:52Z</time></trkpt>
<trkpt lat="43.699027039" lon="10.932886032"><ele>64</ele><time>2020-01-19T08:30:53Z</time></trkpt>
<trkpt lat="43.699021004" lon="10.93291604"><ele>64</ele><time>2020-01-19T08:30:54Z</time></trkpt>
<trkpt lat="43.699013963" lon="10.932950992"><ele>64</ele><time>2020-01-19T08:30:55Z</time></trkpt>
<trkpt lat="43.699008012" lon="10.93299198"><ele>64</ele><time>2020-01-19T08:30:56Z</time></trkpt>
<trkpt lat="43.699000971" lon="10.93303699"><ele>64</ele><time>2020-01-19T08:30:57Z</time></trkpt>
<trkpt lat="43.698993009" lon="10.933085019"><ele>64</ele><time>2020-01-19T08:30:58Z</time></trkpt>
<trkpt lat="43.698954033" lon="10.933226002"><ele>64</ele><time>2020-01-19T08:31:01Z</time></trkpt>
<trkpt lat="43.698937017" lon="10.933271013"><ele>64</ele><time>2020-01-19T08:31:02Z</time></trkpt>
<trkpt lat="43.698917991" lon="10.933315018"><ele>64</ele><time>2020-01-19T08:31:03Z</time></trkpt>
<trkpt lat="43.698898964" lon="10.933358017"><ele>64</ele><time>2020-01-19T08:31:04Z</time></trkpt>
<trkpt lat="43.698879015" lon="10.933400011"><ele>64</ele><time>2020-01-19T08:31:05Z</time></trkpt>
<trkpt lat="43.698859988" lon="10.933442004"><ele>65</ele><time>2020-01-19T08:31:06Z</time></trkpt>
<trkpt lat="43.698841967" lon="10.933483997"><ele>65</ele><time>2020-01-19T08:31:07Z</time></trkpt>
<trkpt lat="43.698825035" lon="10.933524985"><ele>65</ele><time>2020-01-19T08:31:08Z</time></trkpt>
<trkpt lat="43.698810032" lon="10.933564967"><ele>65</ele><time>2020-01-19T08:31:09Z</time></trkpt>
<trkpt lat="43.698796034" lon="10.933605032"><ele>65</ele><time>2020-01-19T08:31:10Z</time></trkpt>
<trkpt lat="43.698783042" lon="10.933644008"><ele>65</ele><time>2020-01-19T08:31:11Z</time></trkpt>
<trkpt lat="43.698770972" lon="10.933681978"><ele>65</ele><time>2020-01-19T08:31:12Z</time></trkpt>
<trkpt lat="43.698760998" lon="10.933719026"><ele>65</ele><time>2020-01-19T08:31:13Z</time></trkpt>
<trkpt lat="43.698751023" lon="10.933753978"><ele>65</ele><time>2020-01-19T08:31:14Z</time></trkpt>
<trkpt lat="43.698742976" lon="10.933787003"><ele>65</ele><time>2020-01-19T08:31:15Z</time></trkpt>
<trkpt lat="43.698735014" lon="10.933818016"><ele>65</ele><time>2020-01-19T08:31:16Z</time></trkpt>
<trkpt lat="43.698727973" lon="10.933848023"><ele>65</ele><time>2020-01-19T08:31:17Z</time></trkpt>
<trkpt lat="43.698722022" lon="10.933878031"><ele>65</ele><time>2020-01-19T08:31:18Z</time></trkpt>
<trkpt lat="43.698715987" lon="10.933908038"><ele>65</ele><time>2020-01-19T08:31:19Z</time></trkpt>
<trkpt lat="43.698710036" lon="10.933938967"><ele>65</ele><time>2020-01-19T08:31:20Z</time></trkpt>
<trkpt lat="43.698705006" lon="10.933970986"><ele>65</ele><time>2020-01-19T08:31:21Z</time></trkpt>
<trkpt lat="43.698699977" lon="10.934001999"><ele>65</ele><time>2020-01-19T08:31:22Z</time></trkpt>
<trkpt lat="43.698696038" lon="10.934032006"><ele>65</ele><time>2020-01-19T08:31:23Z</time></trkpt>
<trkpt lat="43.698692014" lon="10.934062013"><ele>65</ele><time>2020-01-19T08:31:24Z</time></trkpt>
<trkpt lat="43.698687991" lon="10.934091015"><ele>65</ele><time>2020-01-19T08:31:25Z</time></trkpt>
<trkpt lat="43.698683968" lon="10.934124039"><ele>65</ele><time>2020-01-19T08:31:26Z</time></trkpt>
<trkpt lat="43.698678017" lon="10.934161004"><ele>65</ele><time>2020-01-19T08:31:27Z</time></trkpt>
<trkpt lat="43.698670976" lon="10.934205009"><ele>65</ele><time>2020-01-19T08:31:28Z</time></trkpt>
<trkpt lat="43.698663013" lon="10.934253959"><ele>65</ele><time>2020-01-19T08:31:29Z</time></trkpt>
<trkpt lat="43.698654966" lon="10.934303999"><ele>65</ele><time>2020-01-19T08:31:30Z</time></trkpt>
<trkpt lat="43.698645998" lon="10.934354039"><ele>65</ele><time>2020-01-19T08:31:31Z</time></trkpt>
<trkpt lat="43.698638035" lon="10.934402989"><ele>65</ele><time>2020-01-19T08:31:32Z</time></trkpt>
<trkpt lat="43.698629988" lon="10.934452023"><ele>65</ele><time>2020-01-19T08:31:33Z</time></trkpt>
<trkpt lat="43.698622026" lon="10.934498962"><ele>65</ele><time>2020-01-19T08:31:34Z</time></trkpt>
<trkpt lat="43.698613979" lon="10.934545984"><ele>64</ele><time>2020-01-19T08:31:35Z</time></trkpt>
<trkpt lat="43.698606016" lon="10.934592001"><ele>64</ele><time>2020-01-19T08:31:36Z</time></trkpt>
<trkpt lat="43.698596964" lon="10.934637012"><ele>64</ele><time>2020-01-19T08:31:37Z</time></trkpt>
<trkpt lat="43.698589001" lon="10.934682023"><ele>64</ele><time>2020-01-19T08:31:38Z</time></trkpt>
<trkpt lat="43.698581038" lon="10.934726028"><ele>64</ele><time>2020-01-19T08:31:39Z</time></trkpt>
<trkpt lat="43.698572991" lon="10.934770033"><ele>64</ele><time>2020-01-19T08:31:40Z</time></trkpt>
<trkpt lat="43.698565029" lon="10.934814038"><ele>64</ele><time>2020-01-19T08:31:41Z</time></trkpt>
<trkpt lat="43.698556982" lon="10.934857037"><ele>64</ele><time>2020-01-19T08:31:42Z</time></trkpt>
<trkpt lat="43.698548013" lon="10.934900036"><ele>64</ele><time>2020-01-19T08:31:43Z</time></trkpt>
<trkpt lat="43.698539967" lon="10.934943035"><ele>64</ele><time>2020-01-19T08:31:44Z</time></trkpt>
<trkpt lat="43.698530998" lon="10.934985029"><ele>64</ele><time>2020-01-19T08:31:45Z</time></trkpt>
<trkpt lat="43.698522029" lon="10.935028028"><ele>64</ele><time>2020-01-19T08:31:46Z</time></trkpt>
<trkpt lat="43.698512977" lon="10.935070021"><ele>64</ele><time>2020-01-19T08:31:47Z</time></trkpt>
<trkpt lat="43.698504008" lon="10.935112014"><ele>64</ele><time>2020-01-19T08:31:48Z</time></trkpt>
<trkpt lat="43.698494034" lon="10.935154008"><ele>64</ele><time>2020-01-19T08:31:49Z</time></trkpt>
<trkpt lat="43.698484981" lon="10.935197007"><ele>64</ele><time>2020-01-19T08:31:50Z</time></trkpt>
<trkpt lat="43.698476013" lon="10.935239"><ele>64</ele><time>2020-01-19T08:31:51Z</time></trkpt>
<trkpt lat="43.698466038" lon="10.935280994"><ele>64</ele><time>2020-01-19T08:31:52Z</time></trkpt>
<trkpt lat="43.698456986" lon="10.935322987"><ele>64</ele><time>2020-01-19T08:31:53Z</time></trkpt>
<trkpt lat="43.698448017" lon="10.935363974"><ele>64</ele><time>2020-01-19T08:31:54Z</time></trkpt>
<trkpt lat="43.698438965" lon="10.935405968"><ele>64</ele><time>2020-01-19T08:31:55Z</time></trkpt>
<trkpt lat="43.698429996" lon="10.935447961"><ele>64</ele><time>2020-01-19T08:31:56Z</time></trkpt>
<trkpt lat="43.698422033" lon="10.935489032"><ele>64</ele><time>2020-01-19T08:31:57Z</time></trkpt>
<trkpt lat="43.698413987" lon="10.935531026"><ele>64</ele><time>2020-01-19T08:31:58Z</time></trkpt>
<trkpt lat="43.698406024" lon="10.935572013"><ele>64</ele><time>2020-01-19T08:31:59Z</time></trkpt>
<trkpt lat="43.698398983" lon="10.935614007"><ele>64</ele><time>2020-01-19T08:32:00Z</time></trkpt>
<trkpt lat="43.698392026" lon="10.935654994"><ele>64</ele><time>2020-01-19T08:32:01Z</time></trkpt>
<trkpt lat="43.698385991" lon="10.935695982"><ele>64</ele><time>2020-01-19T08:32:02Z</time></trkpt>
<trkpt lat="43.698380962" lon="10.935736969"><ele>64</ele><time>2020-01-19T08:32:03Z</time></trkpt>
<trkpt lat="43.698376017" lon="10.93577804"><ele>64</ele><time>2020-01-19T08:32:04Z</time></trkpt>
<trkpt lat="43.698369982" lon="10.935819028"><ele>64</ele><time>2020-01-19T08:32:05Z</time></trkpt>
<trkpt lat="43.698364031" lon="10.935861021"><ele>64</ele><time>2020-01-19T08:32:06Z</time></trkpt>
<trkpt lat="43.698357996" lon="10.935903015"><ele>64</ele><time>2020-01-19T08:32:07Z</time></trkpt>
<trkpt lat="43.698351039" lon="10.935946014"><ele>64</ele><time>2020-01-19T08:32:08Z</time></trkpt>
<trkpt lat="43.698341986" lon="10.935990019"><ele>64</ele><time>2020-01-19T08:32:09Z</time></trkpt>
<trkpt lat="43.698332012" lon="10.93603503"><ele>64</ele><time>2020-01-19T08:32:10Z</time></trkpt>
<trkpt lat="43.69831902" lon="10.93608004"><ele>63</ele><time>2020-01-19T08:32:11Z</time></trkpt>
<trkpt lat="43.698304016" lon="10.936123962"><ele>63</ele><time>2020-01-19T08:32:12Z</time></trkpt>
<trkpt lat="43.698283983" lon="10.936162015"><ele>63</ele><time>2020-01-19T08:32:13Z</time></trkpt>
<trkpt lat="43.698197985" lon="10.936220018"><ele>62</ele><time>2020-01-19T08:32:16Z</time></trkpt>
<trkpt lat="43.698163033" lon="10.93622203"><ele>62</ele><time>2020-01-19T08:32:17Z</time></trkpt>
<trkpt lat="43.698127996" lon="10.936218007"><ele>62</ele><time>2020-01-19T08:32:18Z</time></trkpt>
<trkpt lat="43.69809296" lon="10.936210966"><ele>62</ele><time>2020-01-19T08:32:19Z</time></trkpt>
<trkpt lat="43.698060019" lon="10.936199985"><ele>62</ele><time>2020-01-19T08:32:20Z</time></trkpt>
<trkpt lat="43.698029006" lon="10.936186993"><ele>62</ele><time>2020-01-19T08:32:21Z</time></trkpt>
<trkpt lat="43.697997993" lon="10.936170984"><ele>62</ele><time>2020-01-19T08:32:22Z</time></trkpt>
<trkpt lat="43.697967986" lon="10.936153969"><ele>62</ele><time>2020-01-19T08:32:23Z</time></trkpt>
<trkpt lat="43.697938984" lon="10.93613402"><ele>62</ele><time>2020-01-19T08:32:24Z</time></trkpt>
<trkpt lat="43.697910989" lon="10.936111975"><ele>62</ele><time>2020-01-19T08:32:25Z</time></trkpt>
<trkpt lat="43.697883999" lon="10.936090015"><ele>61</ele><time>2020-01-19T08:32:26Z</time></trkpt>
<trkpt lat="43.697857009" lon="10.936065959"><ele>61</ele><time>2020-01-19T08:32:27Z</time></trkpt>
<trkpt lat="43.69783002" lon="10.936041987"><ele>61</ele><time>2020-01-19T08:32:28Z</time></trkpt>
<trkpt lat="43.697804036" lon="10.936017008"><ele>61</ele><time>2020-01-19T08:32:29Z</time></trkpt>
<trkpt lat="43.697777968" lon="10.93599203"><ele>61</ele><time>2020-01-19T08:32:30Z</time></trkpt>
<trkpt lat="43.697751984" lon="10.935966969"><ele>61</ele><time>2020-01-19T08:32:31Z</time></trkpt>
<trkpt lat="43.697724994" lon="10.935942996"><ele>61</ele><time>2020-01-19T08:32:32Z</time></trkpt>
<trkpt lat="43.69769901" lon="10.93592003"><ele>61</ele><time>2020-01-19T08:32:33Z</time></trkpt>
<trkpt lat="43.697672021" lon="10.93589698"><ele>61</ele><time>2020-01-19T08:32:34Z</time></trkpt>
<trkpt lat="43.697645031" lon="10.935876025"><ele>61</ele><time>2020-01-19T08:32:35Z</time></trkpt>
<trkpt lat="43.697618041" lon="10.935854986"><ele>61</ele><time>2020-01-19T08:32:36Z</time></trkpt>
<trkpt lat="43.697589962" lon="10.935835959"><ele>61</ele><time>2020-01-19T08:32:37Z</time></trkpt>
<trkpt lat="43.697561966" lon="10.935817016"><ele>61</ele><time>2020-01-19T08:32:38Z</time></trkpt>
<trkpt lat="43.697533971" lon="10.935798995"><ele>61</ele><time>2020-01-19T08:32:39Z</time></trkpt>
<trkpt lat="43.697505975" lon="10.93578198"><ele>61</ele><time>2020-01-19T08:32:40Z</time></trkpt>
<trkpt lat="43.69747798" lon="10.93576597"><ele>61</ele><time>2020-01-19T08:32:41Z</time></trkpt>
<trkpt lat="43.697449984" lon="10.935749961"><ele>61</ele><time>2020-01-19T08:32:42Z</time></trkpt>
<trkpt lat="43.697420983" lon="10.935735041"><ele>62</ele><time>2020-01-19T08:32:43Z</time></trkpt>
<trkpt lat="43.697392987" lon="10.93572096"><ele>62</ele><time>2020-01-19T08:32:44Z</time></trkpt>
<trkpt lat="43.697363986" lon="10.935706962"><ele>62</ele><time>2020-01-19T08:32:45Z</time></trkpt>
<trkpt lat="43.697278993" lon="10.935667986"><ele>62</ele><time>2020-01-19T08:32:48Z</time></trkpt>
<trkpt lat="43.697250998" lon="10.935656"><ele>62</ele><time>2020-01-19T08:32:49Z</time></trkpt>
<trkpt lat="43.697223002" lon="10.935644014"><ele>62</ele><time>2020-01-19T08:32:50Z</time></trkpt>
<trkpt lat="43.697195007" lon="10.935632028"><ele>63</ele><time>2020-01-19T08:32:51Z</time></trkpt>
<trkpt lat="43.697167011" lon="10.935620964"><ele>63</ele><time>2020-01-19T08:32:52Z</time></trkpt>
<trkpt lat="43.697139015" lon="10.935609983"><ele>63</ele><time>2020-01-19T08:32:53Z</time></trkpt>
<trkpt lat="43.69711102" lon="10.935599003"><ele>63</ele><time>2020-01-19T08:32:54Z</time></trkpt>
<trkpt lat="43.697083024" lon="10.935588023"><ele>63</ele><time>2020-01-19T08:32:55Z</time></trkpt>
<trkpt lat="43.697054023" lon="10.935577964"><ele>63</ele><time>2020-01-19T08:32:56Z</time></trkpt>
<trkpt lat="43.697025022" lon="10.93556799"><ele>63</ele><time>2020-01-19T08:32:57Z</time></trkpt>
<trkpt lat="43.696995014" lon="10.935559021"><ele>63</ele><time>2020-01-19T08:32:58Z</time></trkpt>
<trkpt lat="43.696966013" lon="10.935549969"><ele>63</ele><time>2020-01-19T08:32:59Z</time></trkpt>
<trkpt lat="43.696874985" lon="10.935520967"><ele>64</ele><time>2020-01-19T08:33:02Z</time></trkpt>
<trkpt lat="43.696843972" lon="10.935509987"><ele>64</ele><time>2020-01-19T08:33:03Z</time></trkpt>
<trkpt lat="43.696813965" lon="10.935499007"><ele>64</ele><time>2020-01-19T08:33:04Z</time></trkpt>
<trkpt lat="43.696783036" lon="10.935487021"><ele>64</ele><time>2020-01-19T08:33:05Z</time></trkpt>
<trkpt lat="43.696753029" lon="10.935473023"><ele>64</ele><time>2020-01-19T08:33:06Z</time></trkpt>
<trkpt lat="43.696723022" lon="10.935460031"><ele>64</ele><time>2020-01-19T08:33:07Z</time></trkpt>
<trkpt lat="43.69669402" lon="10.935445027"><ele>64</ele><time>2020-01-19T08:33:08Z</time></trkpt>
<trkpt lat="43.696665019" lon="10.935430024"><ele>65</ele><time>2020-01-19T08:33:09Z</time></trkpt>
<trkpt lat="43.696637023" lon="10.93541502"><ele>65</ele><time>2020-01-19T08:33:10Z</time></trkpt>
<trkpt lat="43.696611039" lon="10.935399011"><ele>65</ele><time>2020-01-19T08:33:11Z</time></trkpt>
<trkpt lat="43.696584972" lon="10.935383001"><ele>65</ele><time>2020-01-19T08:33:12Z</time></trkpt>
<trkpt lat="43.696559994" lon="10.935366992"><ele>65</ele><time>2020-01-19T08:33:13Z</time></trkpt>
<trkpt lat="43.696537027" lon="10.935350982"><ele>65</ele><time>2020-01-19T08:33:14Z</time></trkpt>
<trkpt lat="43.696513977" lon="10.935334973"><ele>65</ele><time>2020-01-19T08:33:15Z</time></trkpt>
<trkpt lat="43.69649101" lon="10.935318964"><ele>65</ele><time>2020-01-19T08:33:16Z</time></trkpt>
<trkpt lat="43.69646796" lon="10.935303038"><ele>65</ele><time>2020-01-19T08:33:17Z</time></trkpt>
<trkpt lat="43.696443988" lon="10.935287029"><ele>65</ele><time>2020-01-19T08:33:18Z</time></trkpt>
<trkpt lat="43.696420016" lon="10.935272025"><ele>65</ele><time>2020-01-19T08:33:19Z</time></trkpt>
<trkpt lat="43.696394032" lon="10.935258027"><ele>65</ele><time>2020-01-19T08:33:20Z</time></trkpt>
<trkpt lat="43.696366036" lon="10.935243024"><ele>66</ele><time>2020-01-19T08:33:21Z</time></trkpt>
<trkpt lat="43.696338041" lon="10.935230032"><ele>66</ele><time>2020-01-19T08:33:22Z</time></trkpt>
<trkpt lat="43.696309961" lon="10.935216034"><ele>66</ele><time>2020-01-19T08:33:23Z</time></trkpt>
<trkpt lat="43.696282972" lon="10.93520103"><ele>66</ele><time>2020-01-19T08:33:24Z</time></trkpt>
<trkpt lat="43.696256988" lon="10.935187032"><ele>66</ele><time>2020-01-19T08:33:25Z</time></trkpt>
<trkpt lat="43.69623201" lon="10.935172029"><ele>66</ele><time>2020-01-19T08:33:26Z</time></trkpt>
<trkpt lat="43.696208037" lon="10.935156019"><ele>66</ele><time>2020-01-19T08:33:27Z</time></trkpt>
<trkpt lat="43.696183981" lon="10.935142022"><ele>66</ele><time>2020-01-19T08:33:28Z</time></trkpt>
<trkpt lat="43.696161015" lon="10.935127018"><ele>66</ele><time>2020-01-19T08:33:29Z</time></trkpt>
<trkpt lat="43.696136959" lon="10.935114026"><ele>66</ele><time>2020-01-19T08:33:30Z</time></trkpt>
<trkpt lat="43.696112987" lon="10.935101034"><ele>66</ele><time>2020-01-19T08:33:31Z</time></trkpt>
<trkpt lat="43.696089014" lon="10.935088964"><ele>66</ele><time>2020-01-19T08:33:32Z</time></trkpt>
<trkpt lat="43.696064036" lon="10.935076978"><ele>66</ele><time>2020-01-19T08:33:33Z</time></trkpt>
<trkpt lat="43.696038974" lon="10.935065998"><ele>67</ele><time>2020-01-19T08:33:34Z</time></trkpt>
<trkpt lat="43.696013996" lon="10.935055017"><ele>67</ele><time>2020-01-19T08:33:35Z</time></trkpt>
<trkpt lat="43.695988012" lon="10.935044037"><ele>67</ele><time>2020-01-19T08:33:36Z</time></trkpt>
<trkpt lat="43.695962029" lon="10.935033979"><ele>67</ele><time>2020-01-19T08:33:37Z</time></trkpt>
<trkpt lat="43.695935039" lon="10.935024004"><ele>67</ele><time>2020-01-19T08:33:38Z</time></trkpt>
<trkpt lat="43.695908971" lon="10.935015036"><ele>67</ele><time>2020-01-19T08:33:39Z</time></trkpt>
<trkpt lat="43.695880976" lon="10.935005983"><ele>67</ele><time>2020-01-19T08:33:40Z</time></trkpt>
<trkpt lat="43.695853986" lon="10.934997015"><ele>67</ele><time>2020-01-19T08:33:41Z</time></trkpt>
<trkpt lat="43.69582599" lon="10.934988968"><ele>67</ele><time>2020-01-19T08:33:42Z</time></trkpt>
<trkpt lat="43.695797995" lon="10.934981005"><ele>67</ele><time>2020-01-19T08:33:43Z</time></trkpt>
<trkpt lat="43.695768993" lon="10.934972959"><ele>67</ele><time>2020-01-19T08:33:44Z</time></trkpt>
<trkpt lat="43.695740998" lon="10.934966002"><ele>67</ele><time>2020-01-19T08:33:45Z</time></trkpt>
<trkpt lat="43.695711996" lon="10.934958961"><ele>67</ele><time>2020-01-19T08:33:46Z</time></trkpt>
<trkpt lat="43.695684001" lon="10.934952004"><ele>67</ele><time>2020-01-19T08:33:47Z</time></trkpt>
<trkpt lat="43.695654999" lon="10.934945969"><ele>67</ele><time>2020-01-19T08:33:48Z</time></trkpt>
<trkpt lat="43.695625998" lon="10.934940018"><ele>67</ele><time>2020-01-19T08:33:49Z</time></trkpt>
<trkpt lat="43.695596997" lon="10.934933983"><ele>67</ele><time>2020-01-19T08:33:50Z</time></trkpt>
<trkpt lat="43.695569001" lon="10.934928032"><ele>67</ele><time>2020-01-19T08:33:51Z</time></trkpt>
<trkpt lat="43.69554" lon="10.934923002"><ele>67</ele><time>2020-01-19T08:33:52Z</time></trkpt>
<trkpt lat="43.695510998" lon="10.934917973"><ele>67</ele><time>2020-01-19T08:33:53Z</time></trkpt>
<trkpt lat="43.695483003" lon="10.934913028"><ele>67</ele><time>2020-01-19T08:33:54Z</time></trkpt>
<trkpt lat="43.695455007" lon="10.934907999"><ele>67</ele><time>2020-01-19T08:33:55Z</time></trkpt>
<trkpt lat="43.695427012" lon="10.934901964"><ele>67</ele><time>2020-01-19T08:33:56Z</time></trkpt>
<trkpt lat="43.695399016" lon="10.934896013"><ele>67</ele><time>2020-01-19T08:33:57Z</time></trkpt>
<trkpt lat="43.695372026" lon="10.934889978"><ele>67</ele><time>2020-01-19T08:33:58Z</time></trkpt>
<trkpt lat="43.695345037" lon="10.934884027"><ele>67</ele><time>2020-01-19T08:33:59Z</time></trkpt>
<trkpt lat="43.695317963" lon="10.93487598"><ele>67</ele><time>2020-01-19T08:34:00Z</time></trkpt>
<trkpt lat="43.695291979" lon="10.934869023"><ele>67</ele><time>2020-01-19T08:34:01Z</time></trkpt>
<trkpt lat="43.695265995" lon="10.934859971"><ele>67</ele><time>2020-01-19T08:34:02Z</time></trkpt>
<trkpt lat="43.695240011" lon="10.934852008"><ele>67</ele><time>2020-01-19T08:34:03Z</time></trkpt>
<trkpt lat="43.695214028" lon="10.934843961"><ele>67</ele><time>2020-01-19T08:34:04Z</time></trkpt>
<trkpt lat="43.695187038" lon="10.934835998"><ele>67</ele><time>2020-01-19T08:34:05Z</time></trkpt>
<trkpt lat="43.695159964" lon="10.934828036"><ele>67</ele><time>2020-01-19T08:34:06Z</time></trkpt>
<trkpt lat="43.695132975" lon="10.934820995"><ele>67</ele><time>2020-01-19T08:34:07Z</time></trkpt>
<trkpt lat="43.695104979" lon="10.934814038"><ele>67</ele><time>2020-01-19T08:34:08Z</time></trkpt>
<trkpt lat="43.695075978" lon="10.934808003"><ele>67</ele><time>2020-01-19T08:34:09Z</time></trkpt>
<trkpt lat="43.695046976" lon="10.934801968"><ele>67</ele><time>2020-01-19T08:34:10Z</time></trkpt>
<trkpt lat="43.695016969" lon="10.934797022"><ele>67</ele><time>2020-01-19T08:34:11Z</time></trkpt>
<trkpt lat="43.69498604" lon="10.934792999"><ele>67</ele><time>2020-01-19T08:34:12Z</time></trkpt>
<trkpt lat="43.694956033" lon="10.93478797"><ele>67</ele><time>2020-01-19T08:34:13Z</time></trkpt>
<trkpt lat="43.69492502" lon="10.934784031"><ele>67</ele><time>2020-01-19T08:34:14Z</time></trkpt>
<trkpt lat="43.694893001" lon="10.934780007"><ele>67</ele><time>2020-01-19T08:34:15Z</time></trkpt>
<trkpt lat="43.694861988" lon="10.934775984"><ele>67</ele><time>2020-01-19T08:34:16Z</time></trkpt>
<trkpt lat="43.694829969" lon="10.934772966"><ele>67</ele><time>2020-01-19T08:34:17Z</time></trkpt>
<trkpt lat="43.694798034" lon="10.934769027"><ele>67</ele><time>2020-01-19T08:34:18Z</time></trkpt>
<trkpt lat="43.694767021" lon="10.934765004"><ele>67</ele><time>2020-01-19T08:34:19Z</time></trkpt>
<trkpt lat="43.694735002" lon="10.93476098"><ele>67</ele><time>2020-01-19T08:34:20Z</time></trkpt>
<trkpt lat="43.694703989" lon="10.934757041"><ele>67</ele><time>2020-01-19T08:34:21Z</time></trkpt>
<trkpt lat="43.69467197" lon="10.934752012"><ele>67</ele><time>2020-01-19T08:34:22Z</time></trkpt>
<trkpt lat="43.694641041" lon="10.934747988"><ele>67</ele><time>2020-01-19T08:34:23Z</time></trkpt>
<trkpt lat="43.694611033" lon="10.934742959"><ele>67</ele><time>2020-01-19T08:34:24Z</time></trkpt>
<trkpt lat="43.69458002" lon="10.934737008"><ele>67</ele><time>2020-01-19T08:34:25Z</time></trkpt>
<trkpt lat="43.694550013" lon="10.934730973"><ele>67</ele><time>2020-01-19T08:34:26Z</time></trkpt>
<trkpt lat="43.694520006" lon="10.934725022"><ele>67</ele><time>2020-01-19T08:34:27Z</time></trkpt>
<trkpt lat="43.694491005" lon="10.934718987"><ele>67</ele><time>2020-01-19T08:34:28Z</time></trkpt>
<trkpt lat="43.694460997" lon="10.934713036"><ele>67</ele><time>2020-01-19T08:34:29Z</time></trkpt>
<trkpt lat="43.694431996" lon="10.934705995"><ele>67</ele><time>2020-01-19T08:34:30Z</time></trkpt>
<trkpt lat="43.694402995" lon="10.934699038"><ele>67</ele><time>2020-01-19T08:34:31Z</time></trkpt>
<trkpt lat="43.694374999" lon="10.934691997"><ele>67</ele><time>2020-01-19T08:34:32Z</time></trkpt>
<trkpt lat="43.694345998" lon="10.934684034"><ele>67</ele><time>2020-01-19T08:34:33Z</time></trkpt>
<trkpt lat="43.694318002" lon="10.934676994"><ele>67</ele><time>2020-01-19T08:34:34Z</time></trkpt>
<trkpt lat="43.694290007" lon="10.934670037"><ele>67</ele><time>2020-01-19T08:34:35Z</time></trkpt>
<trkpt lat="43.694262011" lon="10.93466199"><ele>67</ele><time>2020-01-19T08:34:36Z</time></trkpt>
<trkpt lat="43.694234015" lon="10.934655033"><ele>67</ele><time>2020-01-19T08:34:37Z</time></trkpt>
<trkpt lat="43.694207026" lon="10.934646986"><ele>67</ele><time>2020-01-19T08:34:38Z</time></trkpt>
<trkpt lat="43.69417903" lon="10.934640029"><ele>67</ele><time>2020-01-19T08:34:39Z</time></trkpt>
<trkpt lat="43.69415204" lon="10.934631983"><ele>67</ele><time>2020-01-19T08:34:40Z</time></trkpt>
<trkpt lat="43.694123961" lon="10.934625026"><ele>68</ele><time>2020-01-19T08:34:41Z</time></trkpt>
<trkpt lat="43.694096971" lon="10.934616979"><ele>68</ele><time>2020-01-19T08:34:42Z</time></trkpt>
<trkpt lat="43.694069982" lon="10.934610022"><ele>68</ele><time>2020-01-19T08:34:43Z</time></trkpt>
<trkpt lat="43.694042992" lon="10.934602981"><ele>68</ele><time>2020-01-19T08:34:44Z</time></trkpt>
<trkpt lat="43.694016002" lon="10.934595019"><ele>68</ele><time>2020-01-19T08:34:45Z</time></trkpt>
<trkpt lat="43.693989012" lon="10.934587978"><ele>68</ele><time>2020-01-19T08:34:46Z</time></trkpt>
<trkpt lat="43.693962023" lon="10.934581021"><ele>69</ele><time>2020-01-19T08:34:47Z</time></trkpt>
<trkpt lat="43.693936039" lon="10.934572974"><ele>69</ele><time>2020-01-19T08:34:48Z</time></trkpt>
<trkpt lat="43.693908965" lon="10.934566017"><ele>69</ele><time>2020-01-19T08:34:49Z</time></trkpt>
<trkpt lat="43.693881975" lon="10.934557971"><ele>69</ele><time>2020-01-19T08:34:50Z</time></trkpt>
<trkpt lat="43.693855992" lon="10.934551014"><ele>69</ele><time>2020-01-19T08:34:51Z</time></trkpt>
<trkpt lat="43.693829002" lon="10.934542967"><ele>69</ele><time>2020-01-19T08:34:52Z</time></trkpt>
<trkpt lat="43.693803018" lon="10.93453601"><ele>70</ele><time>2020-01-19T08:34:53Z</time></trkpt>
<trkpt lat="43.693776028" lon="10.934527963"><ele>70</ele><time>2020-01-19T08:34:54Z</time></trkpt>
<trkpt lat="43.693749961" lon="10.934520001"><ele>70</ele><time>2020-01-19T08:34:55Z</time></trkpt>
<trkpt lat="43.693722971" lon="10.93451296"><ele>70</ele><time>2020-01-19T08:34:56Z</time></trkpt>
<trkpt lat="43.693696987" lon="10.934504997"><ele>70</ele><time>2020-01-19T08:34:57Z</time></trkpt>
<trkpt lat="43.693669997" lon="10.934497034"><ele>70</ele><time>2020-01-19T08:34:58Z</time></trkpt>
<trkpt lat="43.693644013" lon="10.934488988"><ele>71</ele><time>2020-01-19T08:34:59Z</time></trkpt>
<trkpt lat="43.693617024" lon="10.934481025"><ele>71</ele><time>2020-01-19T08:35:00Z</time></trkpt>
<trkpt lat="43.693590034" lon="10.934471972"><ele>71</ele><time>2020-01-19T08:35:01Z</time></trkpt>
<trkpt lat="43.69356296" lon="10.934464009"><ele>71</ele><time>2020-01-19T08:35:02Z</time></trkpt>
<trkpt lat="43.693535971" lon="10.934455041"><ele>71</ele><time>2020-01-19T08:35:03Z</time></trkpt>
<trkpt lat="43.693508981" lon="10.934445988"><ele>71</ele><time>2020-01-19T08:35:04Z</time></trkpt>
<trkpt lat="43.693480985" lon="10.93443702"><ele>72</ele><time>2020-01-19T08:35:05Z</time></trkpt>
<trkpt lat="43.693453996" lon="10.934427967"><ele>72</ele><time>2020-01-19T08:35:06Z</time></trkpt>
<trkpt lat="43.693426" lon="10.934417993"><ele>72</ele><time>2020-01-19T08:35:07Z</time></trkpt>
<trkpt lat="43.693396999" lon="10.934409024"><ele>72</ele><time>2020-01-19T08:35:08Z</time></trkpt>
<trkpt lat="43.693369003" lon="10.934398966"><ele>72</ele><time>2020-01-19T08:35:09Z</time></trkpt>
<trkpt lat="43.693340002" lon="10.934387986"><ele>73</ele><time>2020-01-19T08:35:10Z</time></trkpt>
<trkpt lat="43.693311" lon="10.934378011"><ele>73</ele><time>2020-01-19T08:35:11Z</time></trkpt>
<trkpt lat="43.693280993" lon="10.934367031"><ele>73</ele><time>2020-01-19T08:35:12Z</time></trkpt>
<trkpt lat="43.693251992" lon="10.934355967"><ele>73</ele><time>2020-01-19T08:35:13Z</time></trkpt>
<trkpt lat="43.693221984" lon="10.934344986"><ele>73</ele><time>2020-01-19T08:35:14Z</time></trkpt>
<trkpt lat="43.693192983" lon="10.934333"><ele>73</ele><time>2020-01-19T08:35:15Z</time></trkpt>
<trkpt lat="43.693163982" lon="10.934321014"><ele>73</ele><time>2020-01-19T08:35:16Z</time></trkpt>
<trkpt lat="43.693135986" lon="10.934309028"><ele>73</ele><time>2020-01-19T08:35:17Z</time></trkpt>
<trkpt lat="43.693108996" lon="10.934296958"><ele>73</ele><time>2020-01-19T08:35:18Z</time></trkpt>
<trkpt lat="43.693082007" lon="10.934283966"><ele>73</ele><time>2020-01-19T08:35:19Z</time></trkpt>
<trkpt lat="43.693055017" lon="10.93427198"><ele>73</ele><time>2020-01-19T08:35:20Z</time></trkpt>
<trkpt lat="43.693030039" lon="10.934258988"><ele>73</ele><time>2020-01-19T08:35:21Z</time></trkpt>
<trkpt lat="43.693003971" lon="10.93424499"><ele>73</ele><time>2020-01-19T08:35:22Z</time></trkpt>
<trkpt lat="43.692978993" lon="10.934231998"><ele>73</ele><time>2020-01-19T08:35:23Z</time></trkpt>
<trkpt lat="43.692953009" lon="10.934218001"><ele>73</ele><time>2020-01-19T08:35:24Z</time></trkpt>
<trkpt lat="43.692928031" lon="10.934204003"><ele>73</ele><time>2020-01-19T08:35:25Z</time></trkpt>
<trkpt lat="43.692901963" lon="10.934190005"><ele>73</ele><time>2020-01-19T08:35:26Z</time></trkpt>
<trkpt lat="43.692875979" lon="10.934175001"><ele>73</ele><time>2020-01-19T08:35:27Z</time></trkpt>
<trkpt lat="43.69284899" lon="10.934159998"><ele>74</ele><time>2020-01-19T08:35:28Z</time></trkpt>
<trkpt lat="43.692822" lon="10.934144994"><ele>74</ele><time>2020-01-19T08:35:29Z</time></trkpt>
<trkpt lat="43.69279501" lon="10.934129991"><ele>74</ele><time>2020-01-19T08:35:30Z</time></trkpt>
<trkpt lat="43.692769026" lon="10.934113981"><ele>74</ele><time>2020-01-19T08:35:31Z</time></trkpt>
<trkpt lat="43.692742037" lon="10.934097972"><ele>74</ele><time>2020-01-19T08:35:32Z</time></trkpt>
<trkpt lat="43.692716975" lon="10.93408104"><ele>74</ele><time>2020-01-19T08:35:33Z</time></trkpt>
<trkpt lat="43.692691997" lon="10.934064025"><ele>74</ele><time>2020-01-19T08:35:34Z</time></trkpt>
<trkpt lat="43.692668024" lon="10.93404701"><ele>74</ele><time>2020-01-19T08:35:35Z</time></trkpt>
<trkpt lat="43.692643968" lon="10.934028989"><ele>74</ele><time>2020-01-19T08:35:36Z</time></trkpt>
<trkpt lat="43.692622008" lon="10.934010968"><ele>74</ele><time>2020-01-19T08:35:37Z</time></trkpt>
<trkpt lat="43.692599041" lon="10.933994036"><ele>74</ele><time>2020-01-19T08:35:38Z</time></trkpt>
<trkpt lat="43.692576997" lon="10.933976015"><ele>74</ele><time>2020-01-19T08:35:39Z</time></trkpt>
<trkpt lat="43.692555036" lon="10.933959"><ele>75</ele><time>2020-01-19T08:35:40Z</time></trkpt>
<trkpt lat="43.692532992" lon="10.933941985"><ele>75</ele><time>2020-01-19T08:35:41Z</time></trkpt>
<trkpt lat="43.692511031" lon="10.933925975"><ele>75</ele><time>2020-01-19T08:35:42Z</time></trkpt>
<trkpt lat="43.692487981" lon="10.933909966"><ele>75</ele><time>2020-01-19T08:35:43Z</time></trkpt>
<trkpt lat="43.692465015" lon="10.93389404"><ele>75</ele><time>2020-01-19T08:35:44Z</time></trkpt>
<trkpt lat="43.692441965" lon="10.933878031"><ele>74</ele><time>2020-01-19T08:35:45Z</time></trkpt>
<trkpt lat="43.692418998" lon="10.933862021"><ele>74</ele><time>2020-01-19T08:35:46Z</time></trkpt>
<trkpt lat="43.692396032" lon="10.933845006"><ele>74</ele><time>2020-01-19T08:35:47Z</time></trkpt>
<trkpt lat="43.692371976" lon="10.933826985"><ele>74</ele><time>2020-01-19T08:35:48Z</time></trkpt>
<trkpt lat="43.692349009" lon="10.933808964"><ele>74</ele><time>2020-01-19T08:35:49Z</time></trkpt>
<trkpt lat="43.692325959" lon="10.933789015"><ele>74</ele><time>2020-01-19T08:35:50Z</time></trkpt>
<trkpt lat="43.692301987" lon="10.933768982"><ele>74</ele><time>2020-01-19T08:35:51Z</time></trkpt>
<trkpt lat="43.692280026" lon="10.933748027"><ele>74</ele><time>2020-01-19T08:35:52Z</time></trkpt>
<trkpt lat="43.692257982" lon="10.933727995"><ele>74</ele><time>2020-01-19T08:35:53Z</time></trkpt>
<trkpt lat="43.692237027" lon="10.933708968"><ele>74</ele><time>2020-01-19T08:35:54Z</time></trkpt>
<trkpt lat="43.692218" lon="10.933692036"><ele>74</ele><time>2020-01-19T08:35:55Z</time></trkpt>
<trkpt lat="43.692199979" lon="10.933676027"><ele>74</ele><time>2020-01-19T08:35:56Z</time></trkpt>
<trkpt lat="43.69218397" lon="10.933662029"><ele>74</ele><time>2020-01-19T08:35:57Z</time></trkpt>
<trkpt lat="43.692169972" lon="10.933651971"><ele>74</ele><time>2020-01-19T08:35:58Z</time></trkpt>
<trkpt lat="43.692157986" lon="10.933644008"><ele>74</ele><time>2020-01-19T08:35:59Z</time></trkpt>
<trkpt lat="43.692147005" lon="10.933636967"><ele>74</ele><time>2020-01-19T08:36:00Z</time></trkpt>
<trkpt lat="43.692127978" lon="10.933625987"><ele>73</ele><time>2020-01-19T08:36:02Z</time></trkpt>
<trkpt lat="43.692120016" lon="10.933620036"><ele>73</ele><time>2020-01-19T08:36:03Z</time></trkpt>
<trkpt lat="43.692110963" lon="10.933611989"><ele>73</ele><time>2020-01-19T08:36:04Z</time></trkpt>
<trkpt lat="43.692100989" lon="10.93360302"><ele>73</ele><time>2020-01-19T08:36:05Z</time></trkpt>
<trkpt lat="43.692091014" lon="10.933591034"><ele>74</ele><time>2020-01-19T08:36:06Z</time></trkpt>
<trkpt lat="43.692080034" lon="10.933577958"><ele>74</ele><time>2020-01-19T08:36:07Z</time></trkpt>
<trkpt lat="43.692067964" lon="10.933562033"><ele>74</ele><time>2020-01-19T08:36:08Z</time></trkpt>
<trkpt lat="43.692054972" lon="10.933544012"><ele>74</ele><time>2020-01-19T08:36:09Z</time></trkpt>
<trkpt lat="43.692008033" lon="10.933482992"><ele>74</ele><time>2020-01-19T08:36:12Z</time></trkpt>
<trkpt lat="43.691990012" lon="10.933461031"><ele>74</ele><time>2020-01-19T08:36:13Z</time></trkpt>
<trkpt lat="43.691970985" lon="10.933438987"><ele>74</ele><time>2020-01-19T08:36:14Z</time></trkpt>
<trkpt lat="43.691950031" lon="10.93341602"><ele>75</ele><time>2020-01-19T08:36:15Z</time></trkpt>
<trkpt lat="43.691928992" lon="10.93339297"><ele>75</ele><time>2020-01-19T08:36:16Z</time></trkpt>
<trkpt lat="43.691908037" lon="10.933368998"><ele>75</ele><time>2020-01-19T08:36:17Z</time></trkpt>
<trkpt lat="43.691886999" lon="10.933345025"><ele>75</ele><time>2020-01-19T08:36:18Z</time></trkpt>
<trkpt lat="43.69186596" lon="10.933319042"><ele>75</ele><time>2020-01-19T08:36:19Z</time></trkpt>
<trkpt lat="43.691846011" lon="10.933292974"><ele>76</ele><time>2020-01-19T08:36:20Z</time></trkpt>
<trkpt lat="43.691826984" lon="10.933264978"><ele>76</ele><time>2020-01-19T08:36:21Z</time></trkpt>
<trkpt lat="43.691808963" lon="10.933236983"><ele>76</ele><time>2020-01-19T08:36:22Z</time></trkpt>
<trkpt lat="43.691793038" lon="10.933206975"><ele>76</ele><time>2020-01-19T08:36:23Z</time></trkpt>
<trkpt lat="43.691778034" lon="10.933176968"><ele>77</ele><time>2020-01-19T08:36:24Z</time></trkpt>
<trkpt lat="43.691764036" lon="10.933146039"><ele>77</ele><time>2020-01-19T08:36:25Z</time></trkpt>
<trkpt lat="43.69175096" lon="10.933116032"><ele>77</ele><time>2020-01-19T08:36:26Z</time></trkpt>
<trkpt lat="43.691737968" lon="10.933085019"><ele>78</ele><time>2020-01-19T08:36:27Z</time></trkpt>
<trkpt lat="43.691725982" lon="10.933055012"><ele>78</ele><time>2020-01-19T08:36:28Z</time></trkpt>
<trkpt lat="43.691713996" lon="10.93302601"><ele>79</ele><time>2020-01-19T08:36:29Z</time></trkpt>
<trkpt lat="43.69170201" lon="10.93299902"><ele>79</ele><time>2020-01-19T08:36:30Z</time></trkpt>
<trkpt lat="43.691690024" lon="10.932972031"><ele>79</ele><time>2020-01-19T08:36:31Z</time></trkpt>
<trkpt lat="43.691678038" lon="10.932945963"><ele>80</ele><time>2020-01-19T08:36:32Z</time></trkpt>
<trkpt lat="43.691665968" lon="10.932920985"><ele>80</ele><time>2020-01-19T08:36:33Z</time></trkpt>
<trkpt lat="43.691653982" lon="10.932897013"><ele>80</ele><time>2020-01-19T08:36:34Z</time></trkpt>
<trkpt lat="43.691641996" lon="10.93287304"><ele>80</ele><time>2020-01-19T08:36:35Z</time></trkpt>
<trkpt lat="43.69163001" lon="10.93284999"><ele>81</ele><time>2020-01-19T08:36:36Z</time></trkpt>
<trkpt lat="43.691617018" lon="10.932827024"><ele>81</ele><time>2020-01-19T08:36:37Z</time></trkpt>
<trkpt lat="43.691604026" lon="10.932803974"><ele>81</ele><time>2020-01-19T08:36:38Z</time></trkpt>
<trkpt lat="43.691591034" lon="10.932782013"><ele>81</ele><time>2020-01-19T08:36:39Z</time></trkpt>
<trkpt lat="43.691578042" lon="10.932758963"><ele>81</ele><time>2020-01-19T08:36:40Z</time></trkpt>
<trkpt lat="43.691565972" lon="10.932737002"><ele>81</ele><time>2020-01-19T08:36:41Z</time></trkpt>
<trkpt lat="43.69155298" lon="10.932714036"><ele>82</ele><time>2020-01-19T08:36:42Z</time></trkpt>
<trkpt lat="43.691540994" lon="10.93268998"><ele>82</ele><time>2020-01-19T08:36:43Z</time></trkpt>
<trkpt lat="43.691529008" lon="10.932666007"><ele>82</ele><time>2020-01-19T08:36:44Z</time></trkpt>
<trkpt lat="43.691518027" lon="10.932642035"><ele>82</ele><time>2020-01-19T08:36:45Z</time></trkpt>
<trkpt lat="43.691506963" lon="10.932616973"><ele>82</ele><time>2020-01-19T08:36:46Z</time></trkpt>
<trkpt lat="43.691495983" lon="10.932590989"><ele>83</ele><time>2020-01-19T08:36:47Z</time></trkpt>
<trkpt lat="43.691487014" lon="10.932565005"><ele>83</ele><time>2020-01-19T08:36:48Z</time></trkpt>
<trkpt lat="43.69147704" lon="10.932538016"><ele>83</ele><time>2020-01-19T08:36:49Z</time></trkpt>
<trkpt lat="43.691467987" lon="10.932512032"><ele>83</ele><time>2020-01-19T08:36:50Z</time></trkpt>
<trkpt lat="43.691459019" lon="10.932484036"><ele>84</ele><time>2020-01-19T08:36:51Z</time></trkpt>
<trkpt lat="43.691449966" lon="10.932456963"><ele>84</ele><time>2020-01-19T08:36:52Z</time></trkpt>
<trkpt lat="43.691440998" lon="10.932428967"><ele>84</ele><time>2020-01-19T08:36:53Z</time></trkpt>
<trkpt lat="43.691433035" lon="10.932400972"><ele>84</ele><time>2020-01-19T08:36:54Z</time></trkpt>
<trkpt lat="43.691423982" lon="10.932373982"><ele>85</ele><time>2020-01-19T08:36:55Z</time></trkpt>
<trkpt lat="43.691415014" lon="10.932345986"><ele>85</ele><time>2020-01-19T08:36:56Z</time></trkpt>
<trkpt lat="43.691406967" lon="10.932317991"><ele>85</ele><time>2020-01-19T08:36:57Z</time></trkpt>
<trkpt lat="43.691397998" lon="10.932291001"><ele>85</ele><time>2020-01-19T08:36:58Z</time></trkpt>
<trkpt lat="43.69138903" lon="10.932263006"><ele>86</ele><time>2020-01-19T08:36:59Z</time></trkpt>
<trkpt lat="43.691378972" lon="10.932236016"><ele>86</ele><time>2020-01-19T08:37:00Z</time></trkpt>
<trkpt lat="43.691370003" lon="10.932209026"><ele>86</ele><time>2020-01-19T08:37:01Z</time></trkpt>
<trkpt lat="43.691360028" lon="10.932182958"><ele>87</ele><time>2020-01-19T08:37:02Z</time></trkpt>
<trkpt lat="43.691348964" lon="10.932156974"><ele>87</ele><time>2020-01-19T08:37:03Z</time></trkpt>
<trkpt lat="43.69133899" lon="10.932130991"><ele>87</ele><time>2020-01-19T08:37:04Z</time></trkpt>
<trkpt lat="43.69132801" lon="10.932105007"><ele>87</ele><time>2020-01-19T08:37:05Z</time></trkpt>
<trkpt lat="43.691318035" lon="10.932080029"><ele>88</ele><time>2020-01-19T08:37:06Z</time></trkpt>
<trkpt lat="43.691306971" lon="10.932054967"><ele>88</ele><time>2020-01-19T08:37:07Z</time></trkpt>
<trkpt lat="43.691295991" lon="10.932029989"><ele>88</ele><time>2020-01-19T08:37:08Z</time></trkpt>
<trkpt lat="43.69128501" lon="10.932006016"><ele>88</ele><time>2020-01-19T08:37:09Z</time></trkpt>
<trkpt lat="43.69127403" lon="10.93198196"><ele>89</ele><time>2020-01-19T08:37:10Z</time></trkpt>
<trkpt lat="43.691263972" lon="10.931957988"><ele>89</ele><time>2020-01-19T08:37:11Z</time></trkpt>
<trkpt lat="43.691252992" lon="10.931934016"><ele>89</ele><time>2020-01-19T08:37:12Z</time></trkpt>
<trkpt lat="43.691243017" lon="10.931910966"><ele>89</ele><time>2020-01-19T08:37:13Z</time></trkpt>
<trkpt lat="43.691232037" lon="10.931887999"><ele>90</ele><time>2020-01-19T08:37:14Z</time></trkpt>
<trkpt lat="43.691221979" lon="10.931865033"><ele>90</ele><time>2020-01-19T08:37:15Z</time></trkpt>
<trkpt lat="43.69121301" lon="10.931842988"><ele>90</ele><time>2020-01-19T08:37:16Z</time></trkpt>
<trkpt lat="43.691203035" lon="10.931820022"><ele>90</ele><time>2020-01-19T08:37:17Z</time></trkpt>
<trkpt lat="43.691193983" lon="10.931796972"><ele>91</ele><time>2020-01-19T08:37:18Z</time></trkpt>
<trkpt lat="43.691185014" lon="10.931774005"><ele>91</ele><time>2020-01-19T08:37:19Z</time></trkpt>
<trkpt lat="43.69117504" lon="10.931750033"><ele>91</ele><time>2020-01-19T08:37:20Z</time></trkpt>
<trkpt lat="43.691165987" lon="10.931724971"><ele>92</ele><time>2020-01-19T08:37:21Z</time></trkpt>
<trkpt lat="43.691157019" lon="10.931698987"><ele>92</ele><time>2020-01-19T08:37:22Z</time></trkpt>
<trkpt lat="43.691147966" lon="10.931670992"><ele>92</ele><time>2020-01-19T08:37:23Z</time></trkpt>
<trkpt lat="43.691138998" lon="10.93164199"><ele>93</ele><time>2020-01-19T08:37:24Z</time></trkpt>
<trkpt lat="43.691129023" lon="10.931610977"><ele>93</ele><time>2020-01-19T08:37:25Z</time></trkpt>
<trkpt lat="43.691119971" lon="10.931579964"><ele>93</ele><time>2020-01-19T08:37:26Z</time></trkpt>
<trkpt lat="43.691109996" lon="10.931547023"><ele>93</ele><time>2020-01-19T08:37:27Z</time></trkpt>
<trkpt lat="43.691100022" lon="10.931513999"><ele>94</ele><time>2020-01-19T08:37:28Z</time></trkpt>
<trkpt lat="43.691089964" lon="10.931480974"><ele>94</ele><time>2020-01-19T08:37:29Z</time></trkpt>
<trkpt lat="43.691079989" lon="10.931448033"><ele>94</ele><time>2020-01-19T08:37:30Z</time></trkpt>
<trkpt lat="43.691070015" lon="10.931415008"><ele>95</ele><time>2020-01-19T08:37:31Z</time></trkpt>
<trkpt lat="43.691059034" lon="10.931383995"><ele>95</ele><time>2020-01-19T08:37:32Z</time></trkpt>
<trkpt lat="43.69104797" lon="10.931351976"><ele>95</ele><time>2020-01-19T08:37:33Z</time></trkpt>
<trkpt lat="43.691037996" lon="10.931321969"><ele>95</ele><time>2020-01-19T08:37:34Z</time></trkpt>
<trkpt lat="43.691028021" lon="10.931292968"><ele>96</ele><time>2020-01-19T08:37:35Z</time></trkpt>
<trkpt lat="43.691018969" lon="10.931264972"><ele>96</ele><time>2020-01-19T08:37:36Z</time></trkpt>
<trkpt lat="43.691011006" lon="10.931237983"><ele>96</ele><time>2020-01-19T08:37:37Z</time></trkpt>
<trkpt lat="43.691003965" lon="10.931211999"><ele>96</ele><time>2020-01-19T08:37:38Z</time></trkpt>
<trkpt lat="43.690998014" lon="10.931188026"><ele>97</ele><time>2020-01-19T08:37:39Z</time></trkpt>
<trkpt lat="43.690993991" lon="10.931164976"><ele>97</ele><time>2020-01-19T08:37:40Z</time></trkpt>
<trkpt lat="43.690989967" lon="10.93114201"><ele>97</ele><time>2020-01-19T08:37:41Z</time></trkpt>
<trkpt lat="43.69098301" lon="10.93111896"><ele>97</ele><time>2020-01-19T08:37:42Z</time></trkpt>
<trkpt lat="43.690973036" lon="10.931093981"><ele>97</ele><time>2020-01-19T08:37:43Z</time></trkpt>
<trkpt lat="43.690957027" lon="10.931066992"><ele>98</ele><time>2020-01-19T08:37:44Z</time></trkpt>
<trkpt lat="43.690938" lon="10.931040002"><ele>98</ele><time>2020-01-19T08:37:45Z</time></trkpt>
<trkpt lat="43.690916961" lon="10.931014018"><ele>98</ele><time>2020-01-19T08:37:46Z</time></trkpt>
<trkpt lat="43.690896006" lon="10.930991974"><ele>98</ele><time>2020-01-19T08:37:47Z</time></trkpt>
<trkpt lat="43.690875974" lon="10.930971019"><ele>98</ele><time>2020-01-19T08:37:48Z</time></trkpt>
<trkpt lat="43.690855019" lon="10.93094998"><ele>98</ele><time>2020-01-19T08:37:49Z</time></trkpt>
<trkpt lat="43.690834986" lon="10.930929026"><ele>98</ele><time>2020-01-19T08:37:50Z</time></trkpt>
<trkpt lat="43.690815037" lon="10.93090497"><ele>98</ele><time>2020-01-19T08:37:51Z</time></trkpt>
<trkpt lat="43.690795004" lon="10.930879992"><ele>98</ele><time>2020-01-19T08:37:52Z</time></trkpt>
<trkpt lat="43.690775977" lon="10.930853002"><ele>98</ele><time>2020-01-19T08:37:53Z</time></trkpt>
<trkpt lat="43.69075804" lon="10.930824"><ele>98</ele><time>2020-01-19T08:37:54Z</time></trkpt>
<trkpt lat="43.690742031" lon="10.930793993"><ele>98</ele><time>2020-01-19T08:37:55Z</time></trkpt>
<trkpt lat="43.690726021" lon="10.93076298"><ele>98</ele><time>2020-01-19T08:37:56Z</time></trkpt>
<trkpt lat="43.690711018" lon="10.930730039"><ele>98</ele><time>2020-01-19T08:37:57Z</time></trkpt>
<trkpt lat="43.690695008" lon="10.930697015"><ele>99</ele><time>2020-01-19T08:37:58Z</time></trkpt>
<trkpt lat="43.690680005" lon="10.930662984"><ele>99</ele><time>2020-01-19T08:37:59Z</time></trkpt>
<trkpt lat="43.690663995" lon="10.930628031"><ele>99</ele><time>2020-01-19T08:38:00Z</time></trkpt>
<trkpt lat="43.69064698" lon="10.930591989"><ele>99</ele><time>2020-01-19T08:38:01Z</time></trkpt>
<trkpt lat="43.690628037" lon="10.930555025"><ele>99</ele><time>2020-01-19T08:38:02Z</time></trkpt>
<trkpt lat="43.690606998" lon="10.930517977"><ele>99</ele><time>2020-01-19T08:38:03Z</time></trkpt>
<trkpt lat="43.690584032" lon="10.930482019"><ele>99</ele><time>2020-01-19T08:38:04Z</time></trkpt>
<trkpt lat="43.690559976" lon="10.930448994"><ele>99</ele><time>2020-01-19T08:38:05Z</time></trkpt>
<trkpt lat="43.690532986" lon="10.930420998"><ele>98</ele><time>2020-01-19T08:38:06Z</time></trkpt>
<trkpt lat="43.690504991" lon="10.930399038"><ele>98</ele><time>2020-01-19T08:38:07Z</time></trkpt>
<trkpt lat="43.690475989" lon="10.93038504"><ele>98</ele><time>2020-01-19T08:38:08Z</time></trkpt>
<trkpt lat="43.690444976" lon="10.930380011"><ele>97</ele><time>2020-01-19T08:38:09Z</time></trkpt>
<trkpt lat="43.690412035" lon="10.930386968"><ele>97</ele><time>2020-01-19T08:38:10Z</time></trkpt>
<trkpt lat="43.690379011" lon="10.930407001"><ele>96</ele><time>2020-01-19T08:38:11Z</time></trkpt>
<trkpt lat="43.69034498" lon="10.930436002"><ele>95</ele><time>2020-01-19T08:38:12Z</time></trkpt>
<trkpt lat="43.690312039" lon="10.930470033"><ele>95</ele><time>2020-01-19T08:38:13Z</time></trkpt>
<trkpt lat="43.690282032" lon="10.930505991"><ele>94</ele><time>2020-01-19T08:38:14Z</time></trkpt>
<trkpt lat="43.690254958" lon="10.930540022"><ele>93</ele><time>2020-01-19T08:38:15Z</time></trkpt>
<trkpt lat="43.690230986" lon="10.930572962"><ele>93</ele><time>2020-01-19T08:38:16Z</time></trkpt>
<trkpt lat="43.690209026" lon="10.930604981"><ele>93</ele><time>2020-01-19T08:38:17Z</time></trkpt>
<trkpt lat="43.690187987" lon="10.930634988"><ele>92</ele><time>2020-01-19T08:38:18Z</time></trkpt>
<trkpt lat="43.690167032" lon="10.930664996"><ele>92</ele><time>2020-01-19T08:38:19Z</time></trkpt>
<trkpt lat="43.690145994" lon="10.930693997"><ele>91</ele><time>2020-01-19T08:38:20Z</time></trkpt>
<trkpt lat="43.690125039" lon="10.930722998"><ele>91</ele><time>2020-01-19T08:38:21Z</time></trkpt>
<trkpt lat="43.690105006" lon="10.930752"><ele>91</ele><time>2020-01-19T08:38:22Z</time></trkpt>
<trkpt lat="43.690083968" lon="10.930779995"><ele>90</ele><time>2020-01-19T08:38:23Z</time></trkpt>
<trkpt lat="43.69004298" lon="10.930834981"><ele>90</ele><time>2020-01-19T08:38:25Z</time></trkpt>
<trkpt lat="43.690022025" lon="10.930860965"><ele>89</ele><time>2020-01-19T08:38:26Z</time></trkpt>
<trkpt lat="43.690001993" lon="10.930888038"><ele>89</ele><time>2020-01-19T08:38:27Z</time></trkpt>
<trkpt lat="43.689981038" lon="10.930914022"><ele>89</ele><time>2020-01-19T08:38:28Z</time></trkpt>
<trkpt lat="43.689961005" lon="10.930940006"><ele>90</ele><time>2020-01-19T08:38:29Z</time></trkpt>
<trkpt lat="43.689939966" lon="10.93096599"><ele>90</ele><time>2020-01-19T08:38:30Z</time></trkpt>
<trkpt lat="43.689919012" lon="10.930990968"><ele>90</ele><time>2020-01-19T08:38:31Z</time></trkpt>
<trkpt lat="43.689898979" lon="10.93101603"><ele>90</ele><time>2020-01-19T08:38:32Z</time></trkpt>
<trkpt lat="43.689878024" lon="10.931041008"><ele>90</ele><time>2020-01-19T08:38:33Z</time></trkpt>
<trkpt lat="43.689856986" lon="10.931065986"><ele>90</ele><time>2020-01-19T08:38:34Z</time></trkpt>
<trkpt lat="43.689837037" lon="10.931090964"><ele>90</ele><time>2020-01-19T08:38:35Z</time></trkpt>
<trkpt lat="43.689815998" lon="10.93111502"><ele>90</ele><time>2020-01-19T08:38:36Z</time></trkpt>
<trkpt lat="43.68979496" lon="10.931139998"><ele>90</ele><time>2020-01-19T08:38:37Z</time></trkpt>
<trkpt lat="43.689774005" lon="10.93116397"><ele>90</ele><time>2020-01-19T08:38:38Z</time></trkpt>
<trkpt lat="43.689710973" lon="10.931237983"><ele>91</ele><time>2020-01-19T08:38:41Z</time></trkpt>
<trkpt lat="43.689690018" lon="10.931262039"><ele>91</ele><time>2020-01-19T08:38:42Z</time></trkpt>
<trkpt lat="43.689669985" lon="10.931286011"><ele>91</ele><time>2020-01-19T08:38:43Z</time></trkpt>
<trkpt lat="43.689649031" lon="10.931310989"><ele>91</ele><time>2020-01-19T08:38:44Z</time></trkpt>
<trkpt lat="43.689627992" lon="10.931335967"><ele>91</ele><time>2020-01-19T08:38:45Z</time></trkpt>
<trkpt lat="43.689607037" lon="10.931360023"><ele>92</ele><time>2020-01-19T08:38:46Z</time></trkpt>
<trkpt lat="43.689587004" lon="10.931385001"><ele>92</ele><time>2020-01-19T08:38:47Z</time></trkpt>
<trkpt lat="43.689565966" lon="10.931409979"><ele>92</ele><time>2020-01-19T08:38:48Z</time></trkpt>
<trkpt lat="43.689546017" lon="10.931435963"><ele>92</ele><time>2020-01-19T08:38:49Z</time></trkpt>
<trkpt lat="43.689525984" lon="10.931461025"><ele>92</ele><time>2020-01-19T08:38:50Z</time></trkpt>
<trkpt lat="43.689506035" lon="10.931487009"><ele>92</ele><time>2020-01-19T08:38:51Z</time></trkpt>
<trkpt lat="43.689484997" lon="10.931511987"><ele>93</ele><time>2020-01-19T08:38:52Z</time></trkpt>
<trkpt lat="43.689464964" lon="10.931536965"><ele>93</ele><time>2020-01-19T08:38:53Z</time></trkpt>
<trkpt lat="43.689444009" lon="10.931562027"><ele>93</ele><time>2020-01-19T08:38:54Z</time></trkpt>
<trkpt lat="43.689422971" lon="10.931584993"><ele>93</ele><time>2020-01-19T08:38:55Z</time></trkpt>
<trkpt lat="43.68940101" lon="10.93160796"><ele>93</ele><time>2020-01-19T08:38:56Z</time></trkpt>
<trkpt lat="43.68937796" lon="10.931630004"><ele>94</ele><time>2020-01-19T08:38:57Z</time></trkpt>
<trkpt lat="43.689353988" lon="10.931650959"><ele>94</ele><time>2020-01-19T08:38:58Z</time></trkpt>
<trkpt lat="43.689279975" lon="10.931706028"><ele>94</ele><time>2020-01-19T08:39:01Z</time></trkpt>
<trkpt lat="43.689253991" lon="10.931722037"><ele>94</ele><time>2020-01-19T08:39:02Z</time></trkpt>
<trkpt lat="43.689228008" lon="10.931737041"><ele>94</ele><time>2020-01-19T08:39:03Z</time></trkpt>
<trkpt lat="43.689201018" lon="10.931751961"><ele>94</ele><time>2020-01-19T08:39:04Z</time></trkpt>
<trkpt lat="43.689174028" lon="10.931765959"><ele>94</ele><time>2020-01-19T08:39:05Z</time></trkpt>
<trkpt lat="43.689147038" lon="10.93178004"><ele>94</ele><time>2020-01-19T08:39:06Z</time></trkpt>
<trkpt lat="43.689118959" lon="10.931793032"><ele>94</ele><time>2020-01-19T08:39:07Z</time></trkpt>
<trkpt lat="43.689091969" lon="10.931806024"><ele>94</ele><time>2020-01-19T08:39:08Z</time></trkpt>
<trkpt lat="43.689063974" lon="10.93181801"><ele>95</ele><time>2020-01-19T08:39:09Z</time></trkpt>
<trkpt lat="43.689036984" lon="10.931828991"><ele>95</ele><time>2020-01-19T08:39:10Z</time></trkpt>
<trkpt lat="43.689008988" lon="10.931840977"><ele>95</ele><time>2020-01-19T08:39:11Z</time></trkpt>
<trkpt lat="43.688981999" lon="10.931852041"><ele>95</ele><time>2020-01-19T08:39:12Z</time></trkpt>
<trkpt lat="43.688955009" lon="10.931862015"><ele>95</ele><time>2020-01-19T08:39:13Z</time></trkpt>
<trkpt lat="43.688927013" lon="10.931872996"><ele>95</ele><time>2020-01-19T08:39:14Z</time></trkpt>
<trkpt lat="43.688900024" lon="10.93188297"><ele>96</ele><time>2020-01-19T08:39:15Z</time></trkpt>
<trkpt lat="43.68887404" lon="10.931893028"><ele>96</ele><time>2020-01-19T08:39:16Z</time></trkpt>
<trkpt lat="43.688846966" lon="10.931901997"><ele>96</ele><time>2020-01-19T08:39:17Z</time></trkpt>
<trkpt lat="43.688820982" lon="10.931911971"><ele>96</ele><time>2020-01-19T08:39:18Z</time></trkpt>
<trkpt lat="43.688794998" lon="10.931921024"><ele>96</ele><time>2020-01-19T08:39:19Z</time></trkpt>
<trkpt lat="43.68871998" lon="10.931948014"><ele>97</ele><time>2020-01-19T08:39:22Z</time></trkpt>
<trkpt lat="43.688696008" lon="10.931956982"><ele>97</ele><time>2020-01-19T08:39:23Z</time></trkpt>
<trkpt lat="43.688672036" lon="10.931965029"><ele>98</ele><time>2020-01-19T08:39:24Z</time></trkpt>
<trkpt lat="43.688648986" lon="10.931973998"><ele>98</ele><time>2020-01-19T08:39:25Z</time></trkpt>
<trkpt lat="43.688625013" lon="10.931982966"><ele>98</ele><time>2020-01-19T08:39:26Z</time></trkpt>
<trkpt lat="43.688601963" lon="10.931992019"><ele>98</ele><time>2020-01-19T08:39:27Z</time></trkpt>
<trkpt lat="43.688578997" lon="10.932000987"><ele>98</ele><time>2020-01-19T08:39:28Z</time></trkpt>
<trkpt lat="43.68855603" lon="10.93201004"><ele>99</ele><time>2020-01-19T08:39:29Z</time></trkpt>
<trkpt lat="43.68853298" lon="10.932019008"><ele>99</ele><time>2020-01-19T08:39:30Z</time></trkpt>
<trkpt lat="43.688509008" lon="10.932027977"><ele>99</ele><time>2020-01-19T08:39:31Z</time></trkpt>
<trkpt lat="43.688486042" lon="10.932038035"><ele>99</ele><time>2020-01-19T08:39:32Z</time></trkpt>
<trkpt lat="43.688461985" lon="10.932047004"><ele>100</ele><time>2020-01-19T08:39:33Z</time></trkpt>
<trkpt lat="43.688438013" lon="10.932056978"><ele>100</ele><time>2020-01-19T08:39:34Z</time></trkpt>
<trkpt lat="43.688414041" lon="10.932067037"><ele>100</ele><time>2020-01-19T08:39:35Z</time></trkpt>
<trkpt lat="43.688388979" lon="10.932078017"><ele>101</ele><time>2020-01-19T08:39:36Z</time></trkpt>
<trkpt lat="43.688364001" lon="10.932087991"><ele>101</ele><time>2020-01-19T08:39:37Z</time></trkpt>
<trkpt lat="43.688338017" lon="10.932098972"><ele>101</ele><time>2020-01-19T08:39:38Z</time></trkpt>
<trkpt lat="43.688312033" lon="10.932110036"><ele>101</ele><time>2020-01-19T08:39:39Z</time></trkpt>
<trkpt lat="43.688238021" lon="10.932138031"><ele>102</ele><time>2020-01-19T08:39:42Z</time></trkpt>
<trkpt lat="43.688214971" lon="10.932144988"><ele>102</ele><time>2020-01-19T08:39:43Z</time></trkpt>
<trkpt lat="43.688194016" lon="10.932152029"><ele>102</ele><time>2020-01-19T08:39:44Z</time></trkpt>
<trkpt lat="43.688172977" lon="10.932156974"><ele>102</ele><time>2020-01-19T08:39:45Z</time></trkpt>
<trkpt lat="43.688154034" lon="10.932160998"><ele>102</ele><time>2020-01-19T08:39:46Z</time></trkpt>
<trkpt lat="43.688136013" lon="10.932166027"><ele>102</ele><time>2020-01-19T08:39:47Z</time></trkpt>
<trkpt lat="43.688116986" lon="10.932170972"><ele>102</ele><time>2020-01-19T08:39:48Z</time></trkpt>
<trkpt lat="43.688097037" lon="10.932178013"><ele>102</ele><time>2020-01-19T08:39:49Z</time></trkpt>
<trkpt lat="43.688074993" lon="10.932185976"><ele>102</ele><time>2020-01-19T08:39:50Z</time></trkpt>
<trkpt lat="43.688052027" lon="10.93219704"><ele>102</ele><time>2020-01-19T08:39:51Z</time></trkpt>
<trkpt lat="43.688028976" lon="10.932207014"><ele>103</ele><time>2020-01-19T08:39:52Z</time></trkpt>
<trkpt lat="43.688005004" lon="10.932217995"><ele>103</ele><time>2020-01-19T08:39:53Z</time></trkpt>
<trkpt lat="43.687982038" lon="10.932227969"><ele>103</ele><time>2020-01-19T08:39:54Z</time></trkpt>
<trkpt lat="43.687957982" lon="10.932238027"><ele>103</ele><time>2020-01-19T08:39:55Z</time></trkpt>
<trkpt lat="43.687934009" lon="10.932246996"><ele>103</ele><time>2020-01-19T08:39:56Z</time></trkpt>
<trkpt lat="43.687865026" lon="10.932274992"><ele>103</ele><time>2020-01-19T08:39:59Z</time></trkpt>
<trkpt lat="43.687841976" lon="10.932284966"><ele>103</ele><time>2020-01-19T08:40:00Z</time></trkpt>
<trkpt lat="43.687820015" lon="10.932294019"><ele>103</ele><time>2020-01-19T08:40:01Z</time></trkpt>
<trkpt lat="43.687797971" lon="10.932303993"><ele>104</ele><time>2020-01-19T08:40:02Z</time></trkpt>
<trkpt lat="43.68777601" lon="10.932313967"><ele>104</ele><time>2020-01-19T08:40:03Z</time></trkpt>
<trkpt lat="43.687754972" lon="10.93232302"><ele>104</ele><time>2020-01-19T08:40:04Z</time></trkpt>
<trkpt lat="43.687733011" lon="10.932332994"><ele>104</ele><time>2020-01-19T08:40:05Z</time></trkpt>
<trkpt lat="43.687710967" lon="10.932342969"><ele>104</ele><time>2020-01-19T08:40:06Z</time></trkpt>
<trkpt lat="43.687689006" lon="10.932353027"><ele>104</ele><time>2020-01-19T08:40:07Z</time></trkpt>
<trkpt lat="43.68766604" lon="10.932364007"><ele>104</ele><time>2020-01-19T08:40:08Z</time></trkpt>
<trkpt lat="43.687641984" lon="10.932373982"><ele>104</ele><time>2020-01-19T08:40:09Z</time></trkpt>
<trkpt lat="43.687618012" lon="10.93238404"><ele>104</ele><time>2020-01-19T08:40:10Z</time></trkpt>
<trkpt lat="43.687593034" lon="10.932394015"><ele>104</ele><time>2020-01-19T08:40:11Z</time></trkpt>
<trkpt lat="43.687567972" lon="10.932404995"><ele>104</ele><time>2020-01-19T08:40:12Z</time></trkpt>
<trkpt lat="43.687541988" lon="10.932414969"><ele>105</ele><time>2020-01-19T08:40:13Z</time></trkpt>
<trkpt lat="43.687516004" lon="10.932425028"><ele>105</ele><time>2020-01-19T08:40:14Z</time></trkpt>
<trkpt lat="43.687489014" lon="10.932435002"><ele>105</ele><time>2020-01-19T08:40:15Z</time></trkpt>
<trkpt lat="43.687462024" lon="10.932444977"><ele>105</ele><time>2020-01-19T08:40:16Z</time></trkpt>
<trkpt lat="43.687434029" lon="10.932454029"><ele>105</ele><time>2020-01-19T08:40:17Z</time></trkpt>
<trkpt lat="43.687406033" lon="10.932462998"><ele>105</ele><time>2020-01-19T08:40:18Z</time></trkpt>
<trkpt lat="43.687377032" lon="10.932471966"><ele>105</ele><time>2020-01-19T08:40:19Z</time></trkpt>
<trkpt lat="43.687349036" lon="10.932481019"><ele>105</ele><time>2020-01-19T08:40:20Z</time></trkpt>
<trkpt lat="43.687319029" lon="10.932488982"><ele>105</ele><time>2020-01-19T08:40:21Z</time></trkpt>
<trkpt lat="43.687290028" lon="10.932497028"><ele>105</ele><time>2020-01-19T08:40:22Z</time></trkpt>
<trkpt lat="43.687260021" lon="10.932503985"><ele>105</ele><time>2020-01-19T08:40:23Z</time></trkpt>
<trkpt lat="43.687230013" lon="10.932511026"><ele>105</ele><time>2020-01-19T08:40:24Z</time></trkpt>
<trkpt lat="43.687200006" lon="10.932516977"><ele>104</ele><time>2020-01-19T08:40:25Z</time></trkpt>
<trkpt lat="43.687169999" lon="10.932522006"><ele>104</ele><time>2020-01-19T08:40:26Z</time></trkpt>
<trkpt lat="43.687138986" lon="10.932527035"><ele>104</ele><time>2020-01-19T08:40:27Z</time></trkpt>
<trkpt lat="43.687108979" lon="10.932530975"><ele>104</ele><time>2020-01-19T08:40:28Z</time></trkpt>
<trkpt lat="43.687077966" lon="10.932532987"><ele>104</ele><time>2020-01-19T08:40:29Z</time></trkpt>
<trkpt lat="43.687047036" lon="10.932534998"><ele>104</ele><time>2020-01-19T08:40:30Z</time></trkpt>
<trkpt lat="43.687017029" lon="10.932534998"><ele>104</ele><time>2020-01-19T08:40:31Z</time></trkpt>
<trkpt lat="43.686987022" lon="10.932534998"><ele>104</ele><time>2020-01-19T08:40:32Z</time></trkpt>
<trkpt lat="43.686956009" lon="10.932531981"><ele>104</ele><time>2020-01-19T08:40:33Z</time></trkpt>
<trkpt lat="43.686926002" lon="10.932528041"><ele>104</ele><time>2020-01-19T08:40:34Z</time></trkpt>
<trkpt lat="43.686897" lon="10.932523012"><ele>104</ele><time>2020-01-19T08:40:35Z</time></trkpt>
<trkpt lat="43.686866993" lon="10.932514966"><ele>104</ele><time>2020-01-19T08:40:36Z</time></trkpt>
<trkpt lat="43.686837992" lon="10.932505997"><ele>104</ele><time>2020-01-19T08:40:37Z</time></trkpt>
<trkpt lat="43.686809996" lon="10.932495017"><ele>104</ele><time>2020-01-19T08:40:38Z</time></trkpt>
<trkpt lat="43.686782001" lon="10.932481019"><ele>104</ele><time>2020-01-19T08:40:39Z</time></trkpt>
<trkpt lat="43.686754005" lon="10.932466015"><ele>104</ele><time>2020-01-19T08:40:40Z</time></trkpt>
<trkpt lat="43.686727015" lon="10.932447994"><ele>104</ele><time>2020-01-19T08:40:41Z</time></trkpt>
<trkpt lat="43.686701031" lon="10.932427961"><ele>104</ele><time>2020-01-19T08:40:42Z</time></trkpt>
<trkpt lat="43.686674964" lon="10.932406001"><ele>104</ele><time>2020-01-19T08:40:43Z</time></trkpt>
<trkpt lat="43.686649986" lon="10.932383034"><ele>104</ele><time>2020-01-19T08:40:44Z</time></trkpt>
<trkpt lat="43.686625008" lon="10.932358978"><ele>105</ele><time>2020-01-19T08:40:45Z</time></trkpt>
<trkpt lat="43.686601035" lon="10.932332994"><ele>105</ele><time>2020-01-19T08:40:46Z</time></trkpt>
<trkpt lat="43.686577985" lon="10.932307011"><ele>105</ele><time>2020-01-19T08:40:47Z</time></trkpt>
<trkpt lat="43.686556024" lon="10.932280021"><ele>105</ele><time>2020-01-19T08:40:48Z</time></trkpt>
<trkpt lat="43.686534986" lon="10.932253031"><ele>105</ele><time>2020-01-19T08:40:49Z</time></trkpt>
<trkpt lat="43.686514031" lon="10.932226963"><ele>106</ele><time>2020-01-19T08:40:50Z</time></trkpt>
<trkpt lat="43.686493998" lon="10.932199974"><ele>106</ele><time>2020-01-19T08:40:51Z</time></trkpt>
<trkpt lat="43.686474971" lon="10.932172984"><ele>106</ele><time>2020-01-19T08:40:52Z</time></trkpt>
<trkpt lat="43.686455023" lon="10.932145994"><ele>106</ele><time>2020-01-19T08:40:53Z</time></trkpt>
<trkpt lat="43.686435996" lon="10.932119004"><ele>106</ele><time>2020-01-19T08:40:54Z</time></trkpt>
<trkpt lat="43.686415963" lon="10.932093021"><ele>107</ele><time>2020-01-19T08:40:55Z</time></trkpt>
<trkpt lat="43.68639702" lon="10.932067037"><ele>107</ele><time>2020-01-19T08:40:56Z</time></trkpt>
<trkpt lat="43.686376987" lon="10.932041975"><ele>107</ele><time>2020-01-19T08:40:57Z</time></trkpt>
<trkpt lat="43.686357038" lon="10.932016997"><ele>107</ele><time>2020-01-19T08:40:58Z</time></trkpt>
<trkpt lat="43.686336" lon="10.931992019"><ele>107</ele><time>2020-01-19T08:40:59Z</time></trkpt>
<trkpt lat="43.686315967" lon="10.931967041"><ele>107</ele><time>2020-01-19T08:41:00Z</time></trkpt>
<trkpt lat="43.686295012" lon="10.931942984"><ele>107</ele><time>2020-01-19T08:41:01Z</time></trkpt>
<trkpt lat="43.686232986" lon="10.931869978"><ele>108</ele><time>2020-01-19T08:41:04Z</time></trkpt>
<trkpt lat="43.686212031" lon="10.931846006"><ele>108</ele><time>2020-01-19T08:41:05Z</time></trkpt>
<trkpt lat="43.686190993" lon="10.931822034"><ele>108</ele><time>2020-01-19T08:41:06Z</time></trkpt>
<trkpt lat="43.686170038" lon="10.931797978"><ele>108</ele><time>2020-01-19T08:41:07Z</time></trkpt>
<trkpt lat="43.686148999" lon="10.931774005"><ele>108</ele><time>2020-01-19T08:41:08Z</time></trkpt>
<trkpt lat="43.686127961" lon="10.931749027"><ele>109</ele><time>2020-01-19T08:41:09Z</time></trkpt>
<trkpt lat="43.686108012" lon="10.931724971"><ele>109</ele><time>2020-01-19T08:41:10Z</time></trkpt>
<trkpt lat="43.686087979" lon="10.931699993"><ele>109</ele><time>2020-01-19T08:41:11Z</time></trkpt>
<trkpt lat="43.68606803" lon="10.931675015"><ele>109</ele><time>2020-01-19T08:41:12Z</time></trkpt>
<trkpt lat="43.686047997" lon="10.931650037"><ele>109</ele><time>2020-01-19T08:41:13Z</time></trkpt>
<trkpt lat="43.68602897" lon="10.931625981"><ele>109</ele><time>2020-01-19T08:41:14Z</time></trkpt>
<trkpt lat="43.686010027" lon="10.931601003"><ele>109</ele><time>2020-01-19T08:41:15Z</time></trkpt>
<trkpt lat="43.685989995" lon="10.931577031"><ele>109</ele><time>2020-01-19T08:41:16Z</time></trkpt>
<trkpt lat="43.685970968" lon="10.931552975"><ele>109</ele><time>2020-01-19T08:41:17Z</time></trkpt>
<trkpt lat="43.685952025" lon="10.931531014"><ele>109</ele><time>2020-01-19T08:41:18Z</time></trkpt>
<trkpt lat="43.685931992" lon="10.931507964"><ele>109</ele><time>2020-01-19T08:41:19Z</time></trkpt>
<trkpt lat="43.685912965" lon="10.931487009"><ele>109</ele><time>2020-01-19T08:41:20Z</time></trkpt>
<trkpt lat="43.685893016" lon="10.931466976"><ele>109</ele><time>2020-01-19T08:41:21Z</time></trkpt>
<trkpt lat="43.685872983" lon="10.931449039"><ele>109</ele><time>2020-01-19T08:41:22Z</time></trkpt>
<trkpt lat="43.685852028" lon="10.931431018"><ele>109</ele><time>2020-01-19T08:41:23Z</time></trkpt>
<trkpt lat="43.68583099" lon="10.931415008"><ele>109</ele><time>2020-01-19T08:41:24Z</time></trkpt>
<trkpt lat="43.685809029" lon="10.931401011"><ele>109</ele><time>2020-01-19T08:41:25Z</time></trkpt>
<trkpt lat="43.685786985" lon="10.931389024"><ele>110</ele><time>2020-01-19T08:41:26Z</time></trkpt>
<trkpt lat="43.685764018" lon="10.931378966"><ele>110</ele><time>2020-01-19T08:41:27Z</time></trkpt>
<trkpt lat="43.685740968" lon="10.931369998"><ele>110</ele><time>2020-01-19T08:41:28Z</time></trkpt>
<trkpt lat="43.685716996" lon="10.931363963"><ele>110</ele><time>2020-01-19T08:41:29Z</time></trkpt>
<trkpt lat="43.685693024" lon="10.931358011"><ele>110</ele><time>2020-01-19T08:41:30Z</time></trkpt>
<trkpt lat="43.685667962" lon="10.931352982"><ele>111</ele><time>2020-01-19T08:41:31Z</time></trkpt>
<trkpt lat="43.68564399" lon="10.931348959"><ele>111</ele><time>2020-01-19T08:41:32Z</time></trkpt>
<trkpt lat="43.685620017" lon="10.931344014"><ele>111</ele><time>2020-01-19T08:41:33Z</time></trkpt>
<trkpt lat="43.685596967" lon="10.931337979"><ele>111</ele><time>2020-01-19T08:41:34Z</time></trkpt>
<trkpt lat="43.685575007" lon="10.931331022"><ele>111</ele><time>2020-01-19T08:41:35Z</time></trkpt>
<trkpt lat="43.685552962" lon="10.931322975"><ele>111</ele><time>2020-01-19T08:41:36Z</time></trkpt>
<trkpt lat="43.685533013" lon="10.931314006"><ele>112</ele><time>2020-01-19T08:41:37Z</time></trkpt>
<trkpt lat="43.68551298" lon="10.931307971"><ele>112</ele><time>2020-01-19T08:41:38Z</time></trkpt>
<trkpt lat="43.685493032" lon="10.93130596"><ele>112</ele><time>2020-01-19T08:41:39Z</time></trkpt>
<trkpt lat="43.685472999" lon="10.931309983"><ele>112</ele><time>2020-01-19T08:41:40Z</time></trkpt>
<trkpt lat="43.685454978" lon="10.93131803"><ele>112</ele><time>2020-01-19T08:41:41Z</time></trkpt>
<trkpt lat="43.68543704" lon="10.931330016"><ele>113</ele><time>2020-01-19T08:41:42Z</time></trkpt>
<trkpt lat="43.685421031" lon="10.931346025"><ele>113</ele><time>2020-01-19T08:41:43Z</time></trkpt>
<trkpt lat="43.685408039" lon="10.931363041"><ele>113</ele><time>2020-01-19T08:41:44Z</time></trkpt>
<trkpt lat="43.685395969" lon="10.931381984"><ele>113</ele><time>2020-01-19T08:41:45Z</time></trkpt>
<trkpt lat="43.685385995" lon="10.931403022"><ele>114</ele><time>2020-01-19T08:41:46Z</time></trkpt>
<trkpt lat="43.685377026" lon="10.931425989"><ele>114</ele><time>2020-01-19T08:41:47Z</time></trkpt>
<trkpt lat="43.685368979" lon="10.931449961"><ele>114</ele><time>2020-01-19T08:41:48Z</time></trkpt>
<trkpt lat="43.685362022" lon="10.931475023"><ele>115</ele><time>2020-01-19T08:41:49Z</time></trkpt>
<trkpt lat="43.685354982" lon="10.931501007"><ele>115</ele><time>2020-01-19T08:41:50Z</time></trkpt>
<trkpt lat="43.685348025" lon="10.931527996"><ele>115</ele><time>2020-01-19T08:41:51Z</time></trkpt>
<trkpt lat="43.685340984" lon="10.931555992"><ele>116</ele><time>2020-01-19T08:41:52Z</time></trkpt>
<trkpt lat="43.685333021" lon="10.931583988"><ele>116</ele><time>2020-01-19T08:41:53Z</time></trkpt>
<trkpt lat="43.685324974" lon="10.931612989"><ele>116</ele><time>2020-01-19T08:41:54Z</time></trkpt>
<trkpt lat="43.685316006" lon="10.931642996"><ele>117</ele><time>2020-01-19T08:41:55Z</time></trkpt>
<trkpt lat="43.685307959" lon="10.931671998"><ele>117</ele><time>2020-01-19T08:41:56Z</time></trkpt>
<trkpt lat="43.685297985" lon="10.931699993"><ele>117</ele><time>2020-01-19T08:41:57Z</time></trkpt>
<trkpt lat="43.68528801" lon="10.931728994"><ele>118</ele><time>2020-01-19T08:41:58Z</time></trkpt>
<trkpt lat="43.685278036" lon="10.931755984"><ele>118</ele><time>2020-01-19T08:41:59Z</time></trkpt>
<trkpt lat="43.685244005" lon="10.931836031"><ele>119</ele><time>2020-01-19T08:42:02Z</time></trkpt>
<trkpt lat="43.685233025" lon="10.931862015"><ele>119</ele><time>2020-01-19T08:42:03Z</time></trkpt>
<trkpt lat="43.685221039" lon="10.931886993"><ele>119</ele><time>2020-01-19T08:42:04Z</time></trkpt>
<trkpt lat="43.685209975" lon="10.931912977"><ele>120</ele><time>2020-01-19T08:42:05Z</time></trkpt>
<trkpt lat="43.685197989" lon="10.931938039"><ele>120</ele><time>2020-01-19T08:42:06Z</time></trkpt>
<trkpt lat="43.685187008" lon="10.931963017"><ele>121</ele><time>2020-01-19T08:42:07Z</time></trkpt>
<trkpt lat="43.685176028" lon="10.931989001"><ele>121</ele><time>2020-01-19T08:42:08Z</time></trkpt>
<trkpt lat="43.68516597" lon="10.932014985"><ele>121</ele><time>2020-01-19T08:42:09Z</time></trkpt>
<trkpt lat="43.685155995" lon="10.932040969"><ele>122</ele><time>2020-01-19T08:42:10Z</time></trkpt>
<trkpt lat="43.685147027" lon="10.932067037"><ele>122</ele><time>2020-01-19T08:42:11Z</time></trkpt>
<trkpt lat="43.68513898" lon="10.932094026"><ele>122</ele><time>2020-01-19T08:42:12Z</time></trkpt>
<trkpt lat="43.685132023" lon="10.932121016"><ele>123</ele><time>2020-01-19T08:42:13Z</time></trkpt>
<trkpt lat="43.685125988" lon="10.932150017"><ele>123</ele><time>2020-01-19T08:42:14Z</time></trkpt>
<trkpt lat="43.685120037" lon="10.932179019"><ele>123</ele><time>2020-01-19T08:42:15Z</time></trkpt>
<trkpt lat="43.685116014" lon="10.93220802"><ele>123</ele><time>2020-01-19T08:42:16Z</time></trkpt>
<trkpt lat="43.685112996" lon="10.932239033"><ele>124</ele><time>2020-01-19T08:42:17Z</time></trkpt>
<trkpt lat="43.685110984" lon="10.932269963"><ele>124</ele><time>2020-01-19T08:42:18Z</time></trkpt>
<trkpt lat="43.685110984" lon="10.932300976"><ele>124</ele><time>2020-01-19T08:42:19Z</time></trkpt>
<trkpt lat="43.68511199" lon="10.932332994"><ele>124</ele><time>2020-01-19T08:42:20Z</time></trkpt>
<trkpt lat="43.685112996" lon="10.932366019"><ele>125</ele><time>2020-01-19T08:42:21Z</time></trkpt>
<trkpt lat="43.685117019" lon="10.93239896"><ele>125</ele><time>2020-01-19T08:42:22Z</time></trkpt>
<trkpt lat="43.685120959" lon="10.932432991"><ele>125</ele><time>2020-01-19T08:42:23Z</time></trkpt>
<trkpt lat="43.685125988" lon="10.932467021"><ele>125</ele><time>2020-01-19T08:42:24Z</time></trkpt>
<trkpt lat="43.685133029" lon="10.932500968"><ele>125</ele><time>2020-01-19T08:42:25Z</time></trkpt>
<trkpt lat="43.685139986" lon="10.932536004"><ele>125</ele><time>2020-01-19T08:42:26Z</time></trkpt>
<trkpt lat="43.685148032" lon="10.93257104"><ele>125</ele><time>2020-01-19T08:42:27Z</time></trkpt>
<trkpt lat="43.685155995" lon="10.932604987"><ele>125</ele><time>2020-01-19T08:42:28Z</time></trkpt>
<trkpt lat="43.685164042" lon="10.932640024"><ele>125</ele><time>2020-01-19T08:42:29Z</time></trkpt>
<trkpt lat="43.68517301" lon="10.932674976"><ele>125</ele><time>2020-01-19T08:42:30Z</time></trkpt>
<trkpt lat="43.685180973" lon="10.932709007"><ele>125</ele><time>2020-01-19T08:42:31Z</time></trkpt>
<trkpt lat="43.68518902" lon="10.932743959"><ele>125</ele><time>2020-01-19T08:42:32Z</time></trkpt>
<trkpt lat="43.685196983" lon="10.93277799"><ele>125</ele><time>2020-01-19T08:42:33Z</time></trkpt>
<trkpt lat="43.685204023" lon="10.932813026"><ele>125</ele><time>2020-01-19T08:42:34Z</time></trkpt>
<trkpt lat="43.685211986" lon="10.932846973"><ele>125</ele><time>2020-01-19T08:42:35Z</time></trkpt>
<trkpt lat="43.685219027" lon="10.932882009"><ele>125</ele><time>2020-01-19T08:42:36Z</time></trkpt>
<trkpt lat="43.685225984" lon="10.932916962"><ele>125</ele><time>2020-01-19T08:42:37Z</time></trkpt>
<trkpt lat="43.685233025" lon="10.932951998"><ele>124</ele><time>2020-01-19T08:42:38Z</time></trkpt>
<trkpt lat="43.685239982" lon="10.93298804"><ele>124</ele><time>2020-01-19T08:42:39Z</time></trkpt>
<trkpt lat="43.685259009" lon="10.933098011"><ele>124</ele><time>2020-01-19T08:42:42Z</time></trkpt>
<trkpt lat="43.68526496" lon="10.933135981"><ele>124</ele><time>2020-01-19T08:42:43Z</time></trkpt>
<trkpt lat="43.685270995" lon="10.933174035"><ele>124</ele><time>2020-01-19T08:42:44Z</time></trkpt>
<trkpt lat="43.68527703" lon="10.933214016"><ele>124</ele><time>2020-01-19T08:42:45Z</time></trkpt>
<trkpt lat="43.685282981" lon="10.933253998"><ele>124</ele><time>2020-01-19T08:42:46Z</time></trkpt>
<trkpt lat="43.685289016" lon="10.933294985"><ele>124</ele><time>2020-01-19T08:42:47Z</time></trkpt>
<trkpt lat="43.685293961" lon="10.933336979"><ele>124</ele><time>2020-01-19T08:42:48Z</time></trkpt>
<trkpt lat="43.685299996" lon="10.933379978"><ele>124</ele><time>2020-01-19T08:42:49Z</time></trkpt>
<trkpt lat="43.685305025" lon="10.933422977"><ele>124</ele><time>2020-01-19T08:42:50Z</time></trkpt>
<trkpt lat="43.685310977" lon="10.933466982"><ele>123</ele><time>2020-01-19T08:42:51Z</time></trkpt>
<trkpt lat="43.685318017" lon="10.933510987"><ele>123</ele><time>2020-01-19T08:42:52Z</time></trkpt>
<trkpt lat="43.685323969" lon="10.933554992"><ele>123</ele><time>2020-01-19T08:42:53Z</time></trkpt>
<trkpt lat="43.685331009" lon="10.933598997"><ele>123</ele><time>2020-01-19T08:42:54Z</time></trkpt>
<trkpt lat="43.685338972" lon="10.933643002"><ele>122</ele><time>2020-01-19T08:42:55Z</time></trkpt>
<trkpt lat="43.685347019" lon="10.933687007"><ele>122</ele><time>2020-01-19T08:42:56Z</time></trkpt>
<trkpt lat="43.685354982" lon="10.933732018"><ele>122</ele><time>2020-01-19T08:42:57Z</time></trkpt>
<trkpt lat="43.685363028" lon="10.933776023"><ele>121</ele><time>2020-01-19T08:42:58Z</time></trkpt>
<trkpt lat="43.685371997" lon="10.933821034"><ele>121</ele><time>2020-01-19T08:42:59Z</time></trkpt>
<trkpt lat="43.685379038" lon="10.933865961"><ele>121</ele><time>2020-01-19T08:43:00Z</time></trkpt>
<trkpt lat="43.685387" lon="10.933911977"><ele>121</ele><time>2020-01-19T08:43:01Z</time></trkpt>
<trkpt lat="43.685394041" lon="10.933957994"><ele>120</ele><time>2020-01-19T08:43:02Z</time></trkpt>
<trkpt lat="43.685399992" lon="10.934004011"><ele>120</ele><time>2020-01-19T08:43:03Z</time></trkpt>
<trkpt lat="43.685404016" lon="10.934050027"><ele>120</ele><time>2020-01-19T08:43:04Z</time></trkpt>
<trkpt lat="43.685406027" lon="10.93409596"><ele>120</ele><time>2020-01-19T08:43:05Z</time></trkpt>
<trkpt lat="43.685406027" lon="10.934139965"><ele>120</ele><time>2020-01-19T08:43:06Z</time></trkpt>
<trkpt lat="43.68540301" lon="10.934181958"><ele>120</ele><time>2020-01-19T08:43:07Z</time></trkpt>
<trkpt lat="43.685395969" lon="10.93422303"><ele>119</ele><time>2020-01-19T08:43:08Z</time></trkpt>
<trkpt lat="43.685385995" lon="10.934262006"><ele>119</ele><time>2020-01-19T08:43:09Z</time></trkpt>
<trkpt lat="43.685370991" lon="10.934296958"><ele>119</ele><time>2020-01-19T08:43:10Z</time></trkpt>
<trkpt lat="43.685351964" lon="10.934330989"><ele>119</ele><time>2020-01-19T08:43:11Z</time></trkpt>
<trkpt lat="43.685330003" lon="10.934362002"><ele>119</ele><time>2020-01-19T08:43:12Z</time></trkpt>
<trkpt lat="43.685306031" lon="10.934393015"><ele>119</ele><time>2020-01-19T08:43:13Z</time></trkpt>
<trkpt lat="43.685279964" lon="10.934422016"><ele>119</ele><time>2020-01-19T08:43:14Z</time></trkpt>
<trkpt lat="43.685252974" lon="10.934452023"><ele>119</ele><time>2020-01-19T08:43:15Z</time></trkpt>
<trkpt lat="43.685224978" lon="10.934481025"><ele>119</ele><time>2020-01-19T08:43:16Z</time></trkpt>
<trkpt lat="43.685197989" lon="10.934511032"><ele>119</ele><time>2020-01-19T08:43:17Z</time></trkpt>
<trkpt lat="43.685170999" lon="10.934541961"><ele>119</ele><time>2020-01-19T08:43:18Z</time></trkpt>
<trkpt lat="43.685146021" lon="10.93457398"><ele>119</ele><time>2020-01-19T08:43:19Z</time></trkpt>
<trkpt lat="43.685120037" lon="10.934607005"><ele>119</ele><time>2020-01-19T08:43:20Z</time></trkpt>
<trkpt lat="43.685095981" lon="10.934640029"><ele>118</ele><time>2020-01-19T08:43:21Z</time></trkpt>
<trkpt lat="43.685071003" lon="10.934673976"><ele>118</ele><time>2020-01-19T08:43:22Z</time></trkpt>
<trkpt lat="43.68504703" lon="10.934708007"><ele>118</ele><time>2020-01-19T08:43:23Z</time></trkpt>
<trkpt lat="43.685022974" lon="10.934742037"><ele>118</ele><time>2020-01-19T08:43:24Z</time></trkpt>
<trkpt lat="43.684999002" lon="10.934775984"><ele>117</ele><time>2020-01-19T08:43:25Z</time></trkpt>
<trkpt lat="43.68497503" lon="10.934810014"><ele>117</ele><time>2020-01-19T08:43:26Z</time></trkpt>
<trkpt lat="43.684950974" lon="10.934843961"><ele>116</ele><time>2020-01-19T08:43:27Z</time></trkpt>
<trkpt lat="43.684925996" lon="10.934876986"><ele>116</ele><time>2020-01-19T08:43:28Z</time></trkpt>
<trkpt lat="43.684902024" lon="10.934910011"><ele>115</ele><time>2020-01-19T08:43:29Z</time></trkpt>
<trkpt lat="43.684876962" lon="10.934944041"><ele>115</ele><time>2020-01-19T08:43:30Z</time></trkpt>
<trkpt lat="43.684852989" lon="10.934976982"><ele>114</ele><time>2020-01-19T08:43:31Z</time></trkpt>
<trkpt lat="43.684828011" lon="10.935010007"><ele>113</ele><time>2020-01-19T08:43:32Z</time></trkpt>
<trkpt lat="43.684752993" lon="10.935107991"><ele>112</ele><time>2020-01-19T08:43:35Z</time></trkpt>
<trkpt lat="43.684728015" lon="10.935141016"><ele>112</ele><time>2020-01-19T08:43:36Z</time></trkpt>
<trkpt lat="43.684703037" lon="10.93517404"><ele>111</ele><time>2020-01-19T08:43:37Z</time></trkpt>
<trkpt lat="43.684678981" lon="10.935205976"><ele>111</ele><time>2020-01-19T08:43:38Z</time></trkpt>
<trkpt lat="43.684654003" lon="10.935239"><ele>111</ele><time>2020-01-19T08:43:39Z</time></trkpt>
<trkpt lat="43.684630031" lon="10.935271019"><ele>111</ele><time>2020-01-19T08:43:40Z</time></trkpt>
<trkpt lat="43.684605975" lon="10.935303038"><ele>110</ele><time>2020-01-19T08:43:41Z</time></trkpt>
<trkpt lat="43.684582002" lon="10.935334973"><ele>110</ele><time>2020-01-19T08:43:42Z</time></trkpt>
<trkpt lat="43.68455803" lon="10.935365986"><ele>110</ele><time>2020-01-19T08:43:43Z</time></trkpt>
<trkpt lat="43.68453498" lon="10.935398005"><ele>110</ele><time>2020-01-19T08:43:44Z</time></trkpt>
<trkpt lat="43.684512014" lon="10.935429018"><ele>110</ele><time>2020-01-19T08:43:45Z</time></trkpt>
<trkpt lat="43.684488963" lon="10.935461037"><ele>110</ele><time>2020-01-19T08:43:46Z</time></trkpt>
<trkpt lat="43.684467003" lon="10.935492972"><ele>110</ele><time>2020-01-19T08:43:47Z</time></trkpt>
<trkpt lat="43.684444958" lon="10.935524991"><ele>110</ele><time>2020-01-19T08:43:48Z</time></trkpt>
<trkpt lat="43.684421992" lon="10.935558015"><ele>109</ele><time>2020-01-19T08:43:49Z</time></trkpt>
<trkpt lat="43.684401037" lon="10.93559104"><ele>109</ele><time>2020-01-19T08:43:50Z</time></trkpt>
<trkpt lat="43.684378993" lon="10.935624987"><ele>109</ele><time>2020-01-19T08:43:51Z</time></trkpt>
<trkpt lat="43.684357032" lon="10.935660023"><ele>109</ele><time>2020-01-19T08:43:52Z</time></trkpt>
<trkpt lat="43.684334988" lon="10.935694976"><ele>109</ele><time>2020-01-19T08:43:53Z</time></trkpt>
<trkpt lat="43.684312021" lon="10.935731018"><ele>110</ele><time>2020-01-19T08:43:54Z</time></trkpt>
<trkpt lat="43.684289977" lon="10.935766976"><ele>110</ele><time>2020-01-19T08:43:55Z</time></trkpt>
<trkpt lat="43.684266005" lon="10.935804024"><ele>110</ele><time>2020-01-19T08:43:56Z</time></trkpt>
<trkpt lat="43.684242032" lon="10.935841994"><ele>110</ele><time>2020-01-19T08:43:57Z</time></trkpt>
<trkpt lat="43.684215965" lon="10.935879964"><ele>110</ele><time>2020-01-19T08:43:58Z</time></trkpt>
<trkpt lat="43.684190987" lon="10.935919024"><ele>110</ele><time>2020-01-19T08:43:59Z</time></trkpt>
<trkpt lat="43.684163997" lon="10.935958"><ele>110</ele><time>2020-01-19T08:44:00Z</time></trkpt>
<trkpt lat="43.684137007" lon="10.935996976"><ele>109</ele><time>2020-01-19T08:44:01Z</time></trkpt>
<trkpt lat="43.684111023" lon="10.936036035"><ele>109</ele><time>2020-01-19T08:44:02Z</time></trkpt>
<trkpt lat="43.684084034" lon="10.936075011"><ele>109</ele><time>2020-01-19T08:44:03Z</time></trkpt>
<trkpt lat="43.68405696" lon="10.936112981"><ele>108</ele><time>2020-01-19T08:44:04Z</time></trkpt>
<trkpt lat="43.684030976" lon="10.936151035"><ele>108</ele><time>2020-01-19T08:44:05Z</time></trkpt>
<trkpt lat="43.684004992" lon="10.936187999"><ele>107</ele><time>2020-01-19T08:44:06Z</time></trkpt>
<trkpt lat="43.683979008" lon="10.936224964"><ele>107</ele><time>2020-01-19T08:44:07Z</time></trkpt>
<trkpt lat="43.683904996" lon="10.936333006"><ele>106</ele><time>2020-01-19T08:44:10Z</time></trkpt>
<trkpt lat="43.683881024" lon="10.936367959"><ele>106</ele><time>2020-01-19T08:44:11Z</time></trkpt>
<trkpt lat="43.683855962" lon="10.936402995"><ele>106</ele><time>2020-01-19T08:44:12Z</time></trkpt>
<trkpt lat="43.683832996" lon="10.936437026"><ele>106</ele><time>2020-01-19T08:44:13Z</time></trkpt>
<trkpt lat="43.683809023" lon="10.936470972"><ele>106</ele><time>2020-01-19T08:44:14Z</time></trkpt>
<trkpt lat="43.683784967" lon="10.936503997"><ele>106</ele><time>2020-01-19T08:44:15Z</time></trkpt>
<trkpt lat="43.683762001" lon="10.936538028"><ele>106</ele><time>2020-01-19T08:44:16Z</time></trkpt>
<trkpt lat="43.683738029" lon="10.936570968"><ele>106</ele><time>2020-01-19T08:44:17Z</time></trkpt>
<trkpt lat="43.683714978" lon="10.936603993"><ele>106</ele><time>2020-01-19T08:44:18Z</time></trkpt>
<trkpt lat="43.683691006" lon="10.936636012"><ele>106</ele><time>2020-01-19T08:44:19Z</time></trkpt>
<trkpt lat="43.68366804" lon="10.936669037"><ele>106</ele><time>2020-01-19T08:44:20Z</time></trkpt>
<trkpt lat="43.68364499" lon="10.936700972"><ele>106</ele><time>2020-01-19T08:44:21Z</time></trkpt>
<trkpt lat="43.683621017" lon="10.936732991"><ele>105</ele><time>2020-01-19T08:44:22Z</time></trkpt>
<trkpt lat="43.683597967" lon="10.93676501"><ele>105</ele><time>2020-01-19T08:44:23Z</time></trkpt>
<trkpt lat="43.683573995" lon="10.936797028"><ele>105</ele><time>2020-01-19T08:44:24Z</time></trkpt>
<trkpt lat="43.683551028" lon="10.936828963"><ele>105</ele><time>2020-01-19T08:44:25Z</time></trkpt>
<trkpt lat="43.683526972" lon="10.936860982"><ele>105</ele><time>2020-01-19T08:44:26Z</time></trkpt>
<trkpt lat="43.683503" lon="10.936891995"><ele>105</ele><time>2020-01-19T08:44:27Z</time></trkpt>
<trkpt lat="43.683479028" lon="10.936924014"><ele>105</ele><time>2020-01-19T08:44:28Z</time></trkpt>
<trkpt lat="43.683454972" lon="10.936955027"><ele>105</ele><time>2020-01-19T08:44:29Z</time></trkpt>
<trkpt lat="43.683431" lon="10.936986962"><ele>105</ele><time>2020-01-19T08:44:30Z</time></trkpt>
<trkpt lat="43.683407027" lon="10.937017975"><ele>105</ele><time>2020-01-19T08:44:31Z</time></trkpt>
<trkpt lat="43.683381965" lon="10.937048988"><ele>105</ele><time>2020-01-19T08:44:32Z</time></trkpt>
<trkpt lat="43.683357993" lon="10.937080001"><ele>105</ele><time>2020-01-19T08:44:33Z</time></trkpt>
<trkpt lat="43.683333015" lon="10.937111015"><ele>105</ele><time>2020-01-19T08:44:34Z</time></trkpt>
<trkpt lat="43.683308037" lon="10.937142028"><ele>105</ele><time>2020-01-19T08:44:35Z</time></trkpt>
<trkpt lat="43.683282975" lon="10.937173041"><ele>104</ele><time>2020-01-19T08:44:36Z</time></trkpt>
<trkpt lat="43.683257997" lon="10.93720397"><ele>104</ele><time>2020-01-19T08:44:37Z</time></trkpt>
<trkpt lat="43.683232013" lon="10.937234983"><ele>104</ele><time>2020-01-19T08:44:38Z</time></trkpt>
<trkpt lat="43.683207035" lon="10.93726499"><ele>104</ele><time>2020-01-19T08:44:39Z</time></trkpt>
<trkpt lat="43.683180967" lon="10.937296003"><ele>104</ele><time>2020-01-19T08:44:40Z</time></trkpt>
<trkpt lat="43.683154983" lon="10.93732601"><ele>104</ele><time>2020-01-19T08:44:41Z</time></trkpt>
<trkpt lat="43.683130005" lon="10.937357023"><ele>104</ele><time>2020-01-19T08:44:42Z</time></trkpt>
<trkpt lat="43.683104021" lon="10.937387031"><ele>104</ele><time>2020-01-19T08:44:43Z</time></trkpt>
<trkpt lat="43.683078038" lon="10.937416032"><ele>105</ele><time>2020-01-19T08:44:44Z</time></trkpt>
<trkpt lat="43.68305197" lon="10.937446039"><ele>105</ele><time>2020-01-19T08:44:45Z</time></trkpt>
<trkpt lat="43.683026992" lon="10.937475041"><ele>105</ele><time>2020-01-19T08:44:46Z</time></trkpt>
<trkpt lat="43.683001008" lon="10.937503958"><ele>105</ele><time>2020-01-19T08:44:47Z</time></trkpt>
<trkpt lat="43.682975024" lon="10.93753296"><ele>105</ele><time>2020-01-19T08:44:48Z</time></trkpt>
<trkpt lat="43.682949962" lon="10.937561039"><ele>104</ele><time>2020-01-19T08:44:49Z</time></trkpt>
<trkpt lat="43.682924984" lon="10.937589034"><ele>104</ele><time>2020-01-19T08:44:50Z</time></trkpt>
<trkpt lat="43.682900006" lon="10.937616024"><ele>104</ele><time>2020-01-19T08:44:51Z</time></trkpt>
<trkpt lat="43.682875028" lon="10.937643014"><ele>104</ele><time>2020-01-19T08:44:52Z</time></trkpt>
<trkpt lat="43.682850972" lon="10.937668998"><ele>104</ele><time>2020-01-19T08:44:53Z</time></trkpt>
<trkpt lat="43.682827" lon="10.937694982"><ele>104</ele><time>2020-01-19T08:44:54Z</time></trkpt>
<trkpt lat="43.682803027" lon="10.937720966"><ele>104</ele><time>2020-01-19T08:44:55Z</time></trkpt>
<trkpt lat="43.682778971" lon="10.937745022"><ele>104</ele><time>2020-01-19T08:44:56Z</time></trkpt>
<trkpt lat="43.682756005" lon="10.937768994"><ele>104</ele><time>2020-01-19T08:44:57Z</time></trkpt>
<trkpt lat="43.682733038" lon="10.937792966"><ele>103</ele><time>2020-01-19T08:44:58Z</time></trkpt>
<trkpt lat="43.682709988" lon="10.937815011"><ele>103</ele><time>2020-01-19T08:44:59Z</time></trkpt>
<trkpt lat="43.682688028" lon="10.937836971"><ele>103</ele><time>2020-01-19T08:45:00Z</time></trkpt>
<trkpt lat="43.682665983" lon="10.93785801"><ele>103</ele><time>2020-01-19T08:45:01Z</time></trkpt>
<trkpt lat="43.682644023" lon="10.937878964"><ele>103</ele><time>2020-01-19T08:45:02Z</time></trkpt>
<trkpt lat="43.682621978" lon="10.937897991"><ele>103</ele><time>2020-01-19T08:45:03Z</time></trkpt>
<trkpt lat="43.682601023" lon="10.937917018"><ele>103</ele><time>2020-01-19T08:45:04Z</time></trkpt>
<trkpt lat="43.682579985" lon="10.937934034"><ele>103</ele><time>2020-01-19T08:45:05Z</time></trkpt>
<trkpt lat="43.68255903" lon="10.937950965"><ele>103</ele><time>2020-01-19T08:45:06Z</time></trkpt>
<trkpt lat="43.682537992" lon="10.937965969"><ele>104</ele><time>2020-01-19T08:45:07Z</time></trkpt>
<trkpt lat="43.682517959" lon="10.937980972"><ele>104</ele><time>2020-01-19T08:45:08Z</time></trkpt>
<trkpt lat="43.682497004" lon="10.937995976"><ele>104</ele><time>2020-01-19T08:45:09Z</time></trkpt>
<trkpt lat="43.682476971" lon="10.938011985"><ele>104</ele><time>2020-01-19T08:45:10Z</time></trkpt>
<trkpt lat="43.682455011" lon="10.938031012"><ele>103</ele><time>2020-01-19T08:45:11Z</time></trkpt>
<trkpt lat="43.68243196" lon="10.938052973"><ele>103</ele><time>2020-01-19T08:45:12Z</time></trkpt>
<trkpt lat="43.682408994" lon="10.93807904"><ele>103</ele><time>2020-01-19T08:45:13Z</time></trkpt>
<trkpt lat="43.682386028" lon="10.93810603"><ele>103</ele><time>2020-01-19T08:45:14Z</time></trkpt>
<trkpt lat="43.682361972" lon="10.938135032"><ele>103</ele><time>2020-01-19T08:45:15Z</time></trkpt>
<trkpt lat="43.682339005" lon="10.938164033"><ele>103</ele><time>2020-01-19T08:45:16Z</time></trkpt>
<trkpt lat="43.682316039" lon="10.93819404"><ele>103</ele><time>2020-01-19T08:45:17Z</time></trkpt>
<trkpt lat="43.682293994" lon="10.938223042"><ele>103</ele><time>2020-01-19T08:45:18Z</time></trkpt>
<trkpt lat="43.68227304" lon="10.938251959"><ele>103</ele><time>2020-01-19T08:45:19Z</time></trkpt>
<trkpt lat="43.682252001" lon="10.938280039"><ele>104</ele><time>2020-01-19T08:45:20Z</time></trkpt>
<trkpt lat="43.682230962" lon="10.938307028"><ele>104</ele><time>2020-01-19T08:45:21Z</time></trkpt>
<trkpt lat="43.682211014" lon="10.938333012"><ele>104</ele><time>2020-01-19T08:45:22Z</time></trkpt>
<trkpt lat="43.682189975" lon="10.938358996"><ele>104</ele><time>2020-01-19T08:45:23Z</time></trkpt>
<trkpt lat="43.682170026" lon="10.938383974"><ele>104</ele><time>2020-01-19T08:45:24Z</time></trkpt>
<trkpt lat="43.682149993" lon="10.938409036"><ele>103</ele><time>2020-01-19T08:45:25Z</time></trkpt>
<trkpt lat="43.682129961" lon="10.938433008"><ele>103</ele><time>2020-01-19T08:45:26Z</time></trkpt>
<trkpt lat="43.682109006" lon="10.938456981"><ele>103</ele><time>2020-01-19T08:45:27Z</time></trkpt>
<trkpt lat="43.682088973" lon="10.938481037"><ele>103</ele><time>2020-01-19T08:45:28Z</time></trkpt>
<trkpt lat="43.682069024" lon="10.938505009"><ele>103</ele><time>2020-01-19T08:45:29Z</time></trkpt>
<trkpt lat="43.682048991" lon="10.938528981"><ele>103</ele><time>2020-01-19T08:45:30Z</time></trkpt>
<trkpt lat="43.682028959" lon="10.938552031"><ele>103</ele><time>2020-01-19T08:45:31Z</time></trkpt>
<trkpt lat="43.682010015" lon="10.938576004"><ele>103</ele><time>2020-01-19T08:45:32Z</time></trkpt>
<trkpt lat="43.681989983" lon="10.938600982"><ele>103</ele><time>2020-01-19T08:45:33Z</time></trkpt>
<trkpt lat="43.681970034" lon="10.938625038"><ele>103</ele><time>2020-01-19T08:45:34Z</time></trkpt>
<trkpt lat="43.681950001" lon="10.938650016"><ele>103</ele><time>2020-01-19T08:45:35Z</time></trkpt>
<trkpt lat="43.681929968" lon="10.938674994"><ele>103</ele><time>2020-01-19T08:45:36Z</time></trkpt>
<trkpt lat="43.681911025" lon="10.938700978"><ele>104</ele><time>2020-01-19T08:45:37Z</time></trkpt>
<trkpt lat="43.681890992" lon="10.938727967"><ele>104</ele><time>2020-01-19T08:45:38Z</time></trkpt>
<trkpt lat="43.68187096" lon="10.938755041"><ele>104</ele><time>2020-01-19T08:45:39Z</time></trkpt>
<trkpt lat="43.681852017" lon="10.938783037"><ele>104</ele><time>2020-01-19T08:45:40Z</time></trkpt>
<trkpt lat="43.681831984" lon="10.938811032"><ele>104</ele><time>2020-01-19T08:45:41Z</time></trkpt>
<trkpt lat="43.681813041" lon="10.938841039"><ele>104</ele><time>2020-01-19T08:45:42Z</time></trkpt>
<trkpt lat="43.681793008" lon="10.938870041"><ele>104</ele><time>2020-01-19T08:45:43Z</time></trkpt>
<trkpt lat="43.681773981" lon="10.93890097"><ele>104</ele><time>2020-01-19T08:45:44Z</time></trkpt>
<trkpt lat="43.681755038" lon="10.938931983"><ele>105</ele><time>2020-01-19T08:45:45Z</time></trkpt>
<trkpt lat="43.681736011" lon="10.938962996"><ele>105</ele><time>2020-01-19T08:45:46Z</time></trkpt>
<trkpt lat="43.681716984" lon="10.938995015"><ele>105</ele><time>2020-01-19T08:45:47Z</time></trkpt>
<trkpt lat="43.681698041" lon="10.939027034"><ele>105</ele><time>2020-01-19T08:45:48Z</time></trkpt>
<trkpt lat="43.68168002" lon="10.939059975"><ele>106</ele><time>2020-01-19T08:45:49Z</time></trkpt>
<trkpt lat="43.681661999" lon="10.939092999"><ele>106</ele><time>2020-01-19T08:45:50Z</time></trkpt>
<trkpt lat="43.681643978" lon="10.939126024"><ele>105</ele><time>2020-01-19T08:45:51Z</time></trkpt>
<trkpt lat="43.68162604" lon="10.939159971"><ele>105</ele><time>2020-01-19T08:45:52Z</time></trkpt>
<trkpt lat="43.681609025" lon="10.939194001"><ele>105</ele><time>2020-01-19T08:45:53Z</time></trkpt>
<trkpt lat="43.68159201" lon="10.939228032"><ele>105</ele><time>2020-01-19T08:45:54Z</time></trkpt>
<trkpt lat="43.681576001" lon="10.939261978"><ele>105</ele><time>2020-01-19T08:45:55Z</time></trkpt>
<trkpt lat="43.681559991" lon="10.939297015"><ele>104</ele><time>2020-01-19T08:45:56Z</time></trkpt>
<trkpt lat="43.681543982" lon="10.939331967"><ele>104</ele><time>2020-01-19T08:45:57Z</time></trkpt>
<trkpt lat="43.681528978" lon="10.939367004"><ele>104</ele><time>2020-01-19T08:45:58Z</time></trkpt>
<trkpt lat="43.681515986" lon="10.93940204"><ele>104</ele><time>2020-01-19T08:45:59Z</time></trkpt>
<trkpt lat="43.681502994" lon="10.939436993"><ele>104</ele><time>2020-01-19T08:46:00Z</time></trkpt>
<trkpt lat="43.681491008" lon="10.939472029"><ele>104</ele><time>2020-01-19T08:46:01Z</time></trkpt>
<trkpt lat="43.681481034" lon="10.939507987"><ele>104</ele><time>2020-01-19T08:46:02Z</time></trkpt>
<trkpt lat="43.681471981" lon="10.939543024"><ele>104</ele><time>2020-01-19T08:46:03Z</time></trkpt>
<trkpt lat="43.681464018" lon="10.939578982"><ele>104</ele><time>2020-01-19T08:46:04Z</time></trkpt>
<trkpt lat="43.681458989" lon="10.939615024"><ele>104</ele><time>2020-01-19T08:46:05Z</time></trkpt>
<trkpt lat="43.681454966" lon="10.939650983"><ele>105</ele><time>2020-01-19T08:46:06Z</time></trkpt>
<trkpt lat="43.681453038" lon="10.939687025"><ele>105</ele><time>2020-01-19T08:46:07Z</time></trkpt>
<trkpt lat="43.681453038" lon="10.939722983"><ele>105</ele><time>2020-01-19T08:46:08Z</time></trkpt>
<trkpt lat="43.681454966" lon="10.939759025"><ele>105</ele><time>2020-01-19T08:46:09Z</time></trkpt>
<trkpt lat="43.681459995" lon="10.939793978"><ele>106</ele><time>2020-01-19T08:46:10Z</time></trkpt>
<trkpt lat="43.68146603" lon="10.93983002"><ele>106</ele><time>2020-01-19T08:46:11Z</time></trkpt>
<trkpt lat="43.681471981" lon="10.939864973"><ele>107</ele><time>2020-01-19T08:46:12Z</time></trkpt>
<trkpt lat="43.681478016" lon="10.939897997"><ele>107</ele><time>2020-01-19T08:46:13Z</time></trkpt>
<trkpt lat="43.681482961" lon="10.93992901"><ele>107</ele><time>2020-01-19T08:46:14Z</time></trkpt>
<trkpt lat="43.681486985" lon="10.939959018"><ele>108</ele><time>2020-01-19T08:46:15Z</time></trkpt>
<trkpt lat="43.681490002" lon="10.939989025"><ele>108</ele><time>2020-01-19T08:46:16Z</time></trkpt>
<trkpt lat="43.681492014" lon="10.940019032"><ele>108</ele><time>2020-01-19T08:46:17Z</time></trkpt>
<trkpt lat="43.681494026" lon="10.940049961"><ele>108</ele><time>2020-01-19T08:46:18Z</time></trkpt>
<trkpt lat="43.681496037" lon="10.94008198"><ele>109</ele><time>2020-01-19T08:46:19Z</time></trkpt>
<trkpt lat="43.681498971" lon="10.940113999"><ele>109</ele><time>2020-01-19T08:46:20Z</time></trkpt>
<trkpt lat="43.681505006" lon="10.940147024"><ele>109</ele><time>2020-01-19T08:46:21Z</time></trkpt>
<trkpt lat="43.68151498" lon="10.940179965"><ele>110</ele><time>2020-01-19T08:46:22Z</time></trkpt>
<trkpt lat="43.681525961" lon="10.940212989"><ele>110</ele><time>2020-01-19T08:46:23Z</time></trkpt>
<trkpt lat="43.681539036" lon="10.940245008"><ele>111</ele><time>2020-01-19T08:46:24Z</time></trkpt>
<trkpt lat="43.681551022" lon="10.940275015"><ele>111</ele><time>2020-01-19T08:46:25Z</time></trkpt>
<trkpt lat="43.681562003" lon="10.940304017"><ele>112</ele><time>2020-01-19T08:46:26Z</time></trkpt>
<trkpt lat="43.681571977" lon="10.940331006"><ele>112</ele><time>2020-01-19T08:46:27Z</time></trkpt>
<trkpt lat="43.681580024" lon="10.940355984"><ele>113</ele><time>2020-01-19T08:46:28Z</time></trkpt>
<trkpt lat="43.681587987" lon="10.940380963"><ele>113</ele><time>2020-01-19T08:46:29Z</time></trkpt>
<trkpt lat="43.681596033" lon="10.940405019"><ele>113</ele><time>2020-01-19T08:46:30Z</time></trkpt>
<trkpt lat="43.681603996" lon="10.940428991"><ele>114</ele><time>2020-01-19T08:46:31Z</time></trkpt>
<trkpt lat="43.681611959" lon="10.940453969"><ele>114</ele><time>2020-01-19T08:46:32Z</time></trkpt>
<trkpt lat="43.681620006" lon="10.940479031"><ele>114</ele><time>2020-01-19T08:46:33Z</time></trkpt>
<trkpt lat="43.681628974" lon="10.940505015"><ele>115</ele><time>2020-01-19T08:46:34Z</time></trkpt>
<trkpt lat="43.681639032" lon="10.940530999"><ele>115</ele><time>2020-01-19T08:46:35Z</time></trkpt>
<trkpt lat="43.681649007" lon="10.940558994"><ele>116</ele><time>2020-01-19T08:46:36Z</time></trkpt>
<trkpt lat="43.681659987" lon="10.94058699"><ele>116</ele><time>2020-01-19T08:46:37Z</time></trkpt>
<trkpt lat="43.681670967" lon="10.940615991"><ele>116</ele><time>2020-01-19T08:46:38Z</time></trkpt>
<trkpt lat="43.681681026" lon="10.940644993"><ele>117</ele><time>2020-01-19T08:46:39Z</time></trkpt>
<trkpt lat="43.681692006" lon="10.940673994"><ele>117</ele><time>2020-01-19T08:46:40Z</time></trkpt>
<trkpt lat="43.681702986" lon="10.940704001"><ele>117</ele><time>2020-01-19T08:46:41Z</time></trkpt>
<trkpt lat="43.681712961" lon="10.940734008"><ele>117</ele><time>2020-01-19T08:46:42Z</time></trkpt>
<trkpt lat="43.681723019" lon="10.940764016"><ele>117</ele><time>2020-01-19T08:46:43Z</time></trkpt>
<trkpt lat="43.681732994" lon="10.940794023"><ele>117</ele><time>2020-01-19T08:46:44Z</time></trkpt>
<trkpt lat="43.681741962" lon="10.94082403"><ele>118</ele><time>2020-01-19T08:46:45Z</time></trkpt>
<trkpt lat="43.681751015" lon="10.940854037"><ele>118</ele><time>2020-01-19T08:46:46Z</time></trkpt>
<trkpt lat="43.681758977" lon="10.940883961"><ele>118</ele><time>2020-01-19T08:46:47Z</time></trkpt>
<trkpt lat="43.68176803" lon="10.940913968"><ele>118</ele><time>2020-01-19T08:46:48Z</time></trkpt>
<trkpt lat="43.681775993" lon="10.940943975"><ele>118</ele><time>2020-01-19T08:46:49Z</time></trkpt>
<trkpt lat="43.681784039" lon="10.940973982"><ele>118</ele><time>2020-01-19T08:46:50Z</time></trkpt>
<trkpt lat="43.681790996" lon="10.941003989"><ele>118</ele><time>2020-01-19T08:46:51Z</time></trkpt>
<trkpt lat="43.681798959" lon="10.941032991"><ele>118</ele><time>2020-01-19T08:46:52Z</time></trkpt>
<trkpt lat="43.681806" lon="10.941062998"><ele>118</ele><time>2020-01-19T08:46:53Z</time></trkpt>
<trkpt lat="43.681813041" lon="10.941091999"><ele>118</ele><time>2020-01-19T08:46:54Z</time></trkpt>
<trkpt lat="43.681819998" lon="10.941119995"><ele>118</ele><time>2020-01-19T08:46:55Z</time></trkpt>
<trkpt lat="43.681827039" lon="10.941148996"><ele>119</ele><time>2020-01-19T08:46:56Z</time></trkpt>
<trkpt lat="43.681833996" lon="10.941176992"><ele>119</ele><time>2020-01-19T08:46:57Z</time></trkpt>
<trkpt lat="43.681841036" lon="10.941204987"><ele>119</ele><time>2020-01-19T08:46:58Z</time></trkpt>
<trkpt lat="43.681846987" lon="10.941232983"><ele>119</ele><time>2020-01-19T08:46:59Z</time></trkpt>
<trkpt lat="43.681854028" lon="10.941259973"><ele>119</ele><time>2020-01-19T08:47:00Z</time></trkpt>
<trkpt lat="43.681860985" lon="10.941287968"><ele>119</ele><time>2020-01-19T08:47:01Z</time></trkpt>
<trkpt lat="43.681868026" lon="10.941315964"><ele>119</ele><time>2020-01-19T08:47:02Z</time></trkpt>
<trkpt lat="43.681874983" lon="10.941344965"><ele>119</ele><time>2020-01-19T08:47:03Z</time></trkpt>
<trkpt lat="43.68188303" lon="10.941374972"><ele>119</ele><time>2020-01-19T08:47:04Z</time></trkpt>
<trkpt lat="43.681890992" lon="10.94140498"><ele>120</ele><time>2020-01-19T08:47:05Z</time></trkpt>
<trkpt lat="43.681899961" lon="10.941436999"><ele>120</ele><time>2020-01-19T08:47:06Z</time></trkpt>
<trkpt lat="43.681909014" lon="10.941469017"><ele>120</ele><time>2020-01-19T08:47:07Z</time></trkpt>
<trkpt lat="43.681919994" lon="10.94150003"><ele>120</ele><time>2020-01-19T08:47:08Z</time></trkpt>
<trkpt lat="43.68193198" lon="10.941529032"><ele>120</ele><time>2020-01-19T08:47:09Z</time></trkpt>
<trkpt lat="43.681945978" lon="10.941557027"><ele>120</ele><time>2020-01-19T08:47:10Z</time></trkpt>
<trkpt lat="43.681961987" lon="10.941581"><ele>121</ele><time>2020-01-19T08:47:11Z</time></trkpt>
<trkpt lat="43.681980008" lon="10.941601032"><ele>121</ele><time>2020-01-19T08:47:12Z</time></trkpt>
<trkpt lat="43.682000963" lon="10.941616036"><ele>121</ele><time>2020-01-19T08:47:13Z</time></trkpt>
<trkpt lat="43.682025019" lon="10.941627016"><ele>121</ele><time>2020-01-19T08:47:14Z</time></trkpt>
<trkpt lat="43.682049997" lon="10.941633973"><ele>121</ele><time>2020-01-19T08:47:15Z</time></trkpt>
<trkpt lat="43.682076987" lon="10.941639002"><ele>121</ele><time>2020-01-19T08:47:16Z</time></trkpt>
<trkpt lat="43.682104982" lon="10.941641014"><ele>121</ele><time>2020-01-19T08:47:17Z</time></trkpt>
<trkpt lat="43.682133984" lon="10.941643026"><ele>122</ele><time>2020-01-19T08:47:18Z</time></trkpt>
<trkpt lat="43.682163991" lon="10.941644032"><ele>122</ele><time>2020-01-19T08:47:19Z</time></trkpt>
<trkpt lat="43.682193998" lon="10.941645037"><ele>122</ele><time>2020-01-19T08:47:20Z</time></trkpt>
<trkpt lat="43.682223" lon="10.941646965"><ele>122</ele><time>2020-01-19T08:47:21Z</time></trkpt>
<trkpt lat="43.682252001" lon="10.941649983"><ele>122</ele><time>2020-01-19T08:47:22Z</time></trkpt>
<trkpt lat="43.682281002" lon="10.941654006"><ele>122</ele><time>2020-01-19T08:47:23Z</time></trkpt>
<trkpt lat="43.68231101" lon="10.941658029"><ele>122</ele><time>2020-01-19T08:47:24Z</time></trkpt>
<trkpt lat="43.682340011" lon="10.941662975"><ele>122</ele><time>2020-01-19T08:47:25Z</time></trkpt>
<trkpt lat="43.682369012" lon="10.941668004"><ele>123</ele><time>2020-01-19T08:47:26Z</time></trkpt>
<trkpt lat="43.68239902" lon="10.941673033"><ele>123</ele><time>2020-01-19T08:47:27Z</time></trkpt>
<trkpt lat="43.682430033" lon="10.941677978"><ele>123</ele><time>2020-01-19T08:47:28Z</time></trkpt>
<trkpt lat="43.682521982" lon="10.941694994"><ele>123</ele><time>2020-01-19T08:47:31Z</time></trkpt>
<trkpt lat="43.682552995" lon="10.94170304"><ele>123</ele><time>2020-01-19T08:47:32Z</time></trkpt>
<trkpt lat="43.682584008" lon="10.941713015"><ele>122</ele><time>2020-01-19T08:47:33Z</time></trkpt>
<trkpt lat="43.68261301" lon="10.941725001"><ele>122</ele><time>2020-01-19T08:47:34Z</time></trkpt>
<trkpt lat="43.682641005" lon="10.941740004"><ele>122</ele><time>2020-01-19T08:47:35Z</time></trkpt>
<trkpt lat="43.682667995" lon="10.941758025"><ele>122</ele><time>2020-01-19T08:47:36Z</time></trkpt>
<trkpt lat="43.682693979" lon="10.941779986"><ele>122</ele><time>2020-01-19T08:47:37Z</time></trkpt>
<trkpt lat="43.682717029" lon="10.94180597"><ele>121</ele><time>2020-01-19T08:47:38Z</time></trkpt>
<trkpt lat="43.68273899" lon="10.941833965"><ele>121</ele><time>2020-01-19T08:47:39Z</time></trkpt>
<trkpt lat="43.682758017" lon="10.941863973"><ele>121</ele><time>2020-01-19T08:47:40Z</time></trkpt>
<trkpt lat="43.682776038" lon="10.941895992"><ele>121</ele><time>2020-01-19T08:47:41Z</time></trkpt>
<trkpt lat="43.682791041" lon="10.941929016"><ele>121</ele><time>2020-01-19T08:47:42Z</time></trkpt>
<trkpt lat="43.682804033" lon="10.941962963"><ele>121</ele><time>2020-01-19T08:47:43Z</time></trkpt>
<trkpt lat="43.682814008" lon="10.941996993"><ele>121</ele><time>2020-01-19T08:47:44Z</time></trkpt>
<trkpt lat="43.68282197" lon="10.942030018"><ele>121</ele><time>2020-01-19T08:47:45Z</time></trkpt>
<trkpt lat="43.682828005" lon="10.942062959"><ele>121</ele><time>2020-01-19T08:47:46Z</time></trkpt>
<trkpt lat="43.682832029" lon="10.942094978"><ele>121</ele><time>2020-01-19T08:47:47Z</time></trkpt>
<trkpt lat="43.682834962" lon="10.942128003"><ele>121</ele><time>2020-01-19T08:47:48Z</time></trkpt>
<trkpt lat="43.682842003" lon="10.942223975"><ele>121</ele><time>2020-01-19T08:47:51Z</time></trkpt>
<trkpt lat="43.682845021" lon="10.942255994"><ele>121</ele><time>2020-01-19T08:47:52Z</time></trkpt>
<trkpt lat="43.682849966" lon="10.942289019"><ele>121</ele><time>2020-01-19T08:47:53Z</time></trkpt>
<trkpt lat="43.682854995" lon="10.94232196"><ele>121</ele><time>2020-01-19T08:47:54Z</time></trkpt>
<trkpt lat="43.68286103" lon="10.942354985"><ele>121</ele><time>2020-01-19T08:47:55Z</time></trkpt>
<trkpt lat="43.682866981" lon="10.942389015"><ele>121</ele><time>2020-01-19T08:47:56Z</time></trkpt>
<trkpt lat="43.682873016" lon="10.942422962"><ele>121</ele><time>2020-01-19T08:47:57Z</time></trkpt>
<trkpt lat="43.682878967" lon="10.942456992"><ele>121</ele><time>2020-01-19T08:47:58Z</time></trkpt>
<trkpt lat="43.682883997" lon="10.942492029"><ele>121</ele><time>2020-01-19T08:47:59Z</time></trkpt>
<trkpt lat="43.68288802" lon="10.942527987"><ele>121</ele><time>2020-01-19T08:48:00Z</time></trkpt>
<trkpt lat="43.682891037" lon="10.942564029"><ele>121</ele><time>2020-01-19T08:48:01Z</time></trkpt>
<trkpt lat="43.682891959" lon="10.942600993"><ele>121</ele><time>2020-01-19T08:48:02Z</time></trkpt>
<trkpt lat="43.682891959" lon="10.942638041"><ele>121</ele><time>2020-01-19T08:48:03Z</time></trkpt>
<trkpt lat="43.682890031" lon="10.942675006"><ele>121</ele><time>2020-01-19T08:48:04Z</time></trkpt>
<trkpt lat="43.682887014" lon="10.942712976"><ele>122</ele><time>2020-01-19T08:48:05Z</time></trkpt>
<trkpt lat="43.682880979" lon="10.942750024"><ele>122</ele><time>2020-01-19T08:48:06Z</time></trkpt>
<trkpt lat="43.682874022" lon="10.942787994"><ele>122</ele><time>2020-01-19T08:48:07Z</time></trkpt>
<trkpt lat="43.68286497" lon="10.942825042"><ele>122</ele><time>2020-01-19T08:48:08Z</time></trkpt>
<trkpt lat="43.682854995" lon="10.942863012"><ele>122</ele><time>2020-01-19T08:48:09Z</time></trkpt>
<trkpt lat="43.682842003" lon="10.94289897"><ele>122</ele><time>2020-01-19T08:48:10Z</time></trkpt>
<trkpt lat="43.682829011" lon="10.942936018"><ele>122</ele><time>2020-01-19T08:48:11Z</time></trkpt>
<trkpt lat="43.682815013" lon="10.942971976"><ele>123</ele><time>2020-01-19T08:48:12Z</time></trkpt>
<trkpt lat="43.68280001" lon="10.943007013"><ele>123</ele><time>2020-01-19T08:48:13Z</time></trkpt>
<trkpt lat="43.682786012" lon="10.94304096"><ele>123</ele><time>2020-01-19T08:48:14Z</time></trkpt>
<trkpt lat="43.682772014" lon="10.943073984"><ele>123</ele><time>2020-01-19T08:48:15Z</time></trkpt>
<trkpt lat="43.682759022" lon="10.943106003"><ele>123</ele><time>2020-01-19T08:48:16Z</time></trkpt>
<trkpt lat="43.682747036" lon="10.943138022"><ele>124</ele><time>2020-01-19T08:48:17Z</time></trkpt>
<trkpt lat="43.682735972" lon="10.943169035"><ele>124</ele><time>2020-01-19T08:48:18Z</time></trkpt>
<trkpt lat="43.682724992" lon="10.943198958"><ele>124</ele><time>2020-01-19T08:48:19Z</time></trkpt>
<trkpt lat="43.682714012" lon="10.943229971"><ele>124</ele><time>2020-01-19T08:48:20Z</time></trkpt>
<trkpt lat="43.682704037" lon="10.943259979"><ele>124</ele><time>2020-01-19T08:48:21Z</time></trkpt>
<trkpt lat="43.682694985" lon="10.943290992"><ele>124</ele><time>2020-01-19T08:48:22Z</time></trkpt>
<trkpt lat="43.68268501" lon="10.943322005"><ele>125</ele><time>2020-01-19T08:48:23Z</time></trkpt>
<trkpt lat="43.682675036" lon="10.943353018"><ele>125</ele><time>2020-01-19T08:48:24Z</time></trkpt>
<trkpt lat="43.682665983" lon="10.943385959"><ele>125</ele><time>2020-01-19T08:48:25Z</time></trkpt>
<trkpt lat="43.682636982" lon="10.943488972"><ele>125</ele><time>2020-01-19T08:48:28Z</time></trkpt>
<trkpt lat="43.682628013" lon="10.943525014"><ele>125</ele><time>2020-01-19T08:48:29Z</time></trkpt>
<trkpt lat="43.682618961" lon="10.943562984"><ele>125</ele><time>2020-01-19T08:48:30Z</time></trkpt>
<trkpt lat="43.682610998" lon="10.94360196"><ele>125</ele><time>2020-01-19T08:48:31Z</time></trkpt>
<trkpt lat="43.682602029" lon="10.943642026"><ele>125</ele><time>2020-01-19T08:48:32Z</time></trkpt>
<trkpt lat="43.682595994" lon="10.943682007"><ele>125</ele><time>2020-01-19T08:48:33Z</time></trkpt>
<trkpt lat="43.682593983" lon="10.943722995"><ele>125</ele><time>2020-01-19T08:48:34Z</time></trkpt>
<trkpt lat="43.682597" lon="10.943761971"><ele>125</ele><time>2020-01-19T08:48:35Z</time></trkpt>
<trkpt lat="43.682606975" lon="10.943800025"><ele>125</ele><time>2020-01-19T08:48:36Z</time></trkpt>
<trkpt lat="43.682622984" lon="10.943834977"><ele>125</ele><time>2020-01-19T08:48:37Z</time></trkpt>
<trkpt lat="43.682643017" lon="10.943869008"><ele>125</ele><time>2020-01-19T08:48:38Z</time></trkpt>
<trkpt lat="43.682665983" lon="10.943901027"><ele>125</ele><time>2020-01-19T08:48:39Z</time></trkpt>
<trkpt lat="43.682690039" lon="10.943931034"><ele>124</ele><time>2020-01-19T08:48:40Z</time></trkpt>
<trkpt lat="43.682715017" lon="10.943960035"><ele>124</ele><time>2020-01-19T08:48:41Z</time></trkpt>
<trkpt lat="43.682739995" lon="10.943987025"><ele>124</ele><time>2020-01-19T08:48:42Z</time></trkpt>
<trkpt lat="43.682765979" lon="10.944014015"><ele>124</ele><time>2020-01-19T08:48:43Z</time></trkpt>
<trkpt lat="43.682792969" lon="10.944039999"><ele>124</ele><time>2020-01-19T08:48:44Z</time></trkpt>
<trkpt lat="43.682819037" lon="10.944065982"><ele>124</ele><time>2020-01-19T08:48:45Z</time></trkpt>
<trkpt lat="43.682846026" lon="10.944091966"><ele>124</ele><time>2020-01-19T08:48:46Z</time></trkpt>
<trkpt lat="43.68287201" lon="10.944118034"><ele>124</ele><time>2020-01-19T08:48:47Z</time></trkpt>
<trkpt lat="43.682897994" lon="10.944145024"><ele>124</ele><time>2020-01-19T08:48:48Z</time></trkpt>
<trkpt lat="43.682922972" lon="10.944173019"><ele>124</ele><time>2020-01-19T08:48:49Z</time></trkpt>
<trkpt lat="43.682948034" lon="10.944202021"><ele>123</ele><time>2020-01-19T08:48:50Z</time></trkpt>
<trkpt lat="43.682973012" lon="10.944231022"><ele>123</ele><time>2020-01-19T08:48:51Z</time></trkpt>
<trkpt lat="43.682996985" lon="10.944260024"><ele>123</ele><time>2020-01-19T08:48:52Z</time></trkpt>
<trkpt lat="43.683021041" lon="10.944290031"><ele>123</ele><time>2020-01-19T08:48:53Z</time></trkpt>
<trkpt lat="43.683045013" lon="10.944320038"><ele>123</ele><time>2020-01-19T08:48:54Z</time></trkpt>
<trkpt lat="43.683067979" lon="10.944349961"><ele>123</ele><time>2020-01-19T08:48:55Z</time></trkpt>
<trkpt lat="43.68309103" lon="10.944380974"><ele>123</ele><time>2020-01-19T08:48:56Z</time></trkpt>
<trkpt lat="43.683113996" lon="10.944410982"><ele>124</ele><time>2020-01-19T08:48:57Z</time></trkpt>
<trkpt lat="43.68313604" lon="10.944441995"><ele>124</ele><time>2020-01-19T08:48:58Z</time></trkpt>
<trkpt lat="43.683159007" lon="10.944472002"><ele>124</ele><time>2020-01-19T08:48:59Z</time></trkpt>
<trkpt lat="43.683180967" lon="10.944503015"><ele>124</ele><time>2020-01-19T08:49:00Z</time></trkpt>
<trkpt lat="43.683202006" lon="10.944533022"><ele>124</ele><time>2020-01-19T08:49:01Z</time></trkpt>
<trkpt lat="43.683223967" lon="10.944562024"><ele>124</ele><time>2020-01-19T08:49:02Z</time></trkpt>
<trkpt lat="43.683288004" lon="10.944649028"><ele>125</ele><time>2020-01-19T08:49:05Z</time></trkpt>
<trkpt lat="43.683308959" lon="10.944677023"><ele>126</ele><time>2020-01-19T08:49:06Z</time></trkpt>
<trkpt lat="43.683329998" lon="10.944704013"><ele>126</ele><time>2020-01-19T08:49:07Z</time></trkpt>
<trkpt lat="43.683351036" lon="10.944732009"><ele>126</ele><time>2020-01-19T08:49:08Z</time></trkpt>
<trkpt lat="43.683370985" lon="10.944758998"><ele>126</ele><time>2020-01-19T08:49:09Z</time></trkpt>
<trkpt lat="43.683391018" lon="10.944785988"><ele>126</ele><time>2020-01-19T08:49:10Z</time></trkpt>
<trkpt lat="43.683410967" lon="10.944812978"><ele>126</ele><time>2020-01-19T08:49:11Z</time></trkpt>
<trkpt lat="43.683429994" lon="10.944838962"><ele>126</ele><time>2020-01-19T08:49:12Z</time></trkpt>
<trkpt lat="43.683449021" lon="10.944866035"><ele>126</ele><time>2020-01-19T08:49:13Z</time></trkpt>
<trkpt lat="43.683467964" lon="10.944893025"><ele>126</ele><time>2020-01-19T08:49:14Z</time></trkpt>
<trkpt lat="43.683485985" lon="10.944920015"><ele>126</ele><time>2020-01-19T08:49:15Z</time></trkpt>
<trkpt lat="43.683504006" lon="10.944945998"><ele>126</ele><time>2020-01-19T08:49:16Z</time></trkpt>
<trkpt lat="43.683521021" lon="10.944972988"><ele>126</ele><time>2020-01-19T08:49:17Z</time></trkpt>
<trkpt lat="43.683538036" lon="10.945000984"><ele>126</ele><time>2020-01-19T08:49:18Z</time></trkpt>
<trkpt lat="43.683554968" lon="10.945027974"><ele>126</ele><time>2020-01-19T08:49:19Z</time></trkpt>
<trkpt lat="43.683570977" lon="10.945055969"><ele>126</ele><time>2020-01-19T08:49:20Z</time></trkpt>
<trkpt lat="43.683586987" lon="10.945083965"><ele>126</ele><time>2020-01-19T08:49:21Z</time></trkpt>
<trkpt lat="43.683602996" lon="10.945112966"><ele>126</ele><time>2020-01-19T08:49:22Z</time></trkpt>
<trkpt lat="43.683618" lon="10.945141967"><ele>125</ele><time>2020-01-19T08:49:23Z</time></trkpt>
<trkpt lat="43.683633003" lon="10.945170969"><ele>125</ele><time>2020-01-19T08:49:24Z</time></trkpt>
<trkpt lat="43.683649013" lon="10.945200976"><ele>125</ele><time>2020-01-19T08:49:25Z</time></trkpt>
<trkpt lat="43.683664016" lon="10.945231989"><ele>125</ele><time>2020-01-19T08:49:26Z</time></trkpt>
<trkpt lat="43.683680026" lon="10.945263002"><ele>125</ele><time>2020-01-19T08:49:27Z</time></trkpt>
<trkpt lat="43.683696035" lon="10.945295021"><ele>125</ele><time>2020-01-19T08:49:28Z</time></trkpt>
<trkpt lat="43.683711961" lon="10.94532704"><ele>125</ele><time>2020-01-19T08:49:29Z</time></trkpt>
<trkpt lat="43.68372797" lon="10.945358975"><ele>125</ele><time>2020-01-19T08:49:30Z</time></trkpt>
<trkpt lat="43.683744986" lon="10.945390994"><ele>125</ele><time>2020-01-19T08:49:31Z</time></trkpt>
<trkpt lat="43.683762001" lon="10.945423013"><ele>125</ele><time>2020-01-19T08:49:32Z</time></trkpt>
<trkpt lat="43.683780022" lon="10.945454026"><ele>125</ele><time>2020-01-19T08:49:33Z</time></trkpt>
<trkpt lat="43.683797959" lon="10.945485039"><ele>125</ele><time>2020-01-19T08:49:34Z</time></trkpt>
<trkpt lat="43.683816986" lon="10.945514962"><ele>125</ele><time>2020-01-19T08:49:35Z</time></trkpt>
<trkpt lat="43.683836013" lon="10.945543963"><ele>125</ele><time>2020-01-19T08:49:36Z</time></trkpt>
<trkpt lat="43.683855962" lon="10.945571959"><ele>126</ele><time>2020-01-19T08:49:37Z</time></trkpt>
<trkpt lat="43.683875995" lon="10.945600038"><ele>126</ele><time>2020-01-19T08:49:38Z</time></trkpt>
<trkpt lat="43.683895022" lon="10.94562904"><ele>126</ele><time>2020-01-19T08:49:39Z</time></trkpt>
<trkpt lat="43.683914971" lon="10.945657035"><ele>126</ele><time>2020-01-19T08:49:40Z</time></trkpt>
<trkpt lat="43.683933998" lon="10.945686037"><ele>126</ele><time>2020-01-19T08:49:41Z</time></trkpt>
<trkpt lat="43.683953024" lon="10.94571596"><ele>127</ele><time>2020-01-19T08:49:42Z</time></trkpt>
<trkpt lat="43.683971968" lon="10.945745967"><ele>127</ele><time>2020-01-19T08:49:43Z</time></trkpt>
<trkpt lat="43.683989989" lon="10.94577698"><ele>127</ele><time>2020-01-19T08:49:44Z</time></trkpt>
<trkpt lat="43.68400801" lon="10.945808999"><ele>128</ele><time>2020-01-19T08:49:45Z</time></trkpt>
<trkpt lat="43.684026031" lon="10.945841018"><ele>128</ele><time>2020-01-19T08:49:46Z</time></trkpt>
<trkpt lat="43.684043968" lon="10.945873037"><ele>128</ele><time>2020-01-19T08:49:47Z</time></trkpt>
<trkpt lat="43.684064001" lon="10.945904972"><ele>127</ele><time>2020-01-19T08:49:48Z</time></trkpt>
<trkpt lat="43.684084034" lon="10.945936991"><ele>127</ele><time>2020-01-19T08:49:49Z</time></trkpt>
<trkpt lat="43.684105994" lon="10.94596901"><ele>127</ele><time>2020-01-19T08:49:50Z</time></trkpt>
<trkpt lat="43.684128961" lon="10.946000023"><ele>127</ele><time>2020-01-19T08:49:51Z</time></trkpt>
<trkpt lat="43.684154022" lon="10.946031036"><ele>127</ele><time>2020-01-19T08:49:52Z</time></trkpt>
<trkpt lat="43.684179001" lon="10.946060959"><ele>127</ele><time>2020-01-19T08:49:53Z</time></trkpt>
<trkpt lat="43.684204984" lon="10.946089961"><ele>127</ele><time>2020-01-19T08:49:54Z</time></trkpt>
<trkpt lat="43.684230968" lon="10.946118962"><ele>126</ele><time>2020-01-19T08:49:55Z</time></trkpt>
<trkpt lat="43.68425603" lon="10.946147963"><ele>126</ele><time>2020-01-19T08:49:56Z</time></trkpt>
<trkpt lat="43.684282014" lon="10.946175959"><ele>126</ele><time>2020-01-19T08:49:57Z</time></trkpt>
<trkpt lat="43.684305986" lon="10.946204038"><ele>125</ele><time>2020-01-19T08:49:58Z</time></trkpt>
<trkpt lat="43.684329037" lon="10.946231028"><ele>125</ele><time>2020-01-19T08:49:59Z</time></trkpt>
<trkpt lat="43.684350997" lon="10.946258018"><ele>125</ele><time>2020-01-19T08:50:00Z</time></trkpt>
<trkpt lat="43.684373042" lon="10.946284002"><ele>125</ele><time>2020-01-19T08:50:01Z</time></trkpt>
<trkpt lat="43.684395002" lon="10.946309986"><ele>124</ele><time>2020-01-19T08:50:02Z</time></trkpt>
<trkpt lat="43.684416963" lon="10.946334964"><ele>124</ele><time>2020-01-19T08:50:03Z</time></trkpt>
<trkpt lat="43.684440013" lon="10.946358014"><ele>124</ele><time>2020-01-19T08:50:04Z</time></trkpt>
<trkpt lat="43.684463985" lon="10.94638098"><ele>124</ele><time>2020-01-19T08:50:05Z</time></trkpt>
<trkpt lat="43.684488963" lon="10.946402019"><ele>124</ele><time>2020-01-19T08:50:06Z</time></trkpt>
<trkpt lat="43.684516037" lon="10.946421968"><ele>124</ele><time>2020-01-19T08:50:07Z</time></trkpt>
<trkpt lat="43.684545038" lon="10.946440995"><ele>124</ele><time>2020-01-19T08:50:08Z</time></trkpt>
<trkpt lat="43.68457404" lon="10.94645801"><ele>124</ele><time>2020-01-19T08:50:09Z</time></trkpt>
<trkpt lat="43.684605975" lon="10.946473014"><ele>124</ele><time>2020-01-19T08:50:10Z</time></trkpt>
<trkpt lat="43.684637994" lon="10.946486006"><ele>124</ele><time>2020-01-19T08:50:11Z</time></trkpt>
<trkpt lat="43.684671018" lon="10.94649598"><ele>124</ele><time>2020-01-19T08:50:12Z</time></trkpt>
<trkpt lat="43.684703959" lon="10.946504027"><ele>124</ele><time>2020-01-19T08:50:13Z</time></trkpt>
<trkpt lat="43.68473799" lon="10.946508972"><ele>124</ele><time>2020-01-19T08:50:14Z</time></trkpt>
<trkpt lat="43.68477202" lon="10.946510984"><ele>124</ele><time>2020-01-19T08:50:15Z</time></trkpt>
<trkpt lat="43.684805967" lon="10.946509978"><ele>124</ele><time>2020-01-19T08:50:16Z</time></trkpt>
<trkpt lat="43.684839997" lon="10.94650696"><ele>124</ele><time>2020-01-19T08:50:17Z</time></trkpt>
<trkpt lat="43.684874028" lon="10.946500003"><ele>124</ele><time>2020-01-19T08:50:18Z</time></trkpt>
<trkpt lat="43.684906969" lon="10.946490029"><ele>124</ele><time>2020-01-19T08:50:19Z</time></trkpt>
<trkpt lat="43.684938988" lon="10.946477959"><ele>124</ele><time>2020-01-19T08:50:20Z</time></trkpt>
<trkpt lat="43.684971007" lon="10.946463039"><ele>124</ele><time>2020-01-19T08:50:21Z</time></trkpt>
<trkpt lat="43.68500202" lon="10.946446024"><ele>123</ele><time>2020-01-19T08:50:22Z</time></trkpt>
<trkpt lat="43.685031021" lon="10.946425991"><ele>123</ele><time>2020-01-19T08:50:23Z</time></trkpt>
<trkpt lat="43.685060022" lon="10.946404031"><ele>123</ele><time>2020-01-19T08:50:24Z</time></trkpt>
<trkpt lat="43.685089024" lon="10.946379974"><ele>123</ele><time>2020-01-19T08:50:25Z</time></trkpt>
<trkpt lat="43.685117019" lon="10.946356002"><ele>123</ele><time>2020-01-19T08:50:26Z</time></trkpt>
<trkpt lat="43.685145015" lon="10.946331024"><ele>123</ele><time>2020-01-19T08:50:27Z</time></trkpt>
<trkpt lat="43.68517301" lon="10.94630504"><ele>123</ele><time>2020-01-19T08:50:28Z</time></trkpt>
<trkpt lat="43.685201006" lon="10.946278973"><ele>123</ele><time>2020-01-19T08:50:29Z</time></trkpt>
<trkpt lat="43.685230007" lon="10.946253994"><ele>123</ele><time>2020-01-19T08:50:30Z</time></trkpt>
<trkpt lat="43.685258003" lon="10.946228011"><ele>123</ele><time>2020-01-19T08:50:31Z</time></trkpt>
<trkpt lat="43.685285999" lon="10.946202027"><ele>123</ele><time>2020-01-19T08:50:32Z</time></trkpt>
<trkpt lat="43.685312988" lon="10.946175959"><ele>123</ele><time>2020-01-19T08:50:33Z</time></trkpt>
<trkpt lat="43.685339978" lon="10.946147963"><ele>123</ele><time>2020-01-19T08:50:34Z</time></trkpt>
<trkpt lat="43.68536504" lon="10.946118962"><ele>123</ele><time>2020-01-19T08:50:35Z</time></trkpt>
<trkpt lat="43.685389012" lon="10.946088033"><ele>123</ele><time>2020-01-19T08:50:36Z</time></trkpt>
<trkpt lat="43.685411979" lon="10.946055008"><ele>123</ele><time>2020-01-19T08:50:37Z</time></trkpt>
<trkpt lat="43.685432011" lon="10.946018966"><ele>123</ele><time>2020-01-19T08:50:38Z</time></trkpt>
<trkpt lat="43.685450032" lon="10.945982002"><ele>123</ele><time>2020-01-19T08:50:39Z</time></trkpt>
<trkpt lat="43.68546797" lon="10.94594202"><ele>123</ele><time>2020-01-19T08:50:40Z</time></trkpt>
<trkpt lat="43.685483979" lon="10.945902038"><ele>123</ele><time>2020-01-19T08:50:41Z</time></trkpt>
<trkpt lat="43.685498983" lon="10.945860967"><ele>123</ele><time>2020-01-19T08:50:42Z</time></trkpt>
<trkpt lat="43.68551298" lon="10.945818974"><ele>123</ele><time>2020-01-19T08:50:43Z</time></trkpt>
<trkpt lat="43.685527984" lon="10.945777986"><ele>123</ele><time>2020-01-19T08:50:44Z</time></trkpt>
<trkpt lat="43.685541982" lon="10.945736999"><ele>123</ele><time>2020-01-19T08:50:45Z</time></trkpt>
<trkpt lat="43.685556985" lon="10.945697017"><ele>123</ele><time>2020-01-19T08:50:46Z</time></trkpt>
<trkpt lat="43.685571989" lon="10.945658041"><ele>122</ele><time>2020-01-19T08:50:47Z</time></trkpt>
<trkpt lat="43.685587998" lon="10.945618981"><ele>122</ele><time>2020-01-19T08:50:48Z</time></trkpt>
<trkpt lat="43.685604008" lon="10.945581011"><ele>122</ele><time>2020-01-19T08:50:49Z</time></trkpt>
<trkpt lat="43.685620017" lon="10.945542036"><ele>122</ele><time>2020-01-19T08:50:50Z</time></trkpt>
<trkpt lat="43.685636027" lon="10.945502976"><ele>122</ele><time>2020-01-19T08:50:51Z</time></trkpt>
<trkpt lat="43.685686989" lon="10.945380013"><ele>121</ele><time>2020-01-19T08:50:54Z</time></trkpt>
<trkpt lat="43.68570501" lon="10.94533802"><ele>121</ele><time>2020-01-19T08:50:55Z</time></trkpt>
<trkpt lat="43.685724037" lon="10.945295021"><ele>121</ele><time>2020-01-19T08:50:56Z</time></trkpt>
<trkpt lat="43.68574298" lon="10.945252022"><ele>121</ele><time>2020-01-19T08:50:57Z</time></trkpt>
<trkpt lat="43.685763013" lon="10.945210028"><ele>121</ele><time>2020-01-19T08:50:58Z</time></trkpt>
<trkpt lat="43.685784973" lon="10.945170969"><ele>121</ele><time>2020-01-19T08:50:59Z</time></trkpt>
<trkpt lat="43.685809029" lon="10.945132999"><ele>121</ele><time>2020-01-19T08:51:00Z</time></trkpt>
<trkpt lat="43.685834007" lon="10.945097962"><ele>121</ele><time>2020-01-19T08:51:01Z</time></trkpt>
<trkpt lat="43.685860997" lon="10.945067033"><ele>120</ele><time>2020-01-19T08:51:02Z</time></trkpt>
<trkpt lat="43.685891004" lon="10.945038032"><ele>120</ele><time>2020-01-19T08:51:03Z</time></trkpt>
<trkpt lat="43.685921011" lon="10.94501297"><ele>120</ele><time>2020-01-19T08:51:04Z</time></trkpt>
<trkpt lat="43.685954036" lon="10.944990003"><ele>120</ele><time>2020-01-19T08:51:05Z</time></trkpt>
<trkpt lat="43.685986977" lon="10.944968965"><ele>120</ele><time>2020-01-19T08:51:06Z</time></trkpt>
<trkpt lat="43.686022013" lon="10.944949016"><ele>119</ele><time>2020-01-19T08:51:07Z</time></trkpt>
<trkpt lat="43.686056966" lon="10.944932001"><ele>119</ele><time>2020-01-19T08:51:08Z</time></trkpt>
<trkpt lat="43.686093008" lon="10.944914985"><ele>119</ele><time>2020-01-19T08:51:09Z</time></trkpt>
<trkpt lat="43.686128967" lon="10.944899982"><ele>119</ele><time>2020-01-19T08:51:10Z</time></trkpt>
<trkpt lat="43.686166015" lon="10.944884978"><ele>119</ele><time>2020-01-19T08:51:11Z</time></trkpt>
<trkpt lat="43.686201973" lon="10.944871986"><ele>119</ele><time>2020-01-19T08:51:12Z</time></trkpt>
<trkpt lat="43.686239021" lon="10.944857989"><ele>118</ele><time>2020-01-19T08:51:13Z</time></trkpt>
<trkpt lat="43.686276991" lon="10.944846002"><ele>118</ele><time>2020-01-19T08:51:14Z</time></trkpt>
<trkpt lat="43.686314039" lon="10.944834016"><ele>118</ele><time>2020-01-19T08:51:15Z</time></trkpt>
<trkpt lat="43.686352009" lon="10.944823036"><ele>118</ele><time>2020-01-19T08:51:16Z</time></trkpt>
<trkpt lat="43.686388973" lon="10.944811972"><ele>118</ele><time>2020-01-19T08:51:17Z</time></trkpt>
<trkpt lat="43.686427027" lon="10.944800992"><ele>118</ele><time>2020-01-19T08:51:18Z</time></trkpt>
<trkpt lat="43.686463991" lon="10.944791017"><ele>118</ele><time>2020-01-19T08:51:19Z</time></trkpt>
<trkpt lat="43.686501039" lon="10.944780959"><ele>117</ele><time>2020-01-19T08:51:20Z</time></trkpt>
<trkpt lat="43.686539009" lon="10.94477199"><ele>117</ele><time>2020-01-19T08:51:21Z</time></trkpt>
<trkpt lat="43.686575973" lon="10.944763022"><ele>117</ele><time>2020-01-19T08:51:22Z</time></trkpt>
<trkpt lat="43.686612016" lon="10.944752963"><ele>117</ele><time>2020-01-19T08:51:23Z</time></trkpt>
<trkpt lat="43.68664898" lon="10.944743995"><ele>117</ele><time>2020-01-19T08:51:24Z</time></trkpt>
<trkpt lat="43.686685022" lon="10.944735026"><ele>117</ele><time>2020-01-19T08:51:25Z</time></trkpt>
<trkpt lat="43.68672098" lon="10.944725974"><ele>116</ele><time>2020-01-19T08:51:26Z</time></trkpt>
<trkpt lat="43.686827011" lon="10.944698984"><ele>115</ele><time>2020-01-19T08:51:29Z</time></trkpt>
<trkpt lat="43.686861964" lon="10.944690015"><ele>115</ele><time>2020-01-19T08:51:30Z</time></trkpt>
<trkpt lat="43.686895994" lon="10.944680963"><ele>115</ele><time>2020-01-19T08:51:31Z</time></trkpt>
<trkpt lat="43.686930025" lon="10.944671994"><ele>114</ele><time>2020-01-19T08:51:32Z</time></trkpt>
<trkpt lat="43.686963972" lon="10.944663025"><ele>114</ele><time>2020-01-19T08:51:33Z</time></trkpt>
<trkpt lat="43.686996996" lon="10.944653973"><ele>114</ele><time>2020-01-19T08:51:34Z</time></trkpt>
<trkpt lat="43.687031027" lon="10.94464601"><ele>113</ele><time>2020-01-19T08:51:35Z</time></trkpt>
<trkpt lat="43.687062962" lon="10.944637042"><ele>113</ele><time>2020-01-19T08:51:36Z</time></trkpt>
<trkpt lat="43.687095987" lon="10.944628995"><ele>113</ele><time>2020-01-19T08:51:37Z</time></trkpt>
<trkpt lat="43.687128006" lon="10.944620026"><ele>113</ele><time>2020-01-19T08:51:38Z</time></trkpt>
<trkpt lat="43.68716103" lon="10.94461198"><ele>112</ele><time>2020-01-19T08:51:39Z</time></trkpt>
<trkpt lat="43.687191959" lon="10.944604017"><ele>112</ele><time>2020-01-19T08:51:40Z</time></trkpt>
<trkpt lat="43.687223978" lon="10.944594964"><ele>112</ele><time>2020-01-19T08:51:41Z</time></trkpt>
<trkpt lat="43.687254991" lon="10.944587002"><ele>111</ele><time>2020-01-19T08:51:42Z</time></trkpt>
<trkpt lat="43.687286004" lon="10.944579039"><ele>111</ele><time>2020-01-19T08:51:43Z</time></trkpt>
<trkpt lat="43.687316012" lon="10.944570992"><ele>111</ele><time>2020-01-19T08:51:44Z</time></trkpt>
<trkpt lat="43.687346019" lon="10.944562024"><ele>111</ele><time>2020-01-19T08:51:45Z</time></trkpt>
<trkpt lat="43.687376026" lon="10.944551965"><ele>110</ele><time>2020-01-19T08:51:46Z</time></trkpt>
<trkpt lat="43.687405027" lon="10.944541991"><ele>110</ele><time>2020-01-19T08:51:47Z</time></trkpt>
<trkpt lat="43.687434029" lon="10.944532016"><ele>110</ele><time>2020-01-19T08:51:48Z</time></trkpt>
<trkpt lat="43.687462024" lon="10.94452003"><ele>110</ele><time>2020-01-19T08:51:49Z</time></trkpt>
<trkpt lat="43.687489014" lon="10.94450796"><ele>109</ele><time>2020-01-19T08:51:50Z</time></trkpt>
<trkpt lat="43.687516004" lon="10.944494968"><ele>109</ele><time>2020-01-19T08:51:51Z</time></trkpt>
<trkpt lat="43.687542994" lon="10.944480971"><ele>109</ele><time>2020-01-19T08:51:52Z</time></trkpt>
<trkpt lat="43.687569983" lon="10.944466973"><ele>109</ele><time>2020-01-19T08:51:53Z</time></trkpt>
<trkpt lat="43.687596973" lon="10.944451969"><ele>109</ele><time>2020-01-19T08:51:54Z</time></trkpt>
<trkpt lat="43.687623963" lon="10.944436966"><ele>108</ele><time>2020-01-19T08:51:55Z</time></trkpt>
<trkpt lat="43.687651036" lon="10.94442104"><ele>108</ele><time>2020-01-19T08:51:56Z</time></trkpt>
<trkpt lat="43.687678026" lon="10.94440503"><ele>108</ele><time>2020-01-19T08:51:57Z</time></trkpt>
<trkpt lat="43.687706022" lon="10.944389021"><ele>108</ele><time>2020-01-19T08:51:58Z</time></trkpt>
<trkpt lat="43.687734017" lon="10.944373012"><ele>108</ele><time>2020-01-19T08:51:59Z</time></trkpt>
<trkpt lat="43.687762013" lon="10.944357002"><ele>108</ele><time>2020-01-19T08:52:00Z</time></trkpt>
<trkpt lat="43.687790008" lon="10.944339987"><ele>107</ele><time>2020-01-19T08:52:01Z</time></trkpt>
<trkpt lat="43.68781901" lon="10.944322972"><ele>107</ele><time>2020-01-19T08:52:02Z</time></trkpt>
<trkpt lat="43.687848011" lon="10.94430604"><ele>107</ele><time>2020-01-19T08:52:03Z</time></trkpt>
<trkpt lat="43.687877012" lon="10.944288019"><ele>107</ele><time>2020-01-19T08:52:04Z</time></trkpt>
<trkpt lat="43.68790702" lon="10.944271004"><ele>107</ele><time>2020-01-19T08:52:05Z</time></trkpt>
<trkpt lat="43.687936021" lon="10.944252983"><ele>107</ele><time>2020-01-19T08:52:06Z</time></trkpt>
<trkpt lat="43.687966028" lon="10.944234962"><ele>106</ele><time>2020-01-19T08:52:07Z</time></trkpt>
<trkpt lat="43.687996035" lon="10.944216019"><ele>106</ele><time>2020-01-19T08:52:08Z</time></trkpt>
<trkpt lat="43.688025959" lon="10.944197997"><ele>106</ele><time>2020-01-19T08:52:09Z</time></trkpt>
<trkpt lat="43.688056972" lon="10.944178971"><ele>106</ele><time>2020-01-19T08:52:10Z</time></trkpt>
<trkpt lat="43.688087985" lon="10.944160027"><ele>106</ele><time>2020-01-19T08:52:11Z</time></trkpt>
<trkpt lat="43.688117992" lon="10.944141001"><ele>106</ele><time>2020-01-19T08:52:12Z</time></trkpt>
<trkpt lat="43.688149005" lon="10.944121974"><ele>105</ele><time>2020-01-19T08:52:13Z</time></trkpt>
<trkpt lat="43.688180018" lon="10.94410303"><ele>105</ele><time>2020-01-19T08:52:14Z</time></trkpt>
<trkpt lat="43.688212037" lon="10.944084004"><ele>105</ele><time>2020-01-19T08:52:15Z</time></trkpt>
<trkpt lat="43.688242966" lon="10.944063971"><ele>104</ele><time>2020-01-19T08:52:16Z</time></trkpt>
<trkpt lat="43.688273979" lon="10.944045028"><ele>104</ele><time>2020-01-19T08:52:17Z</time></trkpt>
<trkpt lat="43.688305998" lon="10.944024995"><ele>104</ele><time>2020-01-19T08:52:18Z</time></trkpt>
<trkpt lat="43.688337011" lon="10.944005968"><ele>103</ele><time>2020-01-19T08:52:19Z</time></trkpt>
<trkpt lat="43.68836903" lon="10.943987025"><ele>103</ele><time>2020-01-19T08:52:20Z</time></trkpt>
<trkpt lat="43.688400965" lon="10.943967998"><ele>103</ele><time>2020-01-19T08:52:21Z</time></trkpt>
<trkpt lat="43.688431978" lon="10.943948971"><ele>103</ele><time>2020-01-19T08:52:22Z</time></trkpt>
<trkpt lat="43.688463997" lon="10.943930028"><ele>103</ele><time>2020-01-19T08:52:23Z</time></trkpt>
<trkpt lat="43.68849501" lon="10.943911001"><ele>102</ele><time>2020-01-19T08:52:24Z</time></trkpt>
<trkpt lat="43.688527029" lon="10.94389298"><ele>102</ele><time>2020-01-19T08:52:25Z</time></trkpt>
<trkpt lat="43.688557958" lon="10.943874959"><ele>102</ele><time>2020-01-19T08:52:26Z</time></trkpt>
<trkpt lat="43.688588971" lon="10.943858027"><ele>102</ele><time>2020-01-19T08:52:27Z</time></trkpt>
<trkpt lat="43.68862099" lon="10.943840006"><ele>102</ele><time>2020-01-19T08:52:28Z</time></trkpt>
<trkpt lat="43.688652003" lon="10.943823997"><ele>101</ele><time>2020-01-19T08:52:29Z</time></trkpt>
<trkpt lat="43.688683016" lon="10.943806982"><ele>101</ele><time>2020-01-19T08:52:30Z</time></trkpt>
<trkpt lat="43.688714029" lon="10.943790972"><ele>101</ele><time>2020-01-19T08:52:31Z</time></trkpt>
<trkpt lat="43.688744036" lon="10.943774963"><ele>101</ele><time>2020-01-19T08:52:32Z</time></trkpt>
<trkpt lat="43.688774966" lon="10.943759037"><ele>101</ele><time>2020-01-19T08:52:33Z</time></trkpt>
<trkpt lat="43.688804973" lon="10.943743028"><ele>101</ele><time>2020-01-19T08:52:34Z</time></trkpt>
<trkpt lat="43.688835986" lon="10.943727018"><ele>101</ele><time>2020-01-19T08:52:35Z</time></trkpt>
<trkpt lat="43.688865993" lon="10.943711009"><ele>101</ele><time>2020-01-19T08:52:36Z</time></trkpt>
<trkpt lat="43.688896" lon="10.943694999"><ele>101</ele><time>2020-01-19T08:52:37Z</time></trkpt>
<trkpt lat="43.688926008" lon="10.94367899"><ele>101</ele><time>2020-01-19T08:52:38Z</time></trkpt>
<trkpt lat="43.688956015" lon="10.943661975"><ele>101</ele><time>2020-01-19T08:52:39Z</time></trkpt>
<trkpt lat="43.688986022" lon="10.943644959"><ele>101</ele><time>2020-01-19T08:52:40Z</time></trkpt>
<trkpt lat="43.689016029" lon="10.943629034"><ele>101</ele><time>2020-01-19T08:52:41Z</time></trkpt>
<trkpt lat="43.689045031" lon="10.943611013"><ele>101</ele><time>2020-01-19T08:52:42Z</time></trkpt>
<trkpt lat="43.689074032" lon="10.943592992"><ele>101</ele><time>2020-01-19T08:52:43Z</time></trkpt>
<trkpt lat="43.689104039" lon="10.943574971"><ele>101</ele><time>2020-01-19T08:52:44Z</time></trkpt>
<trkpt lat="43.689133041" lon="10.943557033"><ele>101</ele><time>2020-01-19T08:52:45Z</time></trkpt>
<trkpt lat="43.689161958" lon="10.943538006"><ele>101</ele><time>2020-01-19T08:52:46Z</time></trkpt>
<trkpt lat="43.68919096" lon="10.943517974"><ele>101</ele><time>2020-01-19T08:52:47Z</time></trkpt>
<trkpt lat="43.689219039" lon="10.943498025"><ele>101</ele><time>2020-01-19T08:52:48Z</time></trkpt>
<trkpt lat="43.68924804" lon="10.943477992"><ele>101</ele><time>2020-01-19T08:52:49Z</time></trkpt>
<trkpt lat="43.689277042" lon="10.943457959"><ele>101</ele><time>2020-01-19T08:52:50Z</time></trkpt>
<trkpt lat="43.689305037" lon="10.94343801"><ele>101</ele><time>2020-01-19T08:52:51Z</time></trkpt>
<trkpt lat="43.689334039" lon="10.943416972"><ele>101</ele><time>2020-01-19T08:52:52Z</time></trkpt>
<trkpt lat="43.689362034" lon="10.943396017"><ele>101</ele><time>2020-01-19T08:52:53Z</time></trkpt>
<trkpt lat="43.689391036" lon="10.943375984"><ele>101</ele><time>2020-01-19T08:52:54Z</time></trkpt>
<trkpt lat="43.689419031" lon="10.943355029"><ele>101</ele><time>2020-01-19T08:52:55Z</time></trkpt>
<trkpt lat="43.689448033" lon="10.943333991"><ele>101</ele><time>2020-01-19T08:52:56Z</time></trkpt>
<trkpt lat="43.689476028" lon="10.943313036"><ele>101</ele><time>2020-01-19T08:52:57Z</time></trkpt>
<trkpt lat="43.689505029" lon="10.943291998"><ele>100</ele><time>2020-01-19T08:52:58Z</time></trkpt>
<trkpt lat="43.689533025" lon="10.943271965"><ele>100</ele><time>2020-01-19T08:52:59Z</time></trkpt>
<trkpt lat="43.689561021" lon="10.94325101"><ele>100</ele><time>2020-01-19T08:53:00Z</time></trkpt>
<trkpt lat="43.689590022" lon="10.943230977"><ele>100</ele><time>2020-01-19T08:53:01Z</time></trkpt>
<trkpt lat="43.689618018" lon="10.943211028"><ele>100</ele><time>2020-01-19T08:53:02Z</time></trkpt>
<trkpt lat="43.689647019" lon="10.94318999"><ele>100</ele><time>2020-01-19T08:53:03Z</time></trkpt>
<trkpt lat="43.68967602" lon="10.943170041"><ele>100</ele><time>2020-01-19T08:53:04Z</time></trkpt>
<trkpt lat="43.689704016" lon="10.943150008"><ele>100</ele><time>2020-01-19T08:53:05Z</time></trkpt>
<trkpt lat="43.689733017" lon="10.943129975"><ele>100</ele><time>2020-01-19T08:53:06Z</time></trkpt>
<trkpt lat="43.689762019" lon="10.943110026"><ele>100</ele><time>2020-01-19T08:53:07Z</time></trkpt>
<trkpt lat="43.68979102" lon="10.943089994"><ele>100</ele><time>2020-01-19T08:53:08Z</time></trkpt>
<trkpt lat="43.689819016" lon="10.943069961"><ele>100</ele><time>2020-01-19T08:53:09Z</time></trkpt>
<trkpt lat="43.689848017" lon="10.943049006"><ele>100</ele><time>2020-01-19T08:53:10Z</time></trkpt>
<trkpt lat="43.689877018" lon="10.943028973"><ele>100</ele><time>2020-01-19T08:53:11Z</time></trkpt>
<trkpt lat="43.68990602" lon="10.943008019"><ele>101</ele><time>2020-01-19T08:53:12Z</time></trkpt>
<trkpt lat="43.689935021" lon="10.942987986"><ele>101</ele><time>2020-01-19T08:53:13Z</time></trkpt>
<trkpt lat="43.689965028" lon="10.942967031"><ele>101</ele><time>2020-01-19T08:53:14Z</time></trkpt>
<trkpt lat="43.68999403" lon="10.942945993"><ele>101</ele><time>2020-01-19T08:53:15Z</time></trkpt>
<trkpt lat="43.690023031" lon="10.942924032"><ele>101</ele><time>2020-01-19T08:53:16Z</time></trkpt>
<trkpt lat="43.690053038" lon="10.942902993"><ele>101</ele><time>2020-01-19T08:53:17Z</time></trkpt>
<trkpt lat="43.690082962" lon="10.942882039"><ele>100</ele><time>2020-01-19T08:53:18Z</time></trkpt>
<trkpt lat="43.690112969" lon="10.942859994"><ele>100</ele><time>2020-01-19T08:53:19Z</time></trkpt>
<trkpt lat="43.690142976" lon="10.942839039"><ele>100</ele><time>2020-01-19T08:53:20Z</time></trkpt>
<trkpt lat="43.690174995" lon="10.942819007"><ele>100</ele><time>2020-01-19T08:53:21Z</time></trkpt>
<trkpt lat="43.690206008" lon="10.942798974"><ele>100</ele><time>2020-01-19T08:53:22Z</time></trkpt>
<trkpt lat="43.690306004" lon="10.942741977"><ele>99</ele><time>2020-01-19T08:53:25Z</time></trkpt>
<trkpt lat="43.690340035" lon="10.94272404"><ele>99</ele><time>2020-01-19T08:53:26Z</time></trkpt>
<trkpt lat="43.690374987" lon="10.942707025"><ele>99</ele><time>2020-01-19T08:53:27Z</time></trkpt>
<trkpt lat="43.690409018" lon="10.942690009"><ele>99</ele><time>2020-01-19T08:53:28Z</time></trkpt>
<trkpt lat="43.69044397" lon="10.942672994"><ele>99</ele><time>2020-01-19T08:53:29Z</time></trkpt>
<trkpt lat="43.690478001" lon="10.942655979"><ele>98</ele><time>2020-01-19T08:53:30Z</time></trkpt>
<trkpt lat="43.690511025" lon="10.942639969"><ele>98</ele><time>2020-01-19T08:53:31Z</time></trkpt>
<trkpt lat="43.690543966" lon="10.942623038"><ele>98</ele><time>2020-01-19T08:53:32Z</time></trkpt>
<trkpt lat="43.690575985" lon="10.942606023"><ele>98</ele><time>2020-01-19T08:53:33Z</time></trkpt>
<trkpt lat="43.69060901" lon="10.942588001"><ele>98</ele><time>2020-01-19T08:53:34Z</time></trkpt>
<trkpt lat="43.690641029" lon="10.942570986"><ele>98</ele><time>2020-01-19T08:53:35Z</time></trkpt>
<trkpt lat="43.690672964" lon="10.942552965"><ele>98</ele><time>2020-01-19T08:53:36Z</time></trkpt>
<trkpt lat="43.690704983" lon="10.942535028"><ele>98</ele><time>2020-01-19T08:53:37Z</time></trkpt>
<trkpt lat="43.690737002" lon="10.942517007"><ele>98</ele><time>2020-01-19T08:53:38Z</time></trkpt>
<trkpt lat="43.69076902" lon="10.94249798"><ele>97</ele><time>2020-01-19T08:53:39Z</time></trkpt>
<trkpt lat="43.690801961" lon="10.942479037"><ele>97</ele><time>2020-01-19T08:53:40Z</time></trkpt>
<trkpt lat="43.69083398" lon="10.942459004"><ele>97</ele><time>2020-01-19T08:53:41Z</time></trkpt>
<trkpt lat="43.690867005" lon="10.942438971"><ele>97</ele><time>2020-01-19T08:53:42Z</time></trkpt>
<trkpt lat="43.690899024" lon="10.942419022"><ele>96</ele><time>2020-01-19T08:53:43Z</time></trkpt>
<trkpt lat="43.690931965" lon="10.94239899"><ele>96</ele><time>2020-01-19T08:53:44Z</time></trkpt>
<trkpt lat="43.690963984" lon="10.942379041"><ele>96</ele><time>2020-01-19T08:53:45Z</time></trkpt>
<trkpt lat="43.690996002" lon="10.942358002"><ele>95</ele><time>2020-01-19T08:53:46Z</time></trkpt>
<trkpt lat="43.691027015" lon="10.942336963"><ele>95</ele><time>2020-01-19T08:53:47Z</time></trkpt>
<trkpt lat="43.691058028" lon="10.942317015"><ele>95</ele><time>2020-01-19T08:53:48Z</time></trkpt>
<trkpt lat="43.691089042" lon="10.942295976"><ele>95</ele><time>2020-01-19T08:53:49Z</time></trkpt>
<trkpt lat="43.691119971" lon="10.942276027"><ele>95</ele><time>2020-01-19T08:53:50Z</time></trkpt>
<trkpt lat="43.691150984" lon="10.942257"><ele>94</ele><time>2020-01-19T08:53:51Z</time></trkpt>
<trkpt lat="43.691183003" lon="10.942238979"><ele>94</ele><time>2020-01-19T08:53:52Z</time></trkpt>
<trkpt lat="43.691214016" lon="10.942221964"><ele>94</ele><time>2020-01-19T08:53:53Z</time></trkpt>
<trkpt lat="43.69124704" lon="10.942206038"><ele>94</ele><time>2020-01-19T08:53:54Z</time></trkpt>
<trkpt lat="43.691278975" lon="10.942191035"><ele>93</ele><time>2020-01-19T08:53:55Z</time></trkpt>
<trkpt lat="43.691312" lon="10.942177959"><ele>93</ele><time>2020-01-19T08:53:56Z</time></trkpt>
<trkpt lat="43.691346031" lon="10.942165973"><ele>93</ele><time>2020-01-19T08:53:57Z</time></trkpt>
<trkpt lat="43.691379977" lon="10.942155998"><ele>93</ele><time>2020-01-19T08:53:58Z</time></trkpt>
<trkpt lat="43.691415014" lon="10.94214703"><ele>93</ele><time>2020-01-19T08:53:59Z</time></trkpt>
<trkpt lat="43.691449966" lon="10.942138983"><ele>93</ele><time>2020-01-19T08:54:00Z</time></trkpt>
<trkpt lat="43.691486008" lon="10.942132026"><ele>92</ele><time>2020-01-19T08:54:01Z</time></trkpt>
<trkpt lat="43.691521967" lon="10.942126997"><ele>92</ele><time>2020-01-19T08:54:02Z</time></trkpt>
<trkpt lat="43.691558009" lon="10.942121968"><ele>92</ele><time>2020-01-19T08:54:03Z</time></trkpt>
<trkpt lat="43.691593967" lon="10.942118028"><ele>92</ele><time>2020-01-19T08:54:04Z</time></trkpt>
<trkpt lat="43.691631015" lon="10.942114005"><ele>92</ele><time>2020-01-19T08:54:05Z</time></trkpt>
<trkpt lat="43.69166798" lon="10.942110987"><ele>92</ele><time>2020-01-19T08:54:06Z</time></trkpt>
<trkpt lat="43.691704022" lon="10.94210797"><ele>91</ele><time>2020-01-19T08:54:07Z</time></trkpt>
<trkpt lat="43.691740986" lon="10.94210403"><ele>91</ele><time>2020-01-19T08:54:08Z</time></trkpt>
<trkpt lat="43.691777028" lon="10.942100007"><ele>91</ele><time>2020-01-19T08:54:09Z</time></trkpt>
<trkpt lat="43.691812987" lon="10.942094978"><ele>91</ele><time>2020-01-19T08:54:10Z</time></trkpt>
<trkpt lat="43.691849029" lon="10.942090033"><ele>90</ele><time>2020-01-19T08:54:11Z</time></trkpt>
<trkpt lat="43.691884987" lon="10.942083998"><ele>90</ele><time>2020-01-19T08:54:12Z</time></trkpt>
<trkpt lat="43.691920023" lon="10.942077963"><ele>90</ele><time>2020-01-19T08:54:13Z</time></trkpt>
<trkpt lat="43.691954976" lon="10.942071006"><ele>90</ele><time>2020-01-19T08:54:14Z</time></trkpt>
<trkpt lat="43.691991018" lon="10.942063965"><ele>90</ele><time>2020-01-19T08:54:15Z</time></trkpt>
<trkpt lat="43.692025971" lon="10.942057008"><ele>89</ele><time>2020-01-19T08:54:16Z</time></trkpt>
<trkpt lat="43.692061007" lon="10.942048961"><ele>89</ele><time>2020-01-19T08:54:17Z</time></trkpt>
<trkpt lat="43.69209596" lon="10.942040998"><ele>89</ele><time>2020-01-19T08:54:18Z</time></trkpt>
<trkpt lat="43.692130996" lon="10.942033036"><ele>89</ele><time>2020-01-19T08:54:19Z</time></trkpt>
<trkpt lat="43.692166032" lon="10.942024989"><ele>88</ele><time>2020-01-19T08:54:20Z</time></trkpt>
<trkpt lat="43.692200985" lon="10.942017026"><ele>88</ele><time>2020-01-19T08:54:21Z</time></trkpt>
<trkpt lat="43.692235015" lon="10.942007974"><ele>88</ele><time>2020-01-19T08:54:22Z</time></trkpt>
<trkpt lat="43.692269968" lon="10.941999005"><ele>88</ele><time>2020-01-19T08:54:23Z</time></trkpt>
<trkpt lat="43.692303998" lon="10.941990037"><ele>88</ele><time>2020-01-19T08:54:24Z</time></trkpt>
<trkpt lat="43.692337023" lon="10.941980984"><ele>87</ele><time>2020-01-19T08:54:25Z</time></trkpt>
<trkpt lat="43.692369964" lon="10.94197101"><ele>87</ele><time>2020-01-19T08:54:26Z</time></trkpt>
<trkpt lat="43.692402989" lon="10.941962041"><ele>87</ele><time>2020-01-19T08:54:27Z</time></trkpt>
<trkpt lat="43.692436013" lon="10.941951983"><ele>87</ele><time>2020-01-19T08:54:28Z</time></trkpt>
<trkpt lat="43.692468032" lon="10.941942008"><ele>87</ele><time>2020-01-19T08:54:29Z</time></trkpt>
<trkpt lat="43.692499967" lon="10.941932034"><ele>86</ele><time>2020-01-19T08:54:30Z</time></trkpt>
<trkpt lat="43.692531986" lon="10.941922981"><ele>86</ele><time>2020-01-19T08:54:31Z</time></trkpt>
<trkpt lat="43.692565011" lon="10.941913007"><ele>86</ele><time>2020-01-19T08:54:32Z</time></trkpt>
<trkpt lat="43.69259703" lon="10.941903032"><ele>86</ele><time>2020-01-19T08:54:33Z</time></trkpt>
<trkpt lat="43.692629971" lon="10.94189398"><ele>86</ele><time>2020-01-19T08:54:34Z</time></trkpt>
<trkpt lat="43.692661989" lon="10.941885011"><ele>85</ele><time>2020-01-19T08:54:35Z</time></trkpt>
<trkpt lat="43.692695014" lon="10.941875959"><ele>85</ele><time>2020-01-19T08:54:36Z</time></trkpt>
<trkpt lat="43.692728039" lon="10.94186699"><ele>85</ele><time>2020-01-19T08:54:37Z</time></trkpt>
<trkpt lat="43.69276098" lon="10.941859027"><ele>85</ele><time>2020-01-19T08:54:38Z</time></trkpt>
<trkpt lat="43.69279501" lon="10.941849975"><ele>85</ele><time>2020-01-19T08:54:39Z</time></trkpt>
<trkpt lat="43.692828035" lon="10.941842012"><ele>85</ele><time>2020-01-19T08:54:40Z</time></trkpt>
<trkpt lat="43.692860976" lon="10.94183296"><ele>84</ele><time>2020-01-19T08:54:41Z</time></trkpt>
<trkpt lat="43.692895006" lon="10.941824997"><ele>84</ele><time>2020-01-19T08:54:42Z</time></trkpt>
<trkpt lat="43.692929037" lon="10.941817034"><ele>84</ele><time>2020-01-19T08:54:43Z</time></trkpt>
<trkpt lat="43.692961978" lon="10.941808987"><ele>84</ele><time>2020-01-19T08:54:44Z</time></trkpt>
<trkpt lat="43.692996008" lon="10.941801025"><ele>84</ele><time>2020-01-19T08:54:45Z</time></trkpt>
<trkpt lat="43.693030039" lon="10.941792978"><ele>84</ele><time>2020-01-19T08:54:46Z</time></trkpt>
<trkpt lat="43.693063986" lon="10.941785015"><ele>83</ele><time>2020-01-19T08:54:47Z</time></trkpt>
<trkpt lat="43.693098016" lon="10.941776969"><ele>83</ele><time>2020-01-19T08:54:48Z</time></trkpt>
<trkpt lat="43.693131963" lon="10.941769006"><ele>83</ele><time>2020-01-19T08:54:49Z</time></trkpt>
<trkpt lat="43.693166999" lon="10.941760959"><ele>83</ele><time>2020-01-19T08:54:50Z</time></trkpt>
<trkpt lat="43.69320103" lon="10.941754002"><ele>83</ele><time>2020-01-19T08:54:51Z</time></trkpt>
<trkpt lat="43.693235982" lon="10.941746039"><ele>83</ele><time>2020-01-19T08:54:52Z</time></trkpt>
<trkpt lat="43.693270013" lon="10.941738999"><ele>82</ele><time>2020-01-19T08:54:53Z</time></trkpt>
<trkpt lat="43.693304965" lon="10.941731036"><ele>82</ele><time>2020-01-19T08:54:54Z</time></trkpt>
<trkpt lat="43.693340002" lon="10.941723995"><ele>82</ele><time>2020-01-19T08:54:55Z</time></trkpt>
<trkpt lat="43.693375038" lon="10.94171796"><ele>82</ele><time>2020-01-19T08:54:56Z</time></trkpt>
<trkpt lat="43.693409991" lon="10.941711003"><ele>82</ele><time>2020-01-19T08:54:57Z</time></trkpt>
<trkpt lat="43.693445027" lon="10.941704968"><ele>82</ele><time>2020-01-19T08:54:58Z</time></trkpt>
<trkpt lat="43.693480985" lon="10.941699017"><ele>81</ele><time>2020-01-19T08:54:59Z</time></trkpt>
<trkpt lat="43.693516022" lon="10.941693988"><ele>81</ele><time>2020-01-19T08:55:00Z</time></trkpt>
<trkpt lat="43.69355198" lon="10.941688959"><ele>81</ele><time>2020-01-19T08:55:01Z</time></trkpt>
<trkpt lat="43.693588022" lon="10.941685019"><ele>81</ele><time>2020-01-19T08:55:02Z</time></trkpt>
<trkpt lat="43.693624986" lon="10.941680996"><ele>81</ele><time>2020-01-19T08:55:03Z</time></trkpt>
<trkpt lat="43.693661029" lon="10.941677978"><ele>80</ele><time>2020-01-19T08:55:04Z</time></trkpt>
<trkpt lat="43.693697993" lon="10.941674961"><ele>80</ele><time>2020-01-19T08:55:05Z</time></trkpt>
<trkpt lat="43.693735041" lon="10.941674039"><ele>80</ele><time>2020-01-19T08:55:06Z</time></trkpt>
<trkpt lat="43.693770999" lon="10.941674039"><ele>80</ele><time>2020-01-19T08:55:07Z</time></trkpt>
<trkpt lat="43.693807963" lon="10.941676972"><ele>80</ele><time>2020-01-19T08:55:08Z</time></trkpt>
<trkpt lat="43.693844005" lon="10.941684013"><ele>80</ele><time>2020-01-19T08:55:09Z</time></trkpt>
<trkpt lat="43.693879042" lon="10.941693988"><ele>79</ele><time>2020-01-19T08:55:10Z</time></trkpt>
<trkpt lat="43.693913994" lon="10.941707985"><ele>79</ele><time>2020-01-19T08:55:11Z</time></trkpt>
<trkpt lat="43.693948025" lon="10.941728018"><ele>79</ele><time>2020-01-19T08:55:12Z</time></trkpt>
<trkpt lat="43.693980966" lon="10.941754002"><ele>79</ele><time>2020-01-19T08:55:13Z</time></trkpt>
<trkpt lat="43.694012985" lon="10.941784009"><ele>79</ele><time>2020-01-19T08:55:14Z</time></trkpt>
<trkpt lat="43.694043998" lon="10.94181804"><ele>78</ele><time>2020-01-19T08:55:15Z</time></trkpt>
<trkpt lat="43.694075011" lon="10.94185601"><ele>78</ele><time>2020-01-19T08:55:16Z</time></trkpt>
<trkpt lat="43.694104012" lon="10.941895992"><ele>78</ele><time>2020-01-19T08:55:17Z</time></trkpt>
<trkpt lat="43.694133013" lon="10.941936979"><ele>78</ele><time>2020-01-19T08:55:18Z</time></trkpt>
<trkpt lat="43.694162015" lon="10.941978972"><ele>78</ele><time>2020-01-19T08:55:19Z</time></trkpt>
<trkpt lat="43.694189005" lon="10.94201996"><ele>77</ele><time>2020-01-19T08:55:20Z</time></trkpt>
<trkpt lat="43.694217" lon="10.942061031"><ele>77</ele><time>2020-01-19T08:55:21Z</time></trkpt>
<trkpt lat="43.69424399" lon="10.942100007"><ele>77</ele><time>2020-01-19T08:55:22Z</time></trkpt>
<trkpt lat="43.69427098" lon="10.942136971"><ele>76</ele><time>2020-01-19T08:55:23Z</time></trkpt>
<trkpt lat="43.694297969" lon="10.942172008"><ele>76</ele><time>2020-01-19T08:55:24Z</time></trkpt>
<trkpt lat="43.694325965" lon="10.942204027"><ele>76</ele><time>2020-01-19T08:55:25Z</time></trkpt>
<trkpt lat="43.694354966" lon="10.942233028"><ele>76</ele><time>2020-01-19T08:55:26Z</time></trkpt>
<trkpt lat="43.694385979" lon="10.942259012"><ele>75</ele><time>2020-01-19T08:55:27Z</time></trkpt>
<trkpt lat="43.694416992" lon="10.942280972"><ele>75</ele><time>2020-01-19T08:55:28Z</time></trkpt>
<trkpt lat="43.694450017" lon="10.942298993"><ele>75</ele><time>2020-01-19T08:55:29Z</time></trkpt>
<trkpt lat="43.69448497" lon="10.942312991"><ele>74</ele><time>2020-01-19T08:55:30Z</time></trkpt>
<trkpt lat="43.694520006" lon="10.942323972"><ele>74</ele><time>2020-01-19T08:55:31Z</time></trkpt>
<trkpt lat="43.694555964" lon="10.942333024"><ele>74</ele><time>2020-01-19T08:55:32Z</time></trkpt>
<trkpt lat="43.694592007" lon="10.942338975"><ele>73</ele><time>2020-01-19T08:55:33Z</time></trkpt>
<trkpt lat="43.694626959" lon="10.942342998"><ele>73</ele><time>2020-01-19T08:55:34Z</time></trkpt>
<trkpt lat="43.69466099" lon="10.942346016"><ele>72</ele><time>2020-01-19T08:55:35Z</time></trkpt>
<trkpt lat="43.69469502" lon="10.942348028"><ele>72</ele><time>2020-01-19T08:55:36Z</time></trkpt>
<trkpt lat="43.694727039" lon="10.942349033"><ele>72</ele><time>2020-01-19T08:55:37Z</time></trkpt>
<trkpt lat="43.694758974" lon="10.942349033"><ele>72</ele><time>2020-01-19T08:55:38Z</time></trkpt>
<trkpt lat="43.694789987" lon="10.942348028"><ele>71</ele><time>2020-01-19T08:55:39Z</time></trkpt>
<trkpt lat="43.694852013" lon="10.942344004"><ele>71</ele><time>2020-01-19T08:55:41Z</time></trkpt>
<trkpt lat="43.694883026" lon="10.942340987"><ele>70</ele><time>2020-01-19T08:55:42Z</time></trkpt>
<trkpt lat="43.694914039" lon="10.942336041"><ele>70</ele><time>2020-01-19T08:55:43Z</time></trkpt>
<trkpt lat="43.69494698" lon="10.942330007"><ele>70</ele><time>2020-01-19T08:55:44Z</time></trkpt>
<trkpt lat="43.694980005" lon="10.942323972"><ele>69</ele><time>2020-01-19T08:55:45Z</time></trkpt>
<trkpt lat="43.695014035" lon="10.942317015"><ele>69</ele><time>2020-01-19T08:55:46Z</time></trkpt>
<trkpt lat="43.695047982" lon="10.942308968"><ele>69</ele><time>2020-01-19T08:55:47Z</time></trkpt>
<trkpt lat="43.695083018" lon="10.942301005"><ele>69</ele><time>2020-01-19T08:55:48Z</time></trkpt>
<trkpt lat="43.695117971" lon="10.942292036"><ele>68</ele><time>2020-01-19T08:55:49Z</time></trkpt>
<trkpt lat="43.695153007" lon="10.942281978"><ele>68</ele><time>2020-01-19T08:55:50Z</time></trkpt>
<trkpt lat="43.69518796" lon="10.942272004"><ele>68</ele><time>2020-01-19T08:55:51Z</time></trkpt>
<trkpt lat="43.69522199" lon="10.942262029"><ele>68</ele><time>2020-01-19T08:55:52Z</time></trkpt>
<trkpt lat="43.695257027" lon="10.942251971"><ele>67</ele><time>2020-01-19T08:55:53Z</time></trkpt>
<trkpt lat="43.695291979" lon="10.942241997"><ele>67</ele><time>2020-01-19T08:55:54Z</time></trkpt>
<trkpt lat="43.69532601" lon="10.942231016"><ele>67</ele><time>2020-01-19T08:55:55Z</time></trkpt>
<trkpt lat="43.695360962" lon="10.942220036"><ele>67</ele><time>2020-01-19T08:55:56Z</time></trkpt>
<trkpt lat="43.695394993" lon="10.942208972"><ele>67</ele><time>2020-01-19T08:55:57Z</time></trkpt>
<trkpt lat="43.695429023" lon="10.942197992"><ele>66</ele><time>2020-01-19T08:55:58Z</time></trkpt>
<trkpt lat="43.69546297" lon="10.942187011"><ele>66</ele><time>2020-01-19T08:55:59Z</time></trkpt>
<trkpt lat="43.695498006" lon="10.942176031"><ele>66</ele><time>2020-01-19T08:56:00Z</time></trkpt>
<trkpt lat="43.695532037" lon="10.942164967"><ele>66</ele><time>2020-01-19T08:56:01Z</time></trkpt>
<trkpt lat="43.695565984" lon="10.942152981"><ele>65</ele><time>2020-01-19T08:56:02Z</time></trkpt>
<trkpt lat="43.695600014" lon="10.942142"><ele>65</ele><time>2020-01-19T08:56:03Z</time></trkpt>
<trkpt lat="43.695633961" lon="10.94213102"><ele>65</ele><time>2020-01-19T08:56:04Z</time></trkpt>
<trkpt lat="43.695666986" lon="10.942119034"><ele>65</ele><time>2020-01-19T08:56:05Z</time></trkpt>
<trkpt lat="43.695701016" lon="10.94210797"><ele>64</ele><time>2020-01-19T08:56:06Z</time></trkpt>
<trkpt lat="43.695734963" lon="10.94209699"><ele>64</ele><time>2020-01-19T08:56:07Z</time></trkpt>
<trkpt lat="43.695768993" lon="10.942086009"><ele>64</ele><time>2020-01-19T08:56:08Z</time></trkpt>
<trkpt lat="43.695803024" lon="10.942075029"><ele>64</ele><time>2020-01-19T08:56:09Z</time></trkpt>
<trkpt lat="43.695836971" lon="10.942063965"><ele>64</ele><time>2020-01-19T08:56:10Z</time></trkpt>
<trkpt lat="43.695871001" lon="10.94205399"><ele>63</ele><time>2020-01-19T08:56:11Z</time></trkpt>
<trkpt lat="43.695905032" lon="10.94204301"><ele>63</ele><time>2020-01-19T08:56:12Z</time></trkpt>
<trkpt lat="43.695938978" lon="10.942033036"><ele>63</ele><time>2020-01-19T08:56:13Z</time></trkpt>
<trkpt lat="43.695973009" lon="10.942022977"><ele>63</ele><time>2020-01-19T08:56:14Z</time></trkpt>
<trkpt lat="43.696007039" lon="10.942014009"><ele>63</ele><time>2020-01-19T08:56:15Z</time></trkpt>
<trkpt lat="43.696041992" lon="10.942004034"><ele>63</ele><time>2020-01-19T08:56:16Z</time></trkpt>
<trkpt lat="43.696076022" lon="10.941994982"><ele>63</ele><time>2020-01-19T08:56:17Z</time></trkpt>
<trkpt lat="43.696109969" lon="10.941987019"><ele>63</ele><time>2020-01-19T08:56:18Z</time></trkpt>
<trkpt lat="43.696145006" lon="10.941978972"><ele>63</ele><time>2020-01-19T08:56:19Z</time></trkpt>
<trkpt lat="43.696249025" lon="10.941957012"><ele>62</ele><time>2020-01-19T08:56:22Z</time></trkpt>
<trkpt lat="43.696283977" lon="10.941950977"><ele>62</ele><time>2020-01-19T08:56:23Z</time></trkpt>
<trkpt lat="43.696319014" lon="10.941945026"><ele>62</ele><time>2020-01-19T08:56:24Z</time></trkpt>
<trkpt lat="43.696353966" lon="10.941939997"><ele>62</ele><time>2020-01-19T08:56:25Z</time></trkpt>
<trkpt lat="43.696390009" lon="10.941935973"><ele>62</ele><time>2020-01-19T08:56:26Z</time></trkpt>
<trkpt lat="43.696424961" lon="10.941931028"><ele>62</ele><time>2020-01-19T08:56:27Z</time></trkpt>
<trkpt lat="43.696459997" lon="10.94192801"><ele>62</ele><time>2020-01-19T08:56:28Z</time></trkpt>
<trkpt lat="43.69649604" lon="10.941923987"><ele>62</ele><time>2020-01-19T08:56:29Z</time></trkpt>
<trkpt lat="43.696530992" lon="10.94192097"><ele>61</ele><time>2020-01-19T08:56:30Z</time></trkpt>
<trkpt lat="43.696566029" lon="10.941918036"><ele>61</ele><time>2020-01-19T08:56:31Z</time></trkpt>
<trkpt lat="43.696600981" lon="10.941916024"><ele>61</ele><time>2020-01-19T08:56:32Z</time></trkpt>
<trkpt lat="43.696636017" lon="10.941914013"><ele>61</ele><time>2020-01-19T08:56:33Z</time></trkpt>
<trkpt lat="43.69667097" lon="10.941912001"><ele>61</ele><time>2020-01-19T08:56:34Z</time></trkpt>
<trkpt lat="43.696706006" lon="10.941909989"><ele>61</ele><time>2020-01-19T08:56:35Z</time></trkpt>
<trkpt lat="43.696740037" lon="10.941907978"><ele>61</ele><time>2020-01-19T08:56:36Z</time></trkpt>
<trkpt lat="43.696774989" lon="10.941906972"><ele>61</ele><time>2020-01-19T08:56:37Z</time></trkpt>
<trkpt lat="43.69680902" lon="10.94190496"><ele>61</ele><time>2020-01-19T08:56:38Z</time></trkpt>
<trkpt lat="43.696841961" lon="10.941904038"><ele>61</ele><time>2020-01-19T08:56:39Z</time></trkpt>
<trkpt lat="43.696875991" lon="10.941902027"><ele>61</ele><time>2020-01-19T08:56:40Z</time></trkpt>
<trkpt lat="43.696909016" lon="10.941901021"><ele>61</ele><time>2020-01-19T08:56:41Z</time></trkpt>
<trkpt lat="43.696942041" lon="10.941900015"><ele>60</ele><time>2020-01-19T08:56:42Z</time></trkpt>
<trkpt lat="43.696974982" lon="10.941898003"><ele>60</ele><time>2020-01-19T08:56:43Z</time></trkpt>
<trkpt lat="43.697007" lon="10.941895992"><ele>60</ele><time>2020-01-19T08:56:44Z</time></trkpt>
<trkpt lat="43.697103979" lon="10.941890962"><ele>60</ele><time>2020-01-19T08:56:47Z</time></trkpt>
<trkpt lat="43.697135998" lon="10.941889035"><ele>60</ele><time>2020-01-19T08:56:48Z</time></trkpt>
<trkpt lat="43.697168017" lon="10.941886017"><ele>60</ele><time>2020-01-19T08:56:49Z</time></trkpt>
<trkpt lat="43.697200036" lon="10.941884005"><ele>60</ele><time>2020-01-19T08:56:50Z</time></trkpt>
<trkpt lat="43.697231971" lon="10.941880988"><ele>60</ele><time>2020-01-19T08:56:51Z</time></trkpt>
<trkpt lat="43.69726399" lon="10.941876965"><ele>60</ele><time>2020-01-19T08:56:52Z</time></trkpt>
<trkpt lat="43.697297014" lon="10.941874031"><ele>60</ele><time>2020-01-19T08:56:53Z</time></trkpt>
<trkpt lat="43.697329033" lon="10.941870008"><ele>60</ele><time>2020-01-19T08:56:54Z</time></trkpt>
<trkpt lat="43.697360968" lon="10.941864979"><ele>60</ele><time>2020-01-19T08:56:55Z</time></trkpt>
<trkpt lat="43.697393993" lon="10.941860033"><ele>60</ele><time>2020-01-19T08:56:56Z</time></trkpt>
<trkpt lat="43.697496001" lon="10.941838995"><ele>59</ele><time>2020-01-19T08:56:59Z</time></trkpt>
<trkpt lat="43.697532965" lon="10.941828014"><ele>59</ele><time>2020-01-19T08:57:00Z</time></trkpt>
<trkpt lat="43.697571019" lon="10.941816028"><ele>59</ele><time>2020-01-19T08:57:01Z</time></trkpt>
<trkpt lat="43.697611" lon="10.941801025"><ele>58</ele><time>2020-01-19T08:57:02Z</time></trkpt>
<trkpt lat="43.697652994" lon="10.941784009"><ele>58</ele><time>2020-01-19T08:57:03Z</time></trkpt>
<trkpt lat="43.697695993" lon="10.941764982"><ele>57</ele><time>2020-01-19T08:57:04Z</time></trkpt>
<trkpt lat="43.697737986" lon="10.941742016"><ele>57</ele><time>2020-01-19T08:57:05Z</time></trkpt>
<trkpt lat="43.697778974" lon="10.941717038"><ele>57</ele><time>2020-01-19T08:57:06Z</time></trkpt>
<trkpt lat="43.697883999" lon="10.94163104"><ele>55</ele><time>2020-01-19T08:57:09Z</time></trkpt>
<trkpt lat="43.69791803" lon="10.941601032"><ele>54</ele><time>2020-01-19T08:57:10Z</time></trkpt>
<trkpt lat="43.697951976" lon="10.941572031"><ele>54</ele><time>2020-01-19T08:57:11Z</time></trkpt>
<trkpt lat="43.697987013" lon="10.941544035"><ele>53</ele><time>2020-01-19T08:57:12Z</time></trkpt>
<trkpt lat="43.698022971" lon="10.941517968"><ele>52</ele><time>2020-01-19T08:57:13Z</time></trkpt>
<trkpt lat="43.698060019" lon="10.941493995"><ele>52</ele><time>2020-01-19T08:57:14Z</time></trkpt>
<trkpt lat="43.698096983" lon="10.941472035"><ele>51</ele><time>2020-01-19T08:57:15Z</time></trkpt>
<trkpt lat="43.698135959" lon="10.941453008"><ele>51</ele><time>2020-01-19T08:57:16Z</time></trkpt>
<trkpt lat="43.698175019" lon="10.941436999"><ele>50</ele><time>2020-01-19T08:57:17Z</time></trkpt>
<trkpt lat="43.698296975" lon="10.94141202"><ele>49</ele><time>2020-01-19T08:57:20Z</time></trkpt>
<trkpt lat="43.698338969" lon="10.941410009"><ele>49</ele><time>2020-01-19T08:57:21Z</time></trkpt>
<trkpt lat="43.698380962" lon="10.94141202"><ele>48</ele><time>2020-01-19T08:57:22Z</time></trkpt>
<trkpt lat="43.698423039" lon="10.94141596"><ele>48</ele><time>2020-01-19T08:57:23Z</time></trkpt>
<trkpt lat="43.698464027" lon="10.941421995"><ele>47</ele><time>2020-01-19T08:57:24Z</time></trkpt>
<trkpt lat="43.698505014" lon="10.941430042"><ele>47</ele><time>2020-01-19T08:57:25Z</time></trkpt>
<trkpt lat="43.698546002" lon="10.941440016"><ele>46</ele><time>2020-01-19T08:57:26Z</time></trkpt>
<trkpt lat="43.698584978" lon="10.941450996"><ele>46</ele><time>2020-01-19T08:57:27Z</time></trkpt>
<trkpt lat="43.698624037" lon="10.941463988"><ele>46</ele><time>2020-01-19T08:57:28Z</time></trkpt>
<trkpt lat="43.698663013" lon="10.94147698"><ele>45</ele><time>2020-01-19T08:57:29Z</time></trkpt>
<trkpt lat="43.698700983" lon="10.941489972"><ele>45</ele><time>2020-01-19T08:57:30Z</time></trkpt>
<trkpt lat="43.698738031" lon="10.94150397"><ele>44</ele><time>2020-01-19T08:57:31Z</time></trkpt>
<trkpt lat="43.698774995" lon="10.941517968"><ele>44</ele><time>2020-01-19T08:57:32Z</time></trkpt>
<trkpt lat="43.698811959" lon="10.94153096"><ele>43</ele><time>2020-01-19T08:57:33Z</time></trkpt>
<trkpt lat="43.698850013" lon="10.941544035"><ele>43</ele><time>2020-01-19T08:57:34Z</time></trkpt>
<trkpt lat="43.698886978" lon="10.941556022"><ele>43</ele><time>2020-01-19T08:57:35Z</time></trkpt>
<trkpt lat="43.698924026" lon="10.941568008"><ele>42</ele><time>2020-01-19T08:57:36Z</time></trkpt>
<trkpt lat="43.698959984" lon="10.941579994"><ele>42</ele><time>2020-01-19T08:57:37Z</time></trkpt>
<trkpt lat="43.698997032" lon="10.941590974"><ele>41</ele><time>2020-01-19T08:57:38Z</time></trkpt>
<trkpt lat="43.69903299" lon="10.941602038"><ele>41</ele><time>2020-01-19T08:57:39Z</time></trkpt>
<trkpt lat="43.699069032" lon="10.941614024"><ele>40</ele><time>2020-01-19T08:57:40Z</time></trkpt>
<trkpt lat="43.699103985" lon="10.94162601"><ele>40</ele><time>2020-01-19T08:57:41Z</time></trkpt>
<trkpt lat="43.699139021" lon="10.941639002"><ele>39</ele><time>2020-01-19T08:57:42Z</time></trkpt>
<trkpt lat="43.699172968" lon="10.941651994"><ele>39</ele><time>2020-01-19T08:57:43Z</time></trkpt>
<trkpt lat="43.699205993" lon="10.941664986"><ele>39</ele><time>2020-01-19T08:57:44Z</time></trkpt>
<trkpt lat="43.699239017" lon="10.941676972"><ele>39</ele><time>2020-01-19T08:57:45Z</time></trkpt>
<trkpt lat="43.699271958" lon="10.941687031"><ele>38</ele><time>2020-01-19T08:57:46Z</time></trkpt>
<trkpt lat="43.699304983" lon="10.941697005"><ele>38</ele><time>2020-01-19T08:57:47Z</time></trkpt>
<trkpt lat="43.699338008" lon="10.94170304"><ele>38</ele><time>2020-01-19T08:57:48Z</time></trkpt>
<trkpt lat="43.699372038" lon="10.941707985"><ele>38</ele><time>2020-01-19T08:57:49Z</time></trkpt>
<trkpt lat="43.699405985" lon="10.941708991"><ele>38</ele><time>2020-01-19T08:57:50Z</time></trkpt>
<trkpt lat="43.699440015" lon="10.941707985"><ele>37</ele><time>2020-01-19T08:57:51Z</time></trkpt>
<trkpt lat="43.699474968" lon="10.941703962"><ele>37</ele><time>2020-01-19T08:57:52Z</time></trkpt>
<trkpt lat="43.699544035" lon="10.941692982"><ele>37</ele><time>2020-01-19T08:57:54Z</time></trkpt>
<trkpt lat="43.699578987" lon="10.941685019"><ele>37</ele><time>2020-01-19T08:57:55Z</time></trkpt>
<trkpt lat="43.699614024" lon="10.941677978"><ele>36</ele><time>2020-01-19T08:57:56Z</time></trkpt>
<trkpt lat="43.69964797" lon="10.941671021"><ele>36</ele><time>2020-01-19T08:57:57Z</time></trkpt>
<trkpt lat="43.699682001" lon="10.94166398"><ele>36</ele><time>2020-01-19T08:57:58Z</time></trkpt>
<trkpt lat="43.699716032" lon="10.941658029"><ele>36</ele><time>2020-01-19T08:57:59Z</time></trkpt>
<trkpt lat="43.699749978" lon="10.941651994"><ele>36</ele><time>2020-01-19T08:58:00Z</time></trkpt>
<trkpt lat="43.699784009" lon="10.941646965"><ele>35</ele><time>2020-01-19T08:58:01Z</time></trkpt>
<trkpt lat="43.699817033" lon="10.94164202"><ele>35</ele><time>2020-01-19T08:58:02Z</time></trkpt>
<trkpt lat="43.699849974" lon="10.941637997"><ele>35</ele><time>2020-01-19T08:58:03Z</time></trkpt>
<trkpt lat="43.699882999" lon="10.941633973"><ele>35</ele><time>2020-01-19T08:58:04Z</time></trkpt>
<trkpt lat="43.699916024" lon="10.941630034"><ele>35</ele><time>2020-01-19T08:58:05Z</time></trkpt>
<trkpt lat="43.699948965" lon="10.94162601"><ele>34</ele><time>2020-01-19T08:58:06Z</time></trkpt>
<trkpt lat="43.699981989" lon="10.941621987"><ele>34</ele><time>2020-01-19T08:58:07Z</time></trkpt>
<trkpt lat="43.700014008" lon="10.941617042"><ele>34</ele><time>2020-01-19T08:58:08Z</time></trkpt>
<trkpt lat="43.700047033" lon="10.941613019"><ele>34</ele><time>2020-01-19T08:58:09Z</time></trkpt>
<trkpt lat="43.700079974" lon="10.941608995"><ele>34</ele><time>2020-01-19T08:58:10Z</time></trkpt>
<trkpt lat="43.700111993" lon="10.941603966"><ele>34</ele><time>2020-01-19T08:58:11Z</time></trkpt>
<trkpt lat="43.700145017" lon="10.941599021"><ele>34</ele><time>2020-01-19T08:58:12Z</time></trkpt>
<trkpt lat="43.700177958" lon="10.941592986"><ele>34</ele><time>2020-01-19T08:58:13Z</time></trkpt>
<trkpt lat="43.700209977" lon="10.941587035"><ele>33</ele><time>2020-01-19T08:58:14Z</time></trkpt>
<trkpt lat="43.700243002" lon="10.941581"><ele>33</ele><time>2020-01-19T08:58:15Z</time></trkpt>
<trkpt lat="43.700276027" lon="10.941573959"><ele>33</ele><time>2020-01-19T08:58:16Z</time></trkpt>
<trkpt lat="43.700308967" lon="10.941567002"><ele>33</ele><time>2020-01-19T08:58:17Z</time></trkpt>
<trkpt lat="43.700341992" lon="10.941559039"><ele>33</ele><time>2020-01-19T08:58:18Z</time></trkpt>
<trkpt lat="43.700375017" lon="10.941551998"><ele>33</ele><time>2020-01-19T08:58:19Z</time></trkpt>
<trkpt lat="43.700408041" lon="10.941544035"><ele>33</ele><time>2020-01-19T08:58:20Z</time></trkpt>
<trkpt lat="43.700439977" lon="10.941535989"><ele>33</ele><time>2020-01-19T08:58:21Z</time></trkpt>
<trkpt lat="43.700473001" lon="10.941529032"><ele>33</ele><time>2020-01-19T08:58:22Z</time></trkpt>
<trkpt lat="43.700506026" lon="10.941520985"><ele>33</ele><time>2020-01-19T08:58:23Z</time></trkpt>
<trkpt lat="43.700538967" lon="10.941514028"><ele>32</ele><time>2020-01-19T08:58:24Z</time></trkpt>
<trkpt lat="43.700570986" lon="10.941505982"><ele>32</ele><time>2020-01-19T08:58:25Z</time></trkpt>
<trkpt lat="43.70060401" lon="10.941499025"><ele>32</ele><time>2020-01-19T08:58:26Z</time></trkpt>
<trkpt lat="43.700637035" lon="10.94149299"><ele>32</ele><time>2020-01-19T08:58:27Z</time></trkpt>
<trkpt lat="43.70066897" lon="10.941487039"><ele>32</ele><time>2020-01-19T08:58:28Z</time></trkpt>
<trkpt lat="43.700700989" lon="10.941481004"><ele>32</ele><time>2020-01-19T08:58:29Z</time></trkpt>
<trkpt lat="43.700733008" lon="10.941475974"><ele>32</ele><time>2020-01-19T08:58:30Z</time></trkpt>
<trkpt lat="43.700829986" lon="10.941460971"><ele>32</ele><time>2020-01-19T08:58:33Z</time></trkpt>
<trkpt lat="43.700862005" lon="10.94145502"><ele>32</ele><time>2020-01-19T08:58:34Z</time></trkpt>
<trkpt lat="43.700894024" lon="10.941448985"><ele>31</ele><time>2020-01-19T08:58:35Z</time></trkpt>
<trkpt lat="43.700926965" lon="10.941441022"><ele>31</ele><time>2020-01-19T08:58:36Z</time></trkpt>
<trkpt lat="43.700958984" lon="10.941432975"><ele>31</ele><time>2020-01-19T08:58:37Z</time></trkpt>
<trkpt lat="43.700992009" lon="10.941423001"><ele>31</ele><time>2020-01-19T08:58:38Z</time></trkpt>
<trkpt lat="43.701025033" lon="10.941411015"><ele>31</ele><time>2020-01-19T08:58:39Z</time></trkpt>
<trkpt lat="43.701057974" lon="10.941399029"><ele>31</ele><time>2020-01-19T08:58:40Z</time></trkpt>
<trkpt lat="43.701092005" lon="10.941386037"><ele>31</ele><time>2020-01-19T08:58:41Z</time></trkpt>
<trkpt lat="43.701125029" lon="10.941372961"><ele>31</ele><time>2020-01-19T08:58:42Z</time></trkpt>
<trkpt lat="43.70115797" lon="10.941359969"><ele>31</ele><time>2020-01-19T08:58:43Z</time></trkpt>
<trkpt lat="43.701192001" lon="10.941346977"><ele>31</ele><time>2020-01-19T08:58:44Z</time></trkpt>
<trkpt lat="43.701225026" lon="10.941334991"><ele>31</ele><time>2020-01-19T08:58:45Z</time></trkpt>
<trkpt lat="43.701257966" lon="10.941323005"><ele>31</ele><time>2020-01-19T08:58:46Z</time></trkpt>
<trkpt lat="43.701290991" lon="10.941312024"><ele>31</ele><time>2020-01-19T08:58:47Z</time></trkpt>
<trkpt lat="43.701324016" lon="10.94130096"><ele>31</ele><time>2020-01-19T08:58:48Z</time></trkpt>
<trkpt lat="43.701357041" lon="10.94128998"><ele>31</ele><time>2020-01-19T08:58:49Z</time></trkpt>
<trkpt lat="43.701389981" lon="10.941280005"><ele>31</ele><time>2020-01-19T08:58:50Z</time></trkpt>
<trkpt lat="43.701423006" lon="10.941270031"><ele>31</ele><time>2020-01-19T08:58:51Z</time></trkpt>
<trkpt lat="43.701456031" lon="10.941258967"><ele>31</ele><time>2020-01-19T08:58:52Z</time></trkpt>
<trkpt lat="43.701488972" lon="10.941248992"><ele>30</ele><time>2020-01-19T08:58:53Z</time></trkpt>
<trkpt lat="43.701521996" lon="10.941239018"><ele>30</ele><time>2020-01-19T08:58:54Z</time></trkpt>
<trkpt lat="43.701556027" lon="10.94122896"><ele>30</ele><time>2020-01-19T08:58:55Z</time></trkpt>
<trkpt lat="43.701588968" lon="10.941217979"><ele>30</ele><time>2020-01-19T08:58:56Z</time></trkpt>
<trkpt lat="43.701621993" lon="10.941208005"><ele>30</ele><time>2020-01-19T08:58:57Z</time></trkpt>
<trkpt lat="43.701655017" lon="10.941197025"><ele>30</ele><time>2020-01-19T08:58:58Z</time></trkpt>
<trkpt lat="43.701687036" lon="10.941185961"><ele>30</ele><time>2020-01-19T08:58:59Z</time></trkpt>
<trkpt lat="43.701719977" lon="10.941173974"><ele>30</ele><time>2020-01-19T08:59:00Z</time></trkpt>
<trkpt lat="43.701751996" lon="10.941161988"><ele>30</ele><time>2020-01-19T08:59:01Z</time></trkpt>
<trkpt lat="43.701783009" lon="10.941150002"><ele>30</ele><time>2020-01-19T08:59:02Z</time></trkpt>
<trkpt lat="43.701815028" lon="10.94113701"><ele>30</ele><time>2020-01-19T08:59:03Z</time></trkpt>
<trkpt lat="43.701846041" lon="10.941125024"><ele>30</ele><time>2020-01-19T08:59:04Z</time></trkpt>
<trkpt lat="43.70187697" lon="10.941113038"><ele>30</ele><time>2020-01-19T08:59:05Z</time></trkpt>
<trkpt lat="43.701907983" lon="10.941101974"><ele>30</ele><time>2020-01-19T08:59:06Z</time></trkpt>
<trkpt lat="43.701938996" lon="10.941090994"><ele>30</ele><time>2020-01-19T08:59:07Z</time></trkpt>
<trkpt lat="43.701970009" lon="10.941082025"><ele>30</ele><time>2020-01-19T08:59:08Z</time></trkpt>
<trkpt lat="43.702001022" lon="10.941072972"><ele>30</ele><time>2020-01-19T08:59:09Z</time></trkpt>
<trkpt lat="43.702032035" lon="10.94106501"><ele>30</ele><time>2020-01-19T08:59:10Z</time></trkpt>
<trkpt lat="43.702060031" lon="10.941056963"><ele>30</ele><time>2020-01-19T08:59:11Z</time></trkpt>
<trkpt lat="43.702086015" lon="10.941049"><ele>30</ele><time>2020-01-19T08:59:12Z</time></trkpt>
<trkpt lat="43.702108981" lon="10.941041037"><ele>30</ele><time>2020-01-19T08:59:13Z</time></trkpt>
<trkpt lat="43.702131025" lon="10.941031985"><ele>30</ele><time>2020-01-19T08:59:14Z</time></trkpt>
<trkpt lat="43.702152986" lon="10.941023016"><ele>30</ele><time>2020-01-19T08:59:15Z</time></trkpt>
<trkpt lat="43.702177964" lon="10.941013964"><ele>30</ele><time>2020-01-19T08:59:16Z</time></trkpt>
<trkpt lat="43.702206966" lon="10.941004995"><ele>30</ele><time>2020-01-19T08:59:17Z</time></trkpt>
<trkpt lat="43.702289024" lon="10.940955961"><ele>29</ele><time>2020-01-19T08:59:20Z</time></trkpt>
<trkpt lat="43.702304028" lon="10.940925032"><ele>29</ele><time>2020-01-19T08:59:21Z</time></trkpt>
<trkpt lat="43.702308973" lon="10.94088899"><ele>29</ele><time>2020-01-19T08:59:22Z</time></trkpt>
<trkpt lat="43.70230604" lon="10.940852026"><ele>29</ele><time>2020-01-19T08:59:23Z</time></trkpt>
<trkpt lat="43.702250971" lon="10.940758986"><ele>29</ele><time>2020-01-19T08:59:26Z</time></trkpt>
<trkpt lat="43.702221969" lon="10.94073602"><ele>29</ele><time>2020-01-19T08:59:27Z</time></trkpt>
<trkpt lat="43.702192968" lon="10.940713976"><ele>29</ele><time>2020-01-19T08:59:28Z</time></trkpt>
<trkpt lat="43.702163966" lon="10.940692015"><ele>29</ele><time>2020-01-19T08:59:29Z</time></trkpt>
<trkpt lat="43.702135971" lon="10.940669971"><ele>29</ele><time>2020-01-19T08:59:30Z</time></trkpt>
<trkpt lat="43.702107975" lon="10.94064801"><ele>29</ele><time>2020-01-19T08:59:31Z</time></trkpt>
<trkpt lat="43.70207998" lon="10.940625966"><ele>29</ele><time>2020-01-19T08:59:32Z</time></trkpt>
<trkpt lat="43.70205299" lon="10.940604005"><ele>29</ele><time>2020-01-19T08:59:33Z</time></trkpt>
<trkpt lat="43.702024994" lon="10.940581961"><ele>29</ele><time>2020-01-19T08:59:34Z</time></trkpt>
<trkpt lat="43.701996999" lon="10.940558994"><ele>29</ele><time>2020-01-19T08:59:35Z</time></trkpt>
<trkpt lat="43.701967997" lon="10.940537034"><ele>29</ele><time>2020-01-19T08:59:36Z</time></trkpt>
<trkpt lat="43.701940002" lon="10.940513983"><ele>29</ele><time>2020-01-19T08:59:37Z</time></trkpt>
<trkpt lat="43.701911001" lon="10.940492023"><ele>29</ele><time>2020-01-19T08:59:38Z</time></trkpt>
<trkpt lat="43.701883005" lon="10.940468973"><ele>29</ele><time>2020-01-19T08:59:39Z</time></trkpt>
<trkpt lat="43.701854004" lon="10.940447012"><ele>29</ele><time>2020-01-19T08:59:40Z</time></trkpt>
<trkpt lat="43.701825002" lon="10.940423962"><ele>29</ele><time>2020-01-19T08:59:41Z</time></trkpt>
<trkpt lat="43.701797007" lon="10.940402001"><ele>29</ele><time>2020-01-19T08:59:42Z</time></trkpt>
<trkpt lat="43.701768005" lon="10.940379035"><ele>29</ele><time>2020-01-19T08:59:43Z</time></trkpt>
<trkpt lat="43.701739004" lon="10.94035699"><ele>29</ele><time>2020-01-19T08:59:44Z</time></trkpt>
<trkpt lat="43.701710002" lon="10.94033503"><ele>29</ele><time>2020-01-19T08:59:45Z</time></trkpt>
<trkpt lat="43.701681001" lon="10.940313991"><ele>29</ele><time>2020-01-19T08:59:46Z</time></trkpt>
<trkpt lat="43.701652" lon="10.940292031"><ele>29</ele><time>2020-01-19T08:59:47Z</time></trkpt>
<trkpt lat="43.701624004" lon="10.940270992"><ele>30</ele><time>2020-01-19T08:59:48Z</time></trkpt>
<trkpt lat="43.701595003" lon="10.940250959"><ele>30</ele><time>2020-01-19T08:59:49Z</time></trkpt>
<trkpt lat="43.701566001" lon="10.940230004"><ele>30</ele><time>2020-01-19T08:59:50Z</time></trkpt>
<trkpt lat="43.701537" lon="10.940209972"><ele>30</ele><time>2020-01-19T08:59:51Z</time></trkpt>
<trkpt lat="43.701509004" lon="10.940190023"><ele>30</ele><time>2020-01-19T08:59:52Z</time></trkpt>
<trkpt lat="43.701480003" lon="10.94016999"><ele>30</ele><time>2020-01-19T08:59:53Z</time></trkpt>
<trkpt lat="43.701451002" lon="10.940150041"><ele>30</ele><time>2020-01-19T08:59:54Z</time></trkpt>
<trkpt lat="43.701422" lon="10.940131014"><ele>30</ele><time>2020-01-19T08:59:55Z</time></trkpt>
<trkpt lat="43.701392999" lon="10.940111987"><ele>30</ele><time>2020-01-19T08:59:56Z</time></trkpt>
<trkpt lat="43.701309012" lon="10.940052979"><ele>30</ele><time>2020-01-19T08:59:59Z</time></trkpt>
<trkpt lat="43.701282023" lon="10.940031018"><ele>30</ele><time>2020-01-19T09:00:00Z</time></trkpt>
<trkpt lat="43.701256039" lon="10.940006962"><ele>31</ele><time>2020-01-19T09:00:01Z</time></trkpt>
<trkpt lat="43.701229971" lon="10.939979972"><ele>31</ele><time>2020-01-19T09:00:02Z</time></trkpt>
<trkpt lat="43.701205999" lon="10.939948959"><ele>31</ele><time>2020-01-19T09:00:03Z</time></trkpt>
<trkpt lat="43.701183032" lon="10.939913001"><ele>31</ele><time>2020-01-19T09:00:04Z</time></trkpt>
<trkpt lat="43.701162999" lon="10.939873019"><ele>31</ele><time>2020-01-19T09:00:05Z</time></trkpt>
<trkpt lat="43.701149002" lon="10.939831026"><ele>31</ele><time>2020-01-19T09:00:06Z</time></trkpt>
<trkpt lat="43.701142967" lon="10.939787021"><ele>31</ele><time>2020-01-19T09:00:07Z</time></trkpt>
<trkpt lat="43.701144978" lon="10.93974201"><ele>31</ele><time>2020-01-19T09:00:08Z</time></trkpt>
<trkpt lat="43.701155037" lon="10.939696999"><ele>31</ele><time>2020-01-19T09:00:09Z</time></trkpt>
<trkpt lat="43.701170962" lon="10.939651988"><ele>30</ele><time>2020-01-19T09:00:10Z</time></trkpt>
<trkpt lat="43.70120801" lon="10.939563978"><ele>30</ele><time>2020-01-19T09:00:12Z</time></trkpt>
<trkpt lat="43.701227959" lon="10.939520979"><ele>30</ele><time>2020-01-19T09:00:13Z</time></trkpt>
<trkpt lat="43.701247992" lon="10.93947798"><ele>30</ele><time>2020-01-19T09:00:14Z</time></trkpt>
<trkpt lat="43.701268025" lon="10.939436993"><ele>30</ele><time>2020-01-19T09:00:15Z</time></trkpt>
<trkpt lat="43.701287974" lon="10.939394999"><ele>30</ele><time>2020-01-19T09:00:16Z</time></trkpt>
<trkpt lat="43.701308006" lon="10.939355018"><ele>30</ele><time>2020-01-19T09:00:17Z</time></trkpt>
<trkpt lat="43.701327033" lon="10.939315036"><ele>29</ele><time>2020-01-19T09:00:18Z</time></trkpt>
<trkpt lat="43.701346982" lon="10.93927497"><ele>29</ele><time>2020-01-19T09:00:19Z</time></trkpt>
<trkpt lat="43.701365003" lon="10.939235995"><ele>29</ele><time>2020-01-19T09:00:20Z</time></trkpt>
<trkpt lat="43.70138403" lon="10.939198025"><ele>29</ele><time>2020-01-19T09:00:21Z</time></trkpt>
<trkpt lat="43.701401968" lon="10.939158965"><ele>29</ele><time>2020-01-19T09:00:22Z</time></trkpt>
<trkpt lat="43.701418983" lon="10.939120995"><ele>29</ele><time>2020-01-19T09:00:23Z</time></trkpt>
<trkpt lat="43.701437004" lon="10.939083025"><ele>29</ele><time>2020-01-19T09:00:24Z</time></trkpt>
<trkpt lat="43.701454019" lon="10.939044971"><ele>29</ele><time>2020-01-19T09:00:25Z</time></trkpt>
<trkpt lat="43.70147204" lon="10.939005995"><ele>29</ele><time>2020-01-19T09:00:26Z</time></trkpt>
<trkpt lat="43.701488972" lon="10.938968025"><ele>29</ele><time>2020-01-19T09:00:27Z</time></trkpt>
<trkpt lat="43.701506993" lon="10.938928965"><ele>29</ele><time>2020-01-19T09:00:28Z</time></trkpt>
<trkpt lat="43.701524008" lon="10.938888984"><ele>29</ele><time>2020-01-19T09:00:29Z</time></trkpt>
<trkpt lat="43.701542029" lon="10.938850008"><ele>29</ele><time>2020-01-19T09:00:30Z</time></trkpt>
<trkpt lat="43.701558961" lon="10.938810026"><ele>29</ele><time>2020-01-19T09:00:31Z</time></trkpt>
<trkpt lat="43.701576982" lon="10.938769961"><ele>29</ele><time>2020-01-19T09:00:32Z</time></trkpt>
<trkpt lat="43.701593997" lon="10.938729979"><ele>29</ele><time>2020-01-19T09:00:33Z</time></trkpt>
<trkpt lat="43.701610006" lon="10.938689997"><ele>29</ele><time>2020-01-19T09:00:34Z</time></trkpt>
<trkpt lat="43.701627022" lon="10.938650016"><ele>29</ele><time>2020-01-19T09:00:35Z</time></trkpt>
<trkpt lat="43.701642025" lon="10.938610034"><ele>29</ele><time>2020-01-19T09:00:36Z</time></trkpt>
<trkpt lat="43.701685024" lon="10.938488999"><ele>29</ele><time>2020-01-19T09:00:39Z</time></trkpt>
<trkpt lat="43.701698016" lon="10.938449018"><ele>29</ele><time>2020-01-19T09:00:40Z</time></trkpt>
<trkpt lat="43.701711008" lon="10.938409036"><ele>29</ele><time>2020-01-19T09:00:41Z</time></trkpt>
<trkpt lat="43.701722994" lon="10.938367965"><ele>29</ele><time>2020-01-19T09:00:42Z</time></trkpt>
<trkpt lat="43.701733975" lon="10.938326977"><ele>29</ele><time>2020-01-19T09:00:43Z</time></trkpt>
<trkpt lat="43.701744033" lon="10.93828599"><ele>29</ele><time>2020-01-19T09:00:44Z</time></trkpt>
<trkpt lat="43.701754007" lon="10.938245002"><ele>29</ele><time>2020-01-19T09:00:45Z</time></trkpt>
<trkpt lat="43.701762976" lon="10.938203009"><ele>29</ele><time>2020-01-19T09:00:46Z</time></trkpt>
<trkpt lat="43.701772029" lon="10.938161016"><ele>29</ele><time>2020-01-19T09:00:47Z</time></trkpt>
<trkpt lat="43.701779991" lon="10.938119022"><ele>29</ele><time>2020-01-19T09:00:48Z</time></trkpt>
<trkpt lat="43.701786026" lon="10.938076023"><ele>29</ele><time>2020-01-19T09:00:49Z</time></trkpt>
<trkpt lat="43.701792983" lon="10.938033024"><ele>29</ele><time>2020-01-19T09:00:50Z</time></trkpt>
<trkpt lat="43.701798012" lon="10.937989019"><ele>29</ele><time>2020-01-19T09:00:51Z</time></trkpt>
<trkpt lat="43.701803042" lon="10.937945014"><ele>28</ele><time>2020-01-19T09:00:52Z</time></trkpt>
<trkpt lat="43.701806981" lon="10.937900003"><ele>28</ele><time>2020-01-19T09:00:53Z</time></trkpt>
<trkpt lat="43.701811004" lon="10.937854992"><ele>28</ele><time>2020-01-19T09:00:54Z</time></trkpt>
<trkpt lat="43.701815028" lon="10.937809981"><ele>28</ele><time>2020-01-19T09:00:55Z</time></trkpt>
<trkpt lat="43.701817961" lon="10.937764971"><ele>28</ele><time>2020-01-19T09:00:56Z</time></trkpt>
<trkpt lat="43.701820979" lon="10.937719038"><ele>28</ele><time>2020-01-19T09:00:57Z</time></trkpt>
<trkpt lat="43.701825002" lon="10.937674027"><ele>28</ele><time>2020-01-19T09:00:58Z</time></trkpt>
<trkpt lat="43.70182802" lon="10.93762801"><ele>28</ele><time>2020-01-19T09:00:59Z</time></trkpt>
<trkpt lat="43.701831959" lon="10.937581994"><ele>28</ele><time>2020-01-19T09:01:00Z</time></trkpt>
<trkpt lat="43.701836988" lon="10.937536983"><ele>28</ele><time>2020-01-19T09:01:01Z</time></trkpt>
<trkpt lat="43.701843023" lon="10.937491972"><ele>28</ele><time>2020-01-19T09:01:02Z</time></trkpt>
<trkpt lat="43.701848974" lon="10.937446961"><ele>28</ele><time>2020-01-19T09:01:03Z</time></trkpt>
<trkpt lat="43.701857021" lon="10.93740304"><ele>28</ele><time>2020-01-19T09:01:04Z</time></trkpt>
<trkpt lat="43.701866996" lon="10.937360041"><ele>28</ele><time>2020-01-19T09:01:05Z</time></trkpt>
<trkpt lat="43.701878982" lon="10.937317042"><ele>28</ele><time>2020-01-19T09:01:06Z</time></trkpt>
<trkpt lat="43.701891974" lon="10.937274965"><ele>28</ele><time>2020-01-19T09:01:07Z</time></trkpt>
<trkpt lat="43.701907983" lon="10.937234983"><ele>28</ele><time>2020-01-19T09:01:08Z</time></trkpt>
<trkpt lat="43.701923992" lon="10.937195001"><ele>28</ele><time>2020-01-19T09:01:09Z</time></trkpt>
<trkpt lat="43.701942014" lon="10.937156025"><ele>28</ele><time>2020-01-19T09:01:10Z</time></trkpt>
<trkpt lat="43.70196104" lon="10.937117971"><ele>28</ele><time>2020-01-19T09:01:11Z</time></trkpt>
<trkpt lat="43.701980989" lon="10.937081007"><ele>28</ele><time>2020-01-19T09:01:12Z</time></trkpt>
<trkpt lat="43.702000016" lon="10.937043959"><ele>28</ele><time>2020-01-19T09:01:13Z</time></trkpt>
<trkpt lat="43.702019965" lon="10.937009007"><ele>28</ele><time>2020-01-19T09:01:14Z</time></trkpt>
<trkpt lat="43.702038992" lon="10.93697397"><ele>28</ele><time>2020-01-19T09:01:15Z</time></trkpt>
<trkpt lat="43.702058019" lon="10.936939018"><ele>28</ele><time>2020-01-19T09:01:16Z</time></trkpt>
<trkpt lat="43.702076962" lon="10.936904987"><ele>28</ele><time>2020-01-19T09:01:17Z</time></trkpt>
<trkpt lat="43.702094983" lon="10.936871041"><ele>28</ele><time>2020-01-19T09:01:18Z</time></trkpt>
<trkpt lat="43.702113004" lon="10.93683701"><ele>28</ele><time>2020-01-19T09:01:19Z</time></trkpt>
<trkpt lat="43.702131025" lon="10.936801974"><ele>29</ele><time>2020-01-19T09:01:20Z</time></trkpt>
<trkpt lat="43.702148963" lon="10.936768027"><ele>29</ele><time>2020-01-19T09:01:21Z</time></trkpt>
<trkpt lat="43.70216799" lon="10.936732991"><ele>29</ele><time>2020-01-19T09:01:22Z</time></trkpt>
<trkpt lat="43.702186011" lon="10.936698038"><ele>29</ele><time>2020-01-19T09:01:23Z</time></trkpt>
<trkpt lat="43.702204032" lon="10.936661996"><ele>29</ele><time>2020-01-19T09:01:24Z</time></trkpt>
<trkpt lat="43.702222975" lon="10.936626038"><ele>29</ele><time>2020-01-19T09:01:25Z</time></trkpt>
<trkpt lat="43.702240996" lon="10.936589995"><ele>29</ele><time>2020-01-19T09:01:26Z</time></trkpt>
<trkpt lat="43.702260023" lon="10.936553031"><ele>29</ele><time>2020-01-19T09:01:27Z</time></trkpt>
<trkpt lat="43.702278966" lon="10.936515983"><ele>29</ele><time>2020-01-19T09:01:28Z</time></trkpt>
<trkpt lat="43.702296987" lon="10.936478013"><ele>29</ele><time>2020-01-19T09:01:29Z</time></trkpt>
<trkpt lat="43.702316014" lon="10.936440965"><ele>29</ele><time>2020-01-19T09:01:30Z</time></trkpt>
<trkpt lat="43.702335041" lon="10.936404001"><ele>29</ele><time>2020-01-19T09:01:31Z</time></trkpt>
<trkpt lat="43.702353984" lon="10.936366031"><ele>29</ele><time>2020-01-19T09:01:32Z</time></trkpt>
<trkpt lat="43.702372005" lon="10.936328983"><ele>29</ele><time>2020-01-19T09:01:33Z</time></trkpt>
<trkpt lat="43.702391032" lon="10.936292019"><ele>29</ele><time>2020-01-19T09:01:34Z</time></trkpt>
<trkpt lat="43.702409975" lon="10.936254971"><ele>29</ele><time>2020-01-19T09:01:35Z</time></trkpt>
<trkpt lat="43.702427996" lon="10.936218007"><ele>29</ele><time>2020-01-19T09:01:36Z</time></trkpt>
<trkpt lat="43.702447023" lon="10.936181964"><ele>29</ele><time>2020-01-19T09:01:37Z</time></trkpt>
<trkpt lat="43.702464961" lon="10.936146006"><ele>29</ele><time>2020-01-19T09:01:38Z</time></trkpt>
<trkpt lat="43.702482982" lon="10.936109964"><ele>29</ele><time>2020-01-19T09:01:39Z</time></trkpt>
<trkpt lat="43.702501003" lon="10.936075011"><ele>29</ele><time>2020-01-19T09:01:40Z</time></trkpt>
<trkpt lat="43.702519024" lon="10.936039975"><ele>29</ele><time>2020-01-19T09:01:41Z</time></trkpt>
<trkpt lat="43.702536961" lon="10.936004017"><ele>29</ele><time>2020-01-19T09:01:42Z</time></trkpt>
<trkpt lat="43.702554982" lon="10.935967974"><ele>29</ele><time>2020-01-19T09:01:43Z</time></trkpt>
<trkpt lat="43.702571997" lon="10.935932016"><ele>29</ele><time>2020-01-19T09:01:44Z</time></trkpt>
<trkpt lat="43.702589013" lon="10.935893962"><ele>29</ele><time>2020-01-19T09:01:45Z</time></trkpt>
<trkpt lat="43.702606028" lon="10.935855992"><ele>29</ele><time>2020-01-19T09:01:46Z</time></trkpt>
<trkpt lat="43.702622037" lon="10.93581601"><ele>29</ele><time>2020-01-19T09:01:47Z</time></trkpt>
<trkpt lat="43.702634024" lon="10.935776029"><ele>28</ele><time>2020-01-19T09:01:48Z</time></trkpt>
<trkpt lat="43.702638969" lon="10.935738981"><ele>28</ele><time>2020-01-19T09:01:49Z</time></trkpt>
<trkpt lat="43.702635029" lon="10.935705034"><ele>28</ele><time>2020-01-19T09:01:50Z</time></trkpt>
<trkpt lat="43.70261902" lon="10.935677039"><ele>28</ele><time>2020-01-19T09:01:51Z</time></trkpt>
<trkpt lat="43.702593036" lon="10.935651977"><ele>28</ele><time>2020-01-19T09:01:52Z</time></trkpt>
<trkpt lat="43.702533022" lon="10.935606966"><ele>28</ele><time>2020-01-19T09:01:54Z</time></trkpt>
<trkpt lat="43.702503014" lon="10.935586011"><ele>28</ele><time>2020-01-19T09:01:55Z</time></trkpt>
<trkpt lat="43.702472001" lon="10.935564972"><ele>28</ele><time>2020-01-19T09:01:56Z</time></trkpt>
<trkpt lat="43.702441994" lon="10.935544018"><ele>28</ele><time>2020-01-19T09:01:57Z</time></trkpt>
<trkpt lat="43.702411987" lon="10.935523985"><ele>28</ele><time>2020-01-19T09:01:58Z</time></trkpt>
<trkpt lat="43.70238198" lon="10.935502024"><ele>28</ele><time>2020-01-19T09:01:59Z</time></trkpt>
<trkpt lat="43.702352978" lon="10.935480986"><ele>29</ele><time>2020-01-19T09:02:00Z</time></trkpt>
<trkpt lat="43.702323977" lon="10.935458019"><ele>29</ele><time>2020-01-19T09:02:01Z</time></trkpt>
<trkpt lat="43.702295981" lon="10.935434969"><ele>29</ele><time>2020-01-19T09:02:02Z</time></trkpt>
<trkpt lat="43.702268992" lon="10.935410997"><ele>29</ele><time>2020-01-19T09:02:03Z</time></trkpt>
<trkpt lat="43.702243008" lon="10.935387025"><ele>29</ele><time>2020-01-19T09:02:04Z</time></trkpt>
<trkpt lat="43.702216018" lon="10.935361963"><ele>29</ele><time>2020-01-19T09:02:05Z</time></trkpt>
<trkpt lat="43.70219104" lon="10.935335979"><ele>29</ele><time>2020-01-19T09:02:06Z</time></trkpt>
<trkpt lat="43.702164972" lon="10.935311001"><ele>29</ele><time>2020-01-19T09:02:07Z</time></trkpt>
<trkpt lat="43.702139994" lon="10.935286023"><ele>29</ele><time>2020-01-19T09:02:08Z</time></trkpt>
<trkpt lat="43.702116022" lon="10.935260961"><ele>29</ele><time>2020-01-19T09:02:09Z</time></trkpt>
<trkpt lat="43.70209096" lon="10.935236989"><ele>29</ele><time>2020-01-19T09:02:10Z</time></trkpt>
<trkpt lat="43.702067994" lon="10.935212011"><ele>29</ele><time>2020-01-19T09:02:11Z</time></trkpt>
<trkpt lat="43.702045027" lon="10.935187032"><ele>29</ele><time>2020-01-19T09:02:12Z</time></trkpt>
<trkpt lat="43.702022983" lon="10.935160965"><ele>29</ele><time>2020-01-19T09:02:13Z</time></trkpt>
<trkpt lat="43.702003034" lon="10.935132969"><ele>29</ele><time>2020-01-19T09:02:14Z</time></trkpt>
<trkpt lat="43.701986019" lon="10.935102962"><ele>29</ele><time>2020-01-19T09:02:15Z</time></trkpt>
<trkpt lat="43.701970009" lon="10.935071027"><ele>30</ele><time>2020-01-19T09:02:16Z</time></trkpt>
<trkpt lat="43.701957017" lon="10.935034985"><ele>30</ele><time>2020-01-19T09:02:17Z</time></trkpt>
<trkpt lat="43.701936984" lon="10.934909005"><ele>30</ele><time>2020-01-19T09:02:20Z</time></trkpt>
<trkpt lat="43.701934973" lon="10.934862988"><ele>30</ele><time>2020-01-19T09:02:21Z</time></trkpt>
<trkpt lat="43.701935979" lon="10.93481496"><ele>30</ele><time>2020-01-19T09:02:22Z</time></trkpt>
<trkpt lat="43.701938996" lon="10.934767015"><ele>30</ele><time>2020-01-19T09:02:23Z</time></trkpt>
<trkpt lat="43.701943019" lon="10.934718987"><ele>31</ele><time>2020-01-19T09:02:24Z</time></trkpt>
<trkpt lat="43.701948971" lon="10.934671964"><ele>31</ele><time>2020-01-19T09:02:25Z</time></trkpt>
<trkpt lat="43.701957017" lon="10.934626032"><ele>31</ele><time>2020-01-19T09:02:26Z</time></trkpt>
<trkpt lat="43.701965986" lon="10.934580015"><ele>31</ele><time>2020-01-19T09:02:27Z</time></trkpt>
<trkpt lat="43.70197596" lon="10.934535004"><ele>31</ele><time>2020-01-19T09:02:28Z</time></trkpt>
<trkpt lat="43.70198803" lon="10.934490999"><ele>31</ele><time>2020-01-19T09:02:29Z</time></trkpt>
<trkpt lat="43.702001022" lon="10.934446994"><ele>31</ele><time>2020-01-19T09:02:30Z</time></trkpt>
<trkpt lat="43.70201502" lon="10.934405001"><ele>31</ele><time>2020-01-19T09:02:31Z</time></trkpt>
<trkpt lat="43.702031029" lon="10.934363008"><ele>31</ele><time>2020-01-19T09:02:32Z</time></trkpt>
<trkpt lat="43.702047039" lon="10.93432202"><ele>31</ele><time>2020-01-19T09:02:33Z</time></trkpt>
<trkpt lat="43.70206397" lon="10.934281033"><ele>31</ele><time>2020-01-19T09:02:34Z</time></trkpt>
<trkpt lat="43.702081991" lon="10.934241973"><ele>31</ele><time>2020-01-19T09:02:35Z</time></trkpt>
<trkpt lat="43.702101018" lon="10.934202997"><ele>31</ele><time>2020-01-19T09:02:36Z</time></trkpt>
<trkpt lat="43.702119961" lon="10.934165027"><ele>31</ele><time>2020-01-19T09:02:37Z</time></trkpt>
<trkpt lat="43.702139994" lon="10.934127979"><ele>31</ele><time>2020-01-19T09:02:38Z</time></trkpt>
<trkpt lat="43.702161033" lon="10.934091015"><ele>31</ele><time>2020-01-19T09:02:39Z</time></trkpt>
<trkpt lat="43.702181987" lon="10.934055978"><ele>30</ele><time>2020-01-19T09:02:40Z</time></trkpt>
<trkpt lat="43.702203026" lon="10.934021026"><ele>30</ele><time>2020-01-19T09:02:41Z</time></trkpt>
<trkpt lat="43.702224987" lon="10.933986995"><ele>30</ele><time>2020-01-19T09:02:42Z</time></trkpt>
<trkpt lat="43.702247031" lon="10.933952965"><ele>30</ele><time>2020-01-19T09:02:43Z</time></trkpt>
<trkpt lat="43.702268992" lon="10.933920024"><ele>30</ele><time>2020-01-19T09:02:44Z</time></trkpt>
<trkpt lat="43.702291036" lon="10.933888005"><ele>30</ele><time>2020-01-19T09:02:45Z</time></trkpt>
<trkpt lat="43.702314002" lon="10.93385498"><ele>30</ele><time>2020-01-19T09:02:46Z</time></trkpt>
<trkpt lat="43.702335963" lon="10.933823967"><ele>29</ele><time>2020-01-19T09:02:47Z</time></trkpt>
<trkpt lat="43.702358007" lon="10.933792032"><ele>29</ele><time>2020-01-19T09:02:48Z</time></trkpt>
<trkpt lat="43.702380974" lon="10.933760013"><ele>29</ele><time>2020-01-19T09:02:49Z</time></trkpt>
<trkpt lat="43.702403018" lon="10.933729"><ele>29</ele><time>2020-01-19T09:02:50Z</time></trkpt>
<trkpt lat="43.702424979" lon="10.933696982"><ele>29</ele><time>2020-01-19T09:02:51Z</time></trkpt>
<trkpt lat="43.702446017" lon="10.933664963"><ele>29</ele><time>2020-01-19T09:02:52Z</time></trkpt>
<trkpt lat="43.702467978" lon="10.933633028"><ele>28</ele><time>2020-01-19T09:02:53Z</time></trkpt>
<trkpt lat="43.702489017" lon="10.933600003"><ele>28</ele><time>2020-01-19T09:02:54Z</time></trkpt>
<trkpt lat="43.702548025" lon="10.933500007"><ele>28</ele><time>2020-01-19T09:02:57Z</time></trkpt>
<trkpt lat="43.702566968" lon="10.933465976"><ele>28</ele><time>2020-01-19T09:02:58Z</time></trkpt>
<trkpt lat="43.702585995" lon="10.933431024"><ele>28</ele><time>2020-01-19T09:02:59Z</time></trkpt>
<trkpt lat="43.702604016" lon="10.933394982"><ele>28</ele><time>2020-01-19T09:03:00Z</time></trkpt>
<trkpt lat="43.702622037" lon="10.933360029"><ele>28</ele><time>2020-01-19T09:03:01Z</time></trkpt>
<trkpt lat="43.702638969" lon="10.933322981"><ele>28</ele><time>2020-01-19T09:03:02Z</time></trkpt>
<trkpt lat="43.702655984" lon="10.933287023"><ele>28</ele><time>2020-01-19T09:03:03Z</time></trkpt>
<trkpt lat="43.702671994" lon="10.933249975"><ele>28</ele><time>2020-01-19T09:03:04Z</time></trkpt>
<trkpt lat="43.702688003" lon="10.933212005"><ele>28</ele><time>2020-01-19T09:03:05Z</time></trkpt>
<trkpt lat="43.702704012" lon="10.933174035"><ele>28</ele><time>2020-01-19T09:03:06Z</time></trkpt>
<trkpt lat="43.702719016" lon="10.933135981"><ele>29</ele><time>2020-01-19T09:03:07Z</time></trkpt>
<trkpt lat="43.70273402" lon="10.933097005"><ele>29</ele><time>2020-01-19T09:03:08Z</time></trkpt>
<trkpt lat="43.702749023" lon="10.933058029"><ele>29</ele><time>2020-01-19T09:03:09Z</time></trkpt>
<trkpt lat="43.702764027" lon="10.933018969"><ele>29</ele><time>2020-01-19T09:03:10Z</time></trkpt>
<trkpt lat="43.702778025" lon="10.932978988"><ele>29</ele><time>2020-01-19T09:03:11Z</time></trkpt>
<trkpt lat="43.702792022" lon="10.932939006"><ele>29</ele><time>2020-01-19T09:03:12Z</time></trkpt>
<trkpt lat="43.70280602" lon="10.932899024"><ele>29</ele><time>2020-01-19T09:03:13Z</time></trkpt>
<trkpt lat="43.702819012" lon="10.932858037"><ele>29</ele><time>2020-01-19T09:03:14Z</time></trkpt>
<trkpt lat="43.70283301" lon="10.932817971"><ele>29</ele><time>2020-01-19T09:03:15Z</time></trkpt>
<trkpt lat="43.702846002" lon="10.932776984"><ele>29</ele><time>2020-01-19T09:03:16Z</time></trkpt>
<trkpt lat="43.702858994" lon="10.932735996"><ele>29</ele><time>2020-01-19T09:03:17Z</time></trkpt>
<trkpt lat="43.702872992" lon="10.932695009"><ele>29</ele><time>2020-01-19T09:03:18Z</time></trkpt>
<trkpt lat="43.702885984" lon="10.932653015"><ele>29</ele><time>2020-01-19T09:03:19Z</time></trkpt>
<trkpt lat="43.702899981" lon="10.932612028"><ele>29</ele><time>2020-01-19T09:03:20Z</time></trkpt>
<trkpt lat="43.702913979" lon="10.93257104"><ele>29</ele><time>2020-01-19T09:03:21Z</time></trkpt>
<trkpt lat="43.702927977" lon="10.932529969"><ele>29</ele><time>2020-01-19T09:03:22Z</time></trkpt>
<trkpt lat="43.702941975" lon="10.932487976"><ele>29</ele><time>2020-01-19T09:03:23Z</time></trkpt>
<trkpt lat="43.702956978" lon="10.932446988"><ele>29</ele><time>2020-01-19T09:03:24Z</time></trkpt>
<trkpt lat="43.702970976" lon="10.932406001"><ele>29</ele><time>2020-01-19T09:03:25Z</time></trkpt>
<trkpt lat="43.702986985" lon="10.932366019"><ele>29</ele><time>2020-01-19T09:03:26Z</time></trkpt>
<trkpt lat="43.703002995" lon="10.932325032"><ele>29</ele><time>2020-01-19T09:03:27Z</time></trkpt>
<trkpt lat="43.703019004" lon="10.932284966"><ele>29</ele><time>2020-01-19T09:03:28Z</time></trkpt>
<trkpt lat="43.703035014" lon="10.932244984"><ele>29</ele><time>2020-01-19T09:03:29Z</time></trkpt>
<trkpt lat="43.703052029" lon="10.932205003"><ele>29</ele><time>2020-01-19T09:03:30Z</time></trkpt>
<trkpt lat="43.70306896" lon="10.932165021"><ele>28</ele><time>2020-01-19T09:03:31Z</time></trkpt>
<trkpt lat="43.703086982" lon="10.932125961"><ele>28</ele><time>2020-01-19T09:03:32Z</time></trkpt>
<trkpt lat="43.703103997" lon="10.932086986"><ele>28</ele><time>2020-01-19T09:03:33Z</time></trkpt>
<trkpt lat="43.703121012" lon="10.932049016"><ele>28</ele><time>2020-01-19T09:03:34Z</time></trkpt>
<trkpt lat="43.703138027" lon="10.932010962"><ele>28</ele><time>2020-01-19T09:03:35Z</time></trkpt>
<trkpt lat="43.703154959" lon="10.931972992"><ele>28</ele><time>2020-01-19T09:03:36Z</time></trkpt>
<trkpt lat="43.703170968" lon="10.931936027"><ele>28</ele><time>2020-01-19T09:03:37Z</time></trkpt>
<trkpt lat="43.703187983" lon="10.931898979"><ele>28</ele><time>2020-01-19T09:03:38Z</time></trkpt>
<trkpt lat="43.703204999" lon="10.931864027"><ele>28</ele><time>2020-01-19T09:03:39Z</time></trkpt>
<trkpt lat="43.70322302" lon="10.931828991"><ele>28</ele><time>2020-01-19T09:03:40Z</time></trkpt>
<trkpt lat="43.703241041" lon="10.93179496"><ele>28</ele><time>2020-01-19T09:03:41Z</time></trkpt>
<trkpt lat="43.70326099" lon="10.931763025"><ele>27</ele><time>2020-01-19T09:03:42Z</time></trkpt>
<trkpt lat="43.703282028" lon="10.931731006"><ele>27</ele><time>2020-01-19T09:03:43Z</time></trkpt>
<trkpt lat="43.703303989" lon="10.931702005"><ele>27</ele><time>2020-01-19T09:03:44Z</time></trkpt>
<trkpt lat="43.703327961" lon="10.931674009"><ele>27</ele><time>2020-01-19T09:03:45Z</time></trkpt>
<trkpt lat="43.703353023" lon="10.931650037"><ele>27</ele><time>2020-01-19T09:03:46Z</time></trkpt>
<trkpt lat="43.703380013" lon="10.931628998"><ele>27</ele><time>2020-01-19T09:03:47Z</time></trkpt>
<trkpt lat="43.703407003" lon="10.931612989"><ele>27</ele><time>2020-01-19T09:03:48Z</time></trkpt>
<trkpt lat="43.703436004" lon="10.931602009"><ele>27</ele><time>2020-01-19T09:03:49Z</time></trkpt>
<trkpt lat="43.703465005" lon="10.931596979"><ele>27</ele><time>2020-01-19T09:03:50Z</time></trkpt>
<trkpt lat="43.703495013" lon="10.931598991"><ele>27</ele><time>2020-01-19T09:03:51Z</time></trkpt>
<trkpt lat="43.703526026" lon="10.93160796"><ele>27</ele><time>2020-01-19T09:03:52Z</time></trkpt>
<trkpt lat="43.703557039" lon="10.931623969"><ele>27</ele><time>2020-01-19T09:03:53Z</time></trkpt>
<trkpt lat="43.703587968" lon="10.931644002"><ele>26</ele><time>2020-01-19T09:03:54Z</time></trkpt>
<trkpt lat="43.703619987" lon="10.93166898"><ele>26</ele><time>2020-01-19T09:03:55Z</time></trkpt>
<trkpt lat="43.703651" lon="10.93169597"><ele>26</ele><time>2020-01-19T09:03:56Z</time></trkpt>
<trkpt lat="43.703683019" lon="10.931723965"><ele>26</ele><time>2020-01-19T09:03:57Z</time></trkpt>
<trkpt lat="43.703714032" lon="10.931751961"><ele>26</ele><time>2020-01-19T09:03:58Z</time></trkpt>
<trkpt lat="43.703744961" lon="10.931779034"><ele>26</ele><time>2020-01-19T09:03:59Z</time></trkpt>
<trkpt lat="43.703774968" lon="10.931805018"><ele>26</ele><time>2020-01-19T09:04:00Z</time></trkpt>
<trkpt lat="43.703804975" lon="10.931831002"><ele>26</ele><time>2020-01-19T09:04:01Z</time></trkpt>
<trkpt lat="43.703833977" lon="10.931854974"><ele>26</ele><time>2020-01-19T09:04:02Z</time></trkpt>
<trkpt lat="43.703861972" lon="10.931880036"><ele>26</ele><time>2020-01-19T09:04:03Z</time></trkpt>
<trkpt lat="43.703889968" lon="10.931904009"><ele>26</ele><time>2020-01-19T09:04:04Z</time></trkpt>
<trkpt lat="43.703917963" lon="10.931927981"><ele>25</ele><time>2020-01-19T09:04:05Z</time></trkpt>
<trkpt lat="43.703945037" lon="10.931952037"><ele>25</ele><time>2020-01-19T09:04:06Z</time></trkpt>
<trkpt lat="43.703971021" lon="10.931977015"><ele>25</ele><time>2020-01-19T09:04:07Z</time></trkpt>
<trkpt lat="43.703997005" lon="10.932001993"><ele>25</ele><time>2020-01-19T09:04:08Z</time></trkpt>
<trkpt lat="43.704022989" lon="10.932026971"><ele>25</ele><time>2020-01-19T09:04:09Z</time></trkpt>
<trkpt lat="43.704047967" lon="10.932052033"><ele>25</ele><time>2020-01-19T09:04:10Z</time></trkpt>
<trkpt lat="43.704073029" lon="10.932077011"><ele>25</ele><time>2020-01-19T09:04:11Z</time></trkpt>
<trkpt lat="43.704097001" lon="10.932101989"><ele>25</ele><time>2020-01-19T09:04:12Z</time></trkpt>
<trkpt lat="43.704121979" lon="10.932126967"><ele>25</ele><time>2020-01-19T09:04:13Z</time></trkpt>
<trkpt lat="43.704147041" lon="10.932151023"><ele>25</ele><time>2020-01-19T09:04:14Z</time></trkpt>
<trkpt lat="43.704172019" lon="10.932174996"><ele>24</ele><time>2020-01-19T09:04:15Z</time></trkpt>
<trkpt lat="43.704196997" lon="10.932197962"><ele>24</ele><time>2020-01-19T09:04:16Z</time></trkpt>
<trkpt lat="43.704222981" lon="10.932221012"><ele>24</ele><time>2020-01-19T09:04:17Z</time></trkpt>
<trkpt lat="43.704247959" lon="10.932242973"><ele>24</ele><time>2020-01-19T09:04:18Z</time></trkpt>
<trkpt lat="43.704274027" lon="10.932265017"><ele>24</ele><time>2020-01-19T09:04:19Z</time></trkpt>
<trkpt lat="43.704300011" lon="10.932286978"><ele>24</ele><time>2020-01-19T09:04:20Z</time></trkpt>
<trkpt lat="43.704324989" lon="10.932308016"><ele>24</ele><time>2020-01-19T09:04:21Z</time></trkpt>
<trkpt lat="43.704350973" lon="10.932329977"><ele>24</ele><time>2020-01-19T09:04:22Z</time></trkpt>
<trkpt lat="43.704377962" lon="10.932351016"><ele>24</ele><time>2020-01-19T09:04:23Z</time></trkpt>
<trkpt lat="43.70440403" lon="10.93237197"><ele>24</ele><time>2020-01-19T09:04:24Z</time></trkpt>
<trkpt lat="43.704430014" lon="10.932393009"><ele>24</ele><time>2020-01-19T09:04:25Z</time></trkpt>
<trkpt lat="43.704455998" lon="10.932413964"><ele>24</ele><time>2020-01-19T09:04:26Z</time></trkpt>
<trkpt lat="43.704482988" lon="10.932435002"><ele>24</ele><time>2020-01-19T09:04:27Z</time></trkpt>
<trkpt lat="43.704508971" lon="10.932456041"><ele>24</ele><time>2020-01-19T09:04:28Z</time></trkpt>
<trkpt lat="43.704535961" lon="10.932476996"><ele>24</ele><time>2020-01-19T09:04:29Z</time></trkpt>
<trkpt lat="43.704563035" lon="10.93249904"><ele>25</ele><time>2020-01-19T09:04:30Z</time></trkpt>
<trkpt lat="43.704642998" lon="10.932565005"><ele>25</ele><time>2020-01-19T09:04:33Z</time></trkpt>
<trkpt lat="43.704669988" lon="10.932586966"><ele>25</ele><time>2020-01-19T09:04:34Z</time></trkpt>
<trkpt lat="43.704696978" lon="10.932610016"><ele>25</ele><time>2020-01-19T09:04:35Z</time></trkpt>
<trkpt lat="43.704723967" lon="10.932631977"><ele>25</ele><time>2020-01-19T09:04:36Z</time></trkpt>
<trkpt lat="43.704751041" lon="10.932655027"><ele>25</ele><time>2020-01-19T09:04:37Z</time></trkpt>
<trkpt lat="43.704778031" lon="10.932677994"><ele>25</ele><time>2020-01-19T09:04:38Z</time></trkpt>
<trkpt lat="43.70480502" lon="10.932701966"><ele>25</ele><time>2020-01-19T09:04:39Z</time></trkpt>
<trkpt lat="43.70483201" lon="10.932725016"><ele>25</ele><time>2020-01-19T09:04:40Z</time></trkpt>
<trkpt lat="43.704859" lon="10.932747982"><ele>25</ele><time>2020-01-19T09:04:41Z</time></trkpt>
<trkpt lat="43.704885989" lon="10.932772039"><ele>25</ele><time>2020-01-19T09:04:42Z</time></trkpt>
<trkpt lat="43.704912979" lon="10.932796011"><ele>25</ele><time>2020-01-19T09:04:43Z</time></trkpt>
<trkpt lat="43.704940975" lon="10.932818977"><ele>25</ele><time>2020-01-19T09:04:44Z</time></trkpt>
<trkpt lat="43.704967964" lon="10.932843033"><ele>25</ele><time>2020-01-19T09:04:45Z</time></trkpt>
<trkpt lat="43.704995038" lon="10.932867005"><ele>25</ele><time>2020-01-19T09:04:46Z</time></trkpt>
<trkpt lat="43.705022028" lon="10.932890978"><ele>25</ele><time>2020-01-19T09:04:47Z</time></trkpt>
<trkpt lat="43.705049017" lon="10.932914028"><ele>24</ele><time>2020-01-19T09:04:48Z</time></trkpt>
<trkpt lat="43.705075001" lon="10.932938"><ele>24</ele><time>2020-01-19T09:04:49Z</time></trkpt>
<trkpt lat="43.705101991" lon="10.932961972"><ele>24</ele><time>2020-01-19T09:04:50Z</time></trkpt>
<trkpt lat="43.705128981" lon="10.932986028"><ele>24</ele><time>2020-01-19T09:04:51Z</time></trkpt>
<trkpt lat="43.705155971" lon="10.933010001"><ele>24</ele><time>2020-01-19T09:04:52Z</time></trkpt>
<trkpt lat="43.70518296" lon="10.933032967"><ele>24</ele><time>2020-01-19T09:04:53Z</time></trkpt>
<trkpt lat="43.705209028" lon="10.933057023"><ele>24</ele><time>2020-01-19T09:04:54Z</time></trkpt>
<trkpt lat="43.705236018" lon="10.93307999"><ele>24</ele><time>2020-01-19T09:04:55Z</time></trkpt>
<trkpt lat="43.705263007" lon="10.933103962"><ele>24</ele><time>2020-01-19T09:04:56Z</time></trkpt>
<trkpt lat="43.705288991" lon="10.933127012"><ele>24</ele><time>2020-01-19T09:04:57Z</time></trkpt>
<trkpt lat="43.705314975" lon="10.933149979"><ele>24</ele><time>2020-01-19T09:04:58Z</time></trkpt>
<trkpt lat="43.705341965" lon="10.933173029"><ele>24</ele><time>2020-01-19T09:04:59Z</time></trkpt>
<trkpt lat="43.705368033" lon="10.933195995"><ele>24</ele><time>2020-01-19T09:05:00Z</time></trkpt>
<trkpt lat="43.705394017" lon="10.933218962"><ele>24</ele><time>2020-01-19T09:05:01Z</time></trkpt>
<trkpt lat="43.70542" lon="10.933241006"><ele>24</ele><time>2020-01-19T09:05:02Z</time></trkpt>
<trkpt lat="43.705445984" lon="10.933263972"><ele>24</ele><time>2020-01-19T09:05:03Z</time></trkpt>
<trkpt lat="43.705471968" lon="10.933286017"><ele>24</ele><time>2020-01-19T09:05:04Z</time></trkpt>
<trkpt lat="43.705498036" lon="10.933306972"><ele>24</ele><time>2020-01-19T09:05:05Z</time></trkpt>
<trkpt lat="43.705523014" lon="10.933329016"><ele>24</ele><time>2020-01-19T09:05:06Z</time></trkpt>
<trkpt lat="43.705548998" lon="10.933349971"><ele>24</ele><time>2020-01-19T09:05:07Z</time></trkpt>
<trkpt lat="43.705573976" lon="10.933371009"><ele>24</ele><time>2020-01-19T09:05:08Z</time></trkpt>
<trkpt lat="43.70559996" lon="10.933390958"><ele>24</ele><time>2020-01-19T09:05:09Z</time></trkpt>
<trkpt lat="43.705625022" lon="10.933410991"><ele>24</ele><time>2020-01-19T09:05:10Z</time></trkpt>
<trkpt lat="43.705651006" lon="10.933431024"><ele>24</ele><time>2020-01-19T09:05:11Z</time></trkpt>
<trkpt lat="43.705675984" lon="10.933450973"><ele>24</ele><time>2020-01-19T09:05:12Z</time></trkpt>
<trkpt lat="43.705701968" lon="10.933471005"><ele>24</ele><time>2020-01-19T09:05:13Z</time></trkpt>
<trkpt lat="43.705728035" lon="10.933491038"><ele>24</ele><time>2020-01-19T09:05:14Z</time></trkpt>
<trkpt lat="43.705754019" lon="10.933510987"><ele>24</ele><time>2020-01-19T09:05:15Z</time></trkpt>
<trkpt lat="43.705781009" lon="10.933532026"><ele>24</ele><time>2020-01-19T09:05:16Z</time></trkpt>
<trkpt lat="43.705807999" lon="10.933553986"><ele>24</ele><time>2020-01-19T09:05:17Z</time></trkpt>
<trkpt lat="43.705834989" lon="10.933576031"><ele>24</ele><time>2020-01-19T09:05:18Z</time></trkpt>
<trkpt lat="43.705862984" lon="10.933598997"><ele>24</ele><time>2020-01-19T09:05:19Z</time></trkpt>
<trkpt lat="43.70589098" lon="10.933622969"><ele>24</ele><time>2020-01-19T09:05:20Z</time></trkpt>
<trkpt lat="43.705918975" lon="10.933647025"><ele>24</ele><time>2020-01-19T09:05:21Z</time></trkpt>
<trkpt lat="43.705946971" lon="10.933672003"><ele>24</ele><time>2020-01-19T09:05:22Z</time></trkpt>
<trkpt lat="43.70597396" lon="10.933695976"><ele>24</ele><time>2020-01-19T09:05:23Z</time></trkpt>
<trkpt lat="43.706001034" lon="10.933721038"><ele>24</ele><time>2020-01-19T09:05:24Z</time></trkpt>
<trkpt lat="43.706028024" lon="10.93374501"><ele>24</ele><time>2020-01-19T09:05:25Z</time></trkpt>
<trkpt lat="43.706054008" lon="10.933768982"><ele>24</ele><time>2020-01-19T09:05:26Z</time></trkpt>
<trkpt lat="43.706078986" lon="10.933793038"><ele>24</ele><time>2020-01-19T09:05:27Z</time></trkpt>
<trkpt lat="43.706103964" lon="10.93381701"><ele>24</ele><time>2020-01-19T09:05:28Z</time></trkpt>
<trkpt lat="43.70612802" lon="10.933840983"><ele>24</ele><time>2020-01-19T09:05:29Z</time></trkpt>
<trkpt lat="43.706151992" lon="10.933864033"><ele>24</ele><time>2020-01-19T09:05:30Z</time></trkpt>
<trkpt lat="43.706175964" lon="10.933888005"><ele>24</ele><time>2020-01-19T09:05:31Z</time></trkpt>
<trkpt lat="43.70620002" lon="10.933912983"><ele>24</ele><time>2020-01-19T09:05:32Z</time></trkpt>
<trkpt lat="43.706222987" lon="10.933937039"><ele>24</ele><time>2020-01-19T09:05:33Z</time></trkpt>
<trkpt lat="43.706246959" lon="10.933962017"><ele>24</ele><time>2020-01-19T09:05:34Z</time></trkpt>
<trkpt lat="43.706271015" lon="10.933988001"><ele>24</ele><time>2020-01-19T09:05:35Z</time></trkpt>
<trkpt lat="43.706293982" lon="10.934012979"><ele>24</ele><time>2020-01-19T09:05:36Z</time></trkpt>
<trkpt lat="43.706318038" lon="10.934038963"><ele>24</ele><time>2020-01-19T09:05:37Z</time></trkpt>
<trkpt lat="43.70634201" lon="10.934066037"><ele>24</ele><time>2020-01-19T09:05:38Z</time></trkpt>
<trkpt lat="43.706365982" lon="10.934093026"><ele>24</ele><time>2020-01-19T09:05:39Z</time></trkpt>
<trkpt lat="43.706389032" lon="10.934120016"><ele>24</ele><time>2020-01-19T09:05:40Z</time></trkpt>
<trkpt lat="43.706413005" lon="10.934148012"><ele>24</ele><time>2020-01-19T09:05:41Z</time></trkpt>
<trkpt lat="43.706436977" lon="10.934176007"><ele>24</ele><time>2020-01-19T09:05:42Z</time></trkpt>
<trkpt lat="43.706460027" lon="10.934205009"><ele>24</ele><time>2020-01-19T09:05:43Z</time></trkpt>
<trkpt lat="43.706482993" lon="10.934233004"><ele>24</ele><time>2020-01-19T09:05:44Z</time></trkpt>
<trkpt lat="43.70650596" lon="10.934263011"><ele>24</ele><time>2020-01-19T09:05:45Z</time></trkpt>
<trkpt lat="43.706530016" lon="10.934292013"><ele>24</ele><time>2020-01-19T09:05:46Z</time></trkpt>
<trkpt lat="43.706551977" lon="10.93432202"><ele>24</ele><time>2020-01-19T09:05:47Z</time></trkpt>
<trkpt lat="43.706575027" lon="10.934352027"><ele>24</ele><time>2020-01-19T09:05:48Z</time></trkpt>
<trkpt lat="43.706596987" lon="10.93438304"><ele>24</ele><time>2020-01-19T09:05:49Z</time></trkpt>
<trkpt lat="43.706620038" lon="10.93441397"><ele>24</ele><time>2020-01-19T09:05:50Z</time></trkpt>
<trkpt lat="43.706641998" lon="10.934444983"><ele>24</ele><time>2020-01-19T09:05:51Z</time></trkpt>
<trkpt lat="43.706663959" lon="10.934475996"><ele>24</ele><time>2020-01-19T09:05:52Z</time></trkpt>
<trkpt lat="43.706684997" lon="10.934508014"><ele>24</ele><time>2020-01-19T09:05:53Z</time></trkpt>
<trkpt lat="43.706707042" lon="10.934540033"><ele>24</ele><time>2020-01-19T09:05:54Z</time></trkpt>
<trkpt lat="43.706727996" lon="10.934571968"><ele>25</ele><time>2020-01-19T09:05:55Z</time></trkpt>
<trkpt lat="43.706749035" lon="10.934603987"><ele>25</ele><time>2020-01-19T09:05:56Z</time></trkpt>
<trkpt lat="43.70676999" lon="10.934636006"><ele>25</ele><time>2020-01-19T09:05:57Z</time></trkpt>
<trkpt lat="43.706791028" lon="10.934668025"><ele>25</ele><time>2020-01-19T09:05:58Z</time></trkpt>
<trkpt lat="43.706811983" lon="10.934700966"><ele>25</ele><time>2020-01-19T09:05:59Z</time></trkpt>
<trkpt lat="43.706833022" lon="10.934732985"><ele>25</ele><time>2020-01-19T09:06:00Z</time></trkpt>
<trkpt lat="43.706853976" lon="10.934765004"><ele>25</ele><time>2020-01-19T09:06:01Z</time></trkpt>
<trkpt lat="43.706875015" lon="10.934798028"><ele>25</ele><time>2020-01-19T09:06:02Z</time></trkpt>
<trkpt lat="43.706894964" lon="10.934829963"><ele>25</ele><time>2020-01-19T09:06:03Z</time></trkpt>
<trkpt lat="43.706916003" lon="10.934861982"><ele>25</ele><time>2020-01-19T09:06:04Z</time></trkpt>
<trkpt lat="43.706937041" lon="10.934894001"><ele>25</ele><time>2020-01-19T09:06:05Z</time></trkpt>
<trkpt lat="43.706957996" lon="10.93492602"><ele>25</ele><time>2020-01-19T09:06:06Z</time></trkpt>
<trkpt lat="43.706979034" lon="10.934958039"><ele>25</ele><time>2020-01-19T09:06:07Z</time></trkpt>
<trkpt lat="43.706999989" lon="10.934988968"><ele>25</ele><time>2020-01-19T09:06:08Z</time></trkpt>
<trkpt lat="43.707020022" lon="10.935020987"><ele>25</ele><time>2020-01-19T09:06:09Z</time></trkpt>
<trkpt lat="43.707040977" lon="10.935052"><ele>25</ele><time>2020-01-19T09:06:10Z</time></trkpt>
<trkpt lat="43.707062015" lon="10.935084019"><ele>25</ele><time>2020-01-19T09:06:11Z</time></trkpt>
<trkpt lat="43.70708297" lon="10.935115032"><ele>25</ele><time>2020-01-19T09:06:12Z</time></trkpt>
<trkpt lat="43.707104009" lon="10.935145961"><ele>25</ele><time>2020-01-19T09:06:13Z</time></trkpt>
<trkpt lat="43.707124963" lon="10.935176974"><ele>25</ele><time>2020-01-19T09:06:14Z</time></trkpt>
<trkpt lat="43.707146002" lon="10.935207987"><ele>25</ele><time>2020-01-19T09:06:15Z</time></trkpt>
<trkpt lat="43.707166035" lon="10.935237994"><ele>25</ele><time>2020-01-19T09:06:16Z</time></trkpt>
<trkpt lat="43.707186989" lon="10.935269007"><ele>25</ele><time>2020-01-19T09:06:17Z</time></trkpt>
<trkpt lat="43.707208028" lon="10.935300021"><ele>25</ele><time>2020-01-19T09:06:18Z</time></trkpt>
<trkpt lat="43.707228983" lon="10.935330028"><ele>25</ele><time>2020-01-19T09:06:19Z</time></trkpt>
<trkpt lat="43.707249016" lon="10.935361041"><ele>25</ele><time>2020-01-19T09:06:20Z</time></trkpt>
<trkpt lat="43.70726997" lon="10.935390964"><ele>25</ele><time>2020-01-19T09:06:21Z</time></trkpt>
<trkpt lat="43.707290003" lon="10.935421977"><ele>25</ele><time>2020-01-19T09:06:22Z</time></trkpt>
<trkpt lat="43.707311042" lon="10.935451984"><ele>25</ele><time>2020-01-19T09:06:23Z</time></trkpt>
<trkpt lat="43.707330991" lon="10.935481992"><ele>25</ele><time>2020-01-19T09:06:24Z</time></trkpt>
<trkpt lat="43.707351023" lon="10.935511999"><ele>25</ele><time>2020-01-19T09:06:25Z</time></trkpt>
<trkpt lat="43.707370972" lon="10.935543012"><ele>25</ele><time>2020-01-19T09:06:26Z</time></trkpt>
<trkpt lat="43.707392011" lon="10.935573019"><ele>25</ele><time>2020-01-19T09:06:27Z</time></trkpt>
<trkpt lat="43.707411038" lon="10.935603026"><ele>25</ele><time>2020-01-19T09:06:28Z</time></trkpt>
<trkpt lat="43.707430987" lon="10.935633034"><ele>25</ele><time>2020-01-19T09:06:29Z</time></trkpt>
<trkpt lat="43.707451019" lon="10.935663041"><ele>25</ele><time>2020-01-19T09:06:30Z</time></trkpt>
<trkpt lat="43.707470968" lon="10.935692964"><ele>25</ele><time>2020-01-19T09:06:31Z</time></trkpt>
<trkpt lat="43.707489995" lon="10.935722971"><ele>25</ele><time>2020-01-19T09:06:32Z</time></trkpt>
<trkpt lat="43.707510028" lon="10.935752979"><ele>25</ele><time>2020-01-19T09:06:33Z</time></trkpt>
<trkpt lat="43.707528971" lon="10.935782986"><ele>25</ele><time>2020-01-19T09:06:34Z</time></trkpt>
<trkpt lat="43.707547998" lon="10.935812993"><ele>25</ele><time>2020-01-19T09:06:35Z</time></trkpt>
<trkpt lat="43.707567025" lon="10.935843"><ele>25</ele><time>2020-01-19T09:06:36Z</time></trkpt>
<trkpt lat="43.707585968" lon="10.935873007"><ele>25</ele><time>2020-01-19T09:06:37Z</time></trkpt>
<trkpt lat="43.707604995" lon="10.935903015"><ele>25</ele><time>2020-01-19T09:06:38Z</time></trkpt>
<trkpt lat="43.707624022" lon="10.935933022"><ele>25</ele><time>2020-01-19T09:06:39Z</time></trkpt>
<trkpt lat="43.707642965" lon="10.935963029"><ele>25</ele><time>2020-01-19T09:06:40Z</time></trkpt>
<trkpt lat="43.707660986" lon="10.93599203"><ele>25</ele><time>2020-01-19T09:06:41Z</time></trkpt>
<trkpt lat="43.707680013" lon="10.936021032"><ele>25</ele><time>2020-01-19T09:06:42Z</time></trkpt>
<trkpt lat="43.70769904" lon="10.936050033"><ele>25</ele><time>2020-01-19T09:06:43Z</time></trkpt>
<trkpt lat="43.707718989" lon="10.936079035"><ele>25</ele><time>2020-01-19T09:06:44Z</time></trkpt>
<trkpt lat="43.707738016" lon="10.93610703"><ele>25</ele><time>2020-01-19T09:06:45Z</time></trkpt>
<trkpt lat="43.707756959" lon="10.936135026"><ele>25</ele><time>2020-01-19T09:06:46Z</time></trkpt>
<trkpt lat="43.707776992" lon="10.936163021"><ele>25</ele><time>2020-01-19T09:06:47Z</time></trkpt>
<trkpt lat="43.707797024" lon="10.936190011"><ele>25</ele><time>2020-01-19T09:06:48Z</time></trkpt>
<trkpt lat="43.707817979" lon="10.936215995"><ele>25</ele><time>2020-01-19T09:06:49Z</time></trkpt>
<trkpt lat="43.707838012" lon="10.936241979"><ele>25</ele><time>2020-01-19T09:06:50Z</time></trkpt>
<trkpt lat="43.707859972" lon="10.936267041"><ele>25</ele><time>2020-01-19T09:06:51Z</time></trkpt>
<trkpt lat="43.707881011" lon="10.936292019"><ele>25</ele><time>2020-01-19T09:06:52Z</time></trkpt>
<trkpt lat="43.707902972" lon="10.936315991"><ele>25</ele><time>2020-01-19T09:06:53Z</time></trkpt>
<trkpt lat="43.707925016" lon="10.936339963"><ele>25</ele><time>2020-01-19T09:06:54Z</time></trkpt>
<trkpt lat="43.707946977" lon="10.936363013"><ele>25</ele><time>2020-01-19T09:06:55Z</time></trkpt>
<trkpt lat="43.707970027" lon="10.93638598"><ele>25</ele><time>2020-01-19T09:06:56Z</time></trkpt>
<trkpt lat="43.707992993" lon="10.936408024"><ele>25</ele><time>2020-01-19T09:06:57Z</time></trkpt>
<trkpt lat="43.708015038" lon="10.936429985"><ele>25</ele><time>2020-01-19T09:06:58Z</time></trkpt>
<trkpt lat="43.708036998" lon="10.936452029"><ele>25</ele><time>2020-01-19T09:06:59Z</time></trkpt>
<trkpt lat="43.708059965" lon="10.936472984"><ele>25</ele><time>2020-01-19T09:07:00Z</time></trkpt>
<trkpt lat="43.708082009" lon="10.936494023"><ele>25</ele><time>2020-01-19T09:07:01Z</time></trkpt>
<trkpt lat="43.70810397" lon="10.936514977"><ele>25</ele><time>2020-01-19T09:07:02Z</time></trkpt>
<trkpt lat="43.70812702" lon="10.93653501"><ele>25</ele><time>2020-01-19T09:07:03Z</time></trkpt>
<trkpt lat="43.708149986" lon="10.936554037"><ele>25</ele><time>2020-01-19T09:07:04Z</time></trkpt>
<trkpt lat="43.708173037" lon="10.93657298"><ele>25</ele><time>2020-01-19T09:07:05Z</time></trkpt>
<trkpt lat="43.708197009" lon="10.936591001"><ele>25</ele><time>2020-01-19T09:07:06Z</time></trkpt>
<trkpt lat="43.708220981" lon="10.936608016"><ele>25</ele><time>2020-01-19T09:07:07Z</time></trkpt>
<trkpt lat="43.708245959" lon="10.936624026"><ele>25</ele><time>2020-01-19T09:07:08Z</time></trkpt>
<trkpt lat="43.708272027" lon="10.93663903"><ele>25</ele><time>2020-01-19T09:07:09Z</time></trkpt>
<trkpt lat="43.708298011" lon="10.936653027"><ele>25</ele><time>2020-01-19T09:07:10Z</time></trkpt>
<trkpt lat="43.708325" lon="10.936667025"><ele>25</ele><time>2020-01-19T09:07:11Z</time></trkpt>
<trkpt lat="43.70835199" lon="10.936679011"><ele>25</ele><time>2020-01-19T09:07:12Z</time></trkpt>
<trkpt lat="43.708379986" lon="10.936690997"><ele>25</ele><time>2020-01-19T09:07:13Z</time></trkpt>
<trkpt lat="43.708407981" lon="10.936701978"><ele>25</ele><time>2020-01-19T09:07:14Z</time></trkpt>
<trkpt lat="43.708435977" lon="10.936712036"><ele>25</ele><time>2020-01-19T09:07:15Z</time></trkpt>
<trkpt lat="43.708464978" lon="10.93672201"><ele>25</ele><time>2020-01-19T09:07:16Z</time></trkpt>
<trkpt lat="43.70849398" lon="10.936730979"><ele>25</ele><time>2020-01-19T09:07:17Z</time></trkpt>
<trkpt lat="43.708522981" lon="10.936739026"><ele>25</ele><time>2020-01-19T09:07:18Z</time></trkpt>
<trkpt lat="43.708551982" lon="10.936746988"><ele>25</ele><time>2020-01-19T09:07:19Z</time></trkpt>
<trkpt lat="43.70858199" lon="10.936754029"><ele>25</ele><time>2020-01-19T09:07:20Z</time></trkpt>
<trkpt lat="43.708610991" lon="10.936760986"><ele>25</ele><time>2020-01-19T09:07:21Z</time></trkpt>
<trkpt lat="43.708640998" lon="10.936767021"><ele>25</ele><time>2020-01-19T09:07:22Z</time></trkpt>
<trkpt lat="43.70867" lon="10.936771967"><ele>25</ele><time>2020-01-19T09:07:23Z</time></trkpt>
<trkpt lat="43.708700007" lon="10.936776996"><ele>25</ele><time>2020-01-19T09:07:24Z</time></trkpt>
<trkpt lat="43.708730014" lon="10.936782025"><ele>25</ele><time>2020-01-19T09:07:25Z</time></trkpt>
<trkpt lat="43.708759015" lon="10.93678697"><ele>25</ele><time>2020-01-19T09:07:26Z</time></trkpt>
<trkpt lat="43.708789023" lon="10.936790993"><ele>25</ele><time>2020-01-19T09:07:27Z</time></trkpt>
<trkpt lat="43.70881903" lon="10.936795017"><ele>25</ele><time>2020-01-19T09:07:28Z</time></trkpt>
<trkpt lat="43.708849037" lon="10.936799962"><ele>25</ele><time>2020-01-19T09:07:29Z</time></trkpt>
<trkpt lat="43.70887896" lon="10.936803985"><ele>25</ele><time>2020-01-19T09:07:30Z</time></trkpt>
<trkpt lat="43.708908968" lon="10.936808009"><ele>25</ele><time>2020-01-19T09:07:31Z</time></trkpt>
<trkpt lat="43.708938975" lon="10.936813038"><ele>25</ele><time>2020-01-19T09:07:32Z</time></trkpt>
<trkpt lat="43.708969988" lon="10.936817983"><ele>25</ele><time>2020-01-19T09:07:33Z</time></trkpt>
<trkpt lat="43.709001001" lon="10.936824018"><ele>25</ele><time>2020-01-19T09:07:34Z</time></trkpt>
<trkpt lat="43.709032014" lon="10.936829969"><ele>25</ele><time>2020-01-19T09:07:35Z</time></trkpt>
<trkpt lat="43.709063027" lon="10.936836004"><ele>25</ele><time>2020-01-19T09:07:36Z</time></trkpt>
<trkpt lat="43.70909404" lon="10.936842961"><ele>25</ele><time>2020-01-19T09:07:37Z</time></trkpt>
<trkpt lat="43.709125975" lon="10.936851008"><ele>25</ele><time>2020-01-19T09:07:38Z</time></trkpt>
<trkpt lat="43.709157994" lon="10.936859977"><ele>25</ele><time>2020-01-19T09:07:39Z</time></trkpt>
<trkpt lat="43.709190013" lon="10.936869029"><ele>25</ele><time>2020-01-19T09:07:40Z</time></trkpt>
<trkpt lat="43.709223038" lon="10.936879003"><ele>25</ele><time>2020-01-19T09:07:41Z</time></trkpt>
<trkpt lat="43.709255978" lon="10.936889984"><ele>25</ele><time>2020-01-19T09:07:42Z</time></trkpt>
<trkpt lat="43.709287997" lon="10.93690197"><ele>25</ele><time>2020-01-19T09:07:43Z</time></trkpt>
<trkpt lat="43.709321022" lon="10.936914962"><ele>25</ele><time>2020-01-19T09:07:44Z</time></trkpt>
<trkpt lat="43.709353963" lon="10.936928038"><ele>25</ele><time>2020-01-19T09:07:45Z</time></trkpt>
<trkpt lat="43.709386988" lon="10.936942035"><ele>25</ele><time>2020-01-19T09:07:46Z</time></trkpt>
<trkpt lat="43.709420012" lon="10.936957039"><ele>25</ele><time>2020-01-19T09:07:47Z</time></trkpt>
<trkpt lat="43.709453037" lon="10.936971959"><ele>25</ele><time>2020-01-19T09:07:48Z</time></trkpt>
<trkpt lat="43.709485978" lon="10.936987968"><ele>25</ele><time>2020-01-19T09:07:49Z</time></trkpt>
<trkpt lat="43.709517997" lon="10.937004983"><ele>25</ele><time>2020-01-19T09:07:50Z</time></trkpt>
<trkpt lat="43.709551021" lon="10.937021999"><ele>25</ele><time>2020-01-19T09:07:51Z</time></trkpt>
<trkpt lat="43.70958304" lon="10.93704002"><ele>25</ele><time>2020-01-19T09:07:52Z</time></trkpt>
<trkpt lat="43.709614975" lon="10.937058963"><ele>25</ele><time>2020-01-19T09:07:53Z</time></trkpt>
<trkpt lat="43.709645988" lon="10.93707799"><ele>25</ele><time>2020-01-19T09:07:54Z</time></trkpt>
<trkpt lat="43.709678007" lon="10.937098023"><ele>25</ele><time>2020-01-19T09:07:55Z</time></trkpt>
<trkpt lat="43.70970902" lon="10.937118977"><ele>25</ele><time>2020-01-19T09:07:56Z</time></trkpt>
<trkpt lat="43.709739028" lon="10.937140016"><ele>25</ele><time>2020-01-19T09:07:57Z</time></trkpt>
<trkpt lat="43.709770041" lon="10.937160971"><ele>25</ele><time>2020-01-19T09:07:58Z</time></trkpt>
<trkpt lat="43.709799964" lon="10.937183015"><ele>26</ele><time>2020-01-19T09:07:59Z</time></trkpt>
<trkpt lat="43.709829971" lon="10.937205981"><ele>26</ele><time>2020-01-19T09:08:00Z</time></trkpt>
<trkpt lat="43.709859978" lon="10.937228026"><ele>26</ele><time>2020-01-19T09:08:01Z</time></trkpt>
<trkpt lat="43.70988898" lon="10.937250992"><ele>26</ele><time>2020-01-19T09:08:02Z</time></trkpt>
<trkpt lat="43.709917981" lon="10.937273959"><ele>26</ele><time>2020-01-19T09:08:03Z</time></trkpt>
<trkpt lat="43.709947988" lon="10.937298015"><ele>26</ele><time>2020-01-19T09:08:04Z</time></trkpt>
<trkpt lat="43.70997699" lon="10.937320981"><ele>26</ele><time>2020-01-19T09:08:05Z</time></trkpt>
<trkpt lat="43.710005991" lon="10.937345037"><ele>26</ele><time>2020-01-19T09:08:06Z</time></trkpt>
<trkpt lat="43.710034993" lon="10.937368004"><ele>26</ele><time>2020-01-19T09:08:07Z</time></trkpt>
<trkpt lat="43.710062988" lon="10.937391976"><ele>26</ele><time>2020-01-19T09:08:08Z</time></trkpt>
<trkpt lat="43.710091989" lon="10.937416032"><ele>26</ele><time>2020-01-19T09:08:09Z</time></trkpt>
<trkpt lat="43.710120991" lon="10.937438998"><ele>26</ele><time>2020-01-19T09:08:10Z</time></trkpt>
<trkpt lat="43.710148986" lon="10.937461965"><ele>26</ele><time>2020-01-19T09:08:11Z</time></trkpt>
<trkpt lat="43.710177988" lon="10.937486021"><ele>26</ele><time>2020-01-19T09:08:12Z</time></trkpt>
<trkpt lat="43.710206989" lon="10.937508987"><ele>26</ele><time>2020-01-19T09:08:13Z</time></trkpt>
<trkpt lat="43.710234985" lon="10.937532037"><ele>26</ele><time>2020-01-19T09:08:14Z</time></trkpt>
<trkpt lat="43.710263986" lon="10.937555004"><ele>26</ele><time>2020-01-19T09:08:15Z</time></trkpt>
<trkpt lat="43.710291982" lon="10.93757797"><ele>26</ele><time>2020-01-19T09:08:16Z</time></trkpt>
<trkpt lat="43.710320983" lon="10.937600015"><ele>27</ele><time>2020-01-19T09:08:17Z</time></trkpt>
<trkpt lat="43.710348979" lon="10.937622981"><ele>27</ele><time>2020-01-19T09:08:18Z</time></trkpt>
<trkpt lat="43.710376974" lon="10.937646031"><ele>27</ele><time>2020-01-19T09:08:19Z</time></trkpt>
<trkpt lat="43.71040497" lon="10.937668998"><ele>27</ele><time>2020-01-19T09:08:20Z</time></trkpt>
<trkpt lat="43.710432965" lon="10.937690958"><ele>27</ele><time>2020-01-19T09:08:21Z</time></trkpt>
<trkpt lat="43.710460961" lon="10.937714009"><ele>27</ele><time>2020-01-19T09:08:22Z</time></trkpt>
<trkpt lat="43.71048904" lon="10.937736975"><ele>27</ele><time>2020-01-19T09:08:23Z</time></trkpt>
<trkpt lat="43.710517036" lon="10.937759019"><ele>27</ele><time>2020-01-19T09:08:24Z</time></trkpt>
<trkpt lat="43.710544026" lon="10.937781986"><ele>27</ele><time>2020-01-19T09:08:25Z</time></trkpt>
<trkpt lat="43.710572021" lon="10.937805036"><ele>27</ele><time>2020-01-19T09:08:26Z</time></trkpt>
<trkpt lat="43.710599011" lon="10.937826997"><ele>27</ele><time>2020-01-19T09:08:27Z</time></trkpt>
<trkpt lat="43.710626001" lon="10.937849963"><ele>27</ele><time>2020-01-19T09:08:28Z</time></trkpt>
<trkpt lat="43.71065299" lon="10.937873013"><ele>27</ele><time>2020-01-19T09:08:29Z</time></trkpt>
<trkpt lat="43.71067998" lon="10.93789598"><ele>27</ele><time>2020-01-19T09:08:30Z</time></trkpt>
<trkpt lat="43.71070697" lon="10.937918024"><ele>27</ele><time>2020-01-19T09:08:31Z</time></trkpt>
<trkpt lat="43.710733959" lon="10.937940991"><ele>27</ele><time>2020-01-19T09:08:32Z</time></trkpt>
<trkpt lat="43.710760027" lon="10.937964041"><ele>27</ele><time>2020-01-19T09:08:33Z</time></trkpt>
<trkpt lat="43.710786011" lon="10.937987007"><ele>27</ele><time>2020-01-19T09:08:34Z</time></trkpt>
<trkpt lat="43.710811995" lon="10.938009974"><ele>27</ele><time>2020-01-19T09:08:35Z</time></trkpt>
<trkpt lat="43.710837979" lon="10.938033024"><ele>27</ele><time>2020-01-19T09:08:36Z</time></trkpt>
<trkpt lat="43.710863963" lon="10.938056996"><ele>27</ele><time>2020-01-19T09:08:37Z</time></trkpt>
<trkpt lat="43.710889025" lon="10.938079963"><ele>27</ele><time>2020-01-19T09:08:38Z</time></trkpt>
<trkpt lat="43.710914003" lon="10.938103013"><ele>27</ele><time>2020-01-19T09:08:39Z</time></trkpt>
<trkpt lat="43.710938981" lon="10.938126985"><ele>27</ele><time>2020-01-19T09:08:40Z</time></trkpt>
<trkpt lat="43.710963959" lon="10.938151041"><ele>27</ele><time>2020-01-19T09:08:41Z</time></trkpt>
<trkpt lat="43.710989021" lon="10.938175013"><ele>27</ele><time>2020-01-19T09:08:42Z</time></trkpt>
<trkpt lat="43.711012993" lon="10.938198986"><ele>27</ele><time>2020-01-19T09:08:43Z</time></trkpt>
<trkpt lat="43.711036965" lon="10.938223042"><ele>27</ele><time>2020-01-19T09:08:44Z</time></trkpt>
<trkpt lat="43.711061021" lon="10.93824802"><ele>27</ele><time>2020-01-19T09:08:45Z</time></trkpt>
<trkpt lat="43.711084994" lon="10.938272998"><ele>27</ele><time>2020-01-19T09:08:46Z</time></trkpt>
<trkpt lat="43.71110796" lon="10.938299987"><ele>27</ele><time>2020-01-19T09:08:47Z</time></trkpt>
<trkpt lat="43.71113101" lon="10.938326977"><ele>27</ele><time>2020-01-19T09:08:48Z</time></trkpt>
<trkpt lat="43.711153977" lon="10.938354973"><ele>27</ele><time>2020-01-19T09:08:49Z</time></trkpt>
<trkpt lat="43.711177027" lon="10.938383974"><ele>27</ele><time>2020-01-19T09:08:50Z</time></trkpt>
<trkpt lat="43.711198987" lon="10.938413981"><ele>27</ele><time>2020-01-19T09:08:51Z</time></trkpt>
<trkpt lat="43.711221032" lon="10.938443989"><ele>27</ele><time>2020-01-19T09:08:52Z</time></trkpt>
<trkpt lat="43.711243998" lon="10.938473996"><ele>27</ele><time>2020-01-19T09:08:53Z</time></trkpt>
<trkpt lat="43.711265959" lon="10.938504003"><ele>27</ele><time>2020-01-19T09:08:54Z</time></trkpt>
<trkpt lat="43.711289009" lon="10.938533004"><ele>27</ele><time>2020-01-19T09:08:55Z</time></trkpt>
<trkpt lat="43.71131097" lon="10.938562006"><ele>26</ele><time>2020-01-19T09:08:56Z</time></trkpt>
<trkpt lat="43.71133402" lon="10.938588995"><ele>26</ele><time>2020-01-19T09:08:57Z</time></trkpt>
<trkpt lat="43.711357992" lon="10.938613974"><ele>26</ele><time>2020-01-19T09:08:58Z</time></trkpt>
<trkpt lat="43.711381964" lon="10.93863803"><ele>26</ele><time>2020-01-19T09:08:59Z</time></trkpt>
<trkpt lat="43.711407026" lon="10.93865999"><ele>26</ele><time>2020-01-19T09:09:00Z</time></trkpt>
<trkpt lat="43.711434016" lon="10.938679017"><ele>26</ele><time>2020-01-19T09:09:01Z</time></trkpt>
<trkpt lat="43.711462012" lon="10.938696032"><ele>26</ele><time>2020-01-19T09:09:02Z</time></trkpt>
<trkpt lat="43.711491013" lon="10.938712964"><ele>26</ele><time>2020-01-19T09:09:03Z</time></trkpt>
<trkpt lat="43.711520014" lon="10.938728973"><ele>26</ele><time>2020-01-19T09:09:04Z</time></trkpt>
<trkpt lat="43.711550022" lon="10.938745989"><ele>26</ele><time>2020-01-19T09:09:05Z</time></trkpt>
<trkpt lat="43.711579023" lon="10.938765015"><ele>26</ele><time>2020-01-19T09:09:06Z</time></trkpt>
<trkpt lat="43.711607018" lon="10.93878597"><ele>26</ele><time>2020-01-19T09:09:07Z</time></trkpt>
<trkpt lat="43.711634008" lon="10.938810026"><ele>26</ele><time>2020-01-19T09:09:08Z</time></trkpt>
<trkpt lat="43.711660998" lon="10.938833999"><ele>26</ele><time>2020-01-19T09:09:09Z</time></trkpt>
<trkpt lat="43.711686982" lon="10.938859982"><ele>26</ele><time>2020-01-19T09:09:10Z</time></trkpt>
<trkpt lat="43.71171196" lon="10.938886972"><ele>26</ele><time>2020-01-19T09:09:11Z</time></trkpt>
<trkpt lat="43.711737022" lon="10.938914968"><ele>26</ele><time>2020-01-19T09:09:12Z</time></trkpt>
<trkpt lat="43.711762" lon="10.938942963"><ele>26</ele><time>2020-01-19T09:09:13Z</time></trkpt>
<trkpt lat="43.711786978" lon="10.938970959"><ele>26</ele><time>2020-01-19T09:09:14Z</time></trkpt>
<trkpt lat="43.711811034" lon="10.93899996"><ele>26</ele><time>2020-01-19T09:09:15Z</time></trkpt>
<trkpt lat="43.711835006" lon="10.93902804"><ele>26</ele><time>2020-01-19T09:09:16Z</time></trkpt>
<trkpt lat="43.711859984" lon="10.939056035"><ele>26</ele><time>2020-01-19T09:09:17Z</time></trkpt>
<trkpt lat="43.711884962" lon="10.939083025"><ele>26</ele><time>2020-01-19T09:09:18Z</time></trkpt>
<trkpt lat="43.711910024" lon="10.939110015"><ele>26</ele><time>2020-01-19T09:09:19Z</time></trkpt>
<trkpt lat="43.711935002" lon="10.939135998"><ele>26</ele><time>2020-01-19T09:09:20Z</time></trkpt>
<trkpt lat="43.711960986" lon="10.939159971"><ele>26</ele><time>2020-01-19T09:09:21Z</time></trkpt>
<trkpt lat="43.711987976" lon="10.939184027"><ele>26</ele><time>2020-01-19T09:09:22Z</time></trkpt>
<trkpt lat="43.712014966" lon="10.939206993"><ele>26</ele><time>2020-01-19T09:09:23Z</time></trkpt>
<trkpt lat="43.712042039" lon="10.939229038"><ele>26</ele><time>2020-01-19T09:09:24Z</time></trkpt>
<trkpt lat="43.712070035" lon="10.939250998"><ele>26</ele><time>2020-01-19T09:09:25Z</time></trkpt>
<trkpt lat="43.712097025" lon="10.939272959"><ele>26</ele><time>2020-01-19T09:09:26Z</time></trkpt>
<trkpt lat="43.71212502" lon="10.939295003"><ele>26</ele><time>2020-01-19T09:09:27Z</time></trkpt>
<trkpt lat="43.71215201" lon="10.93931797"><ele>26</ele><time>2020-01-19T09:09:28Z</time></trkpt>
<trkpt lat="43.712179" lon="10.93934102"><ele>26</ele><time>2020-01-19T09:09:29Z</time></trkpt>
<trkpt lat="43.712205989" lon="10.939363986"><ele>26</ele><time>2020-01-19T09:09:30Z</time></trkpt>
<trkpt lat="43.712232979" lon="10.939387958"><ele>26</ele><time>2020-01-19T09:09:31Z</time></trkpt>
<trkpt lat="43.712259969" lon="10.939412015"><ele>26</ele><time>2020-01-19T09:09:32Z</time></trkpt>
<trkpt lat="43.712286036" lon="10.939435987"><ele>26</ele><time>2020-01-19T09:09:33Z</time></trkpt>
<trkpt lat="43.712313026" lon="10.939459959"><ele>26</ele><time>2020-01-19T09:09:34Z</time></trkpt>
<trkpt lat="43.71233901" lon="10.939485021"><ele>26</ele><time>2020-01-19T09:09:35Z</time></trkpt>
<trkpt lat="43.712364994" lon="10.939508993"><ele>26</ele><time>2020-01-19T09:09:36Z</time></trkpt>
<trkpt lat="43.712390978" lon="10.939533971"><ele>26</ele><time>2020-01-19T09:09:37Z</time></trkpt>
<trkpt lat="43.712416962" lon="10.939559033"><ele>26</ele><time>2020-01-19T09:09:38Z</time></trkpt>
<trkpt lat="43.71244303" lon="10.939583005"><ele>26</ele><time>2020-01-19T09:09:39Z</time></trkpt>
<trkpt lat="43.712469013" lon="10.939607983"><ele>27</ele><time>2020-01-19T09:09:40Z</time></trkpt>
<trkpt lat="43.712494997" lon="10.93963204"><ele>27</ele><time>2020-01-19T09:09:41Z</time></trkpt>
<trkpt lat="43.712520981" lon="10.939656012"><ele>27</ele><time>2020-01-19T09:09:42Z</time></trkpt>
<trkpt lat="43.712546965" lon="10.939678978"><ele>27</ele><time>2020-01-19T09:09:43Z</time></trkpt>
<trkpt lat="43.712573033" lon="10.939703034"><ele>27</ele><time>2020-01-19T09:09:44Z</time></trkpt>
<trkpt lat="43.712599017" lon="10.939724995"><ele>27</ele><time>2020-01-19T09:09:45Z</time></trkpt>
<trkpt lat="43.712626006" lon="10.939747961"><ele>27</ele><time>2020-01-19T09:09:46Z</time></trkpt>
<trkpt lat="43.71265199" lon="10.939770006"><ele>27</ele><time>2020-01-19T09:09:47Z</time></trkpt>
<trkpt lat="43.712677974" lon="10.93979096"><ele>27</ele><time>2020-01-19T09:09:48Z</time></trkpt>
<trkpt lat="43.712704964" lon="10.939813005"><ele>27</ele><time>2020-01-19T09:09:49Z</time></trkpt>
<trkpt lat="43.712731032" lon="10.93983396"><ele>27</ele><time>2020-01-19T09:09:50Z</time></trkpt>
<trkpt lat="43.712758021" lon="10.939854998"><ele>27</ele><time>2020-01-19T09:09:51Z</time></trkpt>
<trkpt lat="43.712784005" lon="10.939876037"><ele>27</ele><time>2020-01-19T09:09:52Z</time></trkpt>
<trkpt lat="43.712810995" lon="10.939896991"><ele>27</ele><time>2020-01-19T09:09:53Z</time></trkpt>
<trkpt lat="43.712836979" lon="10.93991803"><ele>27</ele><time>2020-01-19T09:09:54Z</time></trkpt>
<trkpt lat="43.712863969" lon="10.939937979"><ele>27</ele><time>2020-01-19T09:09:55Z</time></trkpt>
<trkpt lat="43.712890036" lon="10.939959018"><ele>27</ele><time>2020-01-19T09:09:56Z</time></trkpt>
<trkpt lat="43.71291602" lon="10.939979972"><ele>27</ele><time>2020-01-19T09:09:57Z</time></trkpt>
<trkpt lat="43.71294301" lon="10.940001011"><ele>27</ele><time>2020-01-19T09:09:58Z</time></trkpt>
<trkpt lat="43.712968994" lon="10.940022971"><ele>26</ele><time>2020-01-19T09:09:59Z</time></trkpt>
<trkpt lat="43.712994978" lon="10.94004401"><ele>26</ele><time>2020-01-19T09:10:00Z</time></trkpt>
<trkpt lat="43.713020962" lon="10.940065971"><ele>26</ele><time>2020-01-19T09:10:01Z</time></trkpt>
<trkpt lat="43.713046024" lon="10.940088015"><ele>26</ele><time>2020-01-19T09:10:02Z</time></trkpt>
<trkpt lat="43.713072008" lon="10.940109976"><ele>26</ele><time>2020-01-19T09:10:03Z</time></trkpt>
<trkpt lat="43.713097991" lon="10.940133026"><ele>26</ele><time>2020-01-19T09:10:04Z</time></trkpt>
<trkpt lat="43.713123975" lon="10.940155992"><ele>26</ele><time>2020-01-19T09:10:05Z</time></trkpt>
<trkpt lat="43.713149959" lon="10.940178959"><ele>26</ele><time>2020-01-19T09:10:06Z</time></trkpt>
<trkpt lat="43.713175021" lon="10.940202009"><ele>26</ele><time>2020-01-19T09:10:07Z</time></trkpt>
<trkpt lat="43.713201005" lon="10.940224975"><ele>26</ele><time>2020-01-19T09:10:08Z</time></trkpt>
<trkpt lat="43.713227995" lon="10.940248026"><ele>26</ele><time>2020-01-19T09:10:09Z</time></trkpt>
<trkpt lat="43.713253979" lon="10.940270992"><ele>25</ele><time>2020-01-19T09:10:10Z</time></trkpt>
<trkpt lat="43.713279963" lon="10.940294964"><ele>25</ele><time>2020-01-19T09:10:11Z</time></trkpt>
<trkpt lat="43.713307036" lon="10.940318014"><ele>25</ele><time>2020-01-19T09:10:12Z</time></trkpt>
<trkpt lat="43.713334026" lon="10.940340981"><ele>25</ele><time>2020-01-19T09:10:13Z</time></trkpt>
<trkpt lat="43.713361016" lon="10.940365037"><ele>25</ele><time>2020-01-19T09:10:14Z</time></trkpt>
<trkpt lat="43.713389011" lon="10.940388003"><ele>25</ele><time>2020-01-19T09:10:15Z</time></trkpt>
<trkpt lat="43.713417007" lon="10.94041097"><ele>25</ele><time>2020-01-19T09:10:16Z</time></trkpt>
<trkpt lat="43.713445002" lon="10.94043402"><ele>25</ele><time>2020-01-19T09:10:17Z</time></trkpt>
<trkpt lat="43.713472998" lon="10.940456986"><ele>25</ele><time>2020-01-19T09:10:18Z</time></trkpt>
<trkpt lat="43.713501999" lon="10.940480037"><ele>25</ele><time>2020-01-19T09:10:19Z</time></trkpt>
<trkpt lat="43.713531001" lon="10.940503003"><ele>25</ele><time>2020-01-19T09:10:20Z</time></trkpt>
<trkpt lat="43.713560002" lon="10.940525969"><ele>25</ele><time>2020-01-19T09:10:21Z</time></trkpt>
<trkpt lat="43.713589003" lon="10.940548014"><ele>25</ele><time>2020-01-19T09:10:22Z</time></trkpt>
<trkpt lat="43.713618005" lon="10.94057098"><ele>25</ele><time>2020-01-19T09:10:23Z</time></trkpt>
<trkpt lat="43.713647006" lon="10.940593025"><ele>25</ele><time>2020-01-19T09:10:24Z</time></trkpt>
<trkpt lat="43.713673996" lon="10.940616997"><ele>25</ele><time>2020-01-19T09:10:25Z</time></trkpt>
<trkpt lat="43.713698974" lon="10.940643987"><ele>25</ele><time>2020-01-19T09:10:26Z</time></trkpt>
<trkpt lat="43.713719007" lon="10.940676006"><ele>25</ele><time>2020-01-19T09:10:27Z</time></trkpt>
<trkpt lat="43.713733004" lon="10.94071297"><ele>25</ele><time>2020-01-19T09:10:28Z</time></trkpt>
<trkpt lat="43.713742979" lon="10.940754963"><ele>25</ele><time>2020-01-19T09:10:29Z</time></trkpt>
<trkpt lat="43.713747002" lon="10.940799974"><ele>25</ele><time>2020-01-19T09:10:30Z</time></trkpt>
<trkpt lat="43.713749014" lon="10.940846996"><ele>25</ele><time>2020-01-19T09:10:31Z</time></trkpt>
<trkpt lat="43.713747002" lon="10.940895025"><ele>24</ele><time>2020-01-19T09:10:32Z</time></trkpt>
<trkpt lat="43.713742979" lon="10.940941963"><ele>24</ele><time>2020-01-19T09:10:33Z</time></trkpt>
<trkpt lat="43.713738034" lon="10.940989992"><ele>24</ele><time>2020-01-19T09:10:34Z</time></trkpt>
<trkpt lat="43.713730993" lon="10.941037014"><ele>24</ele><time>2020-01-19T09:10:35Z</time></trkpt>
<trkpt lat="43.71372303" lon="10.941084037"><ele>24</ele><time>2020-01-19T09:10:36Z</time></trkpt>
<trkpt lat="43.713713977" lon="10.941129969"><ele>24</ele><time>2020-01-19T09:10:37Z</time></trkpt>
<trkpt lat="43.713706015" lon="10.941175986"><ele>24</ele><time>2020-01-19T09:10:38Z</time></trkpt>
<trkpt lat="43.713697968" lon="10.941220997"><ele>24</ele><time>2020-01-19T09:10:39Z</time></trkpt>
<trkpt lat="43.713691011" lon="10.941265002"><ele>24</ele><time>2020-01-19T09:10:40Z</time></trkpt>
<trkpt lat="43.713684976" lon="10.941308001"><ele>24</ele><time>2020-01-19T09:10:41Z</time></trkpt>
<trkpt lat="43.713679025" lon="10.941349994"><ele>24</ele><time>2020-01-19T09:10:42Z</time></trkpt>
<trkpt lat="43.713673996" lon="10.941391988"><ele>24</ele><time>2020-01-19T09:10:43Z</time></trkpt>
<trkpt lat="43.713668967" lon="10.941433981"><ele>24</ele><time>2020-01-19T09:10:44Z</time></trkpt>
<trkpt lat="43.713665027" lon="10.941475974"><ele>24</ele><time>2020-01-19T09:10:45Z</time></trkpt>
<trkpt lat="43.713661004" lon="10.941516962"><ele>23</ele><time>2020-01-19T09:10:46Z</time></trkpt>
<trkpt lat="43.713656981" lon="10.941559039"><ele>23</ele><time>2020-01-19T09:10:47Z</time></trkpt>
<trkpt lat="43.713653041" lon="10.941601032"><ele>23</ele><time>2020-01-19T09:10:48Z</time></trkpt>
<trkpt lat="43.713649018" lon="10.941644032"><ele>23</ele><time>2020-01-19T09:10:49Z</time></trkpt>
<trkpt lat="43.713644994" lon="10.941686025"><ele>23</ele><time>2020-01-19T09:10:50Z</time></trkpt>
<trkpt lat="43.713640971" lon="10.941729024"><ele>23</ele><time>2020-01-19T09:10:51Z</time></trkpt>
<trkpt lat="43.713637032" lon="10.941772023"><ele>23</ele><time>2020-01-19T09:10:52Z</time></trkpt>
<trkpt lat="43.713633008" lon="10.941815022"><ele>23</ele><time>2020-01-19T09:10:53Z</time></trkpt>
<trkpt lat="43.713628985" lon="10.941858022"><ele>23</ele><time>2020-01-19T09:10:54Z</time></trkpt>
<trkpt lat="43.713624962" lon="10.941901021"><ele>23</ele><time>2020-01-19T09:10:55Z</time></trkpt>
<trkpt lat="43.713612976" lon="10.94203203"><ele>23</ele><time>2020-01-19T09:10:58Z</time></trkpt>
<trkpt lat="43.713609036" lon="10.942076035"><ele>24</ele><time>2020-01-19T09:10:59Z</time></trkpt>
<trkpt lat="43.713605013" lon="10.942119034"><ele>24</ele><time>2020-01-19T09:11:00Z</time></trkpt>
<trkpt lat="43.713599984" lon="10.942163039"><ele>24</ele><time>2020-01-19T09:11:01Z</time></trkpt>
<trkpt lat="43.713595038" lon="10.94220696"><ele>24</ele><time>2020-01-19T09:11:02Z</time></trkpt>
<trkpt lat="43.713591015" lon="10.942250965"><ele>24</ele><time>2020-01-19T09:11:03Z</time></trkpt>
<trkpt lat="43.713585986" lon="10.94229497"><ele>24</ele><time>2020-01-19T09:11:04Z</time></trkpt>
<trkpt lat="43.713580035" lon="10.942338975"><ele>24</ele><time>2020-01-19T09:11:05Z</time></trkpt>
<trkpt lat="43.713575006" lon="10.942381974"><ele>24</ele><time>2020-01-19T09:11:06Z</time></trkpt>
<trkpt lat="43.713568971" lon="10.942425979"><ele>24</ele><time>2020-01-19T09:11:07Z</time></trkpt>
<trkpt lat="43.713564025" lon="10.942469984"><ele>24</ele><time>2020-01-19T09:11:08Z</time></trkpt>
<trkpt lat="43.713556984" lon="10.942513989"><ele>24</ele><time>2020-01-19T09:11:09Z</time></trkpt>
<trkpt lat="43.713551033" lon="10.942556988"><ele>24</ele><time>2020-01-19T09:11:10Z</time></trkpt>
<trkpt lat="43.713543992" lon="10.942600993"><ele>24</ele><time>2020-01-19T09:11:11Z</time></trkpt>
<trkpt lat="43.713537036" lon="10.942643993"><ele>24</ele><time>2020-01-19T09:11:12Z</time></trkpt>
<trkpt lat="43.713529995" lon="10.942686992"><ele>24</ele><time>2020-01-19T09:11:13Z</time></trkpt>
<trkpt lat="43.713523038" lon="10.942729991"><ele>24</ele><time>2020-01-19T09:11:14Z</time></trkpt>
<trkpt lat="43.713514991" lon="10.94277299"><ele>24</ele><time>2020-01-19T09:11:15Z</time></trkpt>
<trkpt lat="43.713506022" lon="10.942815989"><ele>24</ele><time>2020-01-19T09:11:16Z</time></trkpt>
<trkpt lat="43.713497976" lon="10.942857983"><ele>24</ele><time>2020-01-19T09:11:17Z</time></trkpt></trkseg></trk><wpt lat="43.713497976" lon="10.942857983"><name>Finish km:13.733, Lat:43.7135, Lon:10.9429</name><sym>Finish</sym><ele>24</ele></wpt><wpt lat="43.711752025" lon="10.933360029"><name>km:1, Lat:43.7118, Lon:10.9334</name><ele>22</ele></wpt><wpt lat="43.706641998" lon="10.926755005"><name>km:2, Lat:43.7066, Lon:10.9268</name><ele>26</ele></wpt><wpt lat="43.702721028" lon="10.919303996"><name>km:3, Lat:43.7027, Lon:10.9193</name><ele>38</ele></wpt><wpt lat="43.699648976" lon="10.925652031"><name>km:4, Lat:43.6996, Lon:10.9257</name><ele>43</ele></wpt><wpt lat="43.701847969" lon="10.930399038"><name>km:5, Lat:43.7018, Lon:10.9304</name><ele>44</ele></wpt><wpt lat="43.696637023" lon="10.93541502"><name>km:6, Lat:43.6966, Lon:10.9354</name><ele>65</ele></wpt><wpt lat="43.689506035" lon="10.931487009"><name>km:7, Lat:43.6895, Lon:10.9315</name><ele>92</ele></wpt><wpt lat="43.683762001" lon="10.936538028"><name>km:8, Lat:43.6838, Lon:10.9365</name><ele>106</ele></wpt><wpt lat="43.683875995" lon="10.945600038"><name>km:9, Lat:43.6839, Lon:10.9456</name><ele>126</ele></wpt><wpt lat="43.691704022" lon="10.94210797"><name>km:10, Lat:43.6917, Lon:10.9421</name><ele>91</ele></wpt><wpt lat="43.700308967" lon="10.941567002"><name>km:11, Lat:43.7003, Lon:10.9416</name><ele>33</ele></wpt><wpt lat="43.702566968" lon="10.933465976"><name>km:12, Lat:43.7026, Lon:10.9335</name><ele>28</ele></wpt><wpt lat="43.709485978" lon="10.936987968"><name>km:13, Lat:43.7095, Lon:10.937</name><ele>25</ele></wpt></gpx>
